Wetterdaten: aktuell Donnerstag, 20.02.2020 22:42
Datum Zeit Temp. I. Temp 2m Feuchte I. Luftf 2m Luftdruck Regen Wind Richtung Richtung Sonnenschein ET UV Solar Taupunkt Windchill Windben Empfang
20.02.2020 22:42 16,7 C 1,8 C 35 % 80 % 1020,5 hPa 0,0 l/m 3,2 km/h (1 Bft) SW 225 0 min 0,000 mm 0,0 UV-I 0 W/m -1,3 C 1,8 C 6,4 km/h (2 Bft) 95,65 %
20.02.2020 22:41 16,8 C 1,8 C 35 % 80 % 1020,5 hPa 0,0 l/m 1,6 km/h (1 Bft) SW 225 0 min 0,000 mm 0,0 UV-I 0 W/m -1,3 C 1,8 C 3,2 km/h (1 Bft) 95,65 %
20.02.2020 22:40 16,7 C 1,9 C 35 % 80 % 1020,5 hPa 0,0 l/m 1,6 km/h (1 Bft) SW 225 0 min 0,000 mm 0,0 UV-I 0 W/m -1,2 C 1,9 C 3,2 km/h (1 Bft) 100,00 %
20.02.2020 22:39 16,8 C 1,9 C 35 % 79 % 1020,5 hPa 0,0 l/m 1,6 km/h (1 Bft) SW 225 0 min 0,000 mm 0,0 UV-I 0 W/m -1,3 C 1,9 C 3,2 km/h (1 Bft) 100,00 %
20.02.2020 22:38 16,7 C 2,0 C 35 % 79 % 1020,6 hPa 0,0 l/m 1,6 km/h (1 Bft) SW 225 0 min 0,000 mm 0,0 UV-I 0 W/m -1,2 C 2,0 C 3,2 km/h (1 Bft) 95,65 %
20.02.2020 22:37 16,8 C 2,0 C 35 % 80 % 1020,6 hPa 0,0 l/m 1,6 km/h (1 Bft) SW 225 0 min 0,000 mm 0,0 UV-I 0 W/m -1,1 C 2,0 C 3,2 km/h (1 Bft) 95,65 %
20.02.2020 22:36 16,8 C 2,0 C 35 % 79 % 1020,6 hPa 0,0 l/m 3,2 km/h (1 Bft) SW 225 0 min 0,000 mm 0,0 UV-I 0 W/m -1,2 C 2,0 C 4,8 km/h (1 Bft) 100,00 %
20.02.2020 22:35 16,8 C 2,1 C 35 % 79 % 1020,6 hPa 0,0 l/m 1,6 km/h (1 Bft) SW 225 0 min 0,000 mm 0,0 UV-I 0 W/m -1,2 C 2,1 C 3,2 km/h (1 Bft) 95,65 %
20.02.2020 22:34 16,7 C 2,0 C 35 % 79 % 1020,6 hPa 0,0 l/m 1,6 km/h (1 Bft) SW 225 0 min 0,000 mm 0,0 UV-I 0 W/m -1,2 C 2,0 C 3,2 km/h (1 Bft) 100,00 %
20.02.2020 22:33 16,8 C 2,0 C 35 % 80 % 1020,6 hPa 0,0 l/m 1,6 km/h (1 Bft) S 180 0 min 0,000 mm 0,0 UV-I 0 W/m -1,1 C 2,0 C 3,2 km/h (1 Bft) 100,00 %
20.02.2020 22:32 16,8 C 2,1 C 35 % 80 % 1020,5 hPa 0,0 l/m 0,0 km/h (0 Bft) S 180 0 min 0,000 mm 0,0 UV-I 0 W/m -1,0 C 2,1 C 1,6 km/h (1 Bft) 100,00 %
20.02.2020 22:31 16,7 C 2,0 C 35 % 80 % 1020,6 hPa 0,0 l/m 1,6 km/h (1 Bft) S 180 0 min 0,000 mm 0,0 UV-I 0 W/m -1,1 C 2,0 C 4,8 km/h (1 Bft) 100,00 %
20.02.2020 22:30 16,8 C 1,9 C 35 % 80 % 1020,5 hPa 0,0 l/m 3,2 km/h (1 Bft) S 180 0 min 0,000 mm 0,0 UV-I 0 W/m -1,2 C 1,9 C 6,4 km/h (2 Bft) 100,00 %
20.02.2020 22:29 16,8 C 1,9 C 35 % 80 % 1020,7 hPa 0,0 l/m 3,2 km/h (1 Bft) SW 225 0 min 0,000 mm 0,0 UV-I 0 W/m -1,2 C 1,9 C 6,4 km/h (2 Bft) 100,00 %
20.02.2020 22:28 16,8 C 1,9 C 35 % 80 % 1020,6 hPa 0,0 l/m 1,6 km/h (1 Bft) S 180 0 min 0,000 mm 0,0 UV-I 0 W/m -1,2 C 1,9 C 4,8 km/h (1 Bft) 95,65 %
20.02.2020 22:27 16,8 C 1,9 C 35 % 80 % 1020,6 hPa 0,0 l/m 1,6 km/h (1 Bft) S-SW 202 0 min 0,000 mm 0,0 UV-I 0 W/m -1,2 C 1,9 C 3,2 km/h (1 Bft) 100,00 %
20.02.2020 22:26 16,8 C 1,9 C 35 % 80 % 1020,6 hPa 0,0 l/m 1,6 km/h (1 Bft) S-SW 202 0 min 0,000 mm 0,0 UV-I 0 W/m -1,2 C 1,9 C 1,6 km/h (1 Bft) 95,65 %
20.02.2020 22:25 16,8 C 1,9 C 35 % 80 % 1020,6 hPa 0,0 l/m 1,6 km/h (1 Bft) S-SW 202 0 min 0,000 mm 0,0 UV-I 0 W/m -1,2 C 1,9 C 3,2 km/h (1 Bft) 100,00 %
20.02.2020 22:24 16,8 C 1,9 C 35 % 80 % 1020,6 hPa 0,0 l/m 0,0 km/h (0 Bft) S-SW 202 0 min 0,000 mm 0,0 UV-I 0 W/m -1,2 C 1,9 C 1,6 km/h (1 Bft) 95,65 %
20.02.2020 22:23 16,8 C 1,9 C 35 % 80 % 1020,5 hPa 0,0 l/m 1,6 km/h (1 Bft) S-SW 202 0 min 0,000 mm 0,0 UV-I 0 W/m -1,2 C 1,9 C 3,2 km/h (1 Bft) 100,00 %
20.02.2020 22:22 16,8 C 1,9 C 35 % 80 % 1020,5 hPa 0,0 l/m 1,6 km/h (1 Bft) S-SW 202 0 min 0,000 mm 0,0 UV-I 0 W/m -1,2 C 1,9 C 3,2 km/h (1 Bft) 100,00 %
20.02.2020 22:21 16,8 C 2,0 C 35 % 80 % 1020,6 hPa 0,0 l/m 1,6 km/h (1 Bft) S-SW 202 0 min 0,000 mm 0,0 UV-I 0 W/m -1,1 C 2,0 C 6,4 km/h (2 Bft) 95,65 %
20.02.2020 22:20 16,8 C 2,0 C 35 % 80 % 1020,5 hPa 0,0 l/m 1,6 km/h (1 Bft) SW 225 0 min 0,000 mm 0,0 UV-I 0 W/m -1,1 C 2,0 C 3,2 km/h (1 Bft) 100,00 %
20.02.2020 22:19 16,8 C 2,0 C 35 % 80 % 1020,6 hPa 0,0 l/m 0,0 km/h (0 Bft) SW 225 0 min 0,000 mm 0,0 UV-I 0 W/m -1,1 C 2,0 C 1,6 km/h (1 Bft) 100,00 %
20.02.2020 22:18 16,8 C 2,1 C 35 % 80 % 1020,5 hPa 0,0 l/m 1,6 km/h (1 Bft) SW 225 0 min 0,000 mm 0,0 UV-I 0 W/m -1,0 C 2,1 C 3,2 km/h (1 Bft) 100,00 %
20.02.2020 22:17 16,8 C 2,1 C 35 % 79 % 1020,6 hPa 0,0 l/m 1,6 km/h (1 Bft) SW 225 0 min 0,000 mm 0,0 UV-I 0 W/m -1,2 C 2,1 C 3,2 km/h (1 Bft) 100,00 %
20.02.2020 22:16 16,8 C 2,1 C 35 % 79 % 1020,7 hPa 0,0 l/m 1,6 km/h (1 Bft) SW 225 0 min 0,000 mm 0,0 UV-I 0 W/m -1,2 C 2,1 C 3,2 km/h (1 Bft) 95,65 %
20.02.2020 22:15 16,8 C 2,1 C 35 % 80 % 1020,6 hPa 0,0 l/m 1,6 km/h (1 Bft) SW 225 0 min 0,000 mm 0,0 UV-I 0 W/m -1,0 C 2,1 C 3,2 km/h (1 Bft) 100,00 %
20.02.2020 22:14 16,8 C 2,1 C 35 % 79 % 1020,5 hPa 0,0 l/m 1,6 km/h (1 Bft) SW 225 0 min 0,000 mm 0,0 UV-I 0 W/m -1,2 C 2,1 C 3,2 km/h (1 Bft) 100,00 %
20.02.2020 22:13 16,8 C 2,1 C 35 % 79 % 1020,6 hPa 0,0 l/m 1,6 km/h (1 Bft) SW 225 0 min 0,000 mm 0,0 UV-I 0 W/m -1,2 C 2,1 C 3,2 km/h (1 Bft) 100,00 %
20.02.2020 22:12 16,8 C 2,2 C 35 % 79 % 1020,6 hPa 0,0 l/m 0,0 km/h (0 Bft) SW 225 0 min 0,000 mm 0,0 UV-I 0 W/m -1,1 C 2,2 C 1,6 km/h (1 Bft) 100,00 %
20.02.2020 22:11 16,8 C 2,2 C 35 % 79 % 1020,6 hPa 0,0 l/m 3,2 km/h (1 Bft) SW 225 0 min 0,000 mm 0,0 UV-I 0 W/m -1,1 C 2,2 C 4,8 km/h (1 Bft) 95,65 %
20.02.2020 22:10 16,8 C 2,3 C 35 % 78 % 1020,5 hPa 0,0 l/m 4,8 km/h (1 Bft) SW 225 0 min 0,000 mm 0,0 UV-I 0 W/m -1,1 C 2,3 C 6,4 km/h (2 Bft) 100,00 %
20.02.2020 22:09 16,8 C 2,2 C 35 % 79 % 1020,6 hPa 0,0 l/m 3,2 km/h (1 Bft) W-NW 292 0 min 0,000 mm 0,0 UV-I 0 W/m -1,1 C 2,2 C 6,4 km/h (2 Bft) 100,00 %
20.02.2020 22:08 16,8 C 2,2 C 35 % 79 % 1020,6 hPa 0,0 l/m 3,2 km/h (1 Bft) W-NW 292 0 min 0,000 mm 0,0 UV-I 0 W/m -1,1 C 2,2 C 4,8 km/h (1 Bft) 100,00 %
20.02.2020 22:07 16,8 C 2,2 C 35 % 79 % 1020,5 hPa 0,0 l/m 0,0 km/h (0 Bft) W 270 0 min 0,000 mm 0,0 UV-I 0 W/m -1,1 C 2,2 C 1,6 km/h (1 Bft) 95,65 %
20.02.2020 22:06 16,8 C 2,2 C 35 % 79 % 1020,6 hPa 0,0 l/m 1,6 km/h (1 Bft) W 270 0 min 0,000 mm 0,0 UV-I 0 W/m -1,1 C 2,2 C 3,2 km/h (1 Bft) 100,00 %
20.02.2020 22:05 16,8 C 2,1 C 35 % 79 % 1020,6 hPa 0,0 l/m 1,6 km/h (1 Bft) W 270 0 min 0,000 mm 0,0 UV-I 0 W/m -1,2 C 2,1 C 4,8 km/h (1 Bft) 100,00 %
20.02.2020 22:04 16,8 C 2,0 C 35 % 80 % 1020,6 hPa 0,0 l/m 1,6 km/h (1 Bft) W 270 0 min 0,000 mm 0,0 UV-I 0 W/m -1,1 C 2,0 C 3,2 km/h (1 Bft) 100,00 %
20.02.2020 22:03 16,8 C 1,9 C 35 % 80 % 1020,6 hPa 0,0 l/m 3,2 km/h (1 Bft) W 270 0 min 0,000 mm 0,0 UV-I 0 W/m -1,2 C 1,9 C 4,8 km/h (1 Bft) 100,00 %
20.02.2020 22:02 16,8 C 1,8 C 35 % 81 % 1020,6 hPa 0,0 l/m 3,2 km/h (1 Bft) SW 225 0 min 0,000 mm 0,0 UV-I 0 W/m -1,1 C 1,8 C 6,4 km/h (2 Bft) 100,00 %
20.02.2020 22:01 16,8 C 1,9 C 35 % 80 % 1020,6 hPa 0,0 l/m 1,6 km/h (1 Bft) SW 225 0 min 0,000 mm 0,0 UV-I 0 W/m -1,2 C 1,9 C 3,2 km/h (1 Bft) 100,00 %
20.02.2020 22:00 16,8 C 1,9 C 35 % 80 % 1020,5 hPa 0,0 l/m 4,8 km/h (1 Bft) S 180 0 min 0,000 mm 0,0 UV-I 0 W/m -1,2 C 1,9 C 9,7 km/h (2 Bft) 95,65 %
20.02.2020 21:59 16,8 C 1,9 C 35 % 80 % 1020,6 hPa 0,0 l/m 3,2 km/h (1 Bft) S-SW 202 0 min 0,000 mm 0,0 UV-I 0 W/m -1,2 C 1,9 C 4,8 km/h (1 Bft) 91,30 %
20.02.2020 21:58 16,8 C 1,9 C 35 % 80 % 1020,6 hPa 0,0 l/m 1,6 km/h (1 Bft) W-SW 247 0 min 0,000 mm 0,0 UV-I 0 W/m -1,2 C 1,9 C 3,2 km/h (1 Bft) 100,00 %
20.02.2020 21:57 16,8 C 1,9 C 35 % 80 % 1020,6 hPa 0,0 l/m 1,6 km/h (1 Bft) W-SW 247 0 min 0,000 mm 0,0 UV-I 0 W/m -1,2 C 1,9 C 1,6 km/h (1 Bft) 100,00 %
20.02.2020 21:56 16,8 C 1,9 C 35 % 80 % 1020,6 hPa 0,0 l/m 3,2 km/h (1 Bft) W-SW 247 0 min 0,000 mm 0,0 UV-I 0 W/m -1,2 C 1,9 C 4,8 km/h (1 Bft) 100,00 %
20.02.2020 21:55 16,8 C 1,9 C 35 % 80 % 1020,6 hPa 0,0 l/m 3,2 km/h (1 Bft) W-SW 247 0 min 0,000 mm 0,0 UV-I 0 W/m -1,2 C 1,9 C 8,0 km/h (2 Bft) 100,00 %
20.02.2020 21:54 16,8 C 1,9 C 35 % 80 % 1020,6 hPa 0,0 l/m 1,6 km/h (1 Bft) S-SW 202 0 min 0,000 mm 0,0 UV-I 0 W/m -1,2 C 1,9 C 3,2 km/h (1 Bft) 100,00 %
20.02.2020 21:53 16,8 C 1,8 C 35 % 80 % 1020,5 hPa 0,0 l/m 0,0 km/h (0 Bft) S-SW 202 0 min 0,000 mm 0,0 UV-I 0 W/m -1,3 C 1,8 C 1,6 km/h (1 Bft) 100,00 %
20.02.2020 21:52 16,8 C 1,8 C 35 % 81 % 1020,6 hPa 0,0 l/m 1,6 km/h (1 Bft) S-SW 202 0 min 0,000 mm 0,0 UV-I 0 W/m -1,1 C 1,8 C 3,2 km/h (1 Bft) 100,00 %
20.02.2020 21:51 16,8 C 1,8 C 35 % 81 % 1020,5 hPa 0,0 l/m 1,6 km/h (1 Bft) S-SW 202 0 min 0,000 mm 0,0 UV-I 0 W/m -1,1 C 1,8 C 3,2 km/h (1 Bft) 100,00 %
20.02.2020 21:50 16,8 C 1,8 C 35 % 80 % 1020,5 hPa 0,0 l/m 3,2 km/h (1 Bft) S-SW 202 0 min 0,000 mm 0,0 UV-I 0 W/m -1,3 C 1,8 C 4,8 km/h (1 Bft) 95,65 %
20.02.2020 21:49 16,8 C 1,8 C 35 % 81 % 1020,6 hPa 0,0 l/m 3,2 km/h (1 Bft) S-SW 202 0 min 0,000 mm 0,0 UV-I 0 W/m -1,1 C 1,8 C 4,8 km/h (1 Bft) 100,00 %
20.02.2020 21:48 16,8 C 1,8 C 35 % 81 % 1020,6 hPa 0,0 l/m 3,2 km/h (1 Bft) S-SW 202 0 min 0,000 mm 0,0 UV-I 0 W/m -1,1 C 1,8 C 4,8 km/h (1 Bft) 100,00 %
20.02.2020 21:47 16,8 C 1,8 C 35 % 81 % 1020,6 hPa 0,0 l/m 1,6 km/h (1 Bft) SW 225 0 min 0,000 mm 0,0 UV-I 0 W/m -1,1 C 1,8 C 3,2 km/h (1 Bft) 100,00 %
20.02.2020 21:46 16,8 C 1,8 C 35 % 81 % 1020,7 hPa 0,0 l/m 3,2 km/h (1 Bft) S-SW 202 0 min 0,000 mm 0,0 UV-I 0 W/m -1,1 C 1,8 C 4,8 km/h (1 Bft) 100,00 %
20.02.2020 21:45 16,8 C 1,8 C 35 % 80 % 1020,7 hPa 0,0 l/m 3,2 km/h (1 Bft) S-SW 202 0 min 0,000 mm 0,0 UV-I 0 W/m -1,3 C 1,8 C 3,2 km/h (1 Bft) 100,00 %
20.02.2020 21:44 16,8 C 1,8 C 35 % 80 % 1020,6 hPa 0,0 l/m 3,2 km/h (1 Bft) S-SW 202 0 min 0,000 mm 0,0 UV-I 0 W/m -1,3 C 1,8 C 4,8 km/h (1 Bft) 100,00 %
20.02.2020 21:43 16,8 C 1,9 C 35 % 80 % 1020,7 hPa 0,0 l/m 0,0 km/h (0 Bft) S-SW 202 0 min 0,000 mm 0,0 UV-I 0 W/m -1,2 C 1,9 C 1,6 km/h (1 Bft) 95,65 %
20.02.2020 21:42 16,8 C 1,9 C 35 % 80 % 1020,7 hPa 0,0 l/m 1,6 km/h (1 Bft) S-SW 202 0 min 0,000 mm 0,0 UV-I 0 W/m -1,2 C 1,9 C 3,2 km/h (1 Bft) 100,00 %
20.02.2020 21:41 16,8 C 1,9 C 35 % 80 % 1020,7 hPa 0,0 l/m 3,2 km/h (1 Bft) S-SW 202 0 min 0,000 mm 0,0 UV-I 0 W/m -1,2 C 1,9 C 4,8 km/h (1 Bft) 100,00 %
20.02.2020 21:40 16,8 C 2,0 C 35 % 80 % 1020,8 hPa 0,0 l/m 3,2 km/h (1 Bft) S 180 0 min 0,000 mm 0,0 UV-I 0 W/m -1,1 C 2,0 C 6,4 km/h (2 Bft) 100,00 %
20.02.2020 21:39 16,8 C 2,0 C 35 % 80 % 1020,7 hPa 0,0 l/m 1,6 km/h (1 Bft) S 180 0 min 0,000 mm 0,0 UV-I 0 W/m -1,1 C 2,0 C 3,2 km/h (1 Bft) 100,00 %
20.02.2020 21:38 16,8 C 1,9 C 35 % 80 % 1020,7 hPa 0,0 l/m 1,6 km/h (1 Bft) S 180 0 min 0,000 mm 0,0 UV-I 0 W/m -1,2 C 1,9 C 3,2 km/h (1 Bft) 100,00 %
20.02.2020 21:37 16,8 C 2,0 C 35 % 80 % 1020,7 hPa 0,0 l/m 3,2 km/h (1 Bft) S 180 0 min 0,000 mm 0,0 UV-I 0 W/m -1,1 C 2,0 C 4,8 km/h (1 Bft) 100,00 %
20.02.2020 21:36 16,8 C 2,0 C 35 % 80 % 1020,8 hPa 0,0 l/m 3,2 km/h (1 Bft) S 180 0 min 0,000 mm 0,0 UV-I 0 W/m -1,1 C 2,0 C 4,8 km/h (1 Bft) 100,00 %
20.02.2020 21:35 16,8 C 2,0 C 35 % 80 % 1020,8 hPa 0,0 l/m 3,2 km/h (1 Bft) S 180 0 min 0,000 mm 0,0 UV-I 0 W/m -1,1 C 2,0 C 4,8 km/h (1 Bft) 100,00 %
20.02.2020 21:34 16,8 C 1,9 C 35 % 80 % 1020,9 hPa 0,0 l/m 3,2 km/h (1 Bft) S 180 0 min 0,000 mm 0,0 UV-I 0 W/m -1,2 C 1,9 C 4,8 km/h (1 Bft) 100,00 %
20.02.2020 21:33 16,8 C 1,9 C 35 % 80 % 1020,9 hPa 0,0 l/m 4,8 km/h (1 Bft) S 180 0 min 0,000 mm 0,0 UV-I 0 W/m -1,2 C 1,9 C 4,8 km/h (1 Bft) 95,65 %
20.02.2020 21:32 16,8 C 1,9 C 35 % 80 % 1020,9 hPa 0,0 l/m 1,6 km/h (1 Bft) S 180 0 min 0,000 mm 0,0 UV-I 0 W/m -1,2 C 1,9 C 3,2 km/h (1 Bft) 100,00 %
20.02.2020 21:31 16,8 C 1,9 C 35 % 80 % 1021,0 hPa 0,0 l/m 3,2 km/h (1 Bft) S 180 0 min 0,000 mm 0,0 UV-I 0 W/m -1,2 C 1,9 C 4,8 km/h (1 Bft) 91,30 %
20.02.2020 21:30 16,8 C 1,9 C 35 % 80 % 1020,9 hPa 0,0 l/m 3,2 km/h (1 Bft) S 180 0 min 0,000 mm 0,0 UV-I 0 W/m -1,2 C 1,9 C 4,8 km/h (1 Bft) 100,00 %
20.02.2020 21:29 16,8 C 1,9 C 35 % 80 % 1021,0 hPa 0,0 l/m 3,2 km/h (1 Bft) S 180 0 min 0,000 mm 0,0 UV-I 0 W/m -1,2 C 1,9 C 4,8 km/h (1 Bft) 100,00 %
20.02.2020 21:28 16,8 C 1,9 C 35 % 80 % 1020,9 hPa 0,0 l/m 1,6 km/h (1 Bft) S 180 0 min 0,000 mm 0,0 UV-I 0 W/m -1,2 C 1,9 C 1,6 km/h (1 Bft) 100,00 %
20.02.2020 21:27 16,8 C 1,9 C 35 % 80 % 1021,0 hPa 0,0 l/m 3,2 km/h (1 Bft) S 180 0 min 0,000 mm 0,0 UV-I 0 W/m -1,2 C 1,9 C 6,4 km/h (2 Bft) 100,00 %
20.02.2020 21:26 16,8 C 1,9 C 35 % 80 % 1021,0 hPa 0,0 l/m 1,6 km/h (1 Bft) S 180 0 min 0,000 mm 0,0 UV-I 0 W/m -1,2 C 1,9 C 3,2 km/h (1 Bft) 95,65 %
20.02.2020 21:25 16,8 C 1,9 C 35 % 80 % 1021,0 hPa 0,0 l/m 3,2 km/h (1 Bft) S 180 0 min 0,000 mm 0,0 UV-I 0 W/m -1,2 C 1,9 C 4,8 km/h (1 Bft) 100,00 %
20.02.2020 21:24 16,8 C 1,9 C 35 % 80 % 1021,0 hPa 0,0 l/m 4,8 km/h (1 Bft) S 180 0 min 0,000 mm 0,0 UV-I 0 W/m -1,2 C 1,9 C 6,4 km/h (2 Bft) 95,65 %
20.02.2020 21:23 16,8 C 1,9 C 35 % 80 % 1021,0 hPa 0,0 l/m 3,2 km/h (1 Bft) S 180 0 min 0,000 mm 0,0 UV-I 0 W/m -1,2 C 1,9 C 4,8 km/h (1 Bft) 95,65 %
20.02.2020 21:22 16,8 C 1,8 C 35 % 80 % 1021,0 hPa 0,0 l/m 4,8 km/h (1 Bft) S 180 0 min 0,000 mm 0,0 UV-I 0 W/m -1,3 C 1,8 C 4,8 km/h (1 Bft) 100,00 %
20.02.2020 21:21 16,8 C 1,8 C 35 % 81 % 1021,1 hPa 0,0 l/m 3,2 km/h (1 Bft) S-SW 202 0 min 0,000 mm 0,0 UV-I 0 W/m -1,1 C 1,8 C 6,4 km/h (2 Bft) 95,65 %
20.02.2020 21:20 16,8 C 1,8 C 35 % 81 % 1021,1 hPa 0,0 l/m 1,6 km/h (1 Bft) S-SW 202 0 min 0,000 mm 0,0 UV-I 0 W/m -1,1 C 1,8 C 3,2 km/h (1 Bft) 100,00 %
20.02.2020 21:19 16,8 C 1,8 C 35 % 81 % 1021,0 hPa 0,0 l/m 1,6 km/h (1 Bft) S-SW 202 0 min 0,000 mm 0,0 UV-I 0 W/m -1,1 C 1,8 C 3,2 km/h (1 Bft) 100,00 %
20.02.2020 21:18 16,8 C 1,9 C 35 % 81 % 1021,1 hPa 0,0 l/m 1,6 km/h (1 Bft) S-SW 202 0 min 0,000 mm 0,0 UV-I 0 W/m -1,0 C 1,9 C 3,2 km/h (1 Bft) 100,00 %
20.02.2020 21:17 16,8 C 1,8 C 35 % 81 % 1021,1 hPa 0,0 l/m 1,6 km/h (1 Bft) S-SW 202 0 min 0,000 mm 0,0 UV-I 0 W/m -1,1 C 1,8 C 3,2 km/h (1 Bft) 100,00 %
20.02.2020 21:16 16,8 C 1,8 C 35 % 81 % 1021,1 hPa 0,0 l/m 1,6 km/h (1 Bft) S-SW 202 0 min 0,000 mm 0,0 UV-I 0 W/m -1,1 C 1,8 C 3,2 km/h (1 Bft) 100,00 %
20.02.2020 21:15 16,8 C 1,8 C 35 % 81 % 1021,1 hPa 0,0 l/m 1,6 km/h (1 Bft) S-SW 202 0 min 0,000 mm 0,0 UV-I 0 W/m -1,1 C 1,8 C 3,2 km/h (1 Bft) 100,00 %
20.02.2020 21:14 16,8 C 1,8 C 35 % 81 % 1021,1 hPa 0,0 l/m 0,0 km/h (0 Bft) S 180 0 min 0,000 mm 0,0 UV-I 0 W/m -1,1 C 1,8 C 3,2 km/h (1 Bft) 100,00 %
20.02.2020 21:13 16,8 C 1,8 C 35 % 81 % 1021,0 hPa 0,0 l/m 3,2 km/h (1 Bft) S 180 0 min 0,000 mm 0,0 UV-I 0 W/m -1,1 C 1,8 C 6,4 km/h (2 Bft) 100,00 %
20.02.2020 21:12 16,8 C 1,8 C 35 % 81 % 1021,1 hPa 0,0 l/m 3,2 km/h (1 Bft) S 180 0 min 0,000 mm 0,0 UV-I 0 W/m -1,1 C 1,8 C 6,4 km/h (2 Bft) 95,65 %
20.02.2020 21:11 16,8 C 1,8 C 35 % 81 % 1021,1 hPa 0,0 l/m 1,6 km/h (1 Bft) S 180 0 min 0,000 mm 0,0 UV-I 0 W/m -1,1 C 1,8 C 3,2 km/h (1 Bft) 100,00 %
20.02.2020 21:10 16,8 C 1,8 C 35 % 81 % 1021,1 hPa 0,0 l/m 1,6 km/h (1 Bft) S 180 0 min 0,000 mm 0,0 UV-I 0 W/m -1,1 C 1,8 C 6,4 km/h (2 Bft) 100,00 %
20.02.2020 21:09 16,8 C 1,8 C 35 % 81 % 1021,2 hPa 0,0 l/m 1,6 km/h (1 Bft) S 180 0 min 0,000 mm 0,0 UV-I 0 W/m -1,1 C 1,8 C 3,2 km/h (1 Bft) 100,00 %
20.02.2020 21:08 16,8 C 1,8 C 35 % 81 % 1021,1 hPa 0,0 l/m 0,0 km/h (0 Bft) S 180 0 min 0,000 mm 0,0 UV-I 0 W/m -1,1 C 1,8 C 1,6 km/h (1 Bft) 100,00 %
20.02.2020 21:07 16,7 C 1,8 C 35 % 81 % 1021,1 hPa 0,0 l/m 0,0 km/h (0 Bft) S 180 0 min 0,000 mm 0,0 UV-I 0 W/m -1,1 C 1,8 C 1,6 km/h (1 Bft) 95,65 %
20.02.2020 21:06 16,8 C 1,8 C 35 % 82 % 1021,2 hPa 0,0 l/m 3,2 km/h (1 Bft) S 180 0 min 0,000 mm 0,0 UV-I 0 W/m -0,9 C 1,8 C 4,8 km/h (1 Bft) 100,00 %
20.02.2020 21:05 16,8 C 1,8 C 35 % 82 % 1021,1 hPa 0,0 l/m 3,2 km/h (1 Bft) S 180 0 min 0,000 mm 0,0 UV-I 0 W/m -0,9 C 1,8 C 4,8 km/h (1 Bft) 100,00 %
20.02.2020 21:04 16,8 C 1,8 C 35 % 82 % 1021,1 hPa 0,0 l/m 3,2 km/h (1 Bft) S 180 0 min 0,000 mm 0,0 UV-I 0 W/m -0,9 C 1,8 C 4,8 km/h (1 Bft) 91,30 %
20.02.2020 21:03 16,8 C 1,7 C 35 % 82 % 1021,1 hPa 0,0 l/m 1,6 km/h (1 Bft) S 180 0 min 0,000 mm 0,0 UV-I 0 W/m -1,0 C 1,7 C 4,8 km/h (1 Bft) 100,00 %
20.02.2020 21:02 16,8 C 1,7 C 35 % 82 % 1021,1 hPa 0,0 l/m 3,2 km/h (1 Bft) S 180 0 min 0,000 mm 0,0 UV-I 0 W/m -1,0 C 1,7 C 4,8 km/h (1 Bft) 100,00 %
20.02.2020 21:01 16,8 C 1,7 C 35 % 82 % 1021,1 hPa 0,0 l/m 1,6 km/h (1 Bft) S-SW 202 0 min 0,000 mm 0,0 UV-I 0 W/m -1,0 C 1,7 C 3,2 km/h (1 Bft) 100,00 %
20.02.2020 21:00 16,8 C 1,7 C 35 % 82 % 1021,1 hPa 0,0 l/m 0,0 km/h (0 Bft) S-SW 202 0 min 0,000 mm 0,0 UV-I 0 W/m -1,0 C 1,7 C 1,6 km/h (1 Bft) 95,65 %
20.02.2020 20:59 16,8 C 1,7 C 35 % 82 % 1021,1 hPa 0,0 l/m 1,6 km/h (1 Bft) S-SW 202 0 min 0,000 mm 0,0 UV-I 0 W/m -1,0 C 1,7 C 3,2 km/h (1 Bft) 100,00 %
20.02.2020 20:58 16,8 C 1,7 C 35 % 82 % 1021,2 hPa 0,0 l/m 0,0 km/h (0 Bft) S-SW 202 0 min 0,000 mm 0,0 UV-I 0 W/m -1,0 C 1,7 C 1,6 km/h (1 Bft) 100,00 %
20.02.2020 20:57 16,8 C 1,7 C 35 % 82 % 1021,2 hPa 0,0 l/m 1,6 km/h (1 Bft) S-SW 202 0 min 0,000 mm 0,0 UV-I 0 W/m -1,0 C 1,7 C 3,2 km/h (1 Bft) 95,65 %
20.02.2020 20:56 16,7 C 1,7 C 35 % 82 % 1021,2 hPa 0,0 l/m 1,6 km/h (1 Bft) S-SW 202 0 min 0,000 mm 0,0 UV-I 0 W/m -1,0 C 1,7 C 4,8 km/h (1 Bft) 100,00 %
20.02.2020 20:55 16,7 C 1,7 C 35 % 82 % 1021,1 hPa 0,0 l/m 1,6 km/h (1 Bft) S-SW 202 0 min 0,000 mm 0,0 UV-I 0 W/m -1,0 C 1,7 C 3,2 km/h (1 Bft) 95,65 %
20.02.2020 20:54 16,7 C 1,6 C 35 % 82 % 1021,2 hPa 0,0 l/m 3,2 km/h (1 Bft) SW 225 0 min 0,000 mm 0,0 UV-I 0 W/m -1,1 C 1,6 C 6,4 km/h (2 Bft) 100,00 %
20.02.2020 20:53 16,7 C 1,6 C 35 % 82 % 1021,2 hPa 0,0 l/m 1,6 km/h (1 Bft) SW 225 0 min 0,000 mm 0,0 UV-I 0 W/m -1,1 C 1,6 C 3,2 km/h (1 Bft) 100,00 %
20.02.2020 20:52 16,7 C 1,6 C 35 % 82 % 1021,2 hPa 0,0 l/m 1,6 km/h (1 Bft) SW 225 0 min 0,000 mm 0,0 UV-I 0 W/m -1,1 C 1,6 C 3,2 km/h (1 Bft) 100,00 %
20.02.2020 20:51 16,7 C 1,6 C 35 % 82 % 1021,2 hPa 0,0 l/m 1,6 km/h (1 Bft) W-SW 247 0 min 0,000 mm 0,0 UV-I 0 W/m -1,1 C 1,6 C 3,2 km/h (1 Bft) 100,00 %
20.02.2020 20:50 16,7 C 1,6 C 35 % 83 % 1021,2 hPa 0,0 l/m 0,0 km/h (0 Bft) W-SW 247 0 min 0,000 mm 0,0 UV-I 0 W/m -1,0 C 1,6 C 1,6 km/h (1 Bft) 95,65 %
20.02.2020 20:49 16,7 C 1,6 C 35 % 83 % 1021,2 hPa 0,0 l/m 1,6 km/h (1 Bft) SW 225 0 min 0,000 mm 0,0 UV-I 0 W/m -1,0 C 1,6 C 3,2 km/h (1 Bft) 95,65 %
20.02.2020 20:48 16,7 C 1,6 C 35 % 83 % 1021,2 hPa 0,0 l/m 0,0 km/h (0 Bft) SW 225 0 min 0,000 mm 0,0 UV-I 0 W/m -1,0 C 1,6 C 1,6 km/h (1 Bft) 100,00 %
20.02.2020 20:47 16,7 C 1,6 C 35 % 83 % 1021,1 hPa 0,0 l/m 1,6 km/h (1 Bft) SW 225 0 min 0,000 mm 0,0 UV-I 0 W/m -1,0 C 1,6 C 4,8 km/h (1 Bft) 100,00 %
20.02.2020 20:46 16,7 C 1,6 C 35 % 82 % 1021,2 hPa 0,0 l/m 1,6 km/h (1 Bft) SW 225 0 min 0,000 mm 0,0 UV-I 0 W/m -1,1 C 1,6 C 1,6 km/h (1 Bft) 100,00 %
20.02.2020 20:45 16,7 C 1,6 C 35 % 83 % 1021,2 hPa 0,0 l/m 1,6 km/h (1 Bft) SW 225 0 min 0,000 mm 0,0 UV-I 0 W/m -1,0 C 1,6 C 3,2 km/h (1 Bft) 100,00 %
20.02.2020 20:44 16,7 C 1,5 C 35 % 83 % 1021,2 hPa 0,0 l/m 0,0 km/h (0 Bft) SW 225 0 min 0,000 mm 0,0 UV-I 0 W/m -1,1 C 1,5 C 1,6 km/h (1 Bft) 100,00 %
20.02.2020 20:43 16,7 C 1,4 C 35 % 83 % 1021,3 hPa 0,0 l/m 1,6 km/h (1 Bft) SW 225 0 min 0,000 mm 0,0 UV-I 0 W/m -1,2 C 1,4 C 3,2 km/h (1 Bft) 100,00 %
20.02.2020 20:42 16,7 C 1,4 C 35 % 83 % 1021,3 hPa 0,0 l/m 0,0 km/h (0 Bft) N 0 0 min 0,000 mm 0,0 UV-I 0 W/m -1,2 C 1,4 C 0,0 km/h (0 Bft) 95,65 %
20.02.2020 20:41 16,7 C 1,3 C 35 % 83 % 1021,4 hPa 0,0 l/m 1,6 km/h (1 Bft) SW 225 0 min 0,000 mm 0,0 UV-I 0 W/m -1,3 C 1,3 C 3,2 km/h (1 Bft) 100,00 %
20.02.2020 20:40 16,7 C 1,4 C 35 % 83 % 1021,4 hPa 0,0 l/m 0,0 km/h (0 Bft) N 0 0 min 0,000 mm 0,0 UV-I 0 W/m -1,2 C 1,4 C 0,0 km/h (0 Bft) 91,30 %
20.02.2020 20:39 16,7 C 1,4 C 35 % 83 % 1021,4 hPa 0,0 l/m 0,0 km/h (0 Bft) SW 225 0 min 0,000 mm 0,0 UV-I 0 W/m -1,2 C 1,4 C 1,6 km/h (1 Bft) 100,00 %
20.02.2020 20:38 16,7 C 1,4 C 35 % 83 % 1021,3 hPa 0,0 l/m 0,0 km/h (0 Bft) SW 225 0 min 0,000 mm 0,0 UV-I 0 W/m -1,2 C 1,4 C 1,6 km/h (1 Bft) 100,00 %
20.02.2020 20:37 16,7 C 1,4 C 35 % 83 % 1021,4 hPa 0,0 l/m 0,0 km/h (0 Bft) SW 225 0 min 0,000 mm 0,0 UV-I 0 W/m -1,2 C 1,4 C 1,6 km/h (1 Bft) 95,65 %
20.02.2020 20:36 16,7 C 1,4 C 35 % 83 % 1021,5 hPa 0,0 l/m 0,0 km/h (0 Bft) SW 225 0 min 0,000 mm 0,0 UV-I 0 W/m -1,2 C 1,4 C 1,6 km/h (1 Bft) 100,00 %
20.02.2020 20:35 16,7 C 1,4 C 35 % 83 % 1021,5 hPa 0,0 l/m 1,6 km/h (1 Bft) SW 225 0 min 0,000 mm 0,0 UV-I 0 W/m -1,2 C 1,4 C 3,2 km/h (1 Bft) 100,00 %
20.02.2020 20:34 16,7 C 1,4 C 35 % 83 % 1021,5 hPa 0,0 l/m 0,0 km/h (0 Bft) SW 225 0 min 0,000 mm 0,0 UV-I 0 W/m -1,2 C 1,4 C 1,6 km/h (1 Bft) 100,00 %
20.02.2020 20:33 16,7 C 1,4 C 35 % 83 % 1021,6 hPa 0,0 l/m 0,0 km/h (0 Bft) SW 225 0 min 0,000 mm 0,0 UV-I 0 W/m -1,2 C 1,4 C 1,6 km/h (1 Bft) 100,00 %
20.02.2020 20:32 16,7 C 1,4 C 35 % 83 % 1021,5 hPa 0,0 l/m 0,0 km/h (0 Bft) SW 225 0 min 0,000 mm 0,0 UV-I 0 W/m -1,2 C 1,4 C 1,6 km/h (1 Bft) 100,00 %
20.02.2020 20:31 16,7 C 1,4 C 35 % 83 % 1021,7 hPa 0,0 l/m 0,0 km/h (0 Bft) N 0 0 min 0,000 mm 0,0 UV-I 0 W/m -1,2 C 1,4 C 0,0 km/h (0 Bft) 100,00 %
20.02.2020 20:30 16,7 C 1,3 C 35 % 83 % 1021,5 hPa 0,0 l/m 0,0 km/h (0 Bft) SW 225 0 min 0,000 mm 0,0 UV-I 0 W/m -1,3 C 1,3 C 1,6 km/h (1 Bft) 100,00 %
20.02.2020 20:29 16,7 C 1,3 C 35 % 83 % 1021,5 hPa 0,0 l/m 0,0 km/h (0 Bft) SW 225 0 min 0,000 mm 0,0 UV-I 0 W/m -1,3 C 1,3 C 1,6 km/h (1 Bft) 100,00 %
20.02.2020 20:28 16,7 C 1,3 C 35 % 84 % 1021,6 hPa 0,0 l/m 0,0 km/h (0 Bft) SW 225 0 min 0,000 mm 0,0 UV-I 0 W/m -1,1 C 1,3 C 1,6 km/h (1 Bft) 100,00 %
20.02.2020 20:27 16,7 C 1,3 C 35 % 84 % 1021,7 hPa 0,0 l/m 1,6 km/h (1 Bft) SW 225 0 min 0,000 mm 0,0 UV-I 0 W/m -1,1 C 1,3 C 3,2 km/h (1 Bft) 95,65 %
20.02.2020 20:26 16,7 C 1,3 C 35 % 84 % 1021,7 hPa 0,0 l/m 1,6 km/h (1 Bft) SW 225 0 min 0,000 mm 0,0 UV-I 0 W/m -1,1 C 1,3 C 3,2 km/h (1 Bft) 100,00 %
20.02.2020 20:25 16,7 C 1,3 C 35 % 84 % 1021,6 hPa 0,0 l/m 1,6 km/h (1 Bft) SW 225 0 min 0,000 mm 0,0 UV-I 0 W/m -1,1 C 1,3 C 1,6 km/h (1 Bft) 100,00 %
20.02.2020 20:24 16,7 C 1,3 C 35 % 84 % 1021,6 hPa 0,0 l/m 1,6 km/h (1 Bft) SW 225 0 min 0,000 mm 0,0 UV-I 0 W/m -1,1 C 1,3 C 3,2 km/h (1 Bft) 100,00 %
20.02.2020 20:23 16,7 C 1,3 C 35 % 84 % 1021,7 hPa 0,0 l/m 1,6 km/h (1 Bft) SW 225 0 min 0,000 mm 0,0 UV-I 0 W/m -1,1 C 1,3 C 3,2 km/h (1 Bft) 95,65 %
20.02.2020 20:22 16,7 C 1,4 C 35 % 83 % 1021,7 hPa 0,0 l/m 1,6 km/h (1 Bft) W-NW 292 0 min 0,000 mm 0,0 UV-I 0 W/m -1,2 C 1,4 C 3,2 km/h (1 Bft) 100,00 %
20.02.2020 20:21 16,7 C 1,5 C 35 % 83 % 1021,6 hPa 0,0 l/m 1,6 km/h (1 Bft) W-NW 292 0 min 0,000 mm 0,0 UV-I 0 W/m -1,1 C 1,5 C 3,2 km/h (1 Bft) 100,00 %
20.02.2020 20:20 16,7 C 1,5 C 35 % 83 % 1021,7 hPa 0,0 l/m 1,6 km/h (1 Bft) W-NW 292 0 min 0,000 mm 0,0 UV-I 0 W/m -1,1 C 1,5 C 1,6 km/h (1 Bft) 100,00 %
20.02.2020 20:19 16,7 C 1,4 C 35 % 83 % 1021,7 hPa 0,0 l/m 0,0 km/h (0 Bft) W-NW 292 0 min 0,000 mm 0,0 UV-I 0 W/m -1,2 C 1,4 C 1,6 km/h (1 Bft) 100,00 %
20.02.2020 20:18 16,7 C 1,4 C 35 % 84 % 1021,7 hPa 0,0 l/m 1,6 km/h (1 Bft) W-NW 292 0 min 0,000 mm 0,0 UV-I 0 W/m -1,0 C 1,4 C 3,2 km/h (1 Bft) 100,00 %
20.02.2020 20:17 16,7 C 1,3 C 35 % 84 % 1021,7 hPa 0,0 l/m 0,0 km/h (0 Bft) W-NW 292 0 min 0,000 mm 0,0 UV-I 0 W/m -1,1 C 1,3 C 1,6 km/h (1 Bft) 100,00 %
20.02.2020 20:16 16,7 C 1,3 C 35 % 84 % 1021,7 hPa 0,0 l/m 0,0 km/h (0 Bft) W-NW 292 0 min 0,000 mm 0,0 UV-I 0 W/m -1,1 C 1,3 C 1,6 km/h (1 Bft) 100,00 %
20.02.2020 20:15 16,7 C 1,2 C 35 % 84 % 1021,7 hPa 0,0 l/m 0,0 km/h (0 Bft) W-NW 292 0 min 0,000 mm 0,0 UV-I 0 W/m -1,2 C 1,2 C 1,6 km/h (1 Bft) 100,00 %
20.02.2020 20:14 16,7 C 1,2 C 35 % 84 % 1021,9 hPa 0,0 l/m 1,6 km/h (1 Bft) W-NW 292 0 min 0,000 mm 0,0 UV-I 0 W/m -1,2 C 1,2 C 3,2 km/h (1 Bft) 95,65 %
20.02.2020 20:13 16,8 C 1,1 C 35 % 85 % 1021,8 hPa 0,0 l/m 0,0 km/h (0 Bft) W-NW 292 0 min 0,000 mm 0,0 UV-I 0 W/m -1,1 C 1,1 C 1,6 km/h (1 Bft) 100,00 %
20.02.2020 20:12 16,7 C 1,1 C 35 % 85 % 1021,8 hPa 0,0 l/m 0,0 km/h (0 Bft) W-NW 292 0 min 0,000 mm 0,0 UV-I 0 W/m -1,1 C 1,1 C 1,6 km/h (1 Bft) 100,00 %
20.02.2020 20:11 16,7 C 1,1 C 35 % 85 % 1021,7 hPa 0,0 l/m 1,6 km/h (1 Bft) W-NW 292 0 min 0,000 mm 0,0 UV-I 0 W/m -1,1 C 1,1 C 1,6 km/h (1 Bft) 95,65 %
20.02.2020 20:10 16,7 C 1,1 C 35 % 84 % 1021,7 hPa 0,0 l/m 0,0 km/h (0 Bft) W-NW 292 0 min 0,000 mm 0,0 UV-I 0 W/m -1,3 C 1,1 C 1,6 km/h (1 Bft) 100,00 %
20.02.2020 20:09 16,7 C 1,2 C 35 % 84 % 1021,8 hPa 0,0 l/m 1,6 km/h (1 Bft) W-NW 292 0 min 0,000 mm 0,0 UV-I 0 W/m -1,2 C 1,2 C 3,2 km/h (1 Bft) 100,00 %
20.02.2020 20:08 16,7 C 1,2 C 35 % 84 % 1021,8 hPa 0,0 l/m 1,6 km/h (1 Bft) W-NW 292 0 min 0,000 mm 0,0 UV-I 0 W/m -1,2 C 1,2 C 3,2 km/h (1 Bft) 100,00 %
20.02.2020 20:07 16,7 C 1,3 C 35 % 84 % 1021,9 hPa 0,0 l/m 1,6 km/h (1 Bft) W-NW 292 0 min 0,000 mm 0,0 UV-I 0 W/m -1,1 C 1,3 C 3,2 km/h (1 Bft) 100,00 %
20.02.2020 20:06 16,7 C 1,3 C 35 % 84 % 1021,8 hPa 0,0 l/m 1,6 km/h (1 Bft) W 270 0 min 0,000 mm 0,0 UV-I 0 W/m -1,1 C 1,3 C 4,8 km/h (1 Bft) 100,00 %
20.02.2020 20:05 16,7 C 1,2 C 35 % 84 % 1021,8 hPa 0,0 l/m 1,6 km/h (1 Bft) W 270 0 min 0,000 mm 0,0 UV-I 0 W/m -1,2 C 1,2 C 3,2 km/h (1 Bft) 100,00 %
20.02.2020 20:04 16,7 C 1,3 C 35 % 84 % 1021,9 hPa 0,0 l/m 1,6 km/h (1 Bft) W 270 0 min 0,000 mm 0,0 UV-I 0 W/m -1,1 C 1,3 C 4,8 km/h (1 Bft) 100,00 %
20.02.2020 20:03 16,8 C 1,3 C 35 % 84 % 1021,8 hPa 0,0 l/m 0,0 km/h (0 Bft) W 270 0 min 0,000 mm 0,0 UV-I 0 W/m -1,1 C 1,3 C 1,6 km/h (1 Bft) 100,00 %
20.02.2020 20:02 16,7 C 1,3 C 35 % 85 % 1021,9 hPa 0,0 l/m 0,0 km/h (0 Bft) W 270 0 min 0,000 mm 0,0 UV-I 0 W/m -0,9 C 1,3 C 1,6 km/h (1 Bft) 86,96 %
20.02.2020 20:01 16,7 C 1,2 C 35 % 85 % 1021,9 hPa 0,0 l/m 0,0 km/h (0 Bft) W 270 0 min 0,000 mm 0,0 UV-I 0 W/m -1,0 C 1,2 C 1,6 km/h (1 Bft) 95,65 %
20.02.2020 20:00 16,7 C 1,2 C 35 % 85 % 1021,9 hPa 0,0 l/m 1,6 km/h (1 Bft) W 270 0 min 0,000 mm 0,0 UV-I 0 W/m -1,0 C 1,2 C 3,2 km/h (1 Bft) 100,00 %
20.02.2020 19:59 16,7 C 1,1 C 35 % 86 % 1021,9 hPa 0,0 l/m 0,0 km/h (0 Bft) W-NW 292 0 min 0,000 mm 0,0 UV-I 0 W/m -1,0 C 1,1 C 1,6 km/h (1 Bft) 95,65 %
20.02.2020 19:58 16,7 C 1,0 C 35 % 86 % 1021,9 hPa 0,0 l/m 1,6 km/h (1 Bft) SW 225 0 min 0,000 mm 0,0 UV-I 0 W/m -1,1 C 1,0 C 3,2 km/h (1 Bft) 100,00 %
20.02.2020 19:57 16,7 C 0,9 C 35 % 86 % 1022,0 hPa 0,0 l/m 0,0 km/h (0 Bft) N 0 0 min 0,000 mm 0,0 UV-I 0 W/m -1,2 C 0,9 C 0,0 km/h (0 Bft) 100,00 %
20.02.2020 19:56 16,8 C 0,9 C 35 % 86 % 1022,0 hPa 0,0 l/m 1,6 km/h (1 Bft) SW 225 0 min 0,000 mm 0,0 UV-I 0 W/m -1,2 C 0,9 C 3,2 km/h (1 Bft) 100,00 %
20.02.2020 19:55 16,8 C 0,9 C 35 % 86 % 1022,0 hPa 0,0 l/m 0,0 km/h (0 Bft) SW 225 0 min 0,000 mm 0,0 UV-I 0 W/m -1,2 C 0,9 C 1,6 km/h (1 Bft) 100,00 %
20.02.2020 19:54 16,7 C 0,9 C 35 % 86 % 1022,0 hPa 0,0 l/m 0,0 km/h (0 Bft) N 0 0 min 0,000 mm 0,0 UV-I 0 W/m -1,2 C 0,9 C 0,0 km/h (0 Bft) 95,65 %
20.02.2020 19:53 16,8 C 1,0 C 35 % 86 % 1022,0 hPa 0,0 l/m 0,0 km/h (0 Bft) SW 225 0 min 0,000 mm 0,0 UV-I 0 W/m -1,1 C 1,0 C 1,6 km/h (1 Bft) 100,00 %
20.02.2020 19:52 16,7 C 1,0 C 35 % 86 % 1022,0 hPa 0,0 l/m 0,0 km/h (0 Bft) SW 225 0 min 0,000 mm 0,0 UV-I 0 W/m -1,1 C 1,0 C 1,6 km/h (1 Bft) 95,65 %
20.02.2020 19:51 16,8 C 1,0 C 35 % 86 % 1022,0 hPa 0,0 l/m 0,0 km/h (0 Bft) SW 225 0 min 0,000 mm 0,0 UV-I 0 W/m -1,1 C 1,0 C 1,6 km/h (1 Bft) 100,00 %
20.02.2020 19:50 16,8 C 0,9 C 35 % 86 % 1022,2 hPa 0,0 l/m 0,0 km/h (0 Bft) SW 225 0 min 0,000 mm 0,0 UV-I 0 W/m -1,2 C 0,9 C 1,6 km/h (1 Bft) 100,00 %
20.02.2020 19:49 16,8 C 0,9 C 35 % 86 % 1022,0 hPa 0,0 l/m 0,0 km/h (0 Bft) SW 225 0 min 0,000 mm 0,0 UV-I 0 W/m -1,2 C 0,9 C 1,6 km/h (1 Bft) 95,65 %
20.02.2020 19:48 16,8 C 0,9 C 35 % 85 % 1022,1 hPa 0,0 l/m 1,6 km/h (1 Bft) SW 225 0 min 0,000 mm 0,0 UV-I 0 W/m -1,3 C 0,9 C 3,2 km/h (1 Bft) 100,00 %
20.02.2020 19:47 16,7 C 1,1 C 35 % 85 % 1022,2 hPa 0,0 l/m 0,0 km/h (0 Bft) SW 225 0 min 0,000 mm 0,0 UV-I 0 W/m -1,1 C 1,1 C 1,6 km/h (1 Bft) 91,30 %
20.02.2020 19:46 16,8 C 1,3 C 35 % 84 % 1022,2 hPa 0,0 l/m 1,6 km/h (1 Bft) SW 225 0 min 0,000 mm 0,0 UV-I 0 W/m -1,1 C 1,3 C 3,2 km/h (1 Bft) 95,65 %
20.02.2020 19:45 16,8 C 1,3 C 35 % 84 % 1022,2 hPa 0,0 l/m 0,0 km/h (0 Bft) SW 225 0 min 0,000 mm 0,0 UV-I 0 W/m -1,1 C 1,3 C 1,6 km/h (1 Bft) 100,00 %
20.02.2020 19:44 16,8 C 1,4 C 35 % 84 % 1022,2 hPa 0,0 l/m 0,0 km/h (0 Bft) N 0 0 min 0,000 mm 0,0 UV-I 0 W/m -1,0 C 1,4 C 0,0 km/h (0 Bft) 91,30 %
20.02.2020 19:43 16,7 C 1,4 C 35 % 84 % 1022,1 hPa 0,0 l/m 1,6 km/h (1 Bft) SW 225 0 min 0,000 mm 0,0 UV-I 0 W/m -1,0 C 1,4 C 1,6 km/h (1 Bft) 100,00 %
20.02.2020 19:42 16,8 C 1,4 C 35 % 84 % 1022,2 hPa 0,0 l/m 0,0 km/h (0 Bft) SW 225 0 min 0,000 mm 0,0 UV-I 0 W/m -1,0 C 1,4 C 1,6 km/h (1 Bft) 100,00 %
20.02.2020 19:41 16,8 C 1,4 C 35 % 84 % 1022,2 hPa 0,0 l/m 0,0 km/h (0 Bft) SW 225 0 min 0,000 mm 0,0 UV-I 0 W/m -1,0 C 1,4 C 1,6 km/h (1 Bft) 100,00 %
20.02.2020 19:40 16,8 C 1,5 C 35 % 84 % 1022,2 hPa 0,0 l/m 0,0 km/h (0 Bft) SW 225 0 min 0,000 mm 0,0 UV-I 0 W/m -0,9 C 1,5 C 1,6 km/h (1 Bft) 91,30 %
20.02.2020 19:39 16,7 C 1,4 C 35 % 84 % 1022,1 hPa 0,0 l/m 0,0 km/h (0 Bft) SW 225 0 min 0,000 mm 0,0 UV-I 0 W/m -1,0 C 1,4 C 1,6 km/h (1 Bft) 100,00 %
20.02.2020 19:38 16,8 C 1,4 C 35 % 84 % 1022,3 hPa 0,0 l/m 0,0 km/h (0 Bft) SW 225 0 min 0,000 mm 0,0 UV-I 0 W/m -1,0 C 1,4 C 1,6 km/h (1 Bft) 100,00 %
20.02.2020 19:37 16,8 C 1,4 C 35 % 84 % 1022,3 hPa 0,0 l/m 0,0 km/h (0 Bft) SW 225 0 min 0,000 mm 0,0 UV-I 0 W/m -1,0 C 1,4 C 1,6 km/h (1 Bft) 100,00 %
20.02.2020 19:36 16,8 C 1,4 C 35 % 84 % 1022,3 hPa 0,0 l/m 0,0 km/h (0 Bft) SW 225 0 min 0,000 mm 0,0 UV-I 0 W/m -1,0 C 1,4 C 1,6 km/h (1 Bft) 100,00 %
20.02.2020 19:35 16,8 C 1,4 C 35 % 84 % 1022,3 hPa 0,0 l/m 1,6 km/h (1 Bft) SW 225 0 min 0,000 mm 0,0 UV-I 0 W/m -1,0 C 1,4 C 3,2 km/h (1 Bft) 100,00 %
20.02.2020 19:34 16,7 C 1,3 C 35 % 84 % 1022,4 hPa 0,0 l/m 0,0 km/h (0 Bft) W 270 0 min 0,000 mm 0,0 UV-I 0 W/m -1,1 C 1,3 C 1,6 km/h (1 Bft) 100,00 %
20.02.2020 19:33 16,8 C 1,3 C 35 % 85 % 1022,4 hPa 0,0 l/m 1,6 km/h (1 Bft) W 270 0 min 0,000 mm 0,0 UV-I 0 W/m -0,9 C 1,3 C 3,2 km/h (1 Bft) 86,96 %
20.02.2020 19:32 16,8 C 1,3 C 35 % 85 % 1022,4 hPa 0,0 l/m 1,6 km/h (1 Bft) W 270 0 min 0,000 mm 0,0 UV-I 0 W/m -0,9 C 1,3 C 3,2 km/h (1 Bft) 100,00 %
20.02.2020 19:31 16,8 C 1,3 C 35 % 85 % 1022,4 hPa 0,0 l/m 3,2 km/h (1 Bft) W 270 0 min 0,000 mm 0,0 UV-I 0 W/m -0,9 C 1,3 C 3,2 km/h (1 Bft) 100,00 %
20.02.2020 19:30 16,8 C 1,3 C 35 % 85 % 1022,4 hPa 0,0 l/m 1,6 km/h (1 Bft) W 270 0 min 0,000 mm 0,0 UV-I 0 W/m -0,9 C 1,3 C 1,6 km/h (1 Bft) 100,00 %
20.02.2020 19:29 16,8 C 1,3 C 35 % 84 % 1022,4 hPa 0,0 l/m 1,6 km/h (1 Bft) W 270 0 min 0,000 mm 0,0 UV-I 0 W/m -1,1 C 1,3 C 1,6 km/h (1 Bft) 100,00 %
20.02.2020 19:28 16,8 C 1,4 C 35 % 84 % 1022,4 hPa 0,0 l/m 0,0 km/h (0 Bft) W 270 0 min 0,000 mm 0,0 UV-I 0 W/m -1,0 C 1,4 C 1,6 km/h (1 Bft) 91,30 %
20.02.2020 19:27 16,8 C 1,4 C 35 % 84 % 1022,5 hPa 0,0 l/m 0,0 km/h (0 Bft) W 270 0 min 0,000 mm 0,0 UV-I 0 W/m -1,0 C 1,4 C 1,6 km/h (1 Bft) 100,00 %
20.02.2020 19:26 16,8 C 1,3 C 35 % 84 % 1022,5 hPa 0,0 l/m 1,6 km/h (1 Bft) W 270 0 min 0,000 mm 0,0 UV-I 0 W/m -1,1 C 1,3 C 1,6 km/h (1 Bft) 100,00 %
20.02.2020 19:25 16,7 C 1,3 C 35 % 84 % 1022,4 hPa 0,0 l/m 1,6 km/h (1 Bft) W 270 0 min 0,000 mm 0,0 UV-I 0 W/m -1,1 C 1,3 C 3,2 km/h (1 Bft) 95,65 %
20.02.2020 19:24 16,8 C 1,3 C 35 % 85 % 1022,5 hPa 0,0 l/m 1,6 km/h (1 Bft) W 270 0 min 0,000 mm 0,0 UV-I 0 W/m -0,9 C 1,3 C 3,2 km/h (1 Bft) 100,00 %
20.02.2020 19:23 16,7 C 1,3 C 35 % 85 % 1022,4 hPa 0,0 l/m 1,6 km/h (1 Bft) W 270 0 min 0,000 mm 0,0 UV-I 0 W/m -0,9 C 1,3 C 3,2 km/h (1 Bft) 100,00 %
20.02.2020 19:22 16,7 C 1,3 C 35 % 85 % 1022,5 hPa 0,0 l/m 1,6 km/h (1 Bft) S-SW 202 0 min 0,000 mm 0,0 UV-I 0 W/m -0,9 C 1,3 C 4,8 km/h (1 Bft) 100,00 %
20.02.2020 19:21 16,8 C 1,2 C 35 % 85 % 1022,5 hPa 0,0 l/m 1,6 km/h (1 Bft) S-SW 202 0 min 0,000 mm 0,0 UV-I 0 W/m -1,0 C 1,2 C 3,2 km/h (1 Bft) 95,65 %
20.02.2020 19:20 16,8 C 1,3 C 35 % 85 % 1022,5 hPa 0,0 l/m 1,6 km/h (1 Bft) W-NW 292 0 min 0,000 mm 0,0 UV-I 0 W/m -0,9 C 1,3 C 4,8 km/h (1 Bft) 95,65 %
20.02.2020 19:19 16,8 C 1,2 C 35 % 85 % 1022,5 hPa 0,0 l/m 0,0 km/h (0 Bft) W-NW 292 0 min 0,000 mm 0,0 UV-I 0 W/m -1,0 C 1,2 C 1,6 km/h (1 Bft) 100,00 %
20.02.2020 19:18 16,8 C 1,2 C 35 % 86 % 1022,4 hPa 0,0 l/m 0,0 km/h (0 Bft) W-NW 292 0 min 0,000 mm 0,0 UV-I 0 W/m -0,9 C 1,2 C 1,6 km/h (1 Bft) 95,65 %
20.02.2020 19:17 16,8 C 1,1 C 35 % 86 % 1022,4 hPa 0,0 l/m 0,0 km/h (0 Bft) N 0 0 min 0,000 mm 0,0 UV-I 0 W/m -1,0 C 1,1 C 0,0 km/h (0 Bft) 100,00 %
20.02.2020 19:16 16,8 C 1,1 C 35 % 86 % 1022,5 hPa 0,0 l/m 0,0 km/h (0 Bft) N 0 0 min 0,000 mm 0,0 UV-I 0 W/m -1,0 C 1,1 C 0,0 km/h (0 Bft) 95,65 %
20.02.2020 19:15 16,8 C 1,1 C 35 % 86 % 1022,4 hPa 0,0 l/m 0,0 km/h (0 Bft) N 0 0 min 0,000 mm 0,0 UV-I 0 W/m -1,0 C 1,1 C 0,0 km/h (0 Bft) 100,00 %
20.02.2020 19:14 16,8 C 1,1 C 35 % 86 % 1022,5 hPa 0,0 l/m 0,0 km/h (0 Bft) W-NW 292 0 min 0,000 mm 0,0 UV-I 0 W/m -1,0 C 1,1 C 1,6 km/h (1 Bft) 100,00 %
20.02.2020 19:13 16,8 C 1,1 C 35 % 86 % 1022,5 hPa 0,0 l/m 0,0 km/h (0 Bft) W-NW 292 0 min 0,000 mm 0,0 UV-I 0 W/m -1,0 C 1,1 C 1,6 km/h (1 Bft) 100,00 %
20.02.2020 19:12 16,8 C 1,1 C 35 % 86 % 1022,6 hPa 0,0 l/m 0,0 km/h (0 Bft) W-NW 292 0 min 0,000 mm 0,0 UV-I 0 W/m -1,0 C 1,1 C 1,6 km/h (1 Bft) 100,00 %
20.02.2020 19:11 16,8 C 1,1 C 35 % 86 % 1022,5 hPa 0,0 l/m 1,6 km/h (1 Bft) W-NW 292 0 min 0,000 mm 0,0 UV-I 0 W/m -1,0 C 1,1 C 3,2 km/h (1 Bft) 100,00 %
20.02.2020 19:10 16,8 C 1,1 C 35 % 86 % 1022,6 hPa 0,0 l/m 1,6 km/h (1 Bft) W-NW 292 0 min 0,000 mm 0,0 UV-I 0 W/m -1,0 C 1,1 C 3,2 km/h (1 Bft) 100,00 %
20.02.2020 19:09 16,8 C 1,1 C 35 % 86 % 1022,6 hPa 0,0 l/m 1,6 km/h (1 Bft) W-NW 292 0 min 0,000 mm 0,0 UV-I 0 W/m -1,0 C 1,1 C 4,8 km/h (1 Bft) 100,00 %
20.02.2020 19:08 16,8 C 1,1 C 35 % 86 % 1022,6 hPa 0,0 l/m 1,6 km/h (1 Bft) NW 315 0 min 0,000 mm 0,0 UV-I 0 W/m -1,0 C 1,1 C 3,2 km/h (1 Bft) 95,65 %
20.02.2020 19:07 16,8 C 1,1 C 35 % 86 % 1022,6 hPa 0,0 l/m 0,0 km/h (0 Bft) NW 315 0 min 0,000 mm 0,0 UV-I 0 W/m -1,0 C 1,1 C 1,6 km/h (1 Bft) 86,96 %
20.02.2020 19:06 16,8 C 1,1 C 35 % 86 % 1022,5 hPa 0,0 l/m 3,2 km/h (1 Bft) NW 315 0 min 0,000 mm 0,0 UV-I 0 W/m -1,0 C 1,1 C 6,4 km/h (2 Bft) 69,57 %
20.02.2020 19:05 16,8 C 1,1 C 35 % 86 % 1022,6 hPa 0,0 l/m 0,0 km/h (0 Bft) W-SW 247 0 min 0,000 mm 0,0 UV-I 0 W/m -1,0 C 1,1 C 1,6 km/h (1 Bft) 100,00 %
20.02.2020 19:04 16,8 C 1,0 C 35 % 86 % 1022,6 hPa 0,0 l/m 0,0 km/h (0 Bft) W-SW 247 0 min 0,000 mm 0,0 UV-I 0 W/m -1,1 C 1,0 C 1,6 km/h (1 Bft) 100,00 %
20.02.2020 19:03 16,8 C 1,0 C 35 % 86 % 1022,6 hPa 0,0 l/m 1,6 km/h (1 Bft) W-SW 247 0 min 0,000 mm 0,0 UV-I 0 W/m -1,1 C 1,0 C 1,6 km/h (1 Bft) 91,30 %
20.02.2020 19:02 16,8 C 1,1 C 35 % 86 % 1022,7 hPa 0,0 l/m 1,6 km/h (1 Bft) W-SW 247 0 min 0,000 mm 0,0 UV-I 0 W/m -1,0 C 1,1 C 1,6 km/h (1 Bft) 100,00 %
20.02.2020 19:01 16,8 C 1,1 C 35 % 86 % 1022,6 hPa 0,0 l/m 0,0 km/h (0 Bft) W-SW 247 0 min 0,000 mm 0,0 UV-I 0 W/m -1,0 C 1,1 C 1,6 km/h (1 Bft) 86,96 %
20.02.2020 19:00 16,7 C 1,1 C 35 % 86 % 1022,6 hPa 0,0 l/m 0,0 km/h (0 Bft) W-SW 247 0 min 0,000 mm 0,0 UV-I 0 W/m -1,0 C 1,1 C 1,6 km/h (1 Bft) 100,00 %
20.02.2020 18:59 16,8 C 1,1 C 35 % 87 % 1022,7 hPa 0,0 l/m 1,6 km/h (1 Bft) W-SW 247 0 min 0,000 mm 0,0 UV-I 0 W/m -0,8 C 1,1 C 3,2 km/h (1 Bft) 100,00 %
20.02.2020 18:58 16,8 C 1,0 C 35 % 87 % 1022,7 hPa 0,0 l/m 1,6 km/h (1 Bft) W-SW 247 0 min 0,000 mm 0,0 UV-I 0 W/m -0,9 C 1,0 C 3,2 km/h (1 Bft) 100,00 %
20.02.2020 18:57 16,8 C 1,0 C 35 % 87 % 1022,7 hPa 0,0 l/m 1,6 km/h (1 Bft) W-SW 247 0 min 0,000 mm 0,0 UV-I 0 W/m -0,9 C 1,0 C 1,6 km/h (1 Bft) 100,00 %
20.02.2020 18:56 16,8 C 0,9 C 35 % 87 % 1022,6 hPa 0,0 l/m 1,6 km/h (1 Bft) W-SW 247 0 min 0,000 mm 0,0 UV-I 0 W/m -1,0 C 0,9 C 3,2 km/h (1 Bft) 86,96 %
20.02.2020 18:55 16,8 C 0,9 C 35 % 87 % 1022,7 hPa 0,0 l/m 1,6 km/h (1 Bft) W-SW 247 0 min 0,000 mm 0,0 UV-I 0 W/m -1,0 C 0,9 C 4,8 km/h (1 Bft) 91,30 %
20.02.2020 18:54 16,8 C 0,9 C 35 % 86 % 1022,7 hPa 0,0 l/m 0,0 km/h (0 Bft) W-SW 247 0 min 0,000 mm 0,0 UV-I 0 W/m -1,2 C 0,9 C 1,6 km/h (1 Bft) 100,00 %
20.02.2020 18:53 16,8 C 0,9 C 35 % 86 % 1022,7 hPa 0,0 l/m 0,0 km/h (0 Bft) W-SW 247 0 min 0,000 mm 0,0 UV-I 0 W/m -1,2 C 0,9 C 1,6 km/h (1 Bft) 82,61 %
20.02.2020 18:52 16,8 C 1,1 C 35 % 86 % 1022,7 hPa 0,0 l/m 0,0 km/h (0 Bft) W-SW 247 0 min 0,000 mm 0,0 UV-I 0 W/m -1,0 C 1,1 C 1,6 km/h (1 Bft) 82,61 %
20.02.2020 18:51 16,8 C 1,1 C 35 % 86 % 1022,7 hPa 0,0 l/m 1,6 km/h (1 Bft) W-SW 247 0 min 0,000 mm 0,0 UV-I 0 W/m -1,0 C 1,1 C 3,2 km/h (1 Bft) 78,26 %
20.02.2020 18:50 16,8 C 1,2 C 35 % 86 % 1022,7 hPa 0,0 l/m 0,0 km/h (0 Bft) W-SW 247 0 min 0,000 mm 0,0 UV-I 0 W/m -0,9 C 1,2 C 1,6 km/h (1 Bft) 78,26 %
20.02.2020 18:49 16,8 C 1,2 C 35 % 86 % 1022,7 hPa 0,0 l/m 1,6 km/h (1 Bft) W-SW 247 0 min 0,000 mm 0,0 UV-I 0 W/m -0,9 C 1,2 C 1,6 km/h (1 Bft) 86,96 %
20.02.2020 18:48 16,8 C 1,2 C 35 % 86 % 1022,8 hPa 0,0 l/m 1,6 km/h (1 Bft) W-SW 247 0 min 0,000 mm 0,0 UV-I 0 W/m -0,9 C 1,2 C 3,2 km/h (1 Bft) 82,61 %
20.02.2020 18:47 16,8 C 1,2 C 35 % 86 % 1022,8 hPa 0,0 l/m 1,6 km/h (1 Bft) W-SW 247 0 min 0,000 mm 0,0 UV-I 0 W/m -0,9 C 1,2 C 3,2 km/h (1 Bft) 91,30 %
20.02.2020 18:46 16,8 C 1,1 C 35 % 86 % 1022,8 hPa 0,0 l/m 1,6 km/h (1 Bft) W-SW 247 0 min 0,000 mm 0,0 UV-I 0 W/m -1,0 C 1,1 C 3,2 km/h (1 Bft) 100,00 %
20.02.2020 18:45 16,8 C 1,1 C 35 % 86 % 1022,8 hPa 0,0 l/m 0,0 km/h (0 Bft) W-SW 247 0 min 0,000 mm 0,0 UV-I 0 W/m -1,0 C 1,1 C 1,6 km/h (1 Bft) 78,26 %
20.02.2020 18:44 16,8 C 1,2 C 35 % 86 % 1022,8 hPa 0,0 l/m 1,6 km/h (1 Bft) W-SW 247 0 min 0,000 mm 0,0 UV-I 0 W/m -0,9 C 1,2 C 3,2 km/h (1 Bft) 73,91 %
20.02.2020 18:43 16,8 C 1,2 C 35 % 86 % 1022,8 hPa 0,0 l/m 0,0 km/h (0 Bft) W-SW 247 0 min 0,000 mm 0,0 UV-I 0 W/m -0,9 C 1,2 C 3,2 km/h (1 Bft) 100,00 %
20.02.2020 18:42 16,8 C 1,2 C 35 % 86 % 1022,9 hPa 0,0 l/m 0,0 km/h (0 Bft) W-SW 247 0 min 0,000 mm 0,0 UV-I 0 W/m -0,9 C 1,2 C 1,6 km/h (1 Bft) 100,00 %
20.02.2020 18:41 16,8 C 1,2 C 35 % 86 % 1022,8 hPa 0,0 l/m 0,0 km/h (0 Bft) W-SW 247 0 min 0,000 mm 0,0 UV-I 0 W/m -0,9 C 1,2 C 1,6 km/h (1 Bft) 65,22 %
20.02.2020 18:40 16,8 C 1,2 C 35 % 86 % 1022,9 hPa 0,0 l/m 0,0 km/h (0 Bft) W-SW 247 0 min 0,000 mm 0,0 UV-I 0 W/m -0,9 C 1,2 C 1,6 km/h (1 Bft) 86,96 %
20.02.2020 18:39 16,8 C 1,2 C 35 % 86 % 1022,9 hPa 0,0 l/m 1,6 km/h (1 Bft) W-SW 247 0 min 0,000 mm 0,0 UV-I 0 W/m -0,9 C 1,2 C 1,6 km/h (1 Bft) 100,00 %
20.02.2020 18:38 16,8 C 1,1 C 35 % 86 % 1022,8 hPa 0,0 l/m 1,6 km/h (1 Bft) W-SW 247 0 min 0,000 mm 0,0 UV-I 0 W/m -1,0 C 1,1 C 3,2 km/h (1 Bft) 95,65 %
20.02.2020 18:37 16,8 C 1,2 C 35 % 86 % 1022,9 hPa 0,0 l/m 1,6 km/h (1 Bft) W-SW 247 0 min 0,000 mm 0,0 UV-I 0 W/m -0,9 C 1,2 C 3,2 km/h (1 Bft) 95,65 %
20.02.2020 18:36 16,8 C 1,1 C 35 % 86 % 1022,9 hPa 0,0 l/m 1,6 km/h (1 Bft) W-SW 247 0 min 0,000 mm 0,0 UV-I 0 W/m -1,0 C 1,1 C 3,2 km/h (1 Bft) 95,65 %
20.02.2020 18:35 16,8 C 1,2 C 35 % 86 % 1022,8 hPa 0,0 l/m 1,6 km/h (1 Bft) W-SW 247 0 min 0,000 mm 0,0 UV-I 0 W/m -0,9 C 1,2 C 3,2 km/h (1 Bft) 82,61 %
20.02.2020 18:34 16,8 C 1,2 C 35 % 86 % 1022,8 hPa 0,0 l/m 3,2 km/h (1 Bft) SW 225 0 min 0,000 mm 0,0 UV-I 0 W/m -0,9 C 1,2 C 6,4 km/h (2 Bft) 95,65 %
20.02.2020 18:33 16,8 C 1,2 C 35 % 86 % 1022,8 hPa 0,0 l/m 1,6 km/h (1 Bft) SW 225 0 min 0,000 mm 0,0 UV-I 0 W/m -0,9 C 1,2 C 3,2 km/h (1 Bft) 73,91 %
20.02.2020 18:32 16,8 C 1,2 C 35 % 86 % 1022,9 hPa 0,0 l/m 1,6 km/h (1 Bft) SW 225 0 min 0,000 mm 0,0 UV-I 0 W/m -0,9 C 1,2 C 1,6 km/h (1 Bft) 73,91 %
20.02.2020 18:31 16,8 C 1,2 C 35 % 86 % 1022,8 hPa 0,0 l/m 1,6 km/h (1 Bft) SW 225 0 min 0,000 mm 0,0 UV-I 0 W/m -0,9 C 1,2 C 3,2 km/h (1 Bft) 86,96 %
20.02.2020 18:30 16,8 C 1,3 C 35 % 86 % 1022,9 hPa 0,0 l/m 1,6 km/h (1 Bft) SW 225 0 min 0,000 mm 0,0 UV-I 0 W/m -0,8 C 1,3 C 3,2 km/h (1 Bft) 91,30 %
20.02.2020 18:29 16,8 C 1,3 C 35 % 86 % 1023,0 hPa 0,0 l/m 1,6 km/h (1 Bft) W-SW 247 0 min 0,000 mm 0,0 UV-I 0 W/m -0,8 C 1,3 C 3,2 km/h (1 Bft) 91,30 %
20.02.2020 18:28 16,8 C 1,3 C 35 % 86 % 1022,9 hPa 0,0 l/m 3,2 km/h (1 Bft) SW 225 0 min 0,000 mm 0,0 UV-I 0 W/m -0,8 C 1,3 C 4,8 km/h (1 Bft) 100,00 %
20.02.2020 18:27 16,8 C 1,3 C 35 % 86 % 1023,0 hPa 0,0 l/m 1,6 km/h (1 Bft) SW 225 0 min 0,000 mm 0,0 UV-I 0 W/m -0,8 C 1,3 C 3,2 km/h (1 Bft) 91,30 %
20.02.2020 18:26 16,8 C 1,3 C 35 % 86 % 1023,0 hPa 0,0 l/m 3,2 km/h (1 Bft) SW 225 0 min 0,000 mm 0,0 UV-I 0 W/m -0,8 C 1,3 C 4,8 km/h (1 Bft) 95,65 %
20.02.2020 18:25 16,8 C 1,3 C 35 % 86 % 1023,0 hPa 0,0 l/m 3,2 km/h (1 Bft) SW 225 0 min 0,000 mm 0,0 UV-I 0 W/m -0,8 C 1,3 C 4,8 km/h (1 Bft) 86,96 %
20.02.2020 18:24 16,8 C 1,4 C 35 % 86 % 1022,9 hPa 0,0 l/m 1,6 km/h (1 Bft) S-SW 202 0 min 0,000 mm 0,0 UV-I 0 W/m -0,7 C 1,4 C 3,2 km/h (1 Bft) 95,65 %
20.02.2020 18:23 16,8 C 1,4 C 35 % 86 % 1022,9 hPa 0,0 l/m 3,2 km/h (1 Bft) S-SW 202 0 min 0,000 mm 0,0 UV-I 0 W/m -0,7 C 1,4 C 4,8 km/h (1 Bft) 73,91 %
20.02.2020 18:22 16,8 C 1,4 C 35 % 86 % 1022,9 hPa 0,0 l/m 3,2 km/h (1 Bft) S 180 0 min 0,000 mm 0,0 UV-I 0 W/m -0,7 C 1,4 C 4,8 km/h (1 Bft) 73,91 %
20.02.2020 18:21 16,8 C 1,4 C 35 % 86 % 1022,9 hPa 0,0 l/m 4,8 km/h (1 Bft) S-SO 157 0 min 0,000 mm 0,0 UV-I 0 W/m -0,7 C 1,4 C 8,0 km/h (2 Bft) 86,96 %
20.02.2020 18:20 16,8 C 1,4 C 35 % 86 % 1023,0 hPa 0,0 l/m 1,6 km/h (1 Bft) W 270 0 min 0,000 mm 0,0 UV-I 0 W/m -0,7 C 1,4 C 3,2 km/h (1 Bft) 100,00 %
20.02.2020 18:19 16,8 C 1,5 C 35 % 86 % 1022,9 hPa 0,0 l/m 3,2 km/h (1 Bft) W-NW 292 0 min 0,000 mm 0,0 UV-I 0 W/m -0,6 C 1,5 C 4,8 km/h (1 Bft) 95,65 %
20.02.2020 18:18 16,8 C 1,5 C 35 % 86 % 1022,9 hPa 0,0 l/m 3,2 km/h (1 Bft) W-NW 292 0 min 0,000 mm 0,0 UV-I 0 W/m -0,6 C 1,5 C 4,8 km/h (1 Bft) 82,61 %
20.02.2020 18:17 16,8 C 1,5 C 35 % 86 % 1022,8 hPa 0,0 l/m 1,6 km/h (1 Bft) W-NW 292 0 min 0,000 mm 0,0 UV-I 0 W/m -0,6 C 1,5 C 4,8 km/h (1 Bft) 95,65 %
20.02.2020 18:16 16,8 C 1,5 C 35 % 86 % 1022,9 hPa 0,0 l/m 3,2 km/h (1 Bft) W 270 0 min 0,000 mm 0,0 UV-I 0 W/m -0,6 C 1,5 C 6,4 km/h (2 Bft) 95,65 %
20.02.2020 18:15 16,8 C 1,5 C 35 % 87 % 1023,0 hPa 0,0 l/m 1,6 km/h (1 Bft) W 270 0 min 0,000 mm 0,0 UV-I 0 W/m -0,4 C 1,5 C 3,2 km/h (1 Bft) 86,96 %
20.02.2020 18:14 16,8 C 1,5 C 35 % 87 % 1023,0 hPa 0,0 l/m 4,8 km/h (1 Bft) W 270 0 min 0,000 mm 0,0 UV-I 0 W/m -0,4 C 1,5 C 8,0 km/h (2 Bft) 82,61 %
20.02.2020 18:13 16,8 C 1,5 C 35 % 87 % 1023,0 hPa 0,0 l/m 1,6 km/h (1 Bft) W-SW 247 0 min 0,000 mm 0,0 UV-I 0 W/m -0,4 C 1,5 C 3,2 km/h (1 Bft) 91,30 %
20.02.2020 18:12 16,8 C 1,5 C 35 % 87 % 1022,9 hPa 0,0 l/m 3,2 km/h (1 Bft) W-SW 247 0 min 0,000 mm 0,0 UV-I 0 W/m -0,4 C 1,5 C 4,8 km/h (1 Bft) 100,00 %
20.02.2020 18:11 16,8 C 1,5 C 35 % 87 % 1022,9 hPa 0,0 l/m 3,2 km/h (1 Bft) W 270 0 min 0,000 mm 0,0 UV-I 0 W/m -0,4 C 1,5 C 4,8 km/h (1 Bft) 91,30 %
20.02.2020 18:10 16,8 C 1,5 C 35 % 87 % 1022,9 hPa 0,0 l/m 3,2 km/h (1 Bft) W 270 0 min 0,000 mm 0,0 UV-I 0 W/m -0,4 C 1,5 C 4,8 km/h (1 Bft) 78,26 %
20.02.2020 18:09 16,8 C 1,5 C 35 % 87 % 1022,9 hPa 0,0 l/m 1,6 km/h (1 Bft) W 270 0 min 0,000 mm 0,0 UV-I 0 W/m -0,4 C 1,5 C 3,2 km/h (1 Bft) 78,26 %
20.02.2020 18:08 16,8 C 1,6 C 35 % 87 % 1022,9 hPa 0,0 l/m 1,6 km/h (1 Bft) W-NW 292 0 min 0,000 mm 0,0 UV-I 0 W/m -0,3 C 1,6 C 3,2 km/h (1 Bft) 78,26 %
20.02.2020 18:07 16,8 C 1,6 C 35 % 87 % 1023,0 hPa 0,0 l/m 1,6 km/h (1 Bft) W-NW 292 0 min 0,000 mm 0,0 UV-I 0 W/m -0,3 C 1,6 C 3,2 km/h (1 Bft) 86,96 %
20.02.2020 18:06 16,8 C 1,6 C 35 % 87 % 1023,1 hPa 0,0 l/m 1,6 km/h (1 Bft) W-NW 292 0 min 0,000 mm 0,0 UV-I 0 W/m -0,3 C 1,6 C 4,8 km/h (1 Bft) 78,26 %
20.02.2020 18:05 16,8 C 1,5 C 35 % 87 % 1023,1 hPa 0,0 l/m 1,6 km/h (1 Bft) NW 315 0 min 0,000 mm 0,0 UV-I 0 W/m -0,4 C 1,5 C 3,2 km/h (1 Bft) 95,65 %
20.02.2020 18:04 16,8 C 1,5 C 35 % 87 % 1023,1 hPa 0,0 l/m 3,2 km/h (1 Bft) NW 315 0 min 0,000 mm 0,0 UV-I 0 W/m -0,4 C 1,5 C 4,8 km/h (1 Bft) 65,22 %
20.02.2020 18:03 16,8 C 1,5 C 35 % 87 % 1023,1 hPa 0,0 l/m 4,8 km/h (1 Bft) W 270 0 min 0,000 mm 0,0 UV-I 0 W/m -0,4 C 1,5 C 6,4 km/h (2 Bft) 100,00 %
20.02.2020 18:02 16,8 C 1,4 C 35 % 87 % 1023,1 hPa 0,0 l/m 6,4 km/h (2 Bft) W-SW 247 0 min 0,000 mm 0,0 UV-I 0 W/m -0,5 C 1,4 C 9,7 km/h (2 Bft) 86,96 %
20.02.2020 18:01 16,8 C 1,5 C 35 % 87 % 1023,2 hPa 0,0 l/m 4,8 km/h (1 Bft) W-SW 247 0 min 0,000 mm 0,0 UV-I 0 W/m -0,4 C 1,5 C 6,4 km/h (2 Bft) 69,57 %
20.02.2020 18:00 16,8 C 1,5 C 35 % 87 % 1023,1 hPa 0,0 l/m 3,2 km/h (1 Bft) W-SW 247 0 min 0,000 mm 0,0 UV-I 0 W/m -0,4 C 1,5 C 6,4 km/h (2 Bft) 82,61 %
20.02.2020 17:59 16,8 C 1,5 C 35 % 87 % 1023,2 hPa 0,0 l/m 3,2 km/h (1 Bft) W-SW 247 0 min 0,000 mm 0,0 UV-I 0 W/m -0,4 C 1,5 C 4,8 km/h (1 Bft) 91,30 %
20.02.2020 17:58 16,8 C 1,5 C 35 % 87 % 1023,1 hPa 0,0 l/m 1,6 km/h (1 Bft) W-SW 247 0 min 0,000 mm 0,0 UV-I 0 W/m -0,4 C 1,5 C 3,2 km/h (1 Bft) 82,61 %
20.02.2020 17:57 16,8 C 1,6 C 35 % 87 % 1023,3 hPa 0,0 l/m 4,8 km/h (1 Bft) W-SW 247 0 min 0,000 mm 0,0 UV-I 0 W/m -0,3 C 1,6 C 6,4 km/h (2 Bft) 95,65 %
20.02.2020 17:56 16,8 C 1,5 C 35 % 87 % 1023,1 hPa 0,0 l/m 4,8 km/h (1 Bft) W-SW 247 0 min 0,000 mm 0,0 UV-I 0 W/m -0,4 C 1,5 C 8,0 km/h (2 Bft) 69,57 %
20.02.2020 17:55 16,8 C 1,6 C 35 % 87 % 1023,2 hPa 0,0 l/m 4,8 km/h (1 Bft) W-SW 247 0 min 0,000 mm 0,0 UV-I 0 W/m -0,3 C 1,6 C 8,0 km/h (2 Bft) 86,96 %
20.02.2020 17:54 16,9 C 1,5 C 35 % 87 % 1023,2 hPa 0,0 l/m 6,4 km/h (2 Bft) W 270 0 min 0,000 mm 0,0 UV-I 0 W/m -0,4 C 1,5 C 8,0 km/h (2 Bft) 86,96 %
20.02.2020 17:53 16,8 C 1,5 C 35 % 87 % 1023,2 hPa 0,0 l/m 4,8 km/h (1 Bft) W 270 0 min 0,000 mm 0,0 UV-I 0 W/m -0,4 C 1,5 C 8,0 km/h (2 Bft) 78,26 %
20.02.2020 17:52 16,8 C 1,6 C 35 % 87 % 1023,1 hPa 0,0 l/m 6,4 km/h (2 Bft) W 270 0 min 0,000 mm 0,0 UV-I 0 W/m -0,3 C 1,6 C 9,7 km/h (2 Bft) 86,96 %
20.02.2020 17:51 16,8 C 1,5 C 35 % 87 % 1023,1 hPa 0,0 l/m 4,8 km/h (1 Bft) W 270 0 min 0,000 mm 0,0 UV-I 0 W/m -0,4 C 1,5 C 8,0 km/h (2 Bft) 69,57 %
20.02.2020 17:50 16,8 C 1,5 C 35 % 87 % 1023,2 hPa 0,0 l/m 6,4 km/h (2 Bft) W 270 0 min 0,000 mm 0,0 UV-I 0 W/m -0,4 C 1,5 C 9,7 km/h (2 Bft) 78,26 %
20.02.2020 17:49 16,8 C 1,5 C 35 % 87 % 1023,2 hPa 0,0 l/m 4,8 km/h (1 Bft) W-SW 247 0 min 0,000 mm 0,0 UV-I 0 W/m -0,4 C 1,5 C 9,7 km/h (2 Bft) 78,26 %
20.02.2020 17:48 16,8 C 1,5 C 35 % 87 % 1023,2 hPa 0,0 l/m 4,8 km/h (1 Bft) W 270 0 min 0,000 mm 0,0 UV-I 0 W/m -0,4 C 1,5 C 6,4 km/h (2 Bft) 73,91 %
20.02.2020 17:47 16,8 C 1,5 C 35 % 87 % 1023,2 hPa 0,0 l/m 4,8 km/h (1 Bft) W-SW 247 0 min 0,000 mm 0,0 UV-I 0 W/m -0,4 C 1,5 C 6,4 km/h (2 Bft) 73,91 %
20.02.2020 17:46 16,8 C 1,5 C 35 % 87 % 1023,2 hPa 0,0 l/m 4,8 km/h (1 Bft) W-NW 292 0 min 0,000 mm 0,0 UV-I 0 W/m -0,4 C 1,5 C 6,4 km/h (2 Bft) 86,96 %
20.02.2020 17:45 16,9 C 1,4 C 35 % 87 % 1023,2 hPa 0,0 l/m 4,8 km/h (1 Bft) W-NW 292 0 min 0,000 mm 0,0 UV-I 0 W/m -0,5 C 1,4 C 6,4 km/h (2 Bft) 73,91 %
20.02.2020 17:44 16,8 C 1,4 C 35 % 87 % 1023,2 hPa 0,0 l/m 6,4 km/h (2 Bft) W 270 0 min 0,000 mm 0,0 UV-I 0 W/m -0,5 C 1,4 C 8,0 km/h (2 Bft) 65,22 %
20.02.2020 17:43 16,9 C 1,5 C 35 % 87 % 1023,2 hPa 0,0 l/m 6,4 km/h (2 Bft) W 270 0 min 0,000 mm 0,0 UV-I 0 W/m -0,4 C 1,5 C 8,0 km/h (2 Bft) 78,26 %
20.02.2020 17:42 16,9 C 1,4 C 35 % 87 % 1023,2 hPa 0,0 l/m 4,8 km/h (1 Bft) W 270 0 min 0,000 mm 0,0 UV-I 0 W/m -0,5 C 1,4 C 8,0 km/h (2 Bft) 73,91 %
20.02.2020 17:41 16,9 C 1,4 C 35 % 87 % 1023,3 hPa 0,0 l/m 4,8 km/h (1 Bft) W 270 0 min 0,000 mm 0,0 UV-I 0 W/m -0,5 C 1,4 C 4,8 km/h (1 Bft) 69,57 %
20.02.2020 17:40 16,9 C 1,5 C 35 % 87 % 1023,2 hPa 0,0 l/m 4,8 km/h (1 Bft) W 270 0 min 0,000 mm 0,0 UV-I 0 W/m -0,4 C 1,5 C 6,4 km/h (2 Bft) 69,57 %
20.02.2020 17:39 16,9 C 1,4 C 35 % 87 % 1023,2 hPa 0,0 l/m 4,8 km/h (1 Bft) W 270 0 min 0,000 mm 0,0 UV-I 0 W/m -0,5 C 1,4 C 6,4 km/h (2 Bft) 73,91 %
20.02.2020 17:38 16,9 C 1,4 C 35 % 87 % 1023,2 hPa 0,0 l/m 4,8 km/h (1 Bft) W 270 0 min 0,000 mm 0,0 UV-I 0 W/m -0,5 C 1,4 C 6,4 km/h (2 Bft) 65,22 %
20.02.2020 17:37 16,9 C 1,4 C 35 % 87 % 1023,3 hPa 0,0 l/m 3,2 km/h (1 Bft) W 270 0 min 0,000 mm 0,0 UV-I 0 W/m -0,5 C 1,4 C 6,4 km/h (2 Bft) 65,22 %
20.02.2020 17:36 16,9 C 1,4 C 35 % 87 % 1023,3 hPa 0,0 l/m 4,8 km/h (1 Bft) W 270 0 min 0,000 mm 0,0 UV-I 5 W/m -0,5 C 1,4 C 6,4 km/h (2 Bft) 82,61 %
20.02.2020 17:35 16,9 C 1,4 C 35 % 87 % 1023,2 hPa 0,0 l/m 4,8 km/h (1 Bft) W 270 0 min 0,000 mm 0,0 UV-I 5 W/m -0,5 C 1,4 C 6,4 km/h (2 Bft) 82,61 %
20.02.2020 17:34 16,9 C 1,4 C 35 % 87 % 1023,3 hPa 0,0 l/m 3,2 km/h (1 Bft) W 270 0 min 0,000 mm 0,0 UV-I 7 W/m -0,5 C 1,4 C 4,8 km/h (1 Bft) 78,26 %
20.02.2020 17:33 16,9 C 1,4 C 35 % 87 % 1023,3 hPa 0,0 l/m 4,8 km/h (1 Bft) W 270 0 min 0,000 mm 0,0 UV-I 7 W/m -0,5 C 1,4 C 4,8 km/h (1 Bft) 78,26 %
20.02.2020 17:32 16,9 C 1,4 C 35 % 87 % 1023,2 hPa 0,0 l/m 3,2 km/h (1 Bft) W 270 0 min 0,000 mm 0,0 UV-I 9 W/m -0,5 C 1,4 C 4,8 km/h (1 Bft) 78,26 %
20.02.2020 17:31 16,9 C 1,4 C 35 % 87 % 1023,2 hPa 0,0 l/m 4,8 km/h (1 Bft) W 270 0 min 0,000 mm 0,0 UV-I 9 W/m -0,5 C 1,4 C 6,4 km/h (2 Bft) 82,61 %
20.02.2020 17:30 16,9 C 1,4 C 35 % 87 % 1023,2 hPa 0,0 l/m 6,4 km/h (2 Bft) W 270 0 min 0,000 mm 0,0 UV-I 11 W/m -0,5 C 1,4 C 9,7 km/h (2 Bft) 78,26 %
20.02.2020 17:29 16,9 C 1,3 C 35 % 87 % 1023,2 hPa 0,0 l/m 4,8 km/h (1 Bft) W 270 0 min 0,000 mm 0,0 UV-I 11 W/m -0,6 C 1,3 C 9,7 km/h (2 Bft) 78,26 %
20.02.2020 17:28 16,9 C 1,4 C 35 % 87 % 1023,2 hPa 0,0 l/m 6,4 km/h (2 Bft) W 270 0 min 0,000 mm 0,0 UV-I 11 W/m -0,5 C 1,4 C 9,7 km/h (2 Bft) 82,61 %
20.02.2020 17:27 16,9 C 1,3 C 35 % 87 % 1023,3 hPa 0,0 l/m 6,4 km/h (2 Bft) W 270 0 min 0,000 mm 0,0 UV-I 11 W/m -0,6 C 1,3 C 9,7 km/h (2 Bft) 78,26 %
20.02.2020 17:26 16,9 C 1,3 C 35 % 87 % 1023,3 hPa 0,0 l/m 4,8 km/h (1 Bft) W 270 0 min 0,000 mm 0,0 UV-I 11 W/m -0,6 C 1,3 C 8,0 km/h (2 Bft) 100,00 %
20.02.2020 17:25 16,9 C 1,3 C 35 % 87 % 1023,3 hPa 0,0 l/m 4,8 km/h (1 Bft) W-NW 292 0 min 0,000 mm 0,0 UV-I 11 W/m -0,6 C 1,3 C 6,4 km/h (2 Bft) 78,26 %
20.02.2020 17:24 16,9 C 1,3 C 35 % 87 % 1023,3 hPa 0,0 l/m 4,8 km/h (1 Bft) W-NW 292 0 min 0,000 mm 0,0 UV-I 11 W/m -0,6 C 1,3 C 6,4 km/h (2 Bft) 95,65 %
20.02.2020 17:23 16,9 C 1,3 C 35 % 88 % 1023,2 hPa 0,0 l/m 4,8 km/h (1 Bft) W 270 0 min 0,000 mm 0,0 UV-I 9 W/m -0,5 C 1,3 C 8,0 km/h (2 Bft) 78,26 %
20.02.2020 17:22 16,9 C 1,3 C 35 % 88 % 1023,3 hPa 0,0 l/m 4,8 km/h (1 Bft) W-SW 247 0 min 0,000 mm 0,0 UV-I 9 W/m -0,5 C 1,3 C 8,0 km/h (2 Bft) 82,61 %
20.02.2020 17:21 16,9 C 1,3 C 35 % 88 % 1023,2 hPa 0,0 l/m 4,8 km/h (1 Bft) W 270 0 min 0,000 mm 0,0 UV-I 9 W/m -0,5 C 1,3 C 6,4 km/h (2 Bft) 82,61 %
20.02.2020 17:20 16,9 C 1,3 C 35 % 88 % 1023,2 hPa 0,0 l/m 4,8 km/h (1 Bft) W 270 0 min 0,000 mm 0,0 UV-I 9 W/m -0,5 C 1,3 C 6,4 km/h (2 Bft) 82,61 %
20.02.2020 17:19 16,9 C 1,3 C 35 % 88 % 1023,3 hPa 0,0 l/m 6,4 km/h (2 Bft) W 270 0 min 0,000 mm 0,0 UV-I 9 W/m -0,5 C 1,3 C 9,7 km/h (2 Bft) 73,91 %
20.02.2020 17:18 16,9 C 1,3 C 35 % 88 % 1023,3 hPa 0,0 l/m 6,4 km/h (2 Bft) W 270 0 min 0,000 mm 0,0 UV-I 9 W/m -0,5 C 1,3 C 11,3 km/h (2 Bft) 82,61 %
20.02.2020 17:17 16,9 C 1,3 C 35 % 88 % 1023,3 hPa 0,0 l/m 4,8 km/h (1 Bft) W 270 0 min 0,000 mm 0,0 UV-I 9 W/m -0,5 C 1,3 C 8,0 km/h (2 Bft) 82,61 %
20.02.2020 17:16 16,9 C 1,2 C 35 % 88 % 1023,3 hPa 0,0 l/m 4,8 km/h (1 Bft) W-NW 292 0 min 0,000 mm 0,0 UV-I 9 W/m -0,6 C 1,2 C 6,4 km/h (2 Bft) 73,91 %
20.02.2020 17:15 16,9 C 1,2 C 35 % 88 % 1023,3 hPa 0,0 l/m 4,8 km/h (1 Bft) W 270 0 min 0,000 mm 0,0 UV-I 9 W/m -0,6 C 1,2 C 4,8 km/h (1 Bft) 73,91 %
20.02.2020 17:14 16,9 C 1,2 C 35 % 87 % 1023,3 hPa 0,0 l/m 4,8 km/h (1 Bft) W 270 0 min 0,000 mm 0,0 UV-I 7 W/m -0,7 C 1,2 C 8,0 km/h (2 Bft) 78,26 %
20.02.2020 17:13 16,9 C 1,3 C 35 % 87 % 1023,3 hPa 0,0 l/m 4,8 km/h (1 Bft) W 270 0 min 0,000 mm 0,0 UV-I 7 W/m -0,6 C 1,3 C 6,4 km/h (2 Bft) 78,26 %
20.02.2020 17:12 16,9 C 1,3 C 35 % 87 % 1023,2 hPa 0,0 l/m 4,8 km/h (1 Bft) W-NW 292 0 min 0,000 mm 0,0 UV-I 7 W/m -0,6 C 1,3 C 6,4 km/h (2 Bft) 78,26 %
20.02.2020 17:11 16,8 C 1,3 C 35 % 87 % 1023,3 hPa 0,0 l/m 4,8 km/h (1 Bft) W-NW 292 0 min 0,000 mm 0,0 UV-I 5 W/m -0,6 C 1,3 C 6,4 km/h (2 Bft) 78,26 %
20.02.2020 17:10 16,9 C 1,3 C 35 % 87 % 1023,2 hPa 0,0 l/m 3,2 km/h (1 Bft) W 270 0 min 0,000 mm 0,0 UV-I 5 W/m -0,6 C 1,3 C 4,8 km/h (1 Bft) 60,87 %
20.02.2020 17:09 16,8 C 1,3 C 35 % 87 % 1023,3 hPa 0,0 l/m 4,8 km/h (1 Bft) W 270 0 min 0,000 mm 0,0 UV-I 5 W/m -0,6 C 1,3 C 6,4 km/h (2 Bft) 78,26 %
20.02.2020 17:08 16,9 C 1,3 C 35 % 87 % 1023,3 hPa 0,0 l/m 3,2 km/h (1 Bft) W-NW 292 0 min 0,000 mm 0,0 UV-I 7 W/m -0,6 C 1,3 C 4,8 km/h (1 Bft) 73,91 %
20.02.2020 17:07 16,9 C 1,4 C 35 % 87 % 1023,3 hPa 0,0 l/m 4,8 km/h (1 Bft) W 270 0 min 0,000 mm 0,0 UV-I 5 W/m -0,5 C 1,4 C 6,4 km/h (2 Bft) 73,91 %
20.02.2020 17:06 16,9 C 1,3 C 35 % 87 % 1023,4 hPa 0,0 l/m 4,8 km/h (1 Bft) W 270 0 min 0,000 mm 0,0 UV-I 5 W/m -0,6 C 1,3 C 6,4 km/h (2 Bft) 60,87 %
20.02.2020 17:05 16,9 C 1,3 C 35 % 87 % 1023,3 hPa 0,0 l/m 4,8 km/h (1 Bft) W 270 0 min 0,000 mm 0,0 UV-I 5 W/m -0,6 C 1,3 C 4,8 km/h (1 Bft) 65,22 %
20.02.2020 17:04 16,9 C 1,4 C 35 % 87 % 1023,3 hPa 0,0 l/m 4,8 km/h (1 Bft) W 270 0 min 0,000 mm 0,0 UV-I 7 W/m -0,5 C 1,4 C 4,8 km/h (1 Bft) 65,22 %
20.02.2020 17:03 16,9 C 1,4 C 35 % 87 % 1023,3 hPa 0,0 l/m 3,2 km/h (1 Bft) W 270 0 min 0,000 mm 0,0 UV-I 7 W/m -0,5 C 1,4 C 4,8 km/h (1 Bft) 69,57 %
20.02.2020 17:02 16,9 C 1,4 C 35 % 87 % 1023,3 hPa 0,0 l/m 3,2 km/h (1 Bft) W 270 0 min 0,000 mm 0,0 UV-I 7 W/m -0,5 C 1,4 C 4,8 km/h (1 Bft) 73,91 %
20.02.2020 17:01 16,9 C 1,4 C 35 % 87 % 1023,4 hPa 0,0 l/m 3,2 km/h (1 Bft) W 270 0 min 0,000 mm 0,0 UV-I 7 W/m -0,5 C 1,4 C 3,2 km/h (1 Bft) 69,57 %
20.02.2020 17:00 16,9 C 1,4 C 35 % 87 % 1023,4 hPa 0,0 l/m 3,2 km/h (1 Bft) W 270 0 min 0,025 mm 0,0 UV-I 7 W/m -0,5 C 1,4 C 4,8 km/h (1 Bft) 69,57 %
20.02.2020 16:59 16,9 C 1,4 C 34 % 87 % 1023,5 hPa 0,0 l/m 4,8 km/h (1 Bft) W 270 0 min 0,000 mm 0,0 UV-I 9 W/m -0,5 C 1,4 C 8,0 km/h (2 Bft) 73,91 %
20.02.2020 16:58 16,9 C 1,4 C 34 % 87 % 1023,5 hPa 0,0 l/m 4,8 km/h (1 Bft) W 270 0 min 0,000 mm 0,0 UV-I 9 W/m -0,5 C 1,4 C 8,0 km/h (2 Bft) 100,00 %
20.02.2020 16:57 16,9 C 1,4 C 35 % 87 % 1023,5 hPa 0,0 l/m 4,8 km/h (1 Bft) W 270 0 min 0,000 mm 0,0 UV-I 11 W/m -0,5 C 1,4 C 6,4 km/h (2 Bft) 100,00 %
20.02.2020 16:56 16,9 C 1,4 C 34 % 87 % 1023,5 hPa 0,0 l/m 3,2 km/h (1 Bft) W-NW 292 0 min 0,000 mm 0,0 UV-I 11 W/m -0,5 C 1,4 C 4,8 km/h (1 Bft) 95,65 %
20.02.2020 16:55 16,9 C 1,4 C 34 % 87 % 1023,6 hPa 0,0 l/m 3,2 km/h (1 Bft) W-NW 292 0 min 0,000 mm 0,0 UV-I 12 W/m -0,5 C 1,4 C 4,8 km/h (1 Bft) 100,00 %
20.02.2020 16:54 16,9 C 1,4 C 34 % 87 % 1023,6 hPa 0,0 l/m 3,2 km/h (1 Bft) W-NW 292 0 min 0,000 mm 0,0 UV-I 14 W/m -0,5 C 1,4 C 6,4 km/h (2 Bft) 100,00 %
20.02.2020 16:53 16,9 C 1,4 C 35 % 87 % 1023,5 hPa 0,0 l/m 4,8 km/h (1 Bft) W-NW 292 0 min 0,000 mm 0,0 UV-I 16 W/m -0,5 C 1,4 C 8,0 km/h (2 Bft) 95,65 %
20.02.2020 16:52 16,9 C 1,4 C 34 % 87 % 1023,6 hPa 0,0 l/m 4,8 km/h (1 Bft) W-NW 292 0 min 0,000 mm 0,0 UV-I 16 W/m -0,5 C 1,4 C 6,4 km/h (2 Bft) 95,65 %
20.02.2020 16:51 16,9 C 1,4 C 34 % 87 % 1023,6 hPa 0,0 l/m 3,2 km/h (1 Bft) W-NW 292 0 min 0,000 mm 0,0 UV-I 18 W/m -0,5 C 1,4 C 6,4 km/h (2 Bft) 95,65 %
20.02.2020 16:50 16,9 C 1,4 C 34 % 87 % 1023,5 hPa 0,0 l/m 3,2 km/h (1 Bft) W-NW 292 0 min 0,000 mm 0,0 UV-I 19 W/m -0,5 C 1,4 C 4,8 km/h (1 Bft) 95,65 %
20.02.2020 16:49 16,9 C 1,4 C 34 % 87 % 1023,6 hPa 0,0 l/m 3,2 km/h (1 Bft) W-NW 292 0 min 0,000 mm 0,0 UV-I 21 W/m -0,5 C 1,4 C 4,8 km/h (1 Bft) 86,96 %
20.02.2020 16:48 16,9 C 1,4 C 34 % 87 % 1023,6 hPa 0,0 l/m 3,2 km/h (1 Bft) W-NW 292 0 min 0,000 mm 0,0 UV-I 23 W/m -0,5 C 1,4 C 4,8 km/h (1 Bft) 95,65 %
20.02.2020 16:47 16,9 C 1,4 C 34 % 87 % 1023,6 hPa 0,0 l/m 3,2 km/h (1 Bft) W-NW 292 0 min 0,000 mm 0,0 UV-I 23 W/m -0,5 C 1,4 C 4,8 km/h (1 Bft) 91,30 %
20.02.2020 16:46 16,9 C 1,4 C 34 % 87 % 1023,6 hPa 0,0 l/m 4,8 km/h (1 Bft) W-NW 292 0 min 0,000 mm 0,0 UV-I 23 W/m -0,5 C 1,4 C 4,8 km/h (1 Bft) 95,65 %
20.02.2020 16:45 16,9 C 1,4 C 34 % 87 % 1023,6 hPa 0,0 l/m 4,8 km/h (1 Bft) W-NW 292 0 min 0,000 mm 0,0 UV-I 25 W/m -0,5 C 1,4 C 6,4 km/h (2 Bft) 100,00 %
20.02.2020 16:44 16,9 C 1,3 C 34 % 87 % 1023,7 hPa 0,0 l/m 4,8 km/h (1 Bft) W-NW 292 0 min 0,000 mm 0,0 UV-I 25 W/m -0,6 C 1,3 C 8,0 km/h (2 Bft) 86,96 %
20.02.2020 16:43 16,9 C 1,3 C 34 % 87 % 1023,8 hPa 0,0 l/m 4,8 km/h (1 Bft) W-NW 292 0 min 0,000 mm 0,0 UV-I 28 W/m -0,6 C 1,3 C 8,0 km/h (2 Bft) 100,00 %
20.02.2020 16:42 17,0 C 1,4 C 34 % 87 % 1023,6 hPa 0,0 l/m 6,4 km/h (2 Bft) W-NW 292 0 min 0,000 mm 0,0 UV-I 30 W/m -0,5 C 1,4 C 11,3 km/h (2 Bft) 91,30 %
20.02.2020 16:41 17,0 C 1,4 C 34 % 87 % 1023,7 hPa 0,0 l/m 4,8 km/h (1 Bft) W-NW 292 0 min 0,000 mm 0,0 UV-I 32 W/m -0,5 C 1,4 C 8,0 km/h (2 Bft) 100,00 %
20.02.2020 16:40 17,0 C 1,4 C 34 % 87 % 1023,6 hPa 0,0 l/m 4,8 km/h (1 Bft) W-NW 292 0 min 0,000 mm 0,0 UV-I 33 W/m -0,5 C 1,4 C 8,0 km/h (2 Bft) 100,00 %
20.02.2020 16:39 17,0 C 1,3 C 34 % 87 % 1023,7 hPa 0,0 l/m 6,4 km/h (2 Bft) W-NW 292 0 min 0,000 mm 0,0 UV-I 33 W/m -0,6 C 1,3 C 8,0 km/h (2 Bft) 100,00 %
20.02.2020 16:38 17,0 C 1,4 C 34 % 87 % 1023,7 hPa 0,0 l/m 6,4 km/h (2 Bft) W-NW 292 0 min 0,000 mm 0,0 UV-I 33 W/m -0,5 C 1,4 C 8,0 km/h (2 Bft) 100,00 %
20.02.2020 16:37 17,0 C 1,4 C 34 % 87 % 1023,7 hPa 0,0 l/m 4,8 km/h (1 Bft) W-NW 292 0 min 0,000 mm 0,0 UV-I 33 W/m -0,5 C 1,4 C 6,4 km/h (2 Bft) 91,30 %
20.02.2020 16:36 17,0 C 1,4 C 34 % 87 % 1023,7 hPa 0,0 l/m 6,4 km/h (2 Bft) W-NW 292 0 min 0,000 mm 0,0 UV-I 33 W/m -0,5 C 1,4 C 6,4 km/h (2 Bft) 100,00 %
20.02.2020 16:35 17,0 C 1,4 C 34 % 87 % 1023,6 hPa 0,0 l/m 6,4 km/h (2 Bft) W 270 0 min 0,000 mm 0,0 UV-I 33 W/m -0,5 C 1,4 C 9,7 km/h (2 Bft) 100,00 %
20.02.2020 16:34 17,0 C 1,4 C 34 % 87 % 1023,8 hPa 0,0 l/m 4,8 km/h (1 Bft) W-NW 292 0 min 0,000 mm 0,0 UV-I 33 W/m -0,5 C 1,4 C 6,4 km/h (2 Bft) 100,00 %
20.02.2020 16:33 17,0 C 1,4 C 34 % 87 % 1023,7 hPa 0,0 l/m 6,4 km/h (2 Bft) W-NW 292 0 min 0,000 mm 0,0 UV-I 33 W/m -0,5 C 1,4 C 8,0 km/h (2 Bft) 100,00 %
20.02.2020 16:32 17,0 C 1,4 C 34 % 87 % 1023,8 hPa 0,0 l/m 6,4 km/h (2 Bft) W 270 0 min 0,000 mm 0,0 UV-I 33 W/m -0,5 C 1,4 C 9,7 km/h (2 Bft) 95,65 %
20.02.2020 16:31 17,0 C 1,4 C 34 % 87 % 1023,8 hPa 0,0 l/m 4,8 km/h (1 Bft) W 270 0 min 0,000 mm 0,0 UV-I 33 W/m -0,5 C 1,4 C 6,4 km/h (2 Bft) 100,00 %
20.02.2020 16:30 17,0 C 1,4 C 34 % 87 % 1023,8 hPa 0,0 l/m 9,7 km/h (2 Bft) W-NW 292 0 min 0,000 mm 0,0 UV-I 35 W/m -0,5 C -1,7 C 12,9 km/h (3 Bft) 100,00 %
20.02.2020 16:29 17,0 C 1,4 C 34 % 87 % 1023,8 hPa 0,0 l/m 6,4 km/h (2 Bft) NW 315 0 min 0,000 mm 0,0 UV-I 35 W/m -0,5 C 1,4 C 11,3 km/h (2 Bft) 91,30 %
20.02.2020 16:28 17,0 C 1,4 C 34 % 87 % 1023,7 hPa 0,0 l/m 6,4 km/h (2 Bft) W 270 0 min 0,000 mm 0,0 UV-I 35 W/m -0,5 C 1,4 C 11,3 km/h (2 Bft) 100,00 %
20.02.2020 16:27 17,1 C 1,4 C 34 % 87 % 1023,8 hPa 0,0 l/m 6,4 km/h (2 Bft) W-NW 292 0 min 0,000 mm 0,0 UV-I 37 W/m -0,5 C 1,4 C 8,0 km/h (2 Bft) 100,00 %
20.02.2020 16:26 17,1 C 1,4 C 34 % 87 % 1023,8 hPa 0,0 l/m 8,0 km/h (2 Bft) W-NW 292 0 min 0,000 mm 0,0 UV-I 37 W/m -0,5 C -0,2 C 12,9 km/h (3 Bft) 100,00 %
20.02.2020 16:25 17,1 C 1,4 C 34 % 87 % 1023,8 hPa 0,0 l/m 6,4 km/h (2 Bft) W-NW 292 0 min 0,000 mm 0,0 UV-I 39 W/m -0,5 C 1,4 C 11,3 km/h (2 Bft) 95,65 %
20.02.2020 16:24 17,0 C 1,4 C 34 % 87 % 1023,8 hPa 0,0 l/m 6,4 km/h (2 Bft) NW 315 0 min 0,000 mm 0,0 UV-I 39 W/m -0,5 C 1,4 C 9,7 km/h (2 Bft) 100,00 %
20.02.2020 16:23 17,1 C 1,4 C 34 % 87 % 1023,8 hPa 0,0 l/m 8,0 km/h (2 Bft) W-NW 292 0 min 0,000 mm 0,0 UV-I 39 W/m -0,5 C -0,2 C 11,3 km/h (2 Bft) 100,00 %
20.02.2020 16:22 17,1 C 1,4 C 34 % 87 % 1023,8 hPa 0,0 l/m 6,4 km/h (2 Bft) W-NW 292 0 min 0,000 mm 0,0 UV-I 39 W/m -0,5 C 1,4 C 9,7 km/h (2 Bft) 100,00 %
20.02.2020 16:21 17,1 C 1,4 C 34 % 87 % 1023,8 hPa 0,0 l/m 6,4 km/h (2 Bft) W-NW 292 0 min 0,000 mm 0,0 UV-I 39 W/m -0,5 C 1,4 C 11,3 km/h (2 Bft) 95,65 %
20.02.2020 16:20 17,1 C 1,4 C 34 % 87 % 1023,8 hPa 0,0 l/m 4,8 km/h (1 Bft) W-NW 292 0 min 0,000 mm 0,0 UV-I 40 W/m -0,5 C 1,4 C 4,8 km/h (1 Bft) 100,00 %
20.02.2020 16:19 17,1 C 1,4 C 34 % 86 % 1023,7 hPa 0,0 l/m 4,8 km/h (1 Bft) W-NW 292 0 min 0,000 mm 0,0 UV-I 40 W/m -0,7 C 1,4 C 6,4 km/h (2 Bft) 95,65 %
20.02.2020 16:18 17,1 C 1,4 C 34 % 86 % 1023,8 hPa 0,0 l/m 6,4 km/h (2 Bft) W-NW 292 0 min 0,000 mm 0,0 UV-I 40 W/m -0,7 C 1,4 C 8,0 km/h (2 Bft) 100,00 %
20.02.2020 16:17 17,1 C 1,5 C 34 % 86 % 1023,8 hPa 0,0 l/m 4,8 km/h (1 Bft) W-NW 292 0 min 0,000 mm 0,0 UV-I 42 W/m -0,6 C 1,5 C 8,0 km/h (2 Bft) 100,00 %
20.02.2020 16:16 17,1 C 1,5 C 34 % 86 % 1023,8 hPa 0,0 l/m 4,8 km/h (1 Bft) W-NW 292 0 min 0,000 mm 0,0 UV-I 42 W/m -0,6 C 1,5 C 8,0 km/h (2 Bft) 91,30 %
20.02.2020 16:15 17,1 C 1,5 C 34 % 86 % 1023,9 hPa 0,0 l/m 4,8 km/h (1 Bft) W-NW 292 0 min 0,000 mm 0,0 UV-I 44 W/m -0,6 C 1,5 C 8,0 km/h (2 Bft) 95,65 %
20.02.2020 16:14 17,1 C 1,5 C 34 % 86 % 1023,9 hPa 0,0 l/m 6,4 km/h (2 Bft) W-NW 292 0 min 0,000 mm 0,0 UV-I 46 W/m -0,6 C 1,5 C 8,0 km/h (2 Bft) 100,00 %
20.02.2020 16:13 17,1 C 1,5 C 34 % 86 % 1023,9 hPa 0,0 l/m 8,0 km/h (2 Bft) W-NW 292 0 min 0,000 mm 0,0 UV-I 47 W/m -0,6 C -0,1 C 12,9 km/h (3 Bft) 100,00 %
20.02.2020 16:12 17,1 C 1,5 C 34 % 86 % 1023,9 hPa 0,0 l/m 4,8 km/h (1 Bft) W-NW 292 0 min 0,000 mm 0,0 UV-I 49 W/m -0,6 C 1,5 C 6,4 km/h (2 Bft) 100,00 %
20.02.2020 16:11 17,1 C 1,5 C 34 % 86 % 1023,9 hPa 0,0 l/m 6,4 km/h (2 Bft) W-NW 292 0 min 0,000 mm 0,0 UV-I 51 W/m -0,6 C 1,5 C 8,0 km/h (2 Bft) 100,00 %
20.02.2020 16:10 17,1 C 1,5 C 34 % 86 % 1023,9 hPa 0,0 l/m 6,4 km/h (2 Bft) W-NW 292 0 min 0,000 mm 0,0 UV-I 53 W/m -0,6 C 1,5 C 9,7 km/h (2 Bft) 95,65 %
20.02.2020 16:09 17,1 C 1,5 C 34 % 86 % 1023,9 hPa 0,2 l/m 6,4 km/h (2 Bft) W-NW 292 0 min 0,000 mm 0,0 UV-I 54 W/m -0,6 C 1,5 C 9,7 km/h (2 Bft) 100,00 %
20.02.2020 16:08 17,1 C 1,6 C 34 % 86 % 1023,9 hPa 0,0 l/m 3,2 km/h (1 Bft) NW 315 0 min 0,000 mm 0,0 UV-I 56 W/m -0,5 C 1,6 C 6,4 km/h (2 Bft) 60,87 %
20.02.2020 16:07 17,1 C 1,5 C 34 % 86 % 1023,9 hPa 0,0 l/m 4,8 km/h (1 Bft) N-NW 337 0 min 0,000 mm 0,0 UV-I 60 W/m -0,6 C 1,5 C 8,0 km/h (2 Bft) 78,26 %
20.02.2020 16:06 17,1 C 1,5 C 34 % 86 % 1023,9 hPa 0,0 l/m 4,8 km/h (1 Bft) NW 315 0 min 0,000 mm 0,0 UV-I 58 W/m -0,6 C 1,5 C 6,4 km/h (2 Bft) 65,22 %
20.02.2020 16:05 17,1 C 1,6 C 34 % 86 % 1023,9 hPa 0,0 l/m 4,8 km/h (1 Bft) W 270 0 min 0,000 mm 0,0 UV-I 56 W/m -0,5 C 1,6 C 6,4 km/h (2 Bft) 69,57 %
20.02.2020 16:04 17,1 C 1,6 C 34 % 86 % 1024,0 hPa 0,0 l/m 6,4 km/h (2 Bft) W 270 0 min 0,000 mm 0,0 UV-I 54 W/m -0,5 C 1,6 C 8,0 km/h (2 Bft) 69,57 %
20.02.2020 16:03 17,1 C 1,6 C 34 % 86 % 1023,9 hPa 0,0 l/m 4,8 km/h (1 Bft) W-NW 292 0 min 0,000 mm 0,0 UV-I 53 W/m -0,5 C 1,6 C 6,4 km/h (2 Bft) 73,91 %
20.02.2020 16:02 17,2 C 1,6 C 34 % 85 % 1023,9 hPa 0,0 l/m 4,8 km/h (1 Bft) NW 315 0 min 0,000 mm 0,0 UV-I 51 W/m -0,6 C 1,6 C 8,0 km/h (2 Bft) 73,91 %
20.02.2020 16:01 17,1 C 1,6 C 34 % 86 % 1024,1 hPa 0,0 l/m 6,4 km/h (2 Bft) NW 315 0 min 0,000 mm 0,0 UV-I 49 W/m -0,5 C 1,6 C 8,0 km/h (2 Bft) 78,26 %
20.02.2020 16:00 17,2 C 1,6 C 34 % 86 % 1024,0 hPa 0,0 l/m 8,0 km/h (2 Bft) W-NW 292 0 min 0,051 mm 0,0 UV-I 51 W/m -0,5 C 0,0 C 11,3 km/h (2 Bft) 69,57 %
20.02.2020 15:59 17,2 C 1,6 C 34 % 86 % 1024,0 hPa 0,0 l/m 6,4 km/h (2 Bft) W 270 0 min 0,000 mm 0,0 UV-I 53 W/m -0,5 C 1,6 C 8,0 km/h (2 Bft) 82,61 %
20.02.2020 15:58 17,2 C 1,6 C 34 % 85 % 1024,1 hPa 0,0 l/m 4,8 km/h (1 Bft) NW 315 0 min 0,000 mm 0,0 UV-I 54 W/m -0,6 C 1,6 C 6,4 km/h (2 Bft) 86,96 %
20.02.2020 15:57 17,2 C 1,6 C 34 % 86 % 1024,0 hPa 0,0 l/m 4,8 km/h (1 Bft) W 270 0 min 0,000 mm 0,0 UV-I 56 W/m -0,5 C 1,6 C 8,0 km/h (2 Bft) 91,30 %
20.02.2020 15:56 17,2 C 1,6 C 34 % 86 % 1024,1 hPa 0,0 l/m 6,4 km/h (2 Bft) W 270 0 min 0,000 mm 0,0 UV-I 62 W/m -0,5 C 1,6 C 9,7 km/h (2 Bft) 78,26 %
20.02.2020 15:55 17,2 C 1,6 C 34 % 86 % 1024,1 hPa 0,0 l/m 6,4 km/h (2 Bft) W-NW 292 0 min 0,000 mm 0,0 UV-I 63 W/m -0,5 C 1,6 C 9,7 km/h (2 Bft) 91,30 %
20.02.2020 15:54 17,2 C 1,6 C 34 % 86 % 1024,1 hPa 0,0 l/m 8,0 km/h (2 Bft) W-NW 292 0 min 0,000 mm 0,0 UV-I 67 W/m -0,5 C 0,0 C 11,3 km/h (2 Bft) 78,26 %
20.02.2020 15:53 17,2 C 1,7 C 34 % 86 % 1024,1 hPa 0,0 l/m 4,8 km/h (1 Bft) W-NW 292 0 min 0,000 mm 0,0 UV-I 70 W/m -0,4 C 1,7 C 8,0 km/h (2 Bft) 91,30 %
20.02.2020 15:52 17,2 C 1,7 C 34 % 86 % 1024,2 hPa 0,0 l/m 6,4 km/h (2 Bft) W-NW 292 0 min 0,000 mm 0,0 UV-I 74 W/m -0,4 C 1,7 C 9,7 km/h (2 Bft) 82,61 %
20.02.2020 15:51 17,2 C 1,7 C 34 % 86 % 1024,2 hPa 0,0 l/m 4,8 km/h (1 Bft) W-NW 292 0 min 0,000 mm 0,0 UV-I 79 W/m -0,4 C 1,7 C 6,4 km/h (2 Bft) 69,57 %
20.02.2020 15:50 17,2 C 1,7 C 34 % 86 % 1024,2 hPa 0,0 l/m 6,4 km/h (2 Bft) W-NW 292 0 min 0,000 mm 0,0 UV-I 79 W/m -0,4 C 1,7 C 8,0 km/h (2 Bft) 78,26 %
20.02.2020 15:49 17,2 C 1,7 C 34 % 86 % 1024,2 hPa 0,0 l/m 8,0 km/h (2 Bft) W 270 0 min 0,000 mm 0,0 UV-I 81 W/m -0,4 C 0,1 C 12,9 km/h (3 Bft) 91,30 %
20.02.2020 15:48 17,3 C 1,7 C 34 % 86 % 1024,2 hPa 0,0 l/m 4,8 km/h (1 Bft) NW 315 0 min 0,000 mm 0,0 UV-I 86 W/m -0,4 C 1,7 C 8,0 km/h (2 Bft) 95,65 %
20.02.2020 15:47 17,3 C 1,7 C 34 % 86 % 1024,2 hPa 0,0 l/m 6,4 km/h (2 Bft) W-NW 292 0 min 0,000 mm 0,0 UV-I 91 W/m -0,4 C 1,7 C 11,3 km/h (2 Bft) 100,00 %
20.02.2020 15:46 17,3 C 1,7 C 34 % 86 % 1024,2 hPa 0,0 l/m 6,4 km/h (2 Bft) W 270 0 min 0,000 mm 0,0 UV-I 95 W/m -0,4 C 1,7 C 8,0 km/h (2 Bft) 95,65 %
20.02.2020 15:45 17,2 C 1,7 C 34 % 86 % 1024,2 hPa 0,0 l/m 4,8 km/h (1 Bft) NW 315 0 min 0,000 mm 0,0 UV-I 107 W/m -0,4 C 1,7 C 6,4 km/h (2 Bft) 100,00 %
20.02.2020 15:44 17,3 C 1,7 C 34 % 86 % 1024,2 hPa 0,0 l/m 6,4 km/h (2 Bft) W-NW 292 0 min 0,000 mm 0,0 UV-I 114 W/m -0,4 C 1,7 C 11,3 km/h (2 Bft) 95,65 %
20.02.2020 15:43 17,3 C 1,7 C 34 % 86 % 1024,2 hPa 0,0 l/m 6,4 km/h (2 Bft) W 270 0 min 0,000 mm 0,0 UV-I 120 W/m -0,4 C 1,7 C 9,7 km/h (2 Bft) 100,00 %
20.02.2020 15:42 17,3 C 1,7 C 34 % 86 % 1024,2 hPa 0,0 l/m 4,8 km/h (1 Bft) W 270 0 min 0,000 mm 0,0 UV-I 123 W/m -0,4 C 1,7 C 9,7 km/h (2 Bft) 73,91 %
20.02.2020 15:41 17,3 C 1,6 C 34 % 86 % 1024,2 hPa 0,0 l/m 6,4 km/h (2 Bft) NW 315 0 min 0,000 mm 0,0 UV-I 125 W/m -0,5 C 1,6 C 8,0 km/h (2 Bft) 82,61 %
20.02.2020 15:40 17,3 C 1,6 C 34 % 86 % 1024,2 hPa 0,0 l/m 9,7 km/h (2 Bft) W 270 0 min 0,000 mm 0,0 UV-I 128 W/m -0,5 C -1,4 C 14,5 km/h (3 Bft) 78,26 %
20.02.2020 15:39 17,3 C 1,7 C 34 % 86 % 1024,3 hPa 0,0 l/m 6,4 km/h (2 Bft) W 270 0 min 0,000 mm 0,0 UV-I 128 W/m -0,4 C 1,7 C 9,7 km/h (2 Bft) 73,91 %
20.02.2020 15:38 17,3 C 1,7 C 34 % 86 % 1024,3 hPa 0,0 l/m 6,4 km/h (2 Bft) W-NW 292 0 min 0,000 mm 0,0 UV-I 125 W/m -0,4 C 1,7 C 9,7 km/h (2 Bft) 73,91 %
20.02.2020 15:37 17,3 C 1,7 C 34 % 86 % 1024,3 hPa 0,0 l/m 6,4 km/h (2 Bft) W-NW 292 0 min 0,000 mm 0,0 UV-I 125 W/m -0,4 C 1,7 C 8,0 km/h (2 Bft) 86,96 %
20.02.2020 15:36 17,3 C 1,7 C 34 % 85 % 1024,3 hPa 0,0 l/m 6,4 km/h (2 Bft) W-NW 292 0 min 0,000 mm 0,0 UV-I 127 W/m -0,5 C 1,7 C 6,4 km/h (2 Bft) 82,61 %
20.02.2020 15:35 17,3 C 1,7 C 34 % 85 % 1024,3 hPa 0,0 l/m 4,8 km/h (1 Bft) W 270 0 min 0,000 mm 0,0 UV-I 121 W/m -0,5 C 1,7 C 6,4 km/h (2 Bft) 73,91 %
20.02.2020 15:34 17,3 C 1,7 C 34 % 85 % 1024,4 hPa 0,0 l/m 8,0 km/h (2 Bft) W-NW 292 0 min 0,000 mm 0,0 UV-I 120 W/m -0,5 C 0,1 C 9,7 km/h (2 Bft) 78,26 %
20.02.2020 15:33 17,3 C 1,7 C 34 % 85 % 1024,3 hPa 0,0 l/m 8,0 km/h (2 Bft) W-NW 292 0 min 0,000 mm 0,0 UV-I 120 W/m -0,5 C 0,1 C 11,3 km/h (2 Bft) 82,61 %
20.02.2020 15:32 17,3 C 1,6 C 34 % 85 % 1024,4 hPa 0,0 l/m 9,7 km/h (2 Bft) W-NW 292 0 min 0,000 mm 0,0 UV-I 120 W/m -0,6 C -1,4 C 11,3 km/h (2 Bft) 65,22 %
20.02.2020 15:31 17,4 C 1,7 C 34 % 86 % 1024,4 hPa 0,0 l/m 6,4 km/h (2 Bft) NW 315 0 min 0,000 mm 0,0 UV-I 123 W/m -0,4 C 1,7 C 9,7 km/h (2 Bft) 82,61 %
20.02.2020 15:30 17,4 C 1,6 C 34 % 86 % 1024,4 hPa 0,0 l/m 8,0 km/h (2 Bft) W-NW 292 0 min 0,000 mm 0,0 UV-I 125 W/m -0,5 C 0,0 C 11,3 km/h (2 Bft) 82,61 %
20.02.2020 15:29 17,4 C 1,6 C 34 % 86 % 1024,4 hPa 0,0 l/m 6,4 km/h (2 Bft) NW 315 0 min 0,000 mm 0,0 UV-I 127 W/m -0,5 C 1,6 C 9,7 km/h (2 Bft) 78,26 %
20.02.2020 15:28 17,4 C 1,6 C 34 % 86 % 1024,4 hPa 0,0 l/m 6,4 km/h (2 Bft) W 270 0 min 0,000 mm 0,0 UV-I 128 W/m -0,5 C 1,6 C 11,3 km/h (2 Bft) 86,96 %
20.02.2020 15:27 17,4 C 1,6 C 34 % 85 % 1024,4 hPa 0,0 l/m 6,4 km/h (2 Bft) W 270 0 min 0,000 mm 0,0 UV-I 130 W/m -0,6 C 1,6 C 9,7 km/h (2 Bft) 86,96 %
20.02.2020 15:26 17,4 C 1,6 C 34 % 85 % 1024,4 hPa 0,0 l/m 6,4 km/h (2 Bft) W-NW 292 0 min 0,000 mm 0,0 UV-I 134 W/m -0,6 C 1,6 C 8,0 km/h (2 Bft) 86,96 %
20.02.2020 15:25 17,4 C 1,6 C 34 % 85 % 1024,5 hPa 0,0 l/m 8,0 km/h (2 Bft) W 270 0 min 0,000 mm 0,0 UV-I 137 W/m -0,6 C 0,0 C 11,3 km/h (2 Bft) 78,26 %
20.02.2020 15:24 17,4 C 1,6 C 34 % 85 % 1024,5 hPa 0,0 l/m 6,4 km/h (2 Bft) W-NW 292 0 min 0,000 mm 0,0 UV-I 139 W/m -0,6 C 1,6 C 9,7 km/h (2 Bft) 86,96 %
20.02.2020 15:23 17,4 C 1,6 C 34 % 85 % 1024,5 hPa 0,0 l/m 4,8 km/h (1 Bft) W-NW 292 0 min 0,000 mm 0,0 UV-I 139 W/m -0,6 C 1,6 C 6,4 km/h (2 Bft) 78,26 %
20.02.2020 15:22 17,4 C 1,6 C 34 % 85 % 1024,6 hPa 0,0 l/m 8,0 km/h (2 Bft) W-NW 292 0 min 0,000 mm 0,0 UV-I 139 W/m -0,6 C 0,0 C 9,7 km/h (2 Bft) 73,91 %
20.02.2020 15:21 17,4 C 1,6 C 34 % 85 % 1024,5 hPa 0,0 l/m 9,7 km/h (2 Bft) W 270 0 min 0,000 mm 0,0 UV-I 141 W/m -0,6 C -1,4 C 12,9 km/h (3 Bft) 86,96 %
20.02.2020 15:20 17,4 C 1,6 C 34 % 85 % 1024,5 hPa 0,0 l/m 6,4 km/h (2 Bft) W-NW 292 0 min 0,000 mm 0,5 UV-I 142 W/m -0,6 C 1,6 C 9,7 km/h (2 Bft) 82,61 %
20.02.2020 15:19 17,4 C 1,6 C 34 % 85 % 1024,4 hPa 0,0 l/m 8,0 km/h (2 Bft) W-NW 292 0 min 0,000 mm 0,5 UV-I 142 W/m -0,6 C 0,0 C 9,7 km/h (2 Bft) 73,91 %
20.02.2020 15:18 17,5 C 1,6 C 34 % 86 % 1024,5 hPa 0,0 l/m 6,4 km/h (2 Bft) W-NW 292 0 min 0,000 mm 0,5 UV-I 141 W/m -0,5 C 1,6 C 11,3 km/h (2 Bft) 82,61 %
20.02.2020 15:17 17,4 C 1,7 C 34 % 85 % 1024,4 hPa 0,2 l/m 8,0 km/h (2 Bft) W-NW 292 0 min 0,000 mm 0,5 UV-I 134 W/m -0,5 C 0,1 C 11,3 km/h (2 Bft) 73,91 %
20.02.2020 15:16 17,5 C 1,7 C 34 % 85 % 1024,5 hPa 0,0 l/m 4,8 km/h (1 Bft) W-NW 292 0 min 0,000 mm 0,5 UV-I 118 W/m -0,5 C 1,7 C 6,4 km/h (2 Bft) 95,65 %
20.02.2020 15:15 17,5 C 1,7 C 34 % 85 % 1024,5 hPa 0,0 l/m 6,4 km/h (2 Bft) NW 315 0 min 0,000 mm 0,5 UV-I 118 W/m -0,5 C 1,7 C 9,7 km/h (2 Bft) 100,00 %
20.02.2020 15:14 17,5 C 1,7 C 34 % 84 % 1024,5 hPa 0,0 l/m 8,0 km/h (2 Bft) W-NW 292 0 min 0,000 mm 0,5 UV-I 102 W/m -0,7 C 0,1 C 14,5 km/h (3 Bft) 95,65 %
20.02.2020 15:13 17,5 C 1,7 C 34 % 84 % 1024,5 hPa 0,0 l/m 8,0 km/h (2 Bft) W-NW 292 0 min 0,000 mm 0,5 UV-I 95 W/m -0,7 C 0,1 C 12,9 km/h (3 Bft) 91,30 %
20.02.2020 15:12 17,5 C 1,8 C 34 % 84 % 1024,6 hPa 0,0 l/m 8,0 km/h (2 Bft) NW 315 0 min 0,000 mm 0,5 UV-I 91 W/m -0,6 C 0,2 C 11,3 km/h (2 Bft) 100,00 %
20.02.2020 15:11 17,6 C 1,9 C 34 % 84 % 1024,6 hPa 0,0 l/m 8,0 km/h (2 Bft) W 270 0 min 0,000 mm 0,5 UV-I 90 W/m -0,5 C 0,3 C 9,7 km/h (2 Bft) 100,00 %
20.02.2020 15:10 17,5 C 1,9 C 34 % 83 % 1024,6 hPa 0,0 l/m 6,4 km/h (2 Bft) NW 315 0 min 0,000 mm 0,5 UV-I 93 W/m -0,7 C 1,9 C 9,7 km/h (2 Bft) 95,65 %
20.02.2020 15:09 17,5 C 2,1 C 34 % 83 % 1024,6 hPa 0,0 l/m 9,7 km/h (2 Bft) W-NW 292 0 min 0,000 mm 0,5 UV-I 109 W/m -0,5 C -0,9 C 12,9 km/h (3 Bft) 100,00 %
20.02.2020 15:08 17,5 C 2,2 C 34 % 84 % 1024,6 hPa 0,0 l/m 9,7 km/h (2 Bft) W-NW 292 0 min 0,000 mm 0,5 UV-I 132 W/m -0,2 C -0,8 C 14,5 km/h (3 Bft) 100,00 %
20.02.2020 15:07 17,5 C 2,2 C 34 % 84 % 1024,6 hPa 0,0 l/m 6,4 km/h (2 Bft) W-NW 292 1 min 0,000 mm 0,6 UV-I 169 W/m -0,2 C 2,2 C 9,7 km/h (2 Bft) 100,00 %
20.02.2020 15:06 17,5 C 2,2 C 34 % 84 % 1024,6 hPa 0,0 l/m 8,0 km/h (2 Bft) W-NW 292 1 min 0,000 mm 0,6 UV-I 258 W/m -0,2 C 0,7 C 12,9 km/h (3 Bft) 91,30 %
20.02.2020 15:05 17,5 C 2,2 C 34 % 84 % 1024,6 hPa 0,0 l/m 8,0 km/h (2 Bft) NW 315 1 min 0,000 mm 0,7 UV-I 322 W/m -0,2 C 0,7 C 11,3 km/h (2 Bft) 95,65 %
20.02.2020 15:04 17,4 C 2,2 C 34 % 84 % 1024,6 hPa 0,0 l/m 8,0 km/h (2 Bft) W-NW 292 1 min 0,000 mm 0,7 UV-I 287 W/m -0,2 C 0,7 C 8,0 km/h (2 Bft) 100,00 %
20.02.2020 15:03 17,4 C 2,3 C 34 % 84 % 1024,5 hPa 0,0 l/m 8,0 km/h (2 Bft) W-NW 292 1 min 0,000 mm 0,6 UV-I 241 W/m -0,1 C 0,8 C 14,5 km/h (3 Bft) 95,65 %
20.02.2020 15:02 17,4 C 2,3 C 34 % 84 % 1024,5 hPa 0,0 l/m 8,0 km/h (2 Bft) W-NW 292 1 min 0,000 mm 0,6 UV-I 381 W/m -0,1 C 0,8 C 11,3 km/h (2 Bft) 100,00 %
20.02.2020 15:01 17,4 C 2,3 C 34 % 84 % 1024,6 hPa 0,0 l/m 6,4 km/h (2 Bft) W-NW 292 1 min 0,000 mm 0,7 UV-I 381 W/m -0,1 C 2,3 C 8,0 km/h (2 Bft) 100,00 %
20.02.2020 15:00 17,4 C 2,3 C 34 % 83 % 1024,6 hPa 0,2 l/m 6,4 km/h (2 Bft) NW 315 1 min 0,127 mm 0,8 UV-I 396 W/m -0,3 C 2,3 C 8,0 km/h (2 Bft) 91,30 %
20.02.2020 14:59 17,3 C 2,2 C 34 % 83 % 1024,6 hPa 0,0 l/m 8,0 km/h (2 Bft) W-NW 292 1 min 0,000 mm 0,8 UV-I 436 W/m -0,4 C 0,7 C 12,9 km/h (3 Bft) 100,00 %
20.02.2020 14:58 17,3 C 2,1 C 34 % 83 % 1024,6 hPa 0,0 l/m 6,4 km/h (2 Bft) W-NW 292 1 min 0,000 mm 0,8 UV-I 473 W/m -0,5 C 2,1 C 9,7 km/h (2 Bft) 100,00 %
20.02.2020 14:57 17,3 C 2,1 C 34 % 83 % 1024,5 hPa 0,0 l/m 11,3 km/h (2 Bft) W-NW 292 1 min 0,000 mm 0,8 UV-I 468 W/m -0,5 C -2,1 C 12,9 km/h (3 Bft) 100,00 %
20.02.2020 14:56 17,3 C 2,0 C 34 % 83 % 1024,5 hPa 0,0 l/m 11,3 km/h (2 Bft) W-NW 292 1 min 0,000 mm 0,8 UV-I 482 W/m -0,6 C -2,2 C 14,5 km/h (3 Bft) 100,00 %
20.02.2020 14:55 17,3 C 1,9 C 34 % 83 % 1024,5 hPa 0,0 l/m 12,9 km/h (3 Bft) W 270 1 min 0,000 mm 0,9 UV-I 512 W/m -0,7 C -3,4 C 17,7 km/h (3 Bft) 100,00 %
20.02.2020 14:54 17,2 C 1,9 C 34 % 84 % 1024,6 hPa 0,0 l/m 9,7 km/h (2 Bft) W-NW 292 1 min 0,000 mm 0,9 UV-I 490 W/m -0,5 C -1,1 C 14,5 km/h (3 Bft) 100,00 %
20.02.2020 14:53 17,2 C 1,8 C 34 % 84 % 1024,6 hPa 0,0 l/m 9,7 km/h (2 Bft) NW 315 1 min 0,000 mm 0,9 UV-I 520 W/m -0,6 C -1,2 C 14,5 km/h (3 Bft) 95,65 %
20.02.2020 14:52 17,2 C 1,8 C 34 % 85 % 1024,6 hPa 0,2 l/m 9,7 km/h (2 Bft) W 270 1 min 0,000 mm 0,9 UV-I 464 W/m -0,4 C -1,2 C 14,5 km/h (3 Bft) 100,00 %
20.02.2020 14:51 17,2 C 1,8 C 34 % 85 % 1024,5 hPa 0,0 l/m 8,0 km/h (2 Bft) W 270 1 min 0,000 mm 0,8 UV-I 410 W/m -0,4 C 0,2 C 9,7 km/h (2 Bft) 100,00 %
20.02.2020 14:50 17,2 C 1,7 C 34 % 85 % 1024,6 hPa 0,0 l/m 6,4 km/h (2 Bft) NW 315 1 min 0,000 mm 0,8 UV-I 371 W/m -0,5 C 1,7 C 9,7 km/h (2 Bft) 95,65 %
20.02.2020 14:49 17,2 C 1,6 C 34 % 85 % 1024,5 hPa 0,0 l/m 8,0 km/h (2 Bft) W-NW 292 1 min 0,000 mm 0,9 UV-I 313 W/m -0,6 C 0,0 C 11,3 km/h (2 Bft) 100,00 %
20.02.2020 14:48 17,2 C 1,6 C 34 % 85 % 1024,6 hPa 0,0 l/m 8,0 km/h (2 Bft) W-NW 292 1 min 0,000 mm 0,8 UV-I 313 W/m -0,6 C 0,0 C 11,3 km/h (2 Bft) 100,00 %
20.02.2020 14:47 17,2 C 1,6 C 34 % 85 % 1024,6 hPa 0,0 l/m 8,0 km/h (2 Bft) W 270 1 min 0,000 mm 0,8 UV-I 278 W/m -0,6 C 0,0 C 9,7 km/h (2 Bft) 95,65 %
20.02.2020 14:46 17,1 C 1,6 C 34 % 85 % 1024,6 hPa 0,0 l/m 8,0 km/h (2 Bft) W-NW 292 1 min 0,000 mm 0,8 UV-I 318 W/m -0,6 C 0,0 C 11,3 km/h (2 Bft) 95,65 %
20.02.2020 14:45 17,2 C 1,6 C 34 % 85 % 1024,6 hPa 0,0 l/m 11,3 km/h (2 Bft) W-NW 292 1 min 0,000 mm 0,8 UV-I 287 W/m -0,6 C -2,7 C 16,1 km/h (3 Bft) 100,00 %
20.02.2020 14:44 17,1 C 1,6 C 34 % 85 % 1024,6 hPa 0,0 l/m 8,0 km/h (2 Bft) W-NW 292 1 min 0,000 mm 0,8 UV-I 267 W/m -0,6 C 0,0 C 16,1 km/h (3 Bft) 95,65 %
20.02.2020 14:43 17,1 C 1,5 C 34 % 85 % 1024,5 hPa 0,0 l/m 4,8 km/h (1 Bft) W-NW 292 1 min 0,000 mm 0,8 UV-I 269 W/m -0,7 C 1,5 C 8,0 km/h (2 Bft) 100,00 %
20.02.2020 14:42 17,1 C 1,5 C 34 % 85 % 1024,6 hPa 0,2 l/m 11,3 km/h (2 Bft) NW 315 1 min 0,000 mm 0,8 UV-I 276 W/m -0,7 C -2,8 C 16,1 km/h (3 Bft) 100,00 %
20.02.2020 14:41 17,1 C 1,4 C 34 % 85 % 1024,6 hPa 0,0 l/m 6,4 km/h (2 Bft) W-NW 292 1 min 0,000 mm 0,8 UV-I 246 W/m -0,8 C 1,4 C 9,7 km/h (2 Bft) 100,00 %
20.02.2020 14:40 17,1 C 1,5 C 34 % 85 % 1024,6 hPa 0,0 l/m 6,4 km/h (2 Bft) W-NW 292 1 min 0,000 mm 0,8 UV-I 267 W/m -0,7 C 1,5 C 9,7 km/h (2 Bft) 95,65 %
20.02.2020 14:39 17,1 C 1,4 C 34 % 85 % 1024,6 hPa 0,0 l/m 8,0 km/h (2 Bft) W 270 1 min 0,000 mm 0,8 UV-I 276 W/m -0,8 C -0,2 C 9,7 km/h (2 Bft) 100,00 %
20.02.2020 14:38 17,1 C 1,4 C 34 % 85 % 1024,7 hPa 0,0 l/m 6,4 km/h (2 Bft) W 270 1 min 0,000 mm 0,8 UV-I 276 W/m -0,8 C 1,4 C 9,7 km/h (2 Bft) 100,00 %
20.02.2020 14:37 17,1 C 1,4 C 34 % 84 % 1024,6 hPa 0,0 l/m 9,7 km/h (2 Bft) W 270 1 min 0,000 mm 0,8 UV-I 297 W/m -1,0 C -1,7 C 11,3 km/h (2 Bft) 95,65 %
20.02.2020 14:36 17,1 C 1,4 C 34 % 84 % 1024,6 hPa 0,0 l/m 11,3 km/h (2 Bft) W-NW 292 1 min 0,000 mm 0,8 UV-I 297 W/m -1,0 C -2,9 C 14,5 km/h (3 Bft) 95,65 %
20.02.2020 14:35 17,1 C 1,4 C 34 % 84 % 1024,5 hPa 0,0 l/m 8,0 km/h (2 Bft) W-NW 292 1 min 0,000 mm 0,9 UV-I 306 W/m -1,0 C -0,2 C 11,3 km/h (2 Bft) 100,00 %
20.02.2020 14:34 17,1 C 1,4 C 34 % 84 % 1024,6 hPa 0,0 l/m 6,4 km/h (2 Bft) NW 315 1 min 0,000 mm 0,8 UV-I 327 W/m -1,0 C 1,4 C 11,3 km/h (2 Bft) 100,00 %
20.02.2020 14:33 17,1 C 1,4 C 34 % 84 % 1024,7 hPa 0,0 l/m 11,3 km/h (2 Bft) NW 315 1 min 0,000 mm 0,8 UV-I 255 W/m -1,0 C -2,9 C 14,5 km/h (3 Bft) 91,30 %
20.02.2020 14:32 17,1 C 1,4 C 34 % 85 % 1024,6 hPa 0,0 l/m 9,7 km/h (2 Bft) NW 315 1 min 0,000 mm 0,8 UV-I 253 W/m -0,8 C -1,7 C 14,5 km/h (3 Bft) 100,00 %
20.02.2020 14:31 17,1 C 1,4 C 34 % 85 % 1024,6 hPa 0,2 l/m 12,9 km/h (3 Bft) W-NW 292 1 min 0,000 mm 0,8 UV-I 241 W/m -0,8 C -4,0 C 19,3 km/h (3 Bft) 86,96 %
20.02.2020 14:30 17,0 C 1,4 C 34 % 85 % 1024,6 hPa 0,0 l/m 9,7 km/h (2 Bft) NW 315 1 min 0,000 mm 0,8 UV-I 239 W/m -0,8 C -1,7 C 16,1 km/h (3 Bft) 100,00 %
20.02.2020 14:29 17,0 C 1,4 C 34 % 85 % 1024,6 hPa 0,0 l/m 8,0 km/h (2 Bft) W-NW 292 1 min 0,000 mm 0,9 UV-I 253 W/m -0,8 C -0,2 C 11,3 km/h (2 Bft) 100,00 %
20.02.2020 14:28 17,0 C 1,4 C 34 % 85 % 1024,6 hPa 0,0 l/m 8,0 km/h (2 Bft) W-NW 292 1 min 0,000 mm 0,9 UV-I 257 W/m -0,8 C -0,2 C 12,9 km/h (3 Bft) 100,00 %
20.02.2020 14:27 17,0 C 1,4 C 34 % 85 % 1024,6 hPa 0,0 l/m 8,0 km/h (2 Bft) W-NW 292 1 min 0,000 mm 0,9 UV-I 336 W/m -0,8 C -0,2 C 11,3 km/h (2 Bft) 95,65 %
20.02.2020 14:26 16,9 C 1,4 C 34 % 86 % 1024,6 hPa 0,0 l/m 9,7 km/h (2 Bft) W-NW 292 1 min 0,000 mm 0,9 UV-I 346 W/m -0,7 C -1,7 C 12,9 km/h (3 Bft) 100,00 %
20.02.2020 14:25 16,9 C 1,4 C 34 % 85 % 1024,6 hPa 0,0 l/m 11,3 km/h (2 Bft) W-NW 292 1 min 0,000 mm 0,9 UV-I 346 W/m -0,8 C -2,9 C 14,5 km/h (3 Bft) 95,65 %
20.02.2020 14:24 16,9 C 1,3 C 34 % 85 % 1024,7 hPa 0,0 l/m 9,7 km/h (2 Bft) W-NW 292 1 min 0,000 mm 1,0 UV-I 362 W/m -0,9 C -1,8 C 11,3 km/h (2 Bft) 100,00 %
20.02.2020 14:23 16,9 C 1,3 C 34 % 85 % 1024,6 hPa 0,2 l/m 8,0 km/h (2 Bft) W 270 1 min 0,000 mm 1,1 UV-I 392 W/m -0,9 C -0,3 C 11,3 km/h (2 Bft) 100,00 %
20.02.2020 14:22 16,9 C 1,3 C 34 % 85 % 1024,7 hPa 0,0 l/m 8,0 km/h (2 Bft) W-NW 292 1 min 0,000 mm 0,9 UV-I 299 W/m -0,9 C -0,3 C 9,7 km/h (2 Bft) 100,00 %
20.02.2020 14:21 16,9 C 1,3 C 34 % 84 % 1024,6 hPa 0,0 l/m 9,7 km/h (2 Bft) W-NW 292 1 min 0,000 mm 1,0 UV-I 367 W/m -1,1 C -1,8 C 16,1 km/h (3 Bft) 100,00 %
20.02.2020 14:20 16,9 C 1,2 C 34 % 84 % 1024,7 hPa 0,0 l/m 11,3 km/h (2 Bft) W-NW 292 1 min 0,000 mm 1,0 UV-I 334 W/m -1,2 C -3,1 C 16,1 km/h (3 Bft) 100,00 %
20.02.2020 14:19 16,9 C 1,2 C 34 % 84 % 1024,8 hPa 0,0 l/m 8,0 km/h (2 Bft) W 270 1 min 0,000 mm 0,9 UV-I 288 W/m -1,2 C -0,4 C 9,7 km/h (2 Bft) 100,00 %
20.02.2020 14:18 16,9 C 1,2 C 34 % 84 % 1024,8 hPa 0,0 l/m 8,0 km/h (2 Bft) W 270 1 min 0,000 mm 0,9 UV-I 304 W/m -1,2 C -0,4 C 12,9 km/h (3 Bft) 100,00 %
20.02.2020 14:17 16,8 C 1,2 C 34 % 84 % 1024,8 hPa 0,0 l/m 9,7 km/h (2 Bft) W-NW 292 1 min 0,000 mm 0,9 UV-I 311 W/m -1,2 C -1,9 C 17,7 km/h (3 Bft) 95,65 %
20.02.2020 14:16 16,9 C 1,2 C 34 % 85 % 1024,8 hPa 0,0 l/m 9,7 km/h (2 Bft) W-NW 292 1 min 0,000 mm 0,9 UV-I 301 W/m -1,0 C -1,9 C 14,5 km/h (3 Bft) 100,00 %
20.02.2020 14:15 16,8 C 1,1 C 34 % 86 % 1024,8 hPa 0,2 l/m 8,0 km/h (2 Bft) W-NW 292 1 min 0,000 mm 0,9 UV-I 292 W/m -1,0 C -0,5 C 12,9 km/h (3 Bft) 100,00 %
20.02.2020 14:14 16,8 C 1,1 C 34 % 85 % 1024,8 hPa 0,0 l/m 9,7 km/h (2 Bft) W-NW 292 1 min 0,000 mm 0,9 UV-I 274 W/m -1,1 C -2,0 C 11,3 km/h (2 Bft) 100,00 %
20.02.2020 14:13 16,8 C 1,1 C 34 % 85 % 1024,8 hPa 0,0 l/m 9,7 km/h (2 Bft) W-NW 292 1 min 0,000 mm 0,9 UV-I 267 W/m -1,1 C -2,0 C 12,9 km/h (3 Bft) 100,00 %
20.02.2020 14:12 16,8 C 1,1 C 34 % 85 % 1024,8 hPa 0,0 l/m 9,7 km/h (2 Bft) W-NW 292 1 min 0,000 mm 0,9 UV-I 260 W/m -1,1 C -2,0 C 14,5 km/h (3 Bft) 100,00 %
20.02.2020 14:11 16,8 C 1,1 C 34 % 86 % 1024,7 hPa 0,0 l/m 12,9 km/h (3 Bft) W-NW 292 1 min 0,000 mm 0,9 UV-I 257 W/m -1,0 C -4,3 C 17,7 km/h (3 Bft) 100,00 %
20.02.2020 14:10 16,8 C 1,1 C 34 % 86 % 1024,8 hPa 0,0 l/m 9,7 km/h (2 Bft) W-NW 292 1 min 0,000 mm 0,9 UV-I 253 W/m -1,0 C -2,0 C 14,5 km/h (3 Bft) 100,00 %
20.02.2020 14:09 16,8 C 1,1 C 34 % 86 % 1024,7 hPa 0,0 l/m 9,7 km/h (2 Bft) W-NW 292 1 min 0,000 mm 0,9 UV-I 253 W/m -1,0 C -2,0 C 14,5 km/h (3 Bft) 100,00 %
20.02.2020 14:08 16,8 C 1,1 C 34 % 87 % 1024,7 hPa 0,0 l/m 8,0 km/h (2 Bft) W-NW 292 1 min 0,000 mm 0,9 UV-I 257 W/m -0,8 C -0,5 C 12,9 km/h (3 Bft) 100,00 %
20.02.2020 14:07 16,8 C 1,1 C 34 % 86 % 1024,7 hPa 0,0 l/m 9,7 km/h (2 Bft) W-NW 292 1 min 0,000 mm 0,9 UV-I 258 W/m -1,0 C -2,0 C 14,5 km/h (3 Bft) 95,65 %
20.02.2020 14:06 16,8 C 1,0 C 34 % 86 % 1024,7 hPa 0,2 l/m 9,7 km/h (2 Bft) W-NW 292 1 min 0,000 mm 0,9 UV-I 264 W/m -1,1 C -2,1 C 11,3 km/h (2 Bft) 100,00 %
20.02.2020 14:05 16,8 C 0,9 C 34 % 86 % 1024,8 hPa 0,0 l/m 8,0 km/h (2 Bft) W-NW 292 1 min 0,000 mm 1,0 UV-I 274 W/m -1,2 C -0,7 C 12,9 km/h (3 Bft) 95,65 %
20.02.2020 14:04 16,8 C 0,9 C 34 % 87 % 1024,8 hPa 0,0 l/m 8,0 km/h (2 Bft) W-NW 292 1 min 0,000 mm 1,0 UV-I 267 W/m -1,0 C -0,7 C 16,1 km/h (3 Bft) 100,00 %
20.02.2020 14:03 16,8 C 0,9 C 34 % 86 % 1024,8 hPa 0,0 l/m 8,0 km/h (2 Bft) W 270 1 min 0,000 mm 0,9 UV-I 251 W/m -1,2 C -0,7 C 9,7 km/h (2 Bft) 100,00 %
20.02.2020 14:02 16,8 C 0,9 C 34 % 86 % 1024,8 hPa 0,0 l/m 8,0 km/h (2 Bft) W-NW 292 1 min 0,000 mm 0,9 UV-I 239 W/m -1,2 C -0,7 C 11,3 km/h (2 Bft) 100,00 %
20.02.2020 14:01 16,8 C 0,9 C 34 % 86 % 1024,8 hPa 0,0 l/m 6,4 km/h (2 Bft) W-NW 292 1 min 0,000 mm 0,9 UV-I 234 W/m -1,2 C 0,9 C 8,0 km/h (2 Bft) 100,00 %
20.02.2020 14:00 16,8 C 0,9 C 34 % 86 % 1024,8 hPa 0,0 l/m 4,8 km/h (1 Bft) NW 315 1 min 0,076 mm 0,9 UV-I 230 W/m -1,2 C 0,9 C 8,0 km/h (2 Bft) 95,65 %
20.02.2020 13:59 16,8 C 0,9 C 34 % 86 % 1024,9 hPa 0,0 l/m 8,0 km/h (2 Bft) W-NW 292 1 min 0,000 mm 0,9 UV-I 230 W/m -1,2 C -0,7 C 12,9 km/h (3 Bft) 100,00 %
20.02.2020 13:58 16,8 C 0,9 C 34 % 86 % 1024,9 hPa 0,0 l/m 11,3 km/h (2 Bft) W-NW 292 1 min 0,000 mm 0,9 UV-I 227 W/m -1,2 C -3,5 C 16,1 km/h (3 Bft) 95,65 %
20.02.2020 13:57 16,8 C 0,9 C 34 % 86 % 1024,9 hPa 0,0 l/m 11,3 km/h (2 Bft) W-NW 292 1 min 0,000 mm 0,9 UV-I 225 W/m -1,2 C -3,5 C 14,5 km/h (3 Bft) 100,00 %
20.02.2020 13:56 16,8 C 0,9 C 34 % 86 % 1024,9 hPa 0,2 l/m 12,9 km/h (3 Bft) W-NW 292 1 min 0,000 mm 0,9 UV-I 227 W/m -1,2 C -4,6 C 20,9 km/h (4 Bft) 95,65 %
20.02.2020 13:55 16,8 C 0,8 C 34 % 86 % 1024,9 hPa 0,0 l/m 11,3 km/h (2 Bft) W-NW 292 1 min 0,000 mm 0,9 UV-I 221 W/m -1,3 C -3,6 C 16,1 km/h (3 Bft) 95,65 %
20.02.2020 13:54 16,8 C 0,8 C 34 % 86 % 1024,9 hPa 0,0 l/m 8,0 km/h (2 Bft) NW 315 1 min 0,000 mm 0,9 UV-I 218 W/m -1,3 C -0,8 C 16,1 km/h (3 Bft) 100,00 %
20.02.2020 13:53 16,8 C 0,8 C 34 % 86 % 1024,9 hPa 0,0 l/m 12,9 km/h (3 Bft) W-NW 292 1 min 0,000 mm 0,9 UV-I 218 W/m -1,3 C -4,7 C 14,5 km/h (3 Bft) 100,00 %
20.02.2020 13:52 16,8 C 0,8 C 34 % 86 % 1024,9 hPa 0,0 l/m 11,3 km/h (2 Bft) W-NW 292 1 min 0,000 mm 0,9 UV-I 214 W/m -1,3 C -3,6 C 17,7 km/h (3 Bft) 100,00 %
20.02.2020 13:51 16,8 C 0,7 C 34 % 86 % 1025,0 hPa 0,0 l/m 9,7 km/h (2 Bft) W-NW 292 1 min 0,000 mm 0,9 UV-I 213 W/m -1,4 C -2,4 C 16,1 km/h (3 Bft) 100,00 %
20.02.2020 13:50 16,8 C 0,7 C 34 % 86 % 1024,9 hPa 0,0 l/m 11,3 km/h (2 Bft) W-NW 292 1 min 0,000 mm 0,9 UV-I 213 W/m -1,4 C -3,7 C 19,3 km/h (3 Bft) 100,00 %
20.02.2020 13:49 16,8 C 0,7 C 34 % 87 % 1025,0 hPa 0,0 l/m 8,0 km/h (2 Bft) W-NW 292 1 min 0,000 mm 0,9 UV-I 211 W/m -1,2 C -0,9 C 14,5 km/h (3 Bft) 100,00 %
20.02.2020 13:48 16,8 C 0,7 C 34 % 86 % 1025,0 hPa 0,0 l/m 9,7 km/h (2 Bft) W-NW 292 1 min 0,000 mm 0,9 UV-I 206 W/m -1,4 C -2,4 C 14,5 km/h (3 Bft) 100,00 %
20.02.2020 13:47 16,8 C 0,7 C 34 % 86 % 1025,0 hPa 0,2 l/m 9,7 km/h (2 Bft) W-NW 292 1 min 0,000 mm 0,9 UV-I 202 W/m -1,4 C -2,4 C 11,3 km/h (2 Bft) 100,00 %
20.02.2020 13:46 16,8 C 0,7 C 34 % 86 % 1025,1 hPa 0,0 l/m 11,3 km/h (2 Bft) W-NW 292 1 min 0,000 mm 0,9 UV-I 190 W/m -1,4 C -3,7 C 19,3 km/h (3 Bft) 100,00 %
20.02.2020 13:45 16,8 C 0,7 C 34 % 86 % 1025,1 hPa 0,0 l/m 11,3 km/h (2 Bft) W-NW 292 1 min 0,000 mm 0,9 UV-I 190 W/m -1,4 C -3,7 C 16,1 km/h (3 Bft) 100,00 %
20.02.2020 13:44 16,8 C 0,7 C 34 % 86 % 1025,1 hPa 0,0 l/m 9,7 km/h (2 Bft) W-NW 292 1 min 0,000 mm 0,9 UV-I 195 W/m -1,4 C -2,4 C 17,7 km/h (3 Bft) 100,00 %
20.02.2020 13:43 16,8 C 0,7 C 34 % 86 % 1025,2 hPa 0,0 l/m 8,0 km/h (2 Bft) W-NW 292 1 min 0,000 mm 0,9 UV-I 199 W/m -1,4 C -0,9 C 12,9 km/h (3 Bft) 95,65 %
20.02.2020 13:42 16,8 C 0,7 C 34 % 86 % 1025,1 hPa 0,0 l/m 9,7 km/h (2 Bft) W-NW 292 1 min 0,000 mm 0,9 UV-I 204 W/m -1,4 C -2,4 C 11,3 km/h (2 Bft) 100,00 %
20.02.2020 13:41 16,8 C 0,7 C 34 % 87 % 1025,1 hPa 0,0 l/m 11,3 km/h (2 Bft) W 270 1 min 0,000 mm 0,9 UV-I 206 W/m -1,2 C -3,7 C 16,1 km/h (3 Bft) 100,00 %
20.02.2020 13:40 16,8 C 0,7 C 34 % 87 % 1025,1 hPa 0,0 l/m 8,0 km/h (2 Bft) W-NW 292 1 min 0,000 mm 0,9 UV-I 204 W/m -1,2 C -0,9 C 14,5 km/h (3 Bft) 100,00 %
20.02.2020 13:39 16,8 C 0,7 C 34 % 87 % 1025,1 hPa 0,0 l/m 8,0 km/h (2 Bft) W-NW 292 1 min 0,000 mm 0,9 UV-I 202 W/m -1,2 C -0,9 C 11,3 km/h (2 Bft) 100,00 %
20.02.2020 13:38 16,8 C 0,7 C 34 % 87 % 1025,1 hPa 0,0 l/m 8,0 km/h (2 Bft) W-NW 292 1 min 0,000 mm 0,9 UV-I 199 W/m -1,2 C -0,9 C 11,3 km/h (2 Bft) 100,00 %
20.02.2020 13:37 16,8 C 0,7 C 34 % 87 % 1025,1 hPa 0,0 l/m 8,0 km/h (2 Bft) W 270 1 min 0,000 mm 0,9 UV-I 195 W/m -1,2 C -0,9 C 12,9 km/h (3 Bft) 100,00 %
20.02.2020 13:36 16,8 C 0,7 C 34 % 87 % 1025,2 hPa 0,2 l/m 9,7 km/h (2 Bft) W-NW 292 1 min 0,000 mm 0,9 UV-I 192 W/m -1,2 C -2,4 C 12,9 km/h (3 Bft) 95,65 %
20.02.2020 13:35 16,8 C 0,7 C 34 % 87 % 1025,1 hPa 0,0 l/m 9,7 km/h (2 Bft) W-NW 292 1 min 0,000 mm 0,9 UV-I 188 W/m -1,2 C -2,4 C 12,9 km/h (3 Bft) 100,00 %
20.02.2020 13:34 16,8 C 0,7 C 34 % 87 % 1025,2 hPa 0,0 l/m 9,7 km/h (2 Bft) W 270 1 min 0,000 mm 0,9 UV-I 188 W/m -1,2 C -2,4 C 14,5 km/h (3 Bft) 100,00 %
20.02.2020 13:33 16,8 C 0,7 C 34 % 87 % 1025,2 hPa 0,0 l/m 9,7 km/h (2 Bft) W-NW 292 1 min 0,000 mm 0,9 UV-I 186 W/m -1,2 C -2,4 C 14,5 km/h (3 Bft) 100,00 %
20.02.2020 13:32 16,8 C 0,7 C 34 % 87 % 1025,2 hPa 0,0 l/m 6,4 km/h (2 Bft) W 270 1 min 0,000 mm 0,9 UV-I 185 W/m -1,2 C 0,7 C 9,7 km/h (2 Bft) 100,00 %
20.02.2020 13:31 16,8 C 0,7 C 34 % 87 % 1025,3 hPa 0,0 l/m 6,4 km/h (2 Bft) NW 315 1 min 0,000 mm 0,9 UV-I 183 W/m -1,2 C 0,7 C 9,7 km/h (2 Bft) 95,65 %
20.02.2020 13:30 16,8 C 0,7 C 34 % 88 % 1025,3 hPa 0,0 l/m 6,4 km/h (2 Bft) W-NW 292 1 min 0,000 mm 0,9 UV-I 183 W/m -1,1 C 0,7 C 12,9 km/h (3 Bft) 95,65 %
20.02.2020 13:29 16,8 C 0,7 C 34 % 88 % 1025,4 hPa 0,2 l/m 4,8 km/h (1 Bft) NW 315 1 min 0,000 mm 0,9 UV-I 185 W/m -1,1 C 0,7 C 8,0 km/h (2 Bft) 91,30 %
20.02.2020 13:28 16,8 C 0,7 C 34 % 88 % 1025,4 hPa 0,0 l/m 4,8 km/h (1 Bft) W-NW 292 1 min 0,000 mm 0,8 UV-I 185 W/m -1,1 C 0,7 C 6,4 km/h (2 Bft) 100,00 %
20.02.2020 13:27 16,8 C 0,7 C 34 % 88 % 1025,3 hPa 0,0 l/m 6,4 km/h (2 Bft) W-NW 292 1 min 0,000 mm 0,8 UV-I 181 W/m -1,1 C 0,7 C 9,7 km/h (2 Bft) 100,00 %
20.02.2020 13:26 16,8 C 0,7 C 34 % 88 % 1025,2 hPa 0,0 l/m 8,0 km/h (2 Bft) W-NW 292 1 min 0,000 mm 0,8 UV-I 179 W/m -1,1 C -0,9 C 12,9 km/h (3 Bft) 95,65 %
20.02.2020 13:25 16,8 C 0,7 C 34 % 88 % 1025,3 hPa 0,0 l/m 6,4 km/h (2 Bft) W-NW 292 1 min 0,000 mm 0,8 UV-I 178 W/m -1,1 C 0,7 C 9,7 km/h (2 Bft) 100,00 %
20.02.2020 13:24 16,8 C 0,7 C 34 % 88 % 1025,3 hPa 0,0 l/m 8,0 km/h (2 Bft) W-NW 292 1 min 0,000 mm 0,8 UV-I 176 W/m -1,1 C -0,9 C 14,5 km/h (3 Bft) 100,00 %
20.02.2020 13:23 16,8 C 0,7 C 34 % 88 % 1025,3 hPa 0,0 l/m 6,4 km/h (2 Bft) W-NW 292 1 min 0,000 mm 0,8 UV-I 169 W/m -1,1 C 0,7 C 11,3 km/h (2 Bft) 100,00 %
20.02.2020 13:22 16,8 C 0,7 C 34 % 88 % 1025,3 hPa 0,0 l/m 8,0 km/h (2 Bft) W-NW 292 1 min 0,000 mm 0,8 UV-I 167 W/m -1,1 C -0,9 C 11,3 km/h (2 Bft) 100,00 %
20.02.2020 13:21 16,8 C 0,7 C 34 % 88 % 1025,2 hPa 0,2 l/m 4,8 km/h (1 Bft) NW 315 1 min 0,000 mm 0,8 UV-I 169 W/m -1,1 C 0,7 C 6,4 km/h (2 Bft) 100,00 %
20.02.2020 13:20 16,8 C 0,7 C 34 % 87 % 1025,3 hPa 0,0 l/m 4,8 km/h (1 Bft) NW 315 1 min 0,000 mm 0,8 UV-I 169 W/m -1,2 C 0,7 C 8,0 km/h (2 Bft) 100,00 %
20.02.2020 13:19 16,8 C 0,7 C 34 % 88 % 1025,3 hPa 0,0 l/m 6,4 km/h (2 Bft) W 270 1 min 0,000 mm 0,8 UV-I 174 W/m -1,1 C 0,7 C 8,0 km/h (2 Bft) 91,30 %
20.02.2020 13:18 16,9 C 0,7 C 34 % 87 % 1025,3 hPa 0,0 l/m 8,0 km/h (2 Bft) W-NW 292 1 min 0,000 mm 0,9 UV-I 183 W/m -1,2 C -0,9 C 11,3 km/h (2 Bft) 100,00 %
20.02.2020 13:17 16,9 C 0,7 C 34 % 87 % 1025,4 hPa 0,0 l/m 8,0 km/h (2 Bft) W 270 1 min 0,000 mm 0,9 UV-I 188 W/m -1,2 C -0,9 C 12,9 km/h (3 Bft) 100,00 %
20.02.2020 13:16 16,9 C 0,7 C 34 % 88 % 1025,4 hPa 0,0 l/m 8,0 km/h (2 Bft) W-NW 292 1 min 0,000 mm 0,9 UV-I 193 W/m -1,1 C -0,9 C 11,3 km/h (2 Bft) 100,00 %
20.02.2020 13:15 16,9 C 0,7 C 34 % 87 % 1025,3 hPa 0,0 l/m 6,4 km/h (2 Bft) NW 315 1 min 0,000 mm 0,9 UV-I 197 W/m -1,2 C 0,7 C 9,7 km/h (2 Bft) 95,65 %
20.02.2020 13:14 16,9 C 0,7 C 34 % 87 % 1025,3 hPa 0,0 l/m 6,4 km/h (2 Bft) W-NW 292 1 min 0,000 mm 0,9 UV-I 199 W/m -1,2 C 0,7 C 11,3 km/h (2 Bft) 95,65 %
20.02.2020 13:13 16,9 C 0,7 C 34 % 88 % 1025,3 hPa 0,0 l/m 6,4 km/h (2 Bft) W-NW 292 1 min 0,000 mm 0,9 UV-I 199 W/m -1,1 C 0,7 C 11,3 km/h (2 Bft) 100,00 %
20.02.2020 13:12 16,9 C 0,7 C 34 % 87 % 1025,3 hPa 0,0 l/m 11,3 km/h (2 Bft) W 270 1 min 0,000 mm 0,9 UV-I 195 W/m -1,2 C -3,7 C 14,5 km/h (3 Bft) 100,00 %
20.02.2020 13:11 16,9 C 0,7 C 34 % 87 % 1025,2 hPa 0,0 l/m 6,4 km/h (2 Bft) W-NW 292 1 min 0,000 mm 0,9 UV-I 188 W/m -1,2 C 0,7 C 9,7 km/h (2 Bft) 100,00 %
20.02.2020 13:10 16,9 C 0,6 C 34 % 87 % 1025,4 hPa 0,0 l/m 11,3 km/h (2 Bft) W-NW 292 1 min 0,000 mm 0,9 UV-I 192 W/m -1,3 C -3,8 C 14,5 km/h (3 Bft) 100,00 %
20.02.2020 13:09 16,9 C 0,7 C 34 % 87 % 1025,3 hPa 0,0 l/m 11,3 km/h (2 Bft) W-NW 292 1 min 0,000 mm 0,9 UV-I 199 W/m -1,2 C -3,7 C 17,7 km/h (3 Bft) 100,00 %
20.02.2020 13:08 16,9 C 0,7 C 34 % 87 % 1025,4 hPa 0,0 l/m 11,3 km/h (2 Bft) W 270 1 min 0,000 mm 0,9 UV-I 204 W/m -1,2 C -3,7 C 14,5 km/h (3 Bft) 95,65 %
20.02.2020 13:07 16,9 C 0,7 C 34 % 87 % 1025,3 hPa 0,0 l/m 8,0 km/h (2 Bft) W 270 1 min 0,000 mm 1,0 UV-I 209 W/m -1,2 C -0,9 C 11,3 km/h (2 Bft) 100,00 %
20.02.2020 13:06 16,9 C 0,7 C 34 % 87 % 1025,3 hPa 0,0 l/m 8,0 km/h (2 Bft) W-NW 292 1 min 0,000 mm 1,0 UV-I 218 W/m -1,2 C -0,9 C 12,9 km/h (3 Bft) 100,00 %
20.02.2020 13:05 16,9 C 0,7 C 34 % 87 % 1025,4 hPa 0,0 l/m 9,7 km/h (2 Bft) W-NW 292 1 min 0,000 mm 1,0 UV-I 223 W/m -1,2 C -2,4 C 14,5 km/h (3 Bft) 95,65 %
20.02.2020 13:04 16,9 C 0,7 C 34 % 87 % 1025,4 hPa 0,0 l/m 8,0 km/h (2 Bft) NW 315 1 min 0,000 mm 1,0 UV-I 236 W/m -1,2 C -0,9 C 9,7 km/h (2 Bft) 100,00 %
20.02.2020 13:03 16,9 C 0,7 C 34 % 87 % 1025,4 hPa 0,0 l/m 9,7 km/h (2 Bft) W-NW 292 1 min 0,000 mm 1,0 UV-I 251 W/m -1,2 C -2,4 C 11,3 km/h (2 Bft) 100,00 %
20.02.2020 13:02 16,9 C 0,7 C 34 % 87 % 1025,4 hPa 0,0 l/m 11,3 km/h (2 Bft) W-NW 292 1 min 0,000 mm 1,2 UV-I 278 W/m -1,2 C -3,7 C 16,1 km/h (3 Bft) 100,00 %
20.02.2020 13:01 16,9 C 0,7 C 34 % 88 % 1025,4 hPa 0,0 l/m 9,7 km/h (2 Bft) W-NW 292 1 min 0,000 mm 1,2 UV-I 366 W/m -1,1 C -2,4 C 14,5 km/h (3 Bft) 100,00 %
20.02.2020 13:00 16,9 C 0,7 C 34 % 88 % 1025,4 hPa 0,0 l/m 8,0 km/h (2 Bft) W-NW 292 1 min 0,102 mm 1,3 UV-I 378 W/m -1,1 C -0,9 C 12,9 km/h (3 Bft) 95,65 %
20.02.2020 12:59 16,9 C 0,7 C 34 % 88 % 1025,4 hPa 0,0 l/m 6,4 km/h (2 Bft) W-NW 292 1 min 0,000 mm 1,3 UV-I 369 W/m -1,1 C 0,7 C 8,0 km/h (2 Bft) 100,00 %
20.02.2020 12:58 16,9 C 0,7 C 34 % 88 % 1025,3 hPa 0,0 l/m 8,0 km/h (2 Bft) W-NW 292 1 min 0,000 mm 1,3 UV-I 343 W/m -1,1 C -0,9 C 12,9 km/h (3 Bft) 100,00 %
20.02.2020 12:57 16,8 C 0,7 C 34 % 88 % 1025,5 hPa 0,0 l/m 6,4 km/h (2 Bft) W-NW 292 1 min 0,000 mm 1,2 UV-I 309 W/m -1,1 C 0,7 C 8,0 km/h (2 Bft) 100,00 %
20.02.2020 12:56 16,8 C 0,7 C 34 % 87 % 1025,4 hPa 0,0 l/m 8,0 km/h (2 Bft) W-NW 292 1 min 0,000 mm 1,2 UV-I 290 W/m -1,2 C -0,9 C 8,0 km/h (2 Bft) 100,00 %
20.02.2020 12:55 16,8 C 0,7 C 34 % 87 % 1025,4 hPa 0,0 l/m 6,4 km/h (2 Bft) NW 315 1 min 0,000 mm 1,2 UV-I 287 W/m -1,2 C 0,7 C 9,7 km/h (2 Bft) 95,65 %
20.02.2020 12:54 16,8 C 0,7 C 34 % 87 % 1025,4 hPa 0,0 l/m 4,8 km/h (1 Bft) W-NW 292 1 min 0,000 mm 1,2 UV-I 295 W/m -1,2 C 0,7 C 9,7 km/h (2 Bft) 100,00 %
20.02.2020 12:53 16,8 C 0,7 C 34 % 87 % 1025,5 hPa 0,0 l/m 6,4 km/h (2 Bft) NW 315 1 min 0,000 mm 1,3 UV-I 304 W/m -1,2 C 0,7 C 9,7 km/h (2 Bft) 100,00 %
20.02.2020 12:52 16,8 C 0,6 C 34 % 87 % 1025,5 hPa 0,0 l/m 8,0 km/h (2 Bft) W-NW 292 1 min 0,000 mm 1,3 UV-I 320 W/m -1,3 C -1,0 C 9,7 km/h (2 Bft) 100,00 %
20.02.2020 12:51 16,8 C 0,7 C 34 % 87 % 1025,5 hPa 0,0 l/m 8,0 km/h (2 Bft) NW 315 1 min 0,000 mm 1,3 UV-I 338 W/m -1,2 C -0,9 C 11,3 km/h (2 Bft) 100,00 %
20.02.2020 12:50 16,8 C 0,7 C 34 % 87 % 1025,5 hPa 0,0 l/m 8,0 km/h (2 Bft) W-NW 292 1 min 0,000 mm 1,3 UV-I 341 W/m -1,2 C -0,9 C 11,3 km/h (2 Bft) 100,00 %
20.02.2020 12:49 16,8 C 0,7 C 34 % 87 % 1025,5 hPa 0,0 l/m 11,3 km/h (2 Bft) W-NW 292 1 min 0,000 mm 1,4 UV-I 357 W/m -1,2 C -3,7 C 16,1 km/h (3 Bft) 100,00 %
20.02.2020 12:48 16,8 C 0,7 C 34 % 88 % 1025,5 hPa 0,0 l/m 9,7 km/h (2 Bft) W-NW 292 1 min 0,000 mm 1,4 UV-I 359 W/m -1,1 C -2,4 C 14,5 km/h (3 Bft) 100,00 %
20.02.2020 12:47 16,7 C 0,7 C 34 % 87 % 1025,4 hPa 0,0 l/m 8,0 km/h (2 Bft) W-NW 292 1 min 0,000 mm 1,5 UV-I 427 W/m -1,2 C -0,9 C 11,3 km/h (2 Bft) 100,00 %
20.02.2020 12:46 16,8 C 0,7 C 34 % 87 % 1025,7 hPa 0,0 l/m 8,0 km/h (2 Bft) NW 315 1 min 0,000 mm 1,4 UV-I 376 W/m -1,2 C -0,9 C 11,3 km/h (2 Bft) 95,65 %
20.02.2020 12:45 16,7 C 0,6 C 34 % 88 % 1025,6 hPa 0,0 l/m 8,0 km/h (2 Bft) W-NW 292 1 min 0,000 mm 1,4 UV-I 367 W/m -1,2 C -1,0 C 11,3 km/h (2 Bft) 100,00 %
20.02.2020 12:44 16,7 C 0,6 C 34 % 87 % 1025,7 hPa 0,0 l/m 8,0 km/h (2 Bft) NW 315 1 min 0,000 mm 1,4 UV-I 376 W/m -1,3 C -1,0 C 11,3 km/h (2 Bft) 95,65 %
20.02.2020 12:43 16,7 C 0,5 C 34 % 87 % 1025,7 hPa 0,0 l/m 6,4 km/h (2 Bft) W-NW 292 1 min 0,000 mm 1,4 UV-I 390 W/m -1,4 C 0,5 C 8,0 km/h (2 Bft) 100,00 %
20.02.2020 12:42 16,7 C 0,4 C 34 % 87 % 1025,6 hPa 0,0 l/m 6,4 km/h (2 Bft) W-NW 292 1 min 0,000 mm 1,4 UV-I 350 W/m -1,5 C 0,4 C 9,7 km/h (2 Bft) 100,00 %
20.02.2020 12:41 16,7 C 0,4 C 34 % 87 % 1025,7 hPa 0,0 l/m 8,0 km/h (2 Bft) W-NW 292 1 min 0,000 mm 1,4 UV-I 325 W/m -1,5 C -1,2 C 11,3 km/h (2 Bft) 100,00 %
20.02.2020 12:40 16,7 C 0,4 C 34 % 87 % 1025,7 hPa 0,0 l/m 6,4 km/h (2 Bft) W-NW 292 1 min 0,000 mm 1,3 UV-I 308 W/m -1,5 C 0,4 C 9,7 km/h (2 Bft) 100,00 %
20.02.2020 12:39 16,7 C 0,4 C 34 % 87 % 1025,7 hPa 0,0 l/m 9,7 km/h (2 Bft) W-NW 292 1 min 0,000 mm 1,3 UV-I 272 W/m -1,5 C -2,8 C 14,5 km/h (3 Bft) 100,00 %
20.02.2020 12:38 16,7 C 0,4 C 34 % 87 % 1025,7 hPa 0,0 l/m 6,4 km/h (2 Bft) W-NW 292 1 min 0,000 mm 1,3 UV-I 264 W/m -1,5 C 0,4 C 12,9 km/h (3 Bft) 100,00 %
20.02.2020 12:37 16,7 C 0,4 C 34 % 87 % 1025,8 hPa 0,0 l/m 9,7 km/h (2 Bft) W-NW 292 1 min 0,000 mm 1,2 UV-I 251 W/m -1,5 C -2,8 C 14,5 km/h (3 Bft) 100,00 %
20.02.2020 12:36 16,7 C 0,3 C 34 % 87 % 1025,7 hPa 0,0 l/m 11,3 km/h (2 Bft) W-NW 292 1 min 0,000 mm 1,3 UV-I 253 W/m -1,6 C -4,1 C 14,5 km/h (3 Bft) 100,00 %
20.02.2020 12:35 16,7 C 0,3 C 34 % 87 % 1025,9 hPa 0,0 l/m 8,0 km/h (2 Bft) W-NW 292 1 min 0,000 mm 1,2 UV-I 241 W/m -1,6 C -1,3 C 12,9 km/h (3 Bft) 100,00 %
20.02.2020 12:34 16,7 C 0,3 C 34 % 87 % 1025,9 hPa 0,0 l/m 9,7 km/h (2 Bft) W-NW 292 1 min 0,000 mm 1,2 UV-I 229 W/m -1,6 C -2,9 C 12,9 km/h (3 Bft) 100,00 %
20.02.2020 12:33 16,7 C 0,3 C 34 % 87 % 1025,8 hPa 0,0 l/m 8,0 km/h (2 Bft) W 270 1 min 0,000 mm 1,2 UV-I 220 W/m -1,6 C -1,3 C 9,7 km/h (2 Bft) 100,00 %
20.02.2020 12:32 16,7 C 0,3 C 34 % 87 % 1025,8 hPa 0,0 l/m 6,4 km/h (2 Bft) W-NW 292 1 min 0,000 mm 1,1 UV-I 214 W/m -1,6 C 0,3 C 9,7 km/h (2 Bft) 100,00 %
20.02.2020 12:31 16,7 C 0,3 C 34 % 87 % 1025,8 hPa 0,0 l/m 8,0 km/h (2 Bft) W-NW 292 1 min 0,000 mm 1,1 UV-I 214 W/m -1,6 C -1,3 C 11,3 km/h (2 Bft) 100,00 %
20.02.2020 12:30 16,7 C 0,3 C 34 % 86 % 1025,9 hPa 0,0 l/m 8,0 km/h (2 Bft) W-NW 292 1 min 0,000 mm 1,1 UV-I 221 W/m -1,8 C -1,3 C 14,5 km/h (3 Bft) 100,00 %
20.02.2020 12:29 16,7 C 0,3 C 34 % 86 % 1025,9 hPa 0,0 l/m 8,0 km/h (2 Bft) W-NW 292 1 min 0,000 mm 1,1 UV-I 229 W/m -1,8 C -1,3 C 12,9 km/h (3 Bft) 100,00 %
20.02.2020 12:28 16,7 C 0,4 C 34 % 87 % 1025,8 hPa 0,0 l/m 8,0 km/h (2 Bft) W-NW 292 1 min 0,000 mm 1,1 UV-I 236 W/m -1,5 C -1,2 C 12,9 km/h (3 Bft) 100,00 %
20.02.2020 12:27 16,7 C 0,3 C 34 % 86 % 1026,0 hPa 0,0 l/m 8,0 km/h (2 Bft) W-NW 292 1 min 0,000 mm 1,2 UV-I 251 W/m -1,8 C -1,3 C 14,5 km/h (3 Bft) 95,65 %
20.02.2020 12:26 16,6 C 0,3 C 34 % 87 % 1025,9 hPa 0,0 l/m 11,3 km/h (2 Bft) W-NW 292 1 min 0,000 mm 1,2 UV-I 283 W/m -1,6 C -4,1 C 16,1 km/h (3 Bft) 100,00 %
20.02.2020 12:25 16,6 C 0,4 C 34 % 87 % 1025,9 hPa 0,0 l/m 8,0 km/h (2 Bft) W-NW 292 1 min 0,000 mm 1,2 UV-I 244 W/m -1,5 C -1,2 C 14,5 km/h (3 Bft) 100,00 %
20.02.2020 12:24 16,6 C 0,4 C 34 % 86 % 1025,9 hPa 0,0 l/m 8,0 km/h (2 Bft) W-NW 292 1 min 0,000 mm 1,1 UV-I 227 W/m -1,7 C -1,2 C 12,9 km/h (3 Bft) 95,65 %
20.02.2020 12:23 16,6 C 0,3 C 34 % 86 % 1025,9 hPa 0,0 l/m 6,4 km/h (2 Bft) NW 315 1 min 0,000 mm 1,1 UV-I 221 W/m -1,8 C 0,3 C 9,7 km/h (2 Bft) 100,00 %
20.02.2020 12:22 16,6 C 0,4 C 34 % 87 % 1025,9 hPa 0,0 l/m 8,0 km/h (2 Bft) W-NW 292 1 min 0,000 mm 1,1 UV-I 221 W/m -1,5 C -1,2 C 12,9 km/h (3 Bft) 95,65 %
20.02.2020 12:21 16,6 C 0,4 C 34 % 87 % 1025,9 hPa 0,0 l/m 8,0 km/h (2 Bft) NW 315 1 min 0,000 mm 1,1 UV-I 223 W/m -1,5 C -1,2 C 9,7 km/h (2 Bft) 100,00 %
20.02.2020 12:20 16,6 C 0,4 C 34 % 87 % 1025,9 hPa 0,0 l/m 9,7 km/h (2 Bft) W-NW 292 1 min 0,000 mm 1,1 UV-I 241 W/m -1,5 C -2,8 C 12,9 km/h (3 Bft) 100,00 %
20.02.2020 12:19 16,6 C 0,4 C 34 % 87 % 1026,0 hPa 0,0 l/m 9,7 km/h (2 Bft) NW 315 1 min 0,000 mm 1,1 UV-I 234 W/m -1,5 C -2,8 C 14,5 km/h (3 Bft) 100,00 %
20.02.2020 12:18 16,6 C 0,3 C 34 % 87 % 1026,0 hPa 0,0 l/m 6,4 km/h (2 Bft) NW 315 1 min 0,000 mm 1,1 UV-I 229 W/m -1,6 C 0,3 C 8,0 km/h (2 Bft) 100,00 %
20.02.2020 12:17 16,6 C 0,3 C 34 % 87 % 1026,0 hPa 0,0 l/m 9,7 km/h (2 Bft) W-NW 292 1 min 0,000 mm 1,1 UV-I 223 W/m -1,6 C -2,9 C 12,9 km/h (3 Bft) 100,00 %
20.02.2020 12:16 16,6 C 0,4 C 34 % 87 % 1025,9 hPa 0,0 l/m 8,0 km/h (2 Bft) W 270 1 min 0,000 mm 1,0 UV-I 216 W/m -1,5 C -1,2 C 11,3 km/h (2 Bft) 100,00 %
20.02.2020 12:15 16,6 C 0,3 C 34 % 87 % 1026,0 hPa 0,0 l/m 8,0 km/h (2 Bft) W-NW 292 1 min 0,000 mm 1,0 UV-I 209 W/m -1,6 C -1,3 C 12,9 km/h (3 Bft) 100,00 %
20.02.2020 12:14 16,6 C 0,3 C 34 % 87 % 1025,9 hPa 0,0 l/m 4,8 km/h (1 Bft) NW 315 1 min 0,000 mm 1,0 UV-I 204 W/m -1,6 C 0,3 C 9,7 km/h (2 Bft) 100,00 %
20.02.2020 12:13 16,6 C 0,3 C 34 % 88 % 1026,0 hPa 0,0 l/m 6,4 km/h (2 Bft) NW 315 1 min 0,000 mm 1,0 UV-I 202 W/m -1,4 C 0,3 C 9,7 km/h (2 Bft) 100,00 %
20.02.2020 12:12 16,6 C 0,3 C 34 % 88 % 1026,1 hPa 0,0 l/m 8,0 km/h (2 Bft) W-NW 292 1 min 0,000 mm 1,0 UV-I 206 W/m -1,4 C -1,3 C 12,9 km/h (3 Bft) 100,00 %
20.02.2020 12:11 16,6 C 0,3 C 34 % 88 % 1026,0 hPa 0,0 l/m 9,7 km/h (2 Bft) W-NW 292 1 min 0,000 mm 1,0 UV-I 216 W/m -1,4 C -2,9 C 12,9 km/h (3 Bft) 100,00 %
20.02.2020 12:10 16,6 C 0,3 C 34 % 88 % 1026,0 hPa 0,0 l/m 8,0 km/h (2 Bft) W-NW 292 1 min 0,000 mm 1,0 UV-I 216 W/m -1,4 C -1,3 C 11,3 km/h (2 Bft) 100,00 %
20.02.2020 12:09 16,6 C 0,3 C 34 % 88 % 1026,0 hPa 0,0 l/m 6,4 km/h (2 Bft) W-NW 292 1 min 0,000 mm 1,0 UV-I 223 W/m -1,4 C 0,3 C 6,4 km/h (2 Bft) 100,00 %
20.02.2020 12:08 16,5 C 0,2 C 34 % 88 % 1026,0 hPa 0,0 l/m 8,0 km/h (2 Bft) W-NW 292 1 min 0,000 mm 1,0 UV-I 214 W/m -1,5 C -1,4 C 9,7 km/h (2 Bft) 100,00 %
20.02.2020 12:07 16,6 C 0,2 C 34 % 88 % 1026,1 hPa 0,0 l/m 8,0 km/h (2 Bft) W-NW 292 1 min 0,000 mm 1,0 UV-I 204 W/m -1,5 C -1,4 C 14,5 km/h (3 Bft) 100,00 %
20.02.2020 12:06 16,5 C 0,2 C 34 % 88 % 1025,9 hPa 0,0 l/m 8,0 km/h (2 Bft) W-NW 292 1 min 0,000 mm 0,9 UV-I 204 W/m -1,5 C -1,4 C 16,1 km/h (3 Bft) 100,00 %
20.02.2020 12:05 16,5 C 0,2 C 34 % 88 % 1026,1 hPa 0,0 l/m 8,0 km/h (2 Bft) NW 315 1 min 0,000 mm 0,9 UV-I 209 W/m -1,5 C -1,4 C 12,9 km/h (3 Bft) 100,00 %
20.02.2020 12:04 16,5 C 0,2 C 34 % 88 % 1026,1 hPa 0,0 l/m 4,8 km/h (1 Bft) W-NW 292 1 min 0,000 mm 0,9 UV-I 216 W/m -1,5 C 0,2 C 6,4 km/h (2 Bft) 100,00 %
20.02.2020 12:03 16,5 C 0,1 C 34 % 88 % 1026,1 hPa 0,0 l/m 8,0 km/h (2 Bft) W-NW 292 1 min 0,000 mm 1,0 UV-I 236 W/m -1,6 C -1,5 C 12,9 km/h (3 Bft) 95,65 %
20.02.2020 12:02 16,5 C 0,2 C 34 % 89 % 1026,1 hPa 0,0 l/m 6,4 km/h (2 Bft) W-NW 292 1 min 0,000 mm 0,9 UV-I 207 W/m -1,4 C 0,2 C 12,9 km/h (3 Bft) 100,00 %
20.02.2020 12:01 16,5 C 0,1 C 34 % 89 % 1026,1 hPa 0,0 l/m 8,0 km/h (2 Bft) W 270 1 min 0,000 mm 0,9 UV-I 197 W/m -1,5 C -1,5 C 12,9 km/h (3 Bft) 100,00 %
20.02.2020 12:00 16,5 C 0,1 C 34 % 89 % 1026,1 hPa 0,0 l/m 8,0 km/h (2 Bft) W-NW 292 1 min 0,051 mm 0,9 UV-I 192 W/m -1,5 C -1,5 C 12,9 km/h (3 Bft) 100,00 %
20.02.2020 11:59 16,4 C 0,1 C 34 % 89 % 1026,1 hPa 0,0 l/m 8,0 km/h (2 Bft) W-NW 292 1 min 0,000 mm 0,9 UV-I 190 W/m -1,5 C -1,5 C 11,3 km/h (2 Bft) 100,00 %
20.02.2020 11:58 16,4 C 0,0 C 34 % 89 % 1026,2 hPa 0,0 l/m 4,8 km/h (1 Bft) NW 315 1 min 0,000 mm 0,8 UV-I 185 W/m -1,6 C 0,0 C 8,0 km/h (2 Bft) 95,65 %
20.02.2020 11:57 16,5 C 0,0 C 34 % 89 % 1026,1 hPa 0,0 l/m 4,8 km/h (1 Bft) W-NW 292 1 min 0,000 mm 0,7 UV-I 174 W/m -1,6 C 0,0 C 8,0 km/h (2 Bft) 100,00 %
20.02.2020 11:56 16,4 C -0,1 C 34 % 89 % 1026,1 hPa 0,0 l/m 4,8 km/h (1 Bft) NW 315 1 min 0,000 mm 0,7 UV-I 174 W/m -1,7 C -0,1 C 8,0 km/h (2 Bft) 100,00 %
20.02.2020 11:55 16,4 C -0,1 C 34 % 90 % 1026,2 hPa 0,0 l/m 6,4 km/h (2 Bft) W-NW 292 1 min 0,000 mm 0,6 UV-I 179 W/m -1,5 C -0,1 C 12,9 km/h (3 Bft) 100,00 %
20.02.2020 11:54 16,4 C -0,1 C 34 % 90 % 1026,2 hPa 0,0 l/m 4,8 km/h (1 Bft) W-NW 292 1 min 0,000 mm 0,5 UV-I 171 W/m -1,5 C -0,1 C 6,4 km/h (2 Bft) 100,00 %
20.02.2020 11:53 16,4 C -0,1 C 34 % 90 % 1026,2 hPa 0,0 l/m 6,4 km/h (2 Bft) W-NW 292 1 min 0,000 mm 0,5 UV-I 163 W/m -1,5 C -0,1 C 9,7 km/h (2 Bft) 91,30 %
20.02.2020 11:52 16,4 C -0,2 C 34 % 90 % 1026,2 hPa 0,0 l/m 6,4 km/h (2 Bft) W-NW 292 1 min 0,000 mm 0,5 UV-I 167 W/m -1,6 C -0,2 C 9,7 km/h (2 Bft) 100,00 %
20.02.2020 11:51 16,5 C -0,2 C 34 % 90 % 1026,2 hPa 0,0 l/m 4,8 km/h (1 Bft) W-NW 292 1 min 0,000 mm 0,5 UV-I 158 W/m -1,6 C -0,2 C 9,7 km/h (2 Bft) 100,00 %
20.02.2020 11:50 16,4 C -0,2 C 34 % 90 % 1026,2 hPa 0,0 l/m 6,4 km/h (2 Bft) W-NW 292 1 min 0,000 mm 0,6 UV-I 167 W/m -1,6 C -0,2 C 9,7 km/h (2 Bft) 100,00 %
20.02.2020 11:49 16,5 C -0,3 C 34 % 90 % 1026,2 hPa 0,0 l/m 8,0 km/h (2 Bft) W-NW 292 1 min 0,000 mm 0,6 UV-I 169 W/m -1,7 C -2,0 C 9,7 km/h (2 Bft) 100,00 %
20.02.2020 11:48 16,4 C -0,3 C 34 % 90 % 1026,3 hPa 0,0 l/m 6,4 km/h (2 Bft) W-SW 247 1 min 0,000 mm 0,5 UV-I 165 W/m -1,7 C -0,3 C 8,0 km/h (2 Bft) 100,00 %
20.02.2020 11:47 16,4 C -0,3 C 34 % 90 % 1026,4 hPa 0,0 l/m 6,4 km/h (2 Bft) W-NW 292 0 min 0,000 mm 0,5 UV-I 148 W/m -1,7 C -0,3 C 8,0 km/h (2 Bft) 100,00 %
20.02.2020 11:46 16,4 C -0,3 C 34 % 90 % 1026,3 hPa 0,0 l/m 6,4 km/h (2 Bft) W-NW 292 0 min 0,000 mm 0,0 UV-I 128 W/m -1,7 C -0,3 C 9,7 km/h (2 Bft) 100,00 %
20.02.2020 11:45 16,4 C -0,3 C 34 % 90 % 1026,4 hPa 0,0 l/m 6,4 km/h (2 Bft) W-NW 292 0 min 0,000 mm 0,0 UV-I 111 W/m -1,7 C -0,3 C 9,7 km/h (2 Bft) 100,00 %
20.02.2020 11:44 16,4 C -0,3 C 34 % 90 % 1026,4 hPa 0,0 l/m 6,4 km/h (2 Bft) W-NW 292 0 min 0,000 mm 0,0 UV-I 104 W/m -1,7 C -0,3 C 8,0 km/h (2 Bft) 100,00 %
20.02.2020 11:43 16,4 C -0,3 C 34 % 90 % 1026,4 hPa 0,0 l/m 8,0 km/h (2 Bft) W-NW 292 0 min 0,000 mm 0,0 UV-I 107 W/m -1,7 C -2,0 C 12,9 km/h (3 Bft) 95,65 %
20.02.2020 11:42 16,4 C -0,4 C 34 % 90 % 1026,3 hPa 0,0 l/m 4,8 km/h (1 Bft) W-NW 292 0 min 0,000 mm 0,0 UV-I 107 W/m -1,8 C -0,4 C 8,0 km/h (2 Bft) 100,00 %
20.02.2020 11:41 16,4 C -0,4 C 34 % 91 % 1026,4 hPa 0,0 l/m 3,2 km/h (1 Bft) W-NW 292 0 min 0,000 mm 0,0 UV-I 105 W/m -1,7 C -0,4 C 6,4 km/h (2 Bft) 95,65 %
20.02.2020 11:40 16,4 C -0,4 C 34 % 91 % 1026,4 hPa 0,0 l/m 6,4 km/h (2 Bft) W 270 0 min 0,000 mm 0,0 UV-I 98 W/m -1,7 C -0,4 C 9,7 km/h (2 Bft) 100,00 %
20.02.2020 11:39 16,4 C -0,4 C 34 % 91 % 1026,3 hPa 0,0 l/m 4,8 km/h (1 Bft) W-NW 292 0 min 0,000 mm 0,0 UV-I 105 W/m -1,7 C -0,4 C 6,4 km/h (2 Bft) 100,00 %
20.02.2020 11:38 16,4 C -0,4 C 34 % 91 % 1026,4 hPa 0,0 l/m 4,8 km/h (1 Bft) W-NW 292 0 min 0,000 mm 0,0 UV-I 109 W/m -1,7 C -0,4 C 8,0 km/h (2 Bft) 91,30 %
20.02.2020 11:37 16,4 C -0,4 C 34 % 91 % 1026,4 hPa 0,0 l/m 3,2 km/h (1 Bft) W-NW 292 0 min 0,000 mm 0,0 UV-I 114 W/m -1,7 C -0,4 C 4,8 km/h (1 Bft) 100,00 %
20.02.2020 11:36 16,4 C -0,4 C 34 % 91 % 1026,4 hPa 0,0 l/m 4,8 km/h (1 Bft) W-NW 292 0 min 0,000 mm 0,0 UV-I 114 W/m -1,7 C -0,4 C 8,0 km/h (2 Bft) 100,00 %
20.02.2020 11:35 16,4 C -0,5 C 34 % 91 % 1026,4 hPa 0,0 l/m 6,4 km/h (2 Bft) W-NW 292 0 min 0,000 mm 0,0 UV-I 114 W/m -1,8 C -0,5 C 8,0 km/h (2 Bft) 100,00 %
20.02.2020 11:34 16,4 C -0,5 C 34 % 91 % 1026,4 hPa 0,0 l/m 4,8 km/h (1 Bft) W-NW 292 0 min 0,000 mm 0,0 UV-I 114 W/m -1,8 C -0,5 C 6,4 km/h (2 Bft) 100,00 %
20.02.2020 11:33 16,4 C -0,5 C 34 % 91 % 1026,3 hPa 0,0 l/m 4,8 km/h (1 Bft) W-NW 292 0 min 0,000 mm 0,0 UV-I 116 W/m -1,8 C -0,5 C 8,0 km/h (2 Bft) 100,00 %
20.02.2020 11:32 16,4 C -0,6 C 34 % 91 % 1026,4 hPa 0,0 l/m 8,0 km/h (2 Bft) W-NW 292 0 min 0,000 mm 0,0 UV-I 116 W/m -1,9 C -2,3 C 11,3 km/h (2 Bft) 100,00 %
20.02.2020 11:31 16,4 C -0,6 C 34 % 91 % 1026,4 hPa 0,0 l/m 3,2 km/h (1 Bft) W 270 0 min 0,000 mm 0,0 UV-I 116 W/m -1,9 C -0,6 C 6,4 km/h (2 Bft) 100,00 %
20.02.2020 11:30 16,4 C -0,6 C 34 % 91 % 1026,4 hPa 0,0 l/m 4,8 km/h (1 Bft) W 270 0 min 0,000 mm 0,0 UV-I 113 W/m -1,9 C -0,6 C 6,4 km/h (2 Bft) 100,00 %
20.02.2020 11:29 16,4 C -0,6 C 34 % 91 % 1026,4 hPa 0,0 l/m 4,8 km/h (1 Bft) W-NW 292 0 min 0,000 mm 0,0 UV-I 111 W/m -1,9 C -0,6 C 6,4 km/h (2 Bft) 100,00 %
20.02.2020 11:28 16,4 C -0,6 C 34 % 91 % 1026,4 hPa 0,0 l/m 4,8 km/h (1 Bft) W-NW 292 0 min 0,000 mm 0,0 UV-I 111 W/m -1,9 C -0,6 C 6,4 km/h (2 Bft) 100,00 %
20.02.2020 11:27 16,4 C -0,6 C 34 % 91 % 1026,4 hPa 0,0 l/m 6,4 km/h (2 Bft) W-NW 292 0 min 0,000 mm 0,0 UV-I 107 W/m -1,9 C -0,6 C 6,4 km/h (2 Bft) 100,00 %
20.02.2020 11:26 16,4 C -0,6 C 34 % 91 % 1026,4 hPa 0,0 l/m 4,8 km/h (1 Bft) W-NW 292 0 min 0,000 mm 0,0 UV-I 100 W/m -1,9 C -0,6 C 6,4 km/h (2 Bft) 100,00 %
20.02.2020 11:25 16,4 C -0,7 C 34 % 91 % 1026,4 hPa 0,0 l/m 6,4 km/h (2 Bft) W 270 0 min 0,000 mm 0,0 UV-I 97 W/m -2,0 C -0,7 C 8,0 km/h (2 Bft) 100,00 %
20.02.2020 11:24 16,4 C -0,6 C 34 % 92 % 1026,4 hPa 0,0 l/m 4,8 km/h (1 Bft) W-NW 292 0 min 0,000 mm 0,0 UV-I 95 W/m -1,7 C -0,6 C 6,4 km/h (2 Bft) 100,00 %
20.02.2020 11:23 16,4 C -0,6 C 34 % 92 % 1026,4 hPa 0,0 l/m 4,8 km/h (1 Bft) W-NW 292 0 min 0,000 mm 0,0 UV-I 90 W/m -1,7 C -0,6 C 4,8 km/h (1 Bft) 100,00 %
20.02.2020 11:22 16,4 C -0,6 C 34 % 92 % 1026,3 hPa 0,0 l/m 6,4 km/h (2 Bft) W-NW 292 0 min 0,000 mm 0,0 UV-I 88 W/m -1,7 C -0,6 C 8,0 km/h (2 Bft) 100,00 %
20.02.2020 11:21 16,4 C -0,6 C 34 % 92 % 1026,4 hPa 0,0 l/m 6,4 km/h (2 Bft) W-NW 292 0 min 0,000 mm 0,0 UV-I 90 W/m -1,7 C -0,6 C 9,7 km/h (2 Bft) 100,00 %
20.02.2020 11:20 16,4 C -0,7 C 34 % 92 % 1026,4 hPa 0,0 l/m 6,4 km/h (2 Bft) W 270 0 min 0,000 mm 0,0 UV-I 91 W/m -1,8 C -0,7 C 9,7 km/h (2 Bft) 100,00 %
20.02.2020 11:19 16,4 C -0,7 C 34 % 92 % 1026,4 hPa 0,0 l/m 8,0 km/h (2 Bft) W-NW 292 0 min 0,000 mm 0,0 UV-I 93 W/m -1,8 C -2,4 C 11,3 km/h (2 Bft) 95,65 %
20.02.2020 11:18 16,4 C -0,7 C 34 % 92 % 1026,4 hPa 0,0 l/m 6,4 km/h (2 Bft) W-NW 292 0 min 0,000 mm 0,0 UV-I 95 W/m -1,8 C -0,7 C 11,3 km/h (2 Bft) 100,00 %
20.02.2020 11:17 16,4 C -0,7 C 34 % 92 % 1026,4 hPa 0,0 l/m 6,4 km/h (2 Bft) W-NW 292 0 min 0,000 mm 0,0 UV-I 95 W/m -1,8 C -0,7 C 11,3 km/h (2 Bft) 95,65 %
20.02.2020 11:16 16,4 C -0,7 C 34 % 92 % 1026,5 hPa 0,0 l/m 4,8 km/h (1 Bft) W-NW 292 0 min 0,000 mm 0,0 UV-I 95 W/m -1,8 C -0,7 C 6,4 km/h (2 Bft) 100,00 %
20.02.2020 11:15 16,4 C -0,7 C 34 % 92 % 1026,4 hPa 0,0 l/m 6,4 km/h (2 Bft) W-NW 292 0 min 0,000 mm 0,0 UV-I 95 W/m -1,8 C -0,7 C 8,0 km/h (2 Bft) 100,00 %
20.02.2020 11:14 16,4 C -0,7 C 34 % 92 % 1026,4 hPa 0,0 l/m 6,4 km/h (2 Bft) W-NW 292 0 min 0,000 mm 0,0 UV-I 95 W/m -1,8 C -0,7 C 8,0 km/h (2 Bft) 100,00 %
20.02.2020 11:13 16,4 C -0,7 C 34 % 92 % 1026,4 hPa 0,0 l/m 4,8 km/h (1 Bft) W-NW 292 0 min 0,000 mm 0,0 UV-I 95 W/m -1,8 C -0,7 C 6,4 km/h (2 Bft) 100,00 %
20.02.2020 11:12 16,4 C -0,7 C 34 % 92 % 1026,4 hPa 0,0 l/m 9,7 km/h (2 Bft) W 270 0 min 0,000 mm 0,0 UV-I 97 W/m -1,8 C -4,0 C 11,3 km/h (2 Bft) 100,00 %
20.02.2020 11:11 16,4 C -0,7 C 34 % 92 % 1026,4 hPa 0,0 l/m 6,4 km/h (2 Bft) W-NW 292 0 min 0,000 mm 0,0 UV-I 98 W/m -1,8 C -0,7 C 11,3 km/h (2 Bft) 100,00 %
20.02.2020 11:10 16,4 C -0,7 C 34 % 92 % 1026,4 hPa 0,0 l/m 6,4 km/h (2 Bft) W 270 0 min 0,000 mm 0,0 UV-I 100 W/m -1,8 C -0,7 C 8,0 km/h (2 Bft) 100,00 %
20.02.2020 11:09 16,4 C -0,8 C 34 % 92 % 1026,4 hPa 0,0 l/m 8,0 km/h (2 Bft) W-NW 292 0 min 0,000 mm 0,0 UV-I 100 W/m -1,9 C -2,5 C 9,7 km/h (2 Bft) 100,00 %
20.02.2020 11:08 16,4 C -0,8 C 34 % 92 % 1026,5 hPa 0,0 l/m 6,4 km/h (2 Bft) W-NW 292 0 min 0,000 mm 0,0 UV-I 104 W/m -1,9 C -0,8 C 9,7 km/h (2 Bft) 100,00 %
20.02.2020 11:07 16,4 C -0,8 C 34 % 92 % 1026,4 hPa 0,0 l/m 6,4 km/h (2 Bft) W-NW 292 0 min 0,000 mm 0,0 UV-I 104 W/m -1,9 C -0,8 C 9,7 km/h (2 Bft) 100,00 %
20.02.2020 11:06 16,4 C -0,8 C 34 % 92 % 1026,4 hPa 0,0 l/m 8,0 km/h (2 Bft) W-NW 292 0 min 0,000 mm 0,0 UV-I 100 W/m -1,9 C -2,5 C 12,9 km/h (3 Bft) 100,00 %
20.02.2020 11:05 16,4 C -0,8 C 34 % 92 % 1026,4 hPa 0,0 l/m 6,4 km/h (2 Bft) W-NW 292 0 min 0,000 mm 0,0 UV-I 95 W/m -1,9 C -0,8 C 11,3 km/h (2 Bft) 100,00 %
20.02.2020 11:04 16,4 C -0,8 C 34 % 92 % 1026,4 hPa 0,0 l/m 6,4 km/h (2 Bft) W-NW 292 0 min 0,000 mm 0,0 UV-I 90 W/m -1,9 C -0,8 C 8,0 km/h (2 Bft) 100,00 %
20.02.2020 11:03 16,4 C -0,8 C 34 % 92 % 1026,4 hPa 0,0 l/m 6,4 km/h (2 Bft) W-NW 292 0 min 0,000 mm 0,0 UV-I 86 W/m -1,9 C -0,8 C 9,7 km/h (2 Bft) 100,00 %
20.02.2020 11:02 16,4 C -0,8 C 34 % 92 % 1026,4 hPa 0,0 l/m 6,4 km/h (2 Bft) W-NW 292 0 min 0,000 mm 0,0 UV-I 84 W/m -1,9 C -0,8 C 9,7 km/h (2 Bft) 100,00 %
20.02.2020 11:01 16,4 C -0,8 C 34 % 92 % 1026,4 hPa 0,0 l/m 4,8 km/h (1 Bft) W-NW 292 0 min 0,000 mm 0,0 UV-I 86 W/m -1,9 C -0,8 C 8,0 km/h (2 Bft) 100,00 %
20.02.2020 11:00 16,4 C -0,8 C 34 % 92 % 1026,4 hPa 0,0 l/m 6,4 km/h (2 Bft) W-NW 292 0 min 0,025 mm 0,0 UV-I 88 W/m -1,9 C -0,8 C 9,7 km/h (2 Bft) 100,00 %
20.02.2020 10:59 16,4 C -0,8 C 34 % 92 % 1026,5 hPa 0,0 l/m 4,8 km/h (1 Bft) W-NW 292 0 min 0,000 mm 0,0 UV-I 88 W/m -1,9 C -0,8 C 6,4 km/h (2 Bft) 95,65 %
20.02.2020 10:58 16,4 C -0,8 C 34 % 92 % 1026,4 hPa 0,0 l/m 4,8 km/h (1 Bft) W-NW 292 0 min 0,000 mm 0,0 UV-I 93 W/m -1,9 C -0,8 C 8,0 km/h (2 Bft) 100,00 %
20.02.2020 10:57 16,4 C -0,8 C 34 % 93 % 1026,4 hPa 0,0 l/m 6,4 km/h (2 Bft) W-NW 292 0 min 0,000 mm 0,0 UV-I 93 W/m -1,8 C -0,8 C 11,3 km/h (2 Bft) 100,00 %
20.02.2020 10:56 16,4 C -0,8 C 34 % 93 % 1026,4 hPa 0,0 l/m 8,0 km/h (2 Bft) W-NW 292 0 min 0,000 mm 0,0 UV-I 91 W/m -1,8 C -2,5 C 11,3 km/h (2 Bft) 100,00 %
20.02.2020 10:55 16,4 C -0,8 C 34 % 93 % 1026,4 hPa 0,0 l/m 4,8 km/h (1 Bft) W-NW 292 0 min 0,000 mm 0,0 UV-I 91 W/m -1,8 C -0,8 C 6,4 km/h (2 Bft) 100,00 %
20.02.2020 10:54 16,4 C -0,8 C 34 % 93 % 1026,4 hPa 0,0 l/m 6,4 km/h (2 Bft) W-NW 292 0 min 0,000 mm 0,0 UV-I 90 W/m -1,8 C -0,8 C 8,0 km/h (2 Bft) 100,00 %
20.02.2020 10:53 16,4 C -0,8 C 34 % 93 % 1026,4 hPa 0,0 l/m 4,8 km/h (1 Bft) W-NW 292 0 min 0,000 mm 0,0 UV-I 90 W/m -1,8 C -0,8 C 6,4 km/h (2 Bft) 95,65 %
20.02.2020 10:52 16,4 C -0,8 C 34 % 93 % 1026,4 hPa 0,0 l/m 4,8 km/h (1 Bft) W-NW 292 0 min 0,000 mm 0,0 UV-I 91 W/m -1,8 C -0,8 C 8,0 km/h (2 Bft) 100,00 %
20.02.2020 10:51 16,4 C -0,9 C 34 % 93 % 1026,4 hPa 0,0 l/m 4,8 km/h (1 Bft) NW 315 0 min 0,000 mm 0,0 UV-I 91 W/m -1,9 C -0,9 C 8,0 km/h (2 Bft) 100,00 %
20.02.2020 10:50 16,4 C -0,9 C 34 % 93 % 1026,5 hPa 0,0 l/m 4,8 km/h (1 Bft) W-NW 292 0 min 0,000 mm 0,0 UV-I 93 W/m -1,9 C -0,9 C 6,4 km/h (2 Bft) 95,65 %
20.02.2020 10:49 16,4 C -0,9 C 34 % 93 % 1026,4 hPa 0,0 l/m 4,8 km/h (1 Bft) W-NW 292 0 min 0,000 mm 0,0 UV-I 95 W/m -1,9 C -0,9 C 6,4 km/h (2 Bft) 100,00 %
20.02.2020 10:48 16,4 C -0,9 C 34 % 93 % 1026,4 hPa 0,0 l/m 6,4 km/h (2 Bft) W-NW 292 0 min 0,000 mm 0,0 UV-I 97 W/m -1,9 C -0,9 C 8,0 km/h (2 Bft) 100,00 %
20.02.2020 10:47 16,4 C -0,9 C 34 % 93 % 1026,5 hPa 0,0 l/m 4,8 km/h (1 Bft) W-NW 292 0 min 0,000 mm 0,0 UV-I 98 W/m -1,9 C -0,9 C 6,4 km/h (2 Bft) 100,00 %
20.02.2020 10:46 16,4 C -0,9 C 34 % 93 % 1026,5 hPa 0,0 l/m 6,4 km/h (2 Bft) W-NW 292 0 min 0,000 mm 0,0 UV-I 100 W/m -1,9 C -0,9 C 8,0 km/h (2 Bft) 100,00 %
20.02.2020 10:45 16,4 C -0,9 C 34 % 93 % 1026,5 hPa 0,0 l/m 4,8 km/h (1 Bft) W-NW 292 0 min 0,000 mm 0,0 UV-I 100 W/m -1,9 C -0,9 C 8,0 km/h (2 Bft) 100,00 %
20.02.2020 10:44 16,4 C -0,9 C 34 % 93 % 1026,4 hPa 0,0 l/m 4,8 km/h (1 Bft) W-NW 292 0 min 0,000 mm 0,0 UV-I 100 W/m -1,9 C -0,9 C 6,4 km/h (2 Bft) 100,00 %
20.02.2020 10:43 16,4 C -1,0 C 34 % 93 % 1026,5 hPa 0,0 l/m 6,4 km/h (2 Bft) W 270 0 min 0,000 mm 0,0 UV-I 100 W/m -2,0 C -1,0 C 8,0 km/h (2 Bft) 100,00 %
20.02.2020 10:42 16,4 C -1,0 C 34 % 93 % 1026,4 hPa 0,0 l/m 6,4 km/h (2 Bft) W-NW 292 0 min 0,000 mm 0,0 UV-I 100 W/m -2,0 C -1,0 C 8,0 km/h (2 Bft) 100,00 %
20.02.2020 10:41 16,4 C -1,0 C 34 % 93 % 1026,5 hPa 0,0 l/m 6,4 km/h (2 Bft) W-NW 292 0 min 0,000 mm 0,0 UV-I 100 W/m -2,0 C -1,0 C 11,3 km/h (2 Bft) 100,00 %
20.02.2020 10:40 16,4 C -1,0 C 34 % 93 % 1026,4 hPa 0,0 l/m 9,7 km/h (2 Bft) W-NW 292 0 min 0,000 mm 0,0 UV-I 100 W/m -2,0 C -4,3 C 11,3 km/h (2 Bft) 91,30 %
20.02.2020 10:39 16,3 C -1,0 C 34 % 93 % 1026,4 hPa 0,0 l/m 4,8 km/h (1 Bft) W-NW 292 0 min 0,000 mm 0,0 UV-I 95 W/m -2,0 C -1,0 C 8,0 km/h (2 Bft) 100,00 %
20.02.2020 10:38 16,4 C -1,1 C 34 % 93 % 1026,5 hPa 0,0 l/m 4,8 km/h (1 Bft) W-NW 292 0 min 0,000 mm 0,0 UV-I 93 W/m -2,1 C -1,1 C 8,0 km/h (2 Bft) 100,00 %
20.02.2020 10:37 16,3 C -1,0 C 34 % 93 % 1026,5 hPa 0,0 l/m 4,8 km/h (1 Bft) W 270 0 min 0,000 mm 0,0 UV-I 91 W/m -2,0 C -1,0 C 8,0 km/h (2 Bft) 100,00 %
20.02.2020 10:36 16,3 C -1,1 C 34 % 93 % 1026,4 hPa 0,0 l/m 4,8 km/h (1 Bft) W-NW 292 0 min 0,000 mm 0,0 UV-I 90 W/m -2,1 C -1,1 C 8,0 km/h (2 Bft) 100,00 %
20.02.2020 10:35 16,3 C -1,1 C 34 % 93 % 1026,3 hPa 0,0 l/m 4,8 km/h (1 Bft) W-NW 292 0 min 0,000 mm 0,0 UV-I 88 W/m -2,1 C -1,1 C 8,0 km/h (2 Bft) 100,00 %
20.02.2020 10:34 16,3 C -1,1 C 34 % 93 % 1026,4 hPa 0,0 l/m 4,8 km/h (1 Bft) W-NW 292 0 min 0,000 mm 0,0 UV-I 84 W/m -2,1 C -1,1 C 8,0 km/h (2 Bft) 100,00 %
20.02.2020 10:33 16,3 C -1,1 C 34 % 93 % 1026,4 hPa 0,0 l/m 4,8 km/h (1 Bft) NW 315 0 min 0,000 mm 0,0 UV-I 83 W/m -2,1 C -1,1 C 6,4 km/h (2 Bft) 100,00 %
20.02.2020 10:32 16,3 C -1,1 C 34 % 93 % 1026,4 hPa 0,0 l/m 6,4 km/h (2 Bft) W-NW 292 0 min 0,000 mm 0,0 UV-I 81 W/m -2,1 C -1,1 C 8,0 km/h (2 Bft) 100,00 %
20.02.2020 10:31 16,4 C -1,1 C 34 % 93 % 1026,5 hPa 0,0 l/m 4,8 km/h (1 Bft) W-NW 292 0 min 0,000 mm 0,0 UV-I 81 W/m -2,1 C -1,1 C 8,0 km/h (2 Bft) 95,65 %
20.02.2020 10:30 16,3 C -1,1 C 34 % 93 % 1026,4 hPa 0,0 l/m 6,4 km/h (2 Bft) W 270 0 min 0,000 mm 0,0 UV-I 81 W/m -2,1 C -1,1 C 8,0 km/h (2 Bft) 100,00 %
20.02.2020 10:29 16,3 C -1,2 C 34 % 93 % 1026,4 hPa 0,0 l/m 4,8 km/h (1 Bft) W 270 0 min 0,000 mm 0,0 UV-I 81 W/m -2,2 C -1,2 C 6,4 km/h (2 Bft) 100,00 %
20.02.2020 10:28 16,3 C -1,2 C 34 % 93 % 1026,4 hPa 0,0 l/m 6,4 km/h (2 Bft) W-NW 292 0 min 0,000 mm 0,0 UV-I 81 W/m -2,2 C -1,2 C 8,0 km/h (2 Bft) 100,00 %
20.02.2020 10:27 16,3 C -1,1 C 34 % 93 % 1026,4 hPa 0,0 l/m 4,8 km/h (1 Bft) NW 315 0 min 0,000 mm 0,0 UV-I 79 W/m -2,1 C -1,1 C 8,0 km/h (2 Bft) 100,00 %
20.02.2020 10:26 16,3 C -1,2 C 34 % 93 % 1026,4 hPa 0,0 l/m 4,8 km/h (1 Bft) W-NW 292 0 min 0,000 mm 0,0 UV-I 79 W/m -2,2 C -1,2 C 6,4 km/h (2 Bft) 100,00 %
20.02.2020 10:25 16,3 C -1,2 C 34 % 93 % 1026,4 hPa 0,0 l/m 6,4 km/h (2 Bft) W-NW 292 0 min 0,000 mm 0,0 UV-I 81 W/m -2,2 C -1,2 C 9,7 km/h (2 Bft) 100,00 %
20.02.2020 10:24 16,3 C -1,2 C 34 % 93 % 1026,4 hPa 0,0 l/m 6,4 km/h (2 Bft) W-NW 292 0 min 0,000 mm 0,0 UV-I 79 W/m -2,2 C -1,2 C 9,7 km/h (2 Bft) 100,00 %
20.02.2020 10:23 16,3 C -1,2 C 34 % 93 % 1026,4 hPa 0,0 l/m 6,4 km/h (2 Bft) W-NW 292 0 min 0,000 mm 0,0 UV-I 77 W/m -2,2 C -1,2 C 9,7 km/h (2 Bft) 95,65 %
20.02.2020 10:22 16,3 C -1,2 C 34 % 93 % 1026,5 hPa 0,0 l/m 6,4 km/h (2 Bft) W-NW 292 0 min 0,000 mm 0,0 UV-I 76 W/m -2,2 C -1,2 C 8,0 km/h (2 Bft) 100,00 %
20.02.2020 10:21 16,3 C -1,2 C 34 % 93 % 1026,4 hPa 0,0 l/m 4,8 km/h (1 Bft) W-NW 292 0 min 0,000 mm 0,0 UV-I 76 W/m -2,2 C -1,2 C 6,4 km/h (2 Bft) 100,00 %
20.02.2020 10:20 16,3 C -1,2 C 34 % 93 % 1026,4 hPa 0,0 l/m 4,8 km/h (1 Bft) W-NW 292 0 min 0,000 mm 0,0 UV-I 76 W/m -2,2 C -1,2 C 6,4 km/h (2 Bft) 100,00 %
20.02.2020 10:19 16,3 C -1,2 C 34 % 93 % 1026,5 hPa 0,0 l/m 3,2 km/h (1 Bft) W-NW 292 0 min 0,000 mm 0,0 UV-I 77 W/m -2,2 C -1,2 C 4,8 km/h (1 Bft) 100,00 %
20.02.2020 10:18 16,3 C -1,2 C 34 % 94 % 1026,4 hPa 0,0 l/m 4,8 km/h (1 Bft) W-NW 292 0 min 0,000 mm 0,0 UV-I 77 W/m -2,0 C -1,2 C 8,0 km/h (2 Bft) 100,00 %
20.02.2020 10:17 16,3 C -1,3 C 34 % 94 % 1026,5 hPa 0,0 l/m 4,8 km/h (1 Bft) W-NW 292 0 min 0,000 mm 0,0 UV-I 77 W/m -2,1 C -1,3 C 6,4 km/h (2 Bft) 91,30 %
20.02.2020 10:16 16,3 C -1,3 C 34 % 94 % 1026,4 hPa 0,0 l/m 4,8 km/h (1 Bft) W-NW 292 0 min 0,000 mm 0,0 UV-I 76 W/m -2,1 C -1,3 C 6,4 km/h (2 Bft) 95,65 %
20.02.2020 10:15 16,3 C -1,3 C 34 % 94 % 1026,5 hPa 0,0 l/m 4,8 km/h (1 Bft) W-NW 292 0 min 0,000 mm 0,0 UV-I 74 W/m -2,1 C -1,3 C 6,4 km/h (2 Bft) 100,00 %
20.02.2020 10:14 16,3 C -1,3 C 34 % 94 % 1026,5 hPa 0,0 l/m 4,8 km/h (1 Bft) W-NW 292 0 min 0,000 mm 0,0 UV-I 72 W/m -2,1 C -1,3 C 6,4 km/h (2 Bft) 100,00 %
20.02.2020 10:13 16,3 C -1,3 C 34 % 94 % 1026,4 hPa 0,0 l/m 6,4 km/h (2 Bft) W-NW 292 0 min 0,000 mm 0,0 UV-I 72 W/m -2,1 C -1,3 C 8,0 km/h (2 Bft) 100,00 %
20.02.2020 10:12 16,3 C -1,3 C 34 % 94 % 1026,3 hPa 0,0 l/m 4,8 km/h (1 Bft) W 270 0 min 0,000 mm 0,0 UV-I 72 W/m -2,1 C -1,3 C 6,4 km/h (2 Bft) 95,65 %
20.02.2020 10:11 16,3 C -1,3 C 34 % 94 % 1026,5 hPa 0,0 l/m 4,8 km/h (1 Bft) W-NW 292 0 min 0,000 mm 0,0 UV-I 74 W/m -2,1 C -1,3 C 6,4 km/h (2 Bft) 95,65 %
20.02.2020 10:10 16,3 C -1,3 C 34 % 94 % 1026,5 hPa 0,0 l/m 4,8 km/h (1 Bft) W-NW 292 0 min 0,000 mm 0,0 UV-I 74 W/m -2,1 C -1,3 C 6,4 km/h (2 Bft) 100,00 %
20.02.2020 10:09 16,3 C -1,3 C 34 % 94 % 1026,5 hPa 0,0 l/m 4,8 km/h (1 Bft) W-NW 292 0 min 0,000 mm 0,0 UV-I 74 W/m -2,1 C -1,3 C 8,0 km/h (2 Bft) 95,65 %
20.02.2020 10:08 16,3 C -1,3 C 34 % 94 % 1026,5 hPa 0,0 l/m 4,8 km/h (1 Bft) W-NW 292 0 min 0,000 mm 0,0 UV-I 72 W/m -2,1 C -1,3 C 6,4 km/h (2 Bft) 100,00 %
20.02.2020 10:07 16,3 C -1,4 C 34 % 94 % 1026,5 hPa 0,0 l/m 3,2 km/h (1 Bft) W-NW 292 0 min 0,000 mm 0,0 UV-I 70 W/m -2,2 C -1,4 C 4,8 km/h (1 Bft) 100,00 %
20.02.2020 10:06 16,3 C -1,4 C 34 % 94 % 1026,4 hPa 0,0 l/m 4,8 km/h (1 Bft) W-NW 292 0 min 0,000 mm 0,0 UV-I 70 W/m -2,2 C -1,4 C 4,8 km/h (1 Bft) 100,00 %
20.02.2020 10:05 16,3 C -1,3 C 34 % 94 % 1026,4 hPa 0,0 l/m 4,8 km/h (1 Bft) W-NW 292 0 min 0,000 mm 0,0 UV-I 72 W/m -2,1 C -1,3 C 6,4 km/h (2 Bft) 100,00 %
20.02.2020 10:04 16,3 C -1,4 C 34 % 94 % 1026,3 hPa 0,0 l/m 4,8 km/h (1 Bft) W 270 0 min 0,000 mm 0,0 UV-I 72 W/m -2,2 C -1,4 C 8,0 km/h (2 Bft) 91,30 %
20.02.2020 10:03 16,3 C -1,3 C 34 % 94 % 1026,5 hPa 0,0 l/m 4,8 km/h (1 Bft) W-NW 292 0 min 0,000 mm 0,0 UV-I 72 W/m -2,1 C -1,3 C 6,4 km/h (2 Bft) 100,00 %
20.02.2020 10:02 16,3 C -1,4 C 34 % 94 % 1026,5 hPa 0,0 l/m 3,2 km/h (1 Bft) W-NW 292 0 min 0,000 mm 0,0 UV-I 70 W/m -2,2 C -1,4 C 4,8 km/h (1 Bft) 100,00 %
20.02.2020 10:01 16,3 C -1,3 C 34 % 94 % 1026,5 hPa 0,0 l/m 4,8 km/h (1 Bft) W-NW 292 0 min 0,000 mm 0,0 UV-I 70 W/m -2,1 C -1,3 C 6,4 km/h (2 Bft) 100,00 %
20.02.2020 10:00 16,3 C -1,3 C 34 % 94 % 1026,4 hPa 0,0 l/m 4,8 km/h (1 Bft) NW 315 0 min 0,025 mm 0,0 UV-I 69 W/m -2,1 C -1,3 C 8,0 km/h (2 Bft) 100,00 %
20.02.2020 09:59 16,2 C -1,4 C 34 % 94 % 1026,5 hPa 0,0 l/m 3,2 km/h (1 Bft) W-NW 292 0 min 0,000 mm 0,0 UV-I 67 W/m -2,2 C -1,4 C 4,8 km/h (1 Bft) 100,00 %
20.02.2020 09:58 16,3 C -1,4 C 34 % 94 % 1026,5 hPa 0,0 l/m 4,8 km/h (1 Bft) W-NW 292 0 min 0,000 mm 0,0 UV-I 67 W/m -2,2 C -1,4 C 4,8 km/h (1 Bft) 100,00 %
20.02.2020 09:57 16,3 C -1,4 C 34 % 94 % 1026,6 hPa 0,0 l/m 4,8 km/h (1 Bft) W-NW 292 0 min 0,000 mm 0,0 UV-I 65 W/m -2,2 C -1,4 C 6,4 km/h (2 Bft) 100,00 %
20.02.2020 09:56 16,3 C -1,4 C 34 % 94 % 1026,5 hPa 0,0 l/m 4,8 km/h (1 Bft) W-NW 292 0 min 0,000 mm 0,0 UV-I 63 W/m -2,2 C -1,4 C 8,0 km/h (2 Bft) 100,00 %
20.02.2020 09:55 16,3 C -1,4 C 34 % 94 % 1026,5 hPa 0,0 l/m 4,8 km/h (1 Bft) W-NW 292 0 min 0,000 mm 0,0 UV-I 63 W/m -2,2 C -1,4 C 6,4 km/h (2 Bft) 100,00 %
20.02.2020 09:54 16,3 C -1,4 C 34 % 94 % 1026,5 hPa 0,0 l/m 4,8 km/h (1 Bft) W-NW 292 0 min 0,000 mm 0,0 UV-I 63 W/m -2,2 C -1,4 C 6,4 km/h (2 Bft) 91,30 %
20.02.2020 09:53 16,2 C -1,4 C 34 % 94 % 1026,6 hPa 0,0 l/m 4,8 km/h (1 Bft) W-NW 292 0 min 0,000 mm 0,0 UV-I 63 W/m -2,2 C -1,4 C 6,4 km/h (2 Bft) 100,00 %
20.02.2020 09:52 16,2 C -1,4 C 34 % 94 % 1026,5 hPa 0,0 l/m 4,8 km/h (1 Bft) W-NW 292 0 min 0,000 mm 0,0 UV-I 63 W/m -2,2 C -1,4 C 8,0 km/h (2 Bft) 95,65 %
20.02.2020 09:51 16,2 C -1,4 C 34 % 94 % 1026,5 hPa 0,0 l/m 4,8 km/h (1 Bft) W-NW 292 0 min 0,000 mm 0,0 UV-I 63 W/m -2,2 C -1,4 C 6,4 km/h (2 Bft) 100,00 %
20.02.2020 09:50 16,2 C -1,4 C 34 % 94 % 1026,5 hPa 0,0 l/m 6,4 km/h (2 Bft) W-NW 292 0 min 0,000 mm 0,0 UV-I 63 W/m -2,2 C -1,4 C 8,0 km/h (2 Bft) 100,00 %
20.02.2020 09:49 16,2 C -1,4 C 34 % 94 % 1026,6 hPa 0,0 l/m 4,8 km/h (1 Bft) W-NW 292 0 min 0,000 mm 0,0 UV-I 63 W/m -2,2 C -1,4 C 6,4 km/h (2 Bft) 100,00 %
20.02.2020 09:48 16,2 C -1,4 C 34 % 94 % 1026,5 hPa 0,0 l/m 4,8 km/h (1 Bft) W-NW 292 0 min 0,000 mm 0,0 UV-I 63 W/m -2,2 C -1,4 C 6,4 km/h (2 Bft) 100,00 %
20.02.2020 09:47 16,2 C -1,4 C 34 % 94 % 1026,6 hPa 0,0 l/m 4,8 km/h (1 Bft) W-NW 292 0 min 0,000 mm 0,0 UV-I 69 W/m -2,2 C -1,4 C 8,0 km/h (2 Bft) 100,00 %
20.02.2020 09:46 16,2 C -1,4 C 34 % 94 % 1026,6 hPa 0,0 l/m 4,8 km/h (1 Bft) W-NW 292 0 min 0,000 mm 0,0 UV-I 72 W/m -2,2 C -1,4 C 4,8 km/h (1 Bft) 100,00 %
20.02.2020 09:45 16,2 C -1,4 C 34 % 94 % 1026,6 hPa 0,0 l/m 4,8 km/h (1 Bft) W-NW 292 0 min 0,000 mm 0,0 UV-I 76 W/m -2,2 C -1,4 C 6,4 km/h (2 Bft) 100,00 %
20.02.2020 09:44 16,2 C -1,4 C 34 % 94 % 1026,6 hPa 0,0 l/m 6,4 km/h (2 Bft) W-NW 292 0 min 0,000 mm 0,0 UV-I 76 W/m -2,2 C -1,4 C 9,7 km/h (2 Bft) 100,00 %
20.02.2020 09:43 16,2 C -1,4 C 34 % 94 % 1026,6 hPa 0,0 l/m 4,8 km/h (1 Bft) W-NW 292 0 min 0,000 mm 0,0 UV-I 74 W/m -2,2 C -1,4 C 8,0 km/h (2 Bft) 100,00 %
20.02.2020 09:42 16,2 C -1,4 C 34 % 94 % 1026,6 hPa 0,0 l/m 6,4 km/h (2 Bft) W-NW 292 0 min 0,000 mm 0,0 UV-I 72 W/m -2,2 C -1,4 C 9,7 km/h (2 Bft) 91,30 %
20.02.2020 09:41 16,2 C -1,4 C 34 % 94 % 1026,7 hPa 0,0 l/m 4,8 km/h (1 Bft) W-NW 292 0 min 0,000 mm 0,0 UV-I 69 W/m -2,2 C -1,4 C 8,0 km/h (2 Bft) 100,00 %
20.02.2020 09:40 16,2 C -1,4 C 34 % 94 % 1026,6 hPa 0,0 l/m 6,4 km/h (2 Bft) W-NW 292 0 min 0,000 mm 0,0 UV-I 69 W/m -2,2 C -1,4 C 6,4 km/h (2 Bft) 95,65 %
20.02.2020 09:39 16,2 C -1,5 C 34 % 94 % 1026,6 hPa 0,0 l/m 4,8 km/h (1 Bft) W-NW 292 0 min 0,000 mm 0,0 UV-I 69 W/m -2,3 C -1,5 C 6,4 km/h (2 Bft) 100,00 %
20.02.2020 09:38 16,2 C -1,5 C 34 % 94 % 1026,6 hPa 0,0 l/m 4,8 km/h (1 Bft) W-NW 292 0 min 0,000 mm 0,0 UV-I 69 W/m -2,3 C -1,5 C 11,3 km/h (2 Bft) 100,00 %
20.02.2020 09:37 16,2 C -1,4 C 34 % 94 % 1026,6 hPa 0,0 l/m 4,8 km/h (1 Bft) W 270 0 min 0,000 mm 0,0 UV-I 69 W/m -2,2 C -1,4 C 6,4 km/h (2 Bft) 100,00 %
20.02.2020 09:36 16,2 C -1,5 C 34 % 94 % 1026,7 hPa 0,0 l/m 3,2 km/h (1 Bft) W-NW 292 0 min 0,000 mm 0,0 UV-I 67 W/m -2,3 C -1,5 C 4,8 km/h (1 Bft) 100,00 %
20.02.2020 09:35 16,2 C -1,5 C 34 % 94 % 1026,6 hPa 0,0 l/m 3,2 km/h (1 Bft) W-NW 292 0 min 0,000 mm 0,0 UV-I 63 W/m -2,3 C -1,5 C 4,8 km/h (1 Bft) 100,00 %
20.02.2020 09:34 16,2 C -1,6 C 34 % 94 % 1026,6 hPa 0,0 l/m 3,2 km/h (1 Bft) W-NW 292 0 min 0,000 mm 0,0 UV-I 62 W/m -2,4 C -1,6 C 6,4 km/h (2 Bft) 100,00 %
20.02.2020 09:33 16,2 C -1,6 C 34 % 94 % 1026,6 hPa 0,0 l/m 3,2 km/h (1 Bft) W 270 0 min 0,000 mm 0,0 UV-I 63 W/m -2,4 C -1,6 C 4,8 km/h (1 Bft) 100,00 %
20.02.2020 09:32 16,2 C -1,6 C 34 % 94 % 1026,6 hPa 0,0 l/m 4,8 km/h (1 Bft) W 270 0 min 0,000 mm 0,0 UV-I 65 W/m -2,4 C -1,6 C 9,7 km/h (2 Bft) 100,00 %
20.02.2020 09:31 16,2 C -1,6 C 34 % 94 % 1026,6 hPa 0,0 l/m 3,2 km/h (1 Bft) W-NW 292 0 min 0,000 mm 0,0 UV-I 69 W/m -2,4 C -1,6 C 8,0 km/h (2 Bft) 100,00 %
20.02.2020 09:30 16,2 C -1,6 C 34 % 94 % 1026,6 hPa 0,0 l/m 3,2 km/h (1 Bft) W-NW 292 0 min 0,000 mm 0,0 UV-I 69 W/m -2,4 C -1,6 C 4,8 km/h (1 Bft) 100,00 %
20.02.2020 09:29 16,2 C -1,6 C 34 % 94 % 1026,5 hPa 0,0 l/m 3,2 km/h (1 Bft) W-NW 292 0 min 0,000 mm 0,0 UV-I 67 W/m -2,4 C -1,6 C 6,4 km/h (2 Bft) 100,00 %
20.02.2020 09:28 16,2 C -1,6 C 34 % 94 % 1026,6 hPa 0,0 l/m 3,2 km/h (1 Bft) W-NW 292 0 min 0,000 mm 0,0 UV-I 67 W/m -2,4 C -1,6 C 4,8 km/h (1 Bft) 95,65 %
20.02.2020 09:27 16,2 C -1,6 C 34 % 94 % 1026,7 hPa 0,0 l/m 4,8 km/h (1 Bft) W-NW 292 0 min 0,000 mm 0,0 UV-I 67 W/m -2,4 C -1,6 C 6,4 km/h (2 Bft) 100,00 %
20.02.2020 09:26 16,2 C -1,7 C 34 % 94 % 1026,7 hPa 0,0 l/m 3,2 km/h (1 Bft) W 270 0 min 0,000 mm 0,0 UV-I 69 W/m -2,5 C -1,7 C 4,8 km/h (1 Bft) 100,00 %
20.02.2020 09:25 16,2 C -1,7 C 34 % 94 % 1026,6 hPa 0,0 l/m 4,8 km/h (1 Bft) W 270 0 min 0,000 mm 0,0 UV-I 67 W/m -2,5 C -1,7 C 4,8 km/h (1 Bft) 100,00 %
20.02.2020 09:24 16,2 C -1,7 C 34 % 94 % 1026,7 hPa 0,0 l/m 3,2 km/h (1 Bft) W 270 0 min 0,000 mm 0,0 UV-I 65 W/m -2,5 C -1,7 C 4,8 km/h (1 Bft) 100,00 %
20.02.2020 09:23 16,2 C -1,7 C 34 % 94 % 1026,7 hPa 0,0 l/m 3,2 km/h (1 Bft) W 270 0 min 0,000 mm 0,0 UV-I 62 W/m -2,5 C -1,7 C 4,8 km/h (1 Bft) 100,00 %
20.02.2020 09:22 16,2 C -1,7 C 34 % 94 % 1026,8 hPa 0,0 l/m 3,2 km/h (1 Bft) W 270 0 min 0,000 mm 0,0 UV-I 60 W/m -2,5 C -1,7 C 4,8 km/h (1 Bft) 100,00 %
20.02.2020 09:21 16,2 C -1,7 C 34 % 94 % 1026,8 hPa 0,0 l/m 3,2 km/h (1 Bft) W 270 0 min 0,000 mm 0,0 UV-I 58 W/m -2,5 C -1,7 C 4,8 km/h (1 Bft) 100,00 %
20.02.2020 09:20 16,2 C -1,7 C 34 % 94 % 1026,8 hPa 0,0 l/m 1,6 km/h (1 Bft) W 270 0 min 0,000 mm 0,0 UV-I 56 W/m -2,5 C -1,7 C 3,2 km/h (1 Bft) 95,65 %
20.02.2020 09:19 16,2 C -1,8 C 34 % 94 % 1026,8 hPa 0,0 l/m 3,2 km/h (1 Bft) W 270 0 min 0,000 mm 0,0 UV-I 54 W/m -2,6 C -1,8 C 4,8 km/h (1 Bft) 95,65 %
20.02.2020 09:18 16,2 C -1,8 C 34 % 94 % 1026,7 hPa 0,0 l/m 3,2 km/h (1 Bft) W-NW 292 0 min 0,000 mm 0,0 UV-I 53 W/m -2,6 C -1,8 C 4,8 km/h (1 Bft) 100,00 %
20.02.2020 09:17 16,2 C -1,8 C 34 % 94 % 1026,8 hPa 0,0 l/m 3,2 km/h (1 Bft) W-NW 292 0 min 0,000 mm 0,0 UV-I 49 W/m -2,6 C -1,8 C 3,2 km/h (1 Bft) 100,00 %
20.02.2020 09:16 16,2 C -1,8 C 34 % 94 % 1026,8 hPa 0,0 l/m 3,2 km/h (1 Bft) W-NW 292 0 min 0,000 mm 0,0 UV-I 47 W/m -2,6 C -1,8 C 3,2 km/h (1 Bft) 100,00 %
20.02.2020 09:15 16,2 C -1,8 C 34 % 94 % 1026,7 hPa 0,0 l/m 3,2 km/h (1 Bft) W-NW 292 0 min 0,000 mm 0,0 UV-I 47 W/m -2,6 C -1,8 C 4,8 km/h (1 Bft) 100,00 %
20.02.2020 09:14 16,2 C -1,7 C 34 % 94 % 1026,8 hPa 0,0 l/m 3,2 km/h (1 Bft) W-NW 292 0 min 0,000 mm 0,0 UV-I 49 W/m -2,5 C -1,7 C 4,8 km/h (1 Bft) 100,00 %
20.02.2020 09:13 16,2 C -1,8 C 34 % 94 % 1026,7 hPa 0,0 l/m 1,6 km/h (1 Bft) W-NW 292 0 min 0,000 mm 0,0 UV-I 51 W/m -2,6 C -1,8 C 3,2 km/h (1 Bft) 100,00 %
20.02.2020 09:12 16,2 C -1,8 C 34 % 94 % 1026,7 hPa 0,0 l/m 4,8 km/h (1 Bft) W-NW 292 0 min 0,000 mm 0,0 UV-I 51 W/m -2,6 C -1,8 C 6,4 km/h (2 Bft) 100,00 %
20.02.2020 09:11 16,2 C -1,8 C 34 % 94 % 1026,8 hPa 0,0 l/m 4,8 km/h (1 Bft) NW 315 0 min 0,000 mm 0,0 UV-I 47 W/m -2,6 C -1,8 C 4,8 km/h (1 Bft) 95,65 %
20.02.2020 09:10 16,2 C -1,8 C 34 % 94 % 1026,8 hPa 0,0 l/m 4,8 km/h (1 Bft) NW 315 0 min 0,000 mm 0,0 UV-I 47 W/m -2,6 C -1,8 C 8,0 km/h (2 Bft) 100,00 %
20.02.2020 09:09 16,2 C -1,8 C 34 % 94 % 1026,8 hPa 0,0 l/m 4,8 km/h (1 Bft) W 270 0 min 0,000 mm 0,0 UV-I 47 W/m -2,6 C -1,8 C 6,4 km/h (2 Bft) 95,65 %
20.02.2020 09:08 16,2 C -1,8 C 34 % 94 % 1026,7 hPa 0,0 l/m 3,2 km/h (1 Bft) W 270 0 min 0,000 mm 0,0 UV-I 46 W/m -2,6 C -1,8 C 4,8 km/h (1 Bft) 100,00 %
20.02.2020 09:07 16,2 C -1,8 C 34 % 94 % 1026,7 hPa 0,0 l/m 4,8 km/h (1 Bft) W 270 0 min 0,000 mm 0,0 UV-I 46 W/m -2,6 C -1,8 C 6,4 km/h (2 Bft) 100,00 %
20.02.2020 09:06 16,2 C -1,8 C 34 % 94 % 1026,8 hPa 0,0 l/m 4,8 km/h (1 Bft) W 270 0 min 0,000 mm 0,0 UV-I 46 W/m -2,6 C -1,8 C 6,4 km/h (2 Bft) 95,65 %
20.02.2020 09:05 16,2 C -1,8 C 34 % 94 % 1026,8 hPa 0,0 l/m 4,8 km/h (1 Bft) W-NW 292 0 min 0,000 mm 0,0 UV-I 46 W/m -2,6 C -1,8 C 6,4 km/h (2 Bft) 100,00 %
20.02.2020 09:04 16,2 C -1,8 C 34 % 94 % 1026,7 hPa 0,0 l/m 4,8 km/h (1 Bft) W-NW 292 0 min 0,000 mm 0,0 UV-I 46 W/m -2,6 C -1,8 C 6,4 km/h (2 Bft) 100,00 %
20.02.2020 09:03 16,2 C -1,8 C 34 % 94 % 1026,8 hPa 0,0 l/m 3,2 km/h (1 Bft) W-NW 292 0 min 0,000 mm 0,0 UV-I 47 W/m -2,6 C -1,8 C 3,2 km/h (1 Bft) 100,00 %
20.02.2020 09:02 16,2 C -1,8 C 34 % 94 % 1026,8 hPa 0,0 l/m 3,2 km/h (1 Bft) W-NW 292 0 min 0,000 mm 0,0 UV-I 47 W/m -2,6 C -1,8 C 6,4 km/h (2 Bft) 95,65 %
20.02.2020 09:01 16,2 C -1,8 C 34 % 94 % 1026,8 hPa 0,0 l/m 3,2 km/h (1 Bft) NW 315 0 min 0,000 mm 0,0 UV-I 49 W/m -2,6 C -1,8 C 4,8 km/h (1 Bft) 100,00 %
20.02.2020 09:00 16,2 C -1,8 C 34 % 94 % 1026,8 hPa 0,0 l/m 6,4 km/h (2 Bft) W-NW 292 0 min 0,025 mm 0,0 UV-I 49 W/m -2,6 C -1,8 C 8,0 km/h (2 Bft) 100,00 %
20.02.2020 08:59 16,2 C -1,8 C 34 % 94 % 1026,7 hPa 0,0 l/m 6,4 km/h (2 Bft) W-NW 292 0 min 0,000 mm 0,0 UV-I 44 W/m -2,6 C -1,8 C 8,0 km/h (2 Bft) 91,30 %
20.02.2020 08:58 16,2 C -1,8 C 34 % 94 % 1026,7 hPa 0,0 l/m 4,8 km/h (1 Bft) W-NW 292 0 min 0,000 mm 0,0 UV-I 44 W/m -2,6 C -1,8 C 6,4 km/h (2 Bft) 100,00 %
20.02.2020 08:57 16,2 C -1,8 C 34 % 94 % 1026,7 hPa 0,0 l/m 4,8 km/h (1 Bft) W-NW 292 0 min 0,000 mm 0,0 UV-I 44 W/m -2,6 C -1,8 C 8,0 km/h (2 Bft) 95,65 %
20.02.2020 08:56 16,2 C -1,8 C 34 % 94 % 1026,7 hPa 0,0 l/m 4,8 km/h (1 Bft) NW 315 0 min 0,000 mm 0,0 UV-I 46 W/m -2,6 C -1,8 C 6,4 km/h (2 Bft) 100,00 %
20.02.2020 08:55 16,2 C -1,8 C 34 % 94 % 1026,7 hPa 0,0 l/m 1,6 km/h (1 Bft) NW 315 0 min 0,000 mm 0,0 UV-I 46 W/m -2,6 C -1,8 C 4,8 km/h (1 Bft) 100,00 %
20.02.2020 08:54 16,2 C -1,8 C 34 % 94 % 1026,8 hPa 0,0 l/m 3,2 km/h (1 Bft) NW 315 0 min 0,000 mm 0,0 UV-I 44 W/m -2,6 C -1,8 C 4,8 km/h (1 Bft) 100,00 %
20.02.2020 08:53 16,2 C -1,8 C 34 % 94 % 1026,7 hPa 0,0 l/m 4,8 km/h (1 Bft) NW 315 0 min 0,000 mm 0,0 UV-I 44 W/m -2,6 C -1,8 C 6,4 km/h (2 Bft) 100,00 %
20.02.2020 08:52 16,2 C -1,7 C 34 % 94 % 1026,7 hPa 0,0 l/m 4,8 km/h (1 Bft) W 270 0 min 0,000 mm 0,0 UV-I 44 W/m -2,5 C -1,7 C 6,4 km/h (2 Bft) 95,65 %
20.02.2020 08:51 16,2 C -1,8 C 34 % 94 % 1026,7 hPa 0,0 l/m 3,2 km/h (1 Bft) W-NW 292 0 min 0,000 mm 0,0 UV-I 44 W/m -2,6 C -1,8 C 4,8 km/h (1 Bft) 100,00 %
20.02.2020 08:50 16,2 C -1,7 C 34 % 94 % 1026,6 hPa 0,0 l/m 3,2 km/h (1 Bft) W-NW 292 0 min 0,000 mm 0,0 UV-I 46 W/m -2,5 C -1,7 C 4,8 km/h (1 Bft) 100,00 %
20.02.2020 08:49 16,2 C -1,7 C 34 % 94 % 1026,8 hPa 0,0 l/m 3,2 km/h (1 Bft) W-NW 292 0 min 0,000 mm 0,0 UV-I 51 W/m -2,5 C -1,7 C 4,8 km/h (1 Bft) 95,65 %
20.02.2020 08:48 16,2 C -1,7 C 34 % 94 % 1026,7 hPa 0,0 l/m 3,2 km/h (1 Bft) W-NW 292 0 min 0,000 mm 0,0 UV-I 53 W/m -2,5 C -1,7 C 6,4 km/h (2 Bft) 100,00 %
20.02.2020 08:47 16,2 C -1,7 C 34 % 94 % 1026,7 hPa 0,0 l/m 4,8 km/h (1 Bft) W 270 0 min 0,000 mm 0,0 UV-I 56 W/m -2,5 C -1,7 C 6,4 km/h (2 Bft) 100,00 %
20.02.2020 08:46 16,2 C -1,7 C 34 % 94 % 1026,7 hPa 0,0 l/m 4,8 km/h (1 Bft) W-NW 292 0 min 0,000 mm 0,0 UV-I 58 W/m -2,5 C -1,7 C 8,0 km/h (2 Bft) 100,00 %
20.02.2020 08:45 16,2 C -1,7 C 34 % 94 % 1026,7 hPa 0,0 l/m 4,8 km/h (1 Bft) W-NW 292 0 min 0,000 mm 0,0 UV-I 60 W/m -2,5 C -1,7 C 8,0 km/h (2 Bft) 100,00 %
20.02.2020 08:44 16,2 C -1,7 C 34 % 94 % 1026,6 hPa 0,0 l/m 6,4 km/h (2 Bft) W-NW 292 0 min 0,000 mm 0,0 UV-I 65 W/m -2,5 C -1,7 C 12,9 km/h (3 Bft) 100,00 %
20.02.2020 08:43 16,2 C -1,7 C 34 % 94 % 1026,7 hPa 0,0 l/m 4,8 km/h (1 Bft) W 270 0 min 0,000 mm 0,0 UV-I 76 W/m -2,5 C -1,7 C 6,4 km/h (2 Bft) 100,00 %
20.02.2020 08:42 16,2 C -1,7 C 34 % 94 % 1026,7 hPa 0,0 l/m 6,4 km/h (2 Bft) W-NW 292 0 min 0,000 mm 0,0 UV-I 121 W/m -2,5 C -1,7 C 8,0 km/h (2 Bft) 95,65 %
20.02.2020 08:41 16,2 C -1,7 C 34 % 94 % 1026,7 hPa 0,0 l/m 6,4 km/h (2 Bft) W-NW 292 1 min 0,000 mm 0,0 UV-I 163 W/m -2,5 C -1,7 C 8,0 km/h (2 Bft) 100,00 %
20.02.2020 08:40 16,2 C -1,7 C 34 % 94 % 1026,8 hPa 0,0 l/m 4,8 km/h (1 Bft) W-NW 292 0 min 0,000 mm 0,0 UV-I 88 W/m -2,5 C -1,7 C 6,4 km/h (2 Bft) 100,00 %
20.02.2020 08:39 16,2 C -1,8 C 34 % 94 % 1026,6 hPa 0,0 l/m 6,4 km/h (2 Bft) W-NW 292 0 min 0,000 mm 0,0 UV-I 84 W/m -2,6 C -1,8 C 9,7 km/h (2 Bft) 100,00 %
20.02.2020 08:38 16,2 C -1,8 C 34 % 94 % 1026,6 hPa 0,0 l/m 6,4 km/h (2 Bft) W-NW 292 0 min 0,000 mm 0,0 UV-I 86 W/m -2,6 C -1,8 C 8,0 km/h (2 Bft) 95,65 %
20.02.2020 08:37 16,1 C -1,8 C 34 % 94 % 1026,7 hPa 0,0 l/m 3,2 km/h (1 Bft) W-NW 292 0 min 0,000 mm 0,0 UV-I 111 W/m -2,6 C -1,8 C 6,4 km/h (2 Bft) 95,65 %
20.02.2020 08:36 16,1 C -1,8 C 34 % 94 % 1026,7 hPa 0,0 l/m 4,8 km/h (1 Bft) W-NW 292 0 min 0,000 mm 0,0 UV-I 116 W/m -2,6 C -1,8 C 6,4 km/h (2 Bft) 100,00 %
20.02.2020 08:35 16,2 C -1,8 C 34 % 94 % 1026,7 hPa 0,0 l/m 4,8 km/h (1 Bft) W-NW 292 0 min 0,000 mm 0,0 UV-I 132 W/m -2,6 C -1,8 C 6,4 km/h (2 Bft) 100,00 %
20.02.2020 08:34 16,1 C -1,9 C 34 % 94 % 1026,7 hPa 0,0 l/m 3,2 km/h (1 Bft) W 270 0 min 0,000 mm 0,0 UV-I 127 W/m -2,7 C -1,9 C 6,4 km/h (2 Bft) 100,00 %
20.02.2020 08:33 16,1 C -1,9 C 34 % 94 % 1026,7 hPa 0,0 l/m 6,4 km/h (2 Bft) W-NW 292 0 min 0,000 mm 0,0 UV-I 88 W/m -2,7 C -1,9 C 8,0 km/h (2 Bft) 100,00 %
20.02.2020 08:32 16,1 C -1,9 C 34 % 94 % 1026,7 hPa 0,0 l/m 4,8 km/h (1 Bft) W 270 0 min 0,000 mm 0,0 UV-I 84 W/m -2,7 C -1,9 C 6,4 km/h (2 Bft) 100,00 %
20.02.2020 08:31 16,1 C -1,9 C 34 % 94 % 1026,6 hPa 0,0 l/m 3,2 km/h (1 Bft) W-NW 292 0 min 0,000 mm 0,0 UV-I 130 W/m -2,7 C -1,9 C 4,8 km/h (1 Bft) 100,00 %
20.02.2020 08:30 16,1 C -2,0 C 34 % 94 % 1026,7 hPa 0,0 l/m 4,8 km/h (1 Bft) W-NW 292 0 min 0,000 mm 0,0 UV-I 93 W/m -2,8 C -2,0 C 4,8 km/h (1 Bft) 100,00 %
20.02.2020 08:29 16,1 C -2,1 C 34 % 94 % 1026,7 hPa 0,0 l/m 3,2 km/h (1 Bft) W-NW 292 0 min 0,000 mm 0,0 UV-I 91 W/m -2,9 C -2,1 C 6,4 km/h (2 Bft) 100,00 %
20.02.2020 08:28 16,1 C -2,1 C 34 % 94 % 1026,7 hPa 0,0 l/m 3,2 km/h (1 Bft) W-NW 292 0 min 0,000 mm 0,0 UV-I 118 W/m -2,9 C -2,1 C 4,8 km/h (1 Bft) 100,00 %
20.02.2020 08:27 16,1 C -2,1 C 34 % 94 % 1026,7 hPa 0,0 l/m 4,8 km/h (1 Bft) W-NW 292 0 min 0,000 mm 0,0 UV-I 77 W/m -2,9 C -2,1 C 6,4 km/h (2 Bft) 100,00 %
20.02.2020 08:26 16,1 C -2,2 C 34 % 94 % 1026,7 hPa 0,0 l/m 4,8 km/h (1 Bft) W-NW 292 0 min 0,000 mm 0,0 UV-I 111 W/m -3,0 C -2,2 C 6,4 km/h (2 Bft) 100,00 %
20.02.2020 08:25 16,1 C -2,2 C 34 % 94 % 1026,7 hPa 0,0 l/m 4,8 km/h (1 Bft) W-SW 247 0 min 0,000 mm 0,0 UV-I 105 W/m -3,0 C -2,2 C 6,4 km/h (2 Bft) 95,65 %
20.02.2020 08:24 16,1 C -2,2 C 34 % 94 % 1026,5 hPa 0,0 l/m 4,8 km/h (1 Bft) W-NW 292 0 min 0,000 mm 0,0 UV-I 67 W/m -3,0 C -2,2 C 4,8 km/h (1 Bft) 100,00 %
20.02.2020 08:23 16,1 C -2,2 C 34 % 94 % 1026,6 hPa 0,0 l/m 4,8 km/h (1 Bft) W 270 0 min 0,000 mm 0,0 UV-I 56 W/m -3,0 C -2,2 C 6,4 km/h (2 Bft) 100,00 %
20.02.2020 08:22 16,1 C -2,2 C 34 % 94 % 1026,7 hPa 0,0 l/m 3,2 km/h (1 Bft) W 270 0 min 0,000 mm 0,0 UV-I 49 W/m -3,0 C -2,2 C 6,4 km/h (2 Bft) 100,00 %
20.02.2020 08:21 16,1 C -2,2 C 34 % 94 % 1026,7 hPa 0,0 l/m 3,2 km/h (1 Bft) W 270 0 min 0,000 mm 0,0 UV-I 46 W/m -3,0 C -2,2 C 4,8 km/h (1 Bft) 100,00 %
20.02.2020 08:20 16,1 C -2,3 C 34 % 94 % 1026,7 hPa 0,0 l/m 4,8 km/h (1 Bft) W-NW 292 0 min 0,000 mm 0,0 UV-I 46 W/m -3,1 C -2,3 C 6,4 km/h (2 Bft) 100,00 %
20.02.2020 08:19 16,1 C -2,2 C 34 % 94 % 1026,5 hPa 0,0 l/m 3,2 km/h (1 Bft) W-NW 292 0 min 0,000 mm 0,0 UV-I 40 W/m -3,0 C -2,2 C 6,4 km/h (2 Bft) 100,00 %
20.02.2020 08:18 16,1 C -2,2 C 34 % 94 % 1026,5 hPa 0,0 l/m 3,2 km/h (1 Bft) W-NW 292 0 min 0,000 mm 0,0 UV-I 39 W/m -3,0 C -2,2 C 4,8 km/h (1 Bft) 100,00 %
20.02.2020 08:17 16,1 C -2,2 C 34 % 94 % 1026,5 hPa 0,0 l/m 3,2 km/h (1 Bft) W-NW 292 0 min 0,000 mm 0,0 UV-I 46 W/m -3,0 C -2,2 C 4,8 km/h (1 Bft) 100,00 %
20.02.2020 08:16 16,1 C -2,2 C 34 % 94 % 1026,5 hPa 0,0 l/m 3,2 km/h (1 Bft) W-NW 292 0 min 0,000 mm 0,0 UV-I 47 W/m -3,0 C -2,2 C 4,8 km/h (1 Bft) 100,00 %
20.02.2020 08:15 16,1 C -2,3 C 34 % 94 % 1026,4 hPa 0,0 l/m 4,8 km/h (1 Bft) W-NW 292 0 min 0,000 mm 0,0 UV-I 56 W/m -3,1 C -2,3 C 8,0 km/h (2 Bft) 100,00 %
20.02.2020 08:14 16,1 C -2,3 C 34 % 94 % 1026,5 hPa 0,0 l/m 6,4 km/h (2 Bft) W-NW 292 0 min 0,000 mm 0,0 UV-I 62 W/m -3,1 C -2,3 C 9,7 km/h (2 Bft) 91,30 %
20.02.2020 08:13 16,1 C -2,4 C 34 % 94 % 1026,4 hPa 0,0 l/m 4,8 km/h (1 Bft) W-NW 292 0 min 0,000 mm 0,0 UV-I 63 W/m -3,2 C -2,4 C 6,4 km/h (2 Bft) 100,00 %
20.02.2020 08:12 16,1 C -2,4 C 34 % 94 % 1026,4 hPa 0,0 l/m 6,4 km/h (2 Bft) W-NW 292 0 min 0,000 mm 0,0 UV-I 65 W/m -3,2 C -2,4 C 8,0 km/h (2 Bft) 100,00 %
20.02.2020 08:11 16,1 C -2,5 C 34 % 94 % 1026,3 hPa 0,0 l/m 3,2 km/h (1 Bft) W-NW 292 0 min 0,000 mm 0,0 UV-I 63 W/m -3,3 C -2,5 C 4,8 km/h (1 Bft) 100,00 %
20.02.2020 08:10 16,1 C -2,6 C 34 % 94 % 1026,4 hPa 0,0 l/m 4,8 km/h (1 Bft) W-NW 292 0 min 0,000 mm 0,0 UV-I 63 W/m -3,4 C -2,6 C 6,4 km/h (2 Bft) 100,00 %
20.02.2020 08:09 16,1 C -2,6 C 34 % 94 % 1026,4 hPa 0,0 l/m 3,2 km/h (1 Bft) W 270 0 min 0,000 mm 0,0 UV-I 62 W/m -3,4 C -2,6 C 4,8 km/h (1 Bft) 100,00 %
20.02.2020 08:08 16,1 C -2,6 C 34 % 94 % 1026,3 hPa 0,0 l/m 4,8 km/h (1 Bft) W-NW 292 0 min 0,000 mm 0,0 UV-I 58 W/m -3,4 C -2,6 C 6,4 km/h (2 Bft) 100,00 %
20.02.2020 08:07 16,0 C -2,6 C 34 % 94 % 1026,4 hPa 0,0 l/m 4,8 km/h (1 Bft) W 270 0 min 0,000 mm 0,0 UV-I 54 W/m -3,4 C -2,6 C 6,4 km/h (2 Bft) 100,00 %
20.02.2020 08:06 16,1 C -2,6 C 34 % 94 % 1026,3 hPa 0,0 l/m 4,8 km/h (1 Bft) W-NW 292 0 min 0,000 mm 0,0 UV-I 51 W/m -3,4 C -2,6 C 6,4 km/h (2 Bft) 100,00 %
20.02.2020 08:05 16,1 C -2,6 C 34 % 94 % 1026,4 hPa 0,0 l/m 3,2 km/h (1 Bft) W-NW 292 0 min 0,000 mm 0,0 UV-I 47 W/m -3,4 C -2,6 C 4,8 km/h (1 Bft) 100,00 %
20.02.2020 08:04 16,1 C -2,7 C 34 % 94 % 1026,4 hPa 0,0 l/m 6,4 km/h (2 Bft) W-NW 292 0 min 0,000 mm 0,0 UV-I 42 W/m -3,5 C -2,7 C 9,7 km/h (2 Bft) 100,00 %
20.02.2020 08:03 16,1 C -2,7 C 34 % 94 % 1026,4 hPa 0,0 l/m 4,8 km/h (1 Bft) W-NW 292 0 min 0,000 mm 0,0 UV-I 39 W/m -3,5 C -2,7 C 6,4 km/h (2 Bft) 100,00 %
20.02.2020 08:02 16,0 C -2,7 C 34 % 94 % 1026,3 hPa 0,0 l/m 4,8 km/h (1 Bft) W 270 0 min 0,000 mm 0,0 UV-I 33 W/m -3,5 C -2,7 C 8,0 km/h (2 Bft) 95,65 %
20.02.2020 08:01 16,1 C -2,7 C 34 % 94 % 1026,5 hPa 0,0 l/m 4,8 km/h (1 Bft) W 270 0 min 0,000 mm 0,0 UV-I 26 W/m -3,5 C -2,7 C 6,4 km/h (2 Bft) 95,65 %
20.02.2020 08:00 16,0 C -2,8 C 34 % 94 % 1026,4 hPa 0,0 l/m 4,8 km/h (1 Bft) W-NW 292 0 min 0,000 mm 0,0 UV-I 25 W/m -3,6 C -2,8 C 6,4 km/h (2 Bft) 95,65 %
20.02.2020 07:59 16,1 C -2,8 C 34 % 93 % 1026,4 hPa 0,0 l/m 6,4 km/h (2 Bft) W 270 0 min 0,000 mm 0,0 UV-I 21 W/m -3,8 C -2,8 C 9,7 km/h (2 Bft) 95,65 %
20.02.2020 07:58 16,0 C -2,8 C 34 % 93 % 1026,4 hPa 0,0 l/m 4,8 km/h (1 Bft) W 270 0 min 0,000 mm 0,0 UV-I 19 W/m -3,8 C -2,8 C 8,0 km/h (2 Bft) 100,00 %
20.02.2020 07:57 16,0 C -2,8 C 34 % 93 % 1026,5 hPa 0,0 l/m 6,4 km/h (2 Bft) W-NW 292 0 min 0,000 mm 0,0 UV-I 19 W/m -3,8 C -2,8 C 9,7 km/h (2 Bft) 100,00 %
20.02.2020 07:56 16,1 C -2,8 C 34 % 94 % 1026,5 hPa 0,0 l/m 3,2 km/h (1 Bft) W 270 0 min 0,000 mm 0,0 UV-I 18 W/m -3,6 C -2,8 C 6,4 km/h (2 Bft) 100,00 %
20.02.2020 07:55 16,1 C -2,8 C 34 % 93 % 1026,4 hPa 0,0 l/m 3,2 km/h (1 Bft) W 270 0 min 0,000 mm 0,0 UV-I 18 W/m -3,8 C -2,8 C 4,8 km/h (1 Bft) 100,00 %
20.02.2020 07:54 16,0 C -2,8 C 34 % 93 % 1026,4 hPa 0,0 l/m 4,8 km/h (1 Bft) W-NW 292 0 min 0,000 mm 0,0 UV-I 18 W/m -3,8 C -2,8 C 8,0 km/h (2 Bft) 95,65 %
20.02.2020 07:53 16,0 C -2,8 C 34 % 94 % 1026,3 hPa 0,0 l/m 3,2 km/h (1 Bft) W-NW 292 0 min 0,000 mm 0,0 UV-I 18 W/m -3,6 C -2,8 C 4,8 km/h (1 Bft) 100,00 %
20.02.2020 07:52 16,1 C -2,8 C 34 % 93 % 1026,4 hPa 0,0 l/m 4,8 km/h (1 Bft) W-NW 292 0 min 0,000 mm 0,0 UV-I 16 W/m -3,8 C -2,8 C 6,4 km/h (2 Bft) 100,00 %
20.02.2020 07:51 16,1 C -2,8 C 34 % 94 % 1026,4 hPa 0,0 l/m 3,2 km/h (1 Bft) W-NW 292 0 min 0,000 mm 0,0 UV-I 16 W/m -3,6 C -2,8 C 4,8 km/h (1 Bft) 95,65 %
20.02.2020 07:50 16,0 C -2,8 C 34 % 93 % 1026,3 hPa 0,0 l/m 4,8 km/h (1 Bft) W-NW 292 0 min 0,000 mm 0,0 UV-I 16 W/m -3,8 C -2,8 C 4,8 km/h (1 Bft) 95,65 %
20.02.2020 07:49 16,0 C -2,8 C 34 % 94 % 1026,4 hPa 0,0 l/m 4,8 km/h (1 Bft) W-NW 292 0 min 0,000 mm 0,0 UV-I 14 W/m -3,6 C -2,8 C 6,4 km/h (2 Bft) 100,00 %
20.02.2020 07:48 16,0 C -2,8 C 34 % 94 % 1026,3 hPa 0,0 l/m 4,8 km/h (1 Bft) W-NW 292 0 min 0,000 mm 0,0 UV-I 14 W/m -3,6 C -2,8 C 6,4 km/h (2 Bft) 100,00 %
20.02.2020 07:47 16,1 C -2,8 C 34 % 94 % 1026,4 hPa 0,0 l/m 4,8 km/h (1 Bft) W-NW 292 0 min 0,000 mm 0,0 UV-I 14 W/m -3,6 C -2,8 C 4,8 km/h (1 Bft) 95,65 %
20.02.2020 07:46 16,0 C -2,8 C 34 % 93 % 1026,3 hPa 0,0 l/m 4,8 km/h (1 Bft) W-NW 292 0 min 0,000 mm 0,0 UV-I 14 W/m -3,8 C -2,8 C 6,4 km/h (2 Bft) 100,00 %
20.02.2020 07:45 16,0 C -2,8 C 34 % 93 % 1026,4 hPa 0,0 l/m 4,8 km/h (1 Bft) W-NW 292 0 min 0,000 mm 0,0 UV-I 14 W/m -3,8 C -2,8 C 6,4 km/h (2 Bft) 100,00 %
20.02.2020 07:44 16,1 C -2,8 C 34 % 93 % 1026,4 hPa 0,0 l/m 6,4 km/h (2 Bft) W-NW 292 0 min 0,000 mm 0,0 UV-I 12 W/m -3,8 C -2,8 C 8,0 km/h (2 Bft) 100,00 %
20.02.2020 07:43 16,0 C -2,8 C 34 % 93 % 1026,4 hPa 0,0 l/m 4,8 km/h (1 Bft) W-NW 292 0 min 0,000 mm 0,0 UV-I 12 W/m -3,8 C -2,8 C 8,0 km/h (2 Bft) 100,00 %
20.02.2020 07:42 16,0 C -2,7 C 34 % 94 % 1026,4 hPa 0,0 l/m 4,8 km/h (1 Bft) W-NW 292 0 min 0,000 mm 0,0 UV-I 12 W/m -3,5 C -2,7 C 6,4 km/h (2 Bft) 95,65 %
20.02.2020 07:41 16,0 C -2,7 C 34 % 94 % 1026,3 hPa 0,0 l/m 4,8 km/h (1 Bft) W-NW 292 0 min 0,000 mm 0,0 UV-I 12 W/m -3,5 C -2,7 C 9,7 km/h (2 Bft) 100,00 %
20.02.2020 07:40 16,0 C -2,7 C 34 % 94 % 1026,4 hPa 0,0 l/m 4,8 km/h (1 Bft) W-NW 292 0 min 0,000 mm 0,0 UV-I 12 W/m -3,5 C -2,7 C 6,4 km/h (2 Bft) 95,65 %
20.02.2020 07:39 16,0 C -2,7 C 34 % 94 % 1026,3 hPa 0,0 l/m 4,8 km/h (1 Bft) W-NW 292 0 min 0,000 mm 0,0 UV-I 12 W/m -3,5 C -2,7 C 6,4 km/h (2 Bft) 100,00 %
20.02.2020 07:38 16,0 C -2,7 C 34 % 94 % 1026,4 hPa 0,0 l/m 4,8 km/h (1 Bft) W-NW 292 0 min 0,000 mm 0,0 UV-I 16 W/m -3,5 C -2,7 C 6,4 km/h (2 Bft) 100,00 %
20.02.2020 07:37 16,0 C -2,7 C 34 % 94 % 1026,3 hPa 0,0 l/m 4,8 km/h (1 Bft) W-NW 292 0 min 0,000 mm 0,0 UV-I 19 W/m -3,5 C -2,7 C 6,4 km/h (2 Bft) 95,65 %
20.02.2020 07:36 16,0 C -2,7 C 34 % 94 % 1026,3 hPa 0,0 l/m 4,8 km/h (1 Bft) W-NW 292 0 min 0,000 mm 0,0 UV-I 21 W/m -3,5 C -2,7 C 6,4 km/h (2 Bft) 100,00 %
20.02.2020 07:35 16,0 C -2,7 C 34 % 94 % 1026,5 hPa 0,0 l/m 3,2 km/h (1 Bft) W-NW 292 0 min 0,000 mm 0,0 UV-I 21 W/m -3,5 C -2,7 C 4,8 km/h (1 Bft) 100,00 %
20.02.2020 07:34 16,0 C -2,7 C 34 % 94 % 1026,3 hPa 0,0 l/m 3,2 km/h (1 Bft) W-NW 292 0 min 0,000 mm 0,0 UV-I 23 W/m -3,5 C -2,7 C 4,8 km/h (1 Bft) 100,00 %
20.02.2020 07:33 16,0 C -2,7 C 34 % 94 % 1026,3 hPa 0,0 l/m 4,8 km/h (1 Bft) W-NW 292 0 min 0,000 mm 0,0 UV-I 23 W/m -3,5 C -2,7 C 6,4 km/h (2 Bft) 95,65 %
20.02.2020 07:32 16,0 C -2,8 C 34 % 94 % 1026,4 hPa 0,0 l/m 3,2 km/h (1 Bft) W-NW 292 0 min 0,000 mm 0,0 UV-I 26 W/m -3,6 C -2,8 C 6,4 km/h (2 Bft) 100,00 %
20.02.2020 07:31 16,0 C -2,8 C 34 % 94 % 1026,3 hPa 0,0 l/m 3,2 km/h (1 Bft) W-NW 292 0 min 0,000 mm 0,0 UV-I 26 W/m -3,6 C -2,8 C 4,8 km/h (1 Bft) 100,00 %
20.02.2020 07:30 16,0 C -2,8 C 34 % 94 % 1026,3 hPa 0,0 l/m 4,8 km/h (1 Bft) W-NW 292 0 min 0,000 mm 0,0 UV-I 25 W/m -3,6 C -2,8 C 4,8 km/h (1 Bft) 100,00 %
20.02.2020 07:29 16,0 C -2,8 C 34 % 94 % 1026,3 hPa 0,0 l/m 4,8 km/h (1 Bft) W 270 0 min 0,000 mm 0,0 UV-I 25 W/m -3,6 C -2,8 C 4,8 km/h (1 Bft) 100,00 %
20.02.2020 07:28 15,9 C -2,8 C 34 % 94 % 1026,4 hPa 0,0 l/m 4,8 km/h (1 Bft) W-NW 292 0 min 0,000 mm 0,0 UV-I 23 W/m -3,6 C -2,8 C 6,4 km/h (2 Bft) 100,00 %
20.02.2020 07:27 16,0 C -2,9 C 34 % 94 % 1026,4 hPa 0,0 l/m 6,4 km/h (2 Bft) W-NW 292 0 min 0,000 mm 0,0 UV-I 21 W/m -3,7 C -2,9 C 8,0 km/h (2 Bft) 100,00 %
20.02.2020 07:26 16,0 C -2,9 C 34 % 94 % 1026,4 hPa 0,0 l/m 3,2 km/h (1 Bft) W-NW 292 0 min 0,000 mm 0,0 UV-I 16 W/m -3,7 C -2,9 C 3,2 km/h (1 Bft) 100,00 %
20.02.2020 07:25 16,0 C -2,9 C 34 % 94 % 1026,3 hPa 0,0 l/m 3,2 km/h (1 Bft) W-NW 292 0 min 0,000 mm 0,0 UV-I 16 W/m -3,7 C -2,9 C 6,4 km/h (2 Bft) 100,00 %
20.02.2020 07:24 16,0 C -2,9 C 34 % 94 % 1026,3 hPa 0,0 l/m 3,2 km/h (1 Bft) W-NW 292 0 min 0,000 mm 0,0 UV-I 16 W/m -3,7 C -2,9 C 4,8 km/h (1 Bft) 100,00 %
20.02.2020 07:23 15,9 C -2,9 C 34 % 94 % 1026,3 hPa 0,0 l/m 4,8 km/h (1 Bft) W-NW 292 0 min 0,000 mm 0,0 UV-I 18 W/m -3,7 C -2,9 C 6,4 km/h (2 Bft) 95,65 %
20.02.2020 07:22 16,0 C -3,0 C 34 % 93 % 1026,3 hPa 0,0 l/m 6,4 km/h (2 Bft) W-NW 292 0 min 0,000 mm 0,0 UV-I 16 W/m -4,0 C -3,0 C 9,7 km/h (2 Bft) 100,00 %
20.02.2020 07:21 16,0 C -3,0 C 34 % 93 % 1026,3 hPa 0,0 l/m 3,2 km/h (1 Bft) W-NW 292 0 min 0,000 mm 0,0 UV-I 16 W/m -4,0 C -3,0 C 4,8 km/h (1 Bft) 100,00 %
20.02.2020 07:20 16,0 C -3,0 C 34 % 93 % 1026,4 hPa 0,0 l/m 4,8 km/h (1 Bft) W-NW 292 0 min 0,000 mm 0,0 UV-I 12 W/m -4,0 C -3,0 C 6,4 km/h (2 Bft) 100,00 %
20.02.2020 07:19 16,0 C -3,1 C 34 % 93 % 1026,3 hPa 0,0 l/m 4,8 km/h (1 Bft) W-NW 292 0 min 0,000 mm 0,0 UV-I 9 W/m -4,1 C -3,1 C 8,0 km/h (2 Bft) 100,00 %
20.02.2020 07:18 16,0 C -3,0 C 34 % 93 % 1026,3 hPa 0,0 l/m 4,8 km/h (1 Bft) W-NW 292 0 min 0,000 mm 0,0 UV-I 7 W/m -4,0 C -3,0 C 6,4 km/h (2 Bft) 100,00 %
20.02.2020 07:17 15,9 C -3,1 C 34 % 93 % 1026,3 hPa 0,0 l/m 4,8 km/h (1 Bft) W-NW 292 0 min 0,000 mm 0,0 UV-I 5 W/m -4,1 C -3,1 C 4,8 km/h (1 Bft) 100,00 %
20.02.2020 07:16 15,9 C -3,1 C 34 % 93 % 1026,3 hPa 0,0 l/m 3,2 km/h (1 Bft) W-NW 292 0 min 0,000 mm 0,0 UV-I 5 W/m -4,1 C -3,1 C 6,4 km/h (2 Bft) 95,65 %
20.02.2020 07:15 16,0 C -3,1 C 34 % 94 % 1026,3 hPa 0,0 l/m 4,8 km/h (1 Bft) W-NW 292 0 min 0,000 mm 0,0 UV-I 0 W/m -3,9 C -3,1 C 6,4 km/h (2 Bft) 95,65 %
20.02.2020 07:14 16,0 C -3,1 C 34 % 94 % 1026,2 hPa 0,0 l/m 4,8 km/h (1 Bft) W-NW 292 0 min 0,000 mm 0,0 UV-I 0 W/m -3,9 C -3,1 C 8,0 km/h (2 Bft) 100,00 %
20.02.2020 07:13 16,0 C -3,1 C 34 % 93 % 1026,2 hPa 0,0 l/m 4,8 km/h (1 Bft) W-NW 292 0 min 0,000 mm 0,0 UV-I 0 W/m -4,1 C -3,1 C 6,4 km/h (2 Bft) 100,00 %
20.02.2020 07:12 15,9 C -3,1 C 34 % 93 % 1026,2 hPa 0,0 l/m 4,8 km/h (1 Bft) W-NW 292 0 min 0,000 mm 0,0 UV-I 0 W/m -4,1 C -3,1 C 8,0 km/h (2 Bft) 100,00 %
20.02.2020 07:11 15,9 C -3,1 C 34 % 93 % 1026,1 hPa 0,0 l/m 4,8 km/h (1 Bft) W-NW 292 0 min 0,000 mm 0,0 UV-I 0 W/m -4,1 C -3,1 C 6,4 km/h (2 Bft) 95,65 %
20.02.2020 07:10 15,9 C -3,1 C 34 % 93 % 1026,2 hPa 0,0 l/m 3,2 km/h (1 Bft) W 270 0 min 0,000 mm 0,0 UV-I 0 W/m -4,1 C -3,1 C 6,4 km/h (2 Bft) 100,00 %
20.02.2020 07:09 15,9 C -3,1 C 34 % 93 % 1026,1 hPa 0,0 l/m 4,8 km/h (1 Bft) W-NW 292 0 min 0,000 mm 0,0 UV-I 0 W/m -4,1 C -3,1 C 6,4 km/h (2 Bft) 100,00 %
20.02.2020 07:08 16,0 C -3,1 C 34 % 93 % 1026,1 hPa 0,0 l/m 3,2 km/h (1 Bft) W-NW 292 0 min 0,000 mm 0,0 UV-I 0 W/m -4,1 C -3,1 C 4,8 km/h (1 Bft) 100,00 %
20.02.2020 07:07 16,0 C -3,1 C 34 % 94 % 1026,0 hPa 0,0 l/m 4,8 km/h (1 Bft) W-NW 292 0 min 0,000 mm 0,0 UV-I 0 W/m -3,9 C -3,1 C 6,4 km/h (2 Bft) 100,00 %
20.02.2020 07:06 16,0 C -3,1 C 34 % 94 % 1026,0 hPa 0,0 l/m 3,2 km/h (1 Bft) W-NW 292 0 min 0,000 mm 0,0 UV-I 0 W/m -3,9 C -3,1 C 6,4 km/h (2 Bft) 100,00 %
20.02.2020 07:05 16,0 C -3,1 C 34 % 94 % 1026,0 hPa 0,0 l/m 4,8 km/h (1 Bft) W-NW 292 0 min 0,000 mm 0,0 UV-I 0 W/m -3,9 C -3,1 C 8,0 km/h (2 Bft) 100,00 %
20.02.2020 07:04 15,9 C -3,1 C 34 % 93 % 1026,0 hPa 0,0 l/m 4,8 km/h (1 Bft) W-NW 292 0 min 0,000 mm 0,0 UV-I 0 W/m -4,1 C -3,1 C 8,0 km/h (2 Bft) 100,00 %
20.02.2020 07:03 16,0 C -3,1 C 34 % 93 % 1025,9 hPa 0,0 l/m 4,8 km/h (1 Bft) W-NW 292 0 min 0,000 mm 0,0 UV-I 0 W/m -4,1 C -3,1 C 6,4 km/h (2 Bft) 100,00 %
20.02.2020 07:02 15,9 C -3,1 C 34 % 93 % 1025,9 hPa 0,0 l/m 3,2 km/h (1 Bft) W-NW 292 0 min 0,000 mm 0,0 UV-I 0 W/m -4,1 C -3,1 C 4,8 km/h (1 Bft) 100,00 %
20.02.2020 07:01 16,0 C -3,1 C 34 % 93 % 1025,9 hPa 0,0 l/m 4,8 km/h (1 Bft) W-NW 292 0 min 0,000 mm 0,0 UV-I 0 W/m -4,1 C -3,1 C 4,8 km/h (1 Bft) 91,30 %
20.02.2020 07:00 15,9 C -3,1 C 34 % 93 % 1025,9 hPa 0,0 l/m 3,2 km/h (1 Bft) W-NW 292 0 min 0,000 mm 0,0 UV-I 0 W/m -4,1 C -3,1 C 4,8 km/h (1 Bft) 100,00 %
20.02.2020 06:59 16,0 C -3,2 C 34 % 93 % 1025,9 hPa 0,0 l/m 4,8 km/h (1 Bft) W 270 0 min 0,000 mm 0,0 UV-I 0 W/m -4,2 C -3,2 C 6,4 km/h (2 Bft) 95,65 %
20.02.2020 06:58 15,9 C -3,2 C 34 % 93 % 1025,9 hPa 0,0 l/m 4,8 km/h (1 Bft) W 270 0 min 0,000 mm 0,0 UV-I 0 W/m -4,2 C -3,2 C 6,4 km/h (2 Bft) 100,00 %
20.02.2020 06:57 15,9 C -3,2 C 34 % 93 % 1025,8 hPa 0,0 l/m 3,2 km/h (1 Bft) W-NW 292 0 min 0,000 mm 0,0 UV-I 0 W/m -4,2 C -3,2 C 4,8 km/h (1 Bft) 100,00 %
20.02.2020 06:56 15,9 C -3,2 C 34 % 93 % 1025,9 hPa 0,0 l/m 3,2 km/h (1 Bft) W-NW 292 0 min 0,000 mm 0,0 UV-I 0 W/m -4,2 C -3,2 C 3,2 km/h (1 Bft) 100,00 %
20.02.2020 06:55 15,9 C -3,2 C 34 % 93 % 1025,9 hPa 0,0 l/m 1,6 km/h (1 Bft) W-NW 292 0 min 0,000 mm 0,0 UV-I 0 W/m -4,2 C -3,2 C 3,2 km/h (1 Bft) 100,00 %
20.02.2020 06:54 16,0 C -3,2 C 34 % 93 % 1025,9 hPa 0,0 l/m 3,2 km/h (1 Bft) W-NW 292 0 min 0,000 mm 0,0 UV-I 0 W/m -4,2 C -3,2 C 4,8 km/h (1 Bft) 95,65 %
20.02.2020 06:53 15,9 C -3,2 C 34 % 93 % 1025,9 hPa 0,0 l/m 4,8 km/h (1 Bft) W-NW 292 0 min 0,000 mm 0,0 UV-I 0 W/m -4,2 C -3,2 C 6,4 km/h (2 Bft) 100,00 %
20.02.2020 06:52 15,9 C -3,1 C 34 % 93 % 1025,9 hPa 0,0 l/m 3,2 km/h (1 Bft) W-NW 292 0 min 0,000 mm 0,0 UV-I 0 W/m -4,1 C -3,1 C 3,2 km/h (1 Bft) 100,00 %
20.02.2020 06:51 16,0 C -3,1 C 34 % 93 % 1025,8 hPa 0,0 l/m 3,2 km/h (1 Bft) W-NW 292 0 min 0,000 mm 0,0 UV-I 0 W/m -4,1 C -3,1 C 4,8 km/h (1 Bft) 100,00 %
20.02.2020 06:50 15,9 C -3,1 C 34 % 93 % 1025,8 hPa 0,0 l/m 3,2 km/h (1 Bft) W-NW 292 0 min 0,000 mm 0,0 UV-I 0 W/m -4,1 C -3,1 C 4,8 km/h (1 Bft) 100,00 %
20.02.2020 06:49 15,9 C -3,2 C 34 % 93 % 1025,9 hPa 0,0 l/m 4,8 km/h (1 Bft) W-NW 292 0 min 0,000 mm 0,0 UV-I 0 W/m -4,2 C -3,2 C 8,0 km/h (2 Bft) 100,00 %
20.02.2020 06:48 16,0 C -3,2 C 34 % 93 % 1025,9 hPa 0,0 l/m 3,2 km/h (1 Bft) W 270 0 min 0,000 mm 0,0 UV-I 0 W/m -4,2 C -3,2 C 4,8 km/h (1 Bft) 100,00 %
20.02.2020 06:47 16,0 C -3,1 C 34 % 93 % 1025,9 hPa 0,0 l/m 1,6 km/h (1 Bft) NW 315 0 min 0,000 mm 0,0 UV-I 0 W/m -4,1 C -3,1 C 3,2 km/h (1 Bft) 100,00 %
20.02.2020 06:46 16,0 C -3,2 C 34 % 93 % 1025,9 hPa 0,0 l/m 3,2 km/h (1 Bft) NW 315 0 min 0,000 mm 0,0 UV-I 0 W/m -4,2 C -3,2 C 4,8 km/h (1 Bft) 100,00 %
20.02.2020 06:45 15,9 C -3,2 C 34 % 93 % 1025,9 hPa 0,0 l/m 3,2 km/h (1 Bft) NW 315 0 min 0,000 mm 0,0 UV-I 0 W/m -4,2 C -3,2 C 3,2 km/h (1 Bft) 95,65 %
20.02.2020 06:44 15,9 C -3,1 C 34 % 94 % 1026,0 hPa 0,0 l/m 1,6 km/h (1 Bft) NW 315 0 min 0,000 mm 0,0 UV-I 0 W/m -3,9 C -3,1 C 3,2 km/h (1 Bft) 91,30 %
20.02.2020 06:43 15,9 C -3,1 C 34 % 93 % 1025,9 hPa 0,0 l/m 3,2 km/h (1 Bft) W-NW 292 0 min 0,000 mm 0,0 UV-I 0 W/m -4,1 C -3,1 C 4,8 km/h (1 Bft) 100,00 %
20.02.2020 06:42 15,9 C -3,1 C 34 % 93 % 1026,0 hPa 0,0 l/m 3,2 km/h (1 Bft) W-NW 292 0 min 0,000 mm 0,0 UV-I 0 W/m -4,1 C -3,1 C 4,8 km/h (1 Bft) 95,65 %
20.02.2020 06:41 15,9 C -3,1 C 34 % 93 % 1025,9 hPa 0,0 l/m 3,2 km/h (1 Bft) W-NW 292 0 min 0,000 mm 0,0 UV-I 0 W/m -4,1 C -3,1 C 3,2 km/h (1 Bft) 100,00 %
20.02.2020 06:40 15,9 C -3,0 C 34 % 93 % 1025,8 hPa 0,0 l/m 4,8 km/h (1 Bft) W 270 0 min 0,000 mm 0,0 UV-I 0 W/m -4,0 C -3,0 C 6,4 km/h (2 Bft) 91,30 %
20.02.2020 06:39 15,9 C -3,1 C 34 % 93 % 1025,9 hPa 0,0 l/m 3,2 km/h (1 Bft) W 270 0 min 0,000 mm 0,0 UV-I 0 W/m -4,1 C -3,1 C 6,4 km/h (2 Bft) 95,65 %
20.02.2020 06:38 16,0 C -3,0 C 34 % 93 % 1025,9 hPa 0,0 l/m 3,2 km/h (1 Bft) W 270 0 min 0,000 mm 0,0 UV-I 0 W/m -4,0 C -3,0 C 4,8 km/h (1 Bft) 100,00 %
20.02.2020 06:37 16,0 C -3,0 C 34 % 94 % 1025,9 hPa 0,0 l/m 4,8 km/h (1 Bft) W-NW 292 0 min 0,000 mm 0,0 UV-I 0 W/m -3,8 C -3,0 C 8,0 km/h (2 Bft) 95,65 %
20.02.2020 06:36 16,0 C -3,0 C 34 % 94 % 1025,8 hPa 0,0 l/m 3,2 km/h (1 Bft) W-NW 292 0 min 0,000 mm 0,0 UV-I 0 W/m -3,8 C -3,0 C 4,8 km/h (1 Bft) 100,00 %
20.02.2020 06:35 15,9 C -3,0 C 34 % 93 % 1025,9 hPa 0,0 l/m 3,2 km/h (1 Bft) W-NW 292 0 min 0,000 mm 0,0 UV-I 0 W/m -4,0 C -3,0 C 4,8 km/h (1 Bft) 100,00 %
20.02.2020 06:34 15,9 C -3,0 C 34 % 93 % 1025,9 hPa 0,0 l/m 3,2 km/h (1 Bft) W-NW 292 0 min 0,000 mm 0,0 UV-I 0 W/m -4,0 C -3,0 C 4,8 km/h (1 Bft) 100,00 %
20.02.2020 06:33 15,9 C -3,0 C 34 % 93 % 1025,8 hPa 0,0 l/m 4,8 km/h (1 Bft) W-NW 292 0 min 0,000 mm 0,0 UV-I 0 W/m -4,0 C -3,0 C 8,0 km/h (2 Bft) 100,00 %
20.02.2020 06:32 15,9 C -3,0 C 34 % 93 % 1025,9 hPa 0,0 l/m 6,4 km/h (2 Bft) W-NW 292 0 min 0,000 mm 0,0 UV-I 0 W/m -4,0 C -3,0 C 8,0 km/h (2 Bft) 100,00 %
20.02.2020 06:31 15,9 C -3,0 C 34 % 94 % 1025,9 hPa 0,0 l/m 4,8 km/h (1 Bft) W-NW 292 0 min 0,000 mm 0,0 UV-I 0 W/m -3,8 C -3,0 C 8,0 km/h (2 Bft) 100,00 %
20.02.2020 06:30 15,9 C -3,0 C 34 % 94 % 1025,9 hPa 0,0 l/m 4,8 km/h (1 Bft) W 270 0 min 0,000 mm 0,0 UV-I 0 W/m -3,8 C -3,0 C 6,4 km/h (2 Bft) 95,65 %
20.02.2020 06:29 15,9 C -3,0 C 34 % 93 % 1025,9 hPa 0,0 l/m 3,2 km/h (1 Bft) W 270 0 min 0,000 mm 0,0 UV-I 0 W/m -4,0 C -3,0 C 6,4 km/h (2 Bft) 100,00 %
20.02.2020 06:28 15,9 C -2,9 C 34 % 94 % 1025,9 hPa 0,0 l/m 3,2 km/h (1 Bft) W 270 0 min 0,000 mm 0,0 UV-I 0 W/m -3,7 C -2,9 C 4,8 km/h (1 Bft) 100,00 %
20.02.2020 06:27 15,9 C -2,9 C 34 % 93 % 1025,8 hPa 0,0 l/m 3,2 km/h (1 Bft) W 270 0 min 0,000 mm 0,0 UV-I 0 W/m -3,9 C -2,9 C 4,8 km/h (1 Bft) 95,65 %
20.02.2020 06:26 15,9 C -2,9 C 34 % 94 % 1025,8 hPa 0,0 l/m 3,2 km/h (1 Bft) W-NW 292 0 min 0,000 mm 0,0 UV-I 0 W/m -3,7 C -2,9 C 4,8 km/h (1 Bft) 100,00 %
20.02.2020 06:25 15,9 C -2,9 C 34 % 94 % 1025,8 hPa 0,0 l/m 3,2 km/h (1 Bft) W-NW 292 0 min 0,000 mm 0,0 UV-I 0 W/m -3,7 C -2,9 C 4,8 km/h (1 Bft) 95,65 %
20.02.2020 06:24 15,9 C -2,9 C 34 % 94 % 1025,8 hPa 0,0 l/m 3,2 km/h (1 Bft) W 270 0 min 0,000 mm 0,0 UV-I 0 W/m -3,7 C -2,9 C 4,8 km/h (1 Bft) 100,00 %
20.02.2020 06:23 15,9 C -3,0 C 34 % 94 % 1025,8 hPa 0,0 l/m 3,2 km/h (1 Bft) W 270 0 min 0,000 mm 0,0 UV-I 0 W/m -3,8 C -3,0 C 8,0 km/h (2 Bft) 100,00 %
20.02.2020 06:22 15,9 C -2,9 C 34 % 94 % 1025,7 hPa 0,0 l/m 3,2 km/h (1 Bft) W 270 0 min 0,000 mm 0,0 UV-I 0 W/m -3,7 C -2,9 C 4,8 km/h (1 Bft) 100,00 %
20.02.2020 06:21 15,9 C -2,9 C 34 % 94 % 1025,6 hPa 0,0 l/m 3,2 km/h (1 Bft) W-SW 247 0 min 0,000 mm 0,0 UV-I 0 W/m -3,7 C -2,9 C 4,8 km/h (1 Bft) 100,00 %
20.02.2020 06:20 15,9 C -2,9 C 34 % 94 % 1025,7 hPa 0,0 l/m 4,8 km/h (1 Bft) W-NW 292 0 min 0,000 mm 0,0 UV-I 0 W/m -3,7 C -2,9 C 8,0 km/h (2 Bft) 100,00 %
20.02.2020 06:19 15,9 C -2,9 C 34 % 94 % 1025,7 hPa 0,0 l/m 3,2 km/h (1 Bft) W 270 0 min 0,000 mm 0,0 UV-I 0 W/m -3,7 C -2,9 C 8,0 km/h (2 Bft) 100,00 %
20.02.2020 06:18 15,9 C -2,9 C 34 % 94 % 1025,7 hPa 0,0 l/m 1,6 km/h (1 Bft) W 270 0 min 0,000 mm 0,0 UV-I 0 W/m -3,7 C -2,9 C 4,8 km/h (1 Bft) 100,00 %
20.02.2020 06:17 15,9 C -2,9 C 34 % 93 % 1025,7 hPa 0,0 l/m 3,2 km/h (1 Bft) W 270 0 min 0,000 mm 0,0 UV-I 0 W/m -3,9 C -2,9 C 4,8 km/h (1 Bft) 100,00 %
20.02.2020 06:16 15,9 C -2,9 C 34 % 93 % 1025,7 hPa 0,0 l/m 4,8 km/h (1 Bft) W 270 0 min 0,000 mm 0,0 UV-I 0 W/m -3,9 C -2,9 C 6,4 km/h (2 Bft) 100,00 %
20.02.2020 06:15 15,9 C -2,9 C 34 % 93 % 1025,7 hPa 0,0 l/m 3,2 km/h (1 Bft) NW 315 0 min 0,000 mm 0,0 UV-I 0 W/m -3,9 C -2,9 C 8,0 km/h (2 Bft) 100,00 %
20.02.2020 06:14 15,9 C -2,9 C 34 % 93 % 1025,6 hPa 0,0 l/m 3,2 km/h (1 Bft) W-NW 292 0 min 0,000 mm 0,0 UV-I 0 W/m -3,9 C -2,9 C 4,8 km/h (1 Bft) 100,00 %
20.02.2020 06:13 15,9 C -2,9 C 34 % 93 % 1025,7 hPa 0,0 l/m 1,6 km/h (1 Bft) W-NW 292 0 min 0,000 mm 0,0 UV-I 0 W/m -3,9 C -2,9 C 3,2 km/h (1 Bft) 100,00 %
20.02.2020 06:12 15,9 C -2,8 C 34 % 93 % 1025,7 hPa 0,0 l/m 1,6 km/h (1 Bft) W-NW 292 0 min 0,000 mm 0,0 UV-I 0 W/m -3,8 C -2,8 C 3,2 km/h (1 Bft) 100,00 %
20.02.2020 06:11 15,9 C -2,8 C 34 % 93 % 1025,6 hPa 0,0 l/m 3,2 km/h (1 Bft) W 270 0 min 0,000 mm 0,0 UV-I 0 W/m -3,8 C -2,8 C 4,8 km/h (1 Bft) 95,65 %
20.02.2020 06:10 15,9 C -2,8 C 34 % 93 % 1025,7 hPa 0,0 l/m 3,2 km/h (1 Bft) W-NW 292 0 min 0,000 mm 0,0 UV-I 0 W/m -3,8 C -2,8 C 4,8 km/h (1 Bft) 100,00 %
20.02.2020 06:09 15,9 C -2,8 C 34 % 93 % 1025,6 hPa 0,0 l/m 1,6 km/h (1 Bft) W 270 0 min 0,000 mm 0,0 UV-I 0 W/m -3,8 C -2,8 C 4,8 km/h (1 Bft) 100,00 %
20.02.2020 06:08 15,9 C -2,7 C 34 % 93 % 1025,7 hPa 0,0 l/m 1,6 km/h (1 Bft) W 270 0 min 0,000 mm 0,0 UV-I 0 W/m -3,7 C -2,7 C 3,2 km/h (1 Bft) 100,00 %
20.02.2020 06:07 15,9 C -2,6 C 34 % 94 % 1025,6 hPa 0,0 l/m 3,2 km/h (1 Bft) W 270 0 min 0,000 mm 0,0 UV-I 0 W/m -3,4 C -2,6 C 4,8 km/h (1 Bft) 100,00 %
20.02.2020 06:06 15,9 C -2,6 C 34 % 94 % 1025,7 hPa 0,0 l/m 1,6 km/h (1 Bft) NW 315 0 min 0,000 mm 0,0 UV-I 0 W/m -3,4 C -2,6 C 3,2 km/h (1 Bft) 95,65 %
20.02.2020 06:05 15,9 C -2,6 C 34 % 94 % 1025,7 hPa 0,0 l/m 3,2 km/h (1 Bft) NW 315 0 min 0,000 mm 0,0 UV-I 0 W/m -3,4 C -2,6 C 3,2 km/h (1 Bft) 100,00 %
20.02.2020 06:04 15,9 C -2,4 C 34 % 94 % 1025,7 hPa 0,0 l/m 3,2 km/h (1 Bft) NW 315 0 min 0,000 mm 0,0 UV-I 0 W/m -3,2 C -2,4 C 3,2 km/h (1 Bft) 100,00 %
20.02.2020 06:03 15,9 C -2,4 C 34 % 94 % 1025,7 hPa 0,0 l/m 3,2 km/h (1 Bft) W-NW 292 0 min 0,000 mm 0,0 UV-I 0 W/m -3,2 C -2,4 C 4,8 km/h (1 Bft) 100,00 %
20.02.2020 06:02 15,9 C -2,4 C 34 % 94 % 1025,7 hPa 0,0 l/m 3,2 km/h (1 Bft) W-NW 292 0 min 0,000 mm 0,0 UV-I 0 W/m -3,2 C -2,4 C 4,8 km/h (1 Bft) 100,00 %
20.02.2020 06:01 15,9 C -2,4 C 34 % 94 % 1025,7 hPa 0,0 l/m 3,2 km/h (1 Bft) W-NW 292 0 min 0,000 mm 0,0 UV-I 0 W/m -3,2 C -2,4 C 4,8 km/h (1 Bft) 95,65 %
20.02.2020 06:00 15,9 C -2,4 C 34 % 94 % 1025,8 hPa 0,0 l/m 3,2 km/h (1 Bft) W-NW 292 0 min 0,000 mm 0,0 UV-I 0 W/m -3,2 C -2,4 C 6,4 km/h (2 Bft) 100,00 %
20.02.2020 05:59 15,9 C -2,4 C 34 % 94 % 1025,8 hPa 0,0 l/m 4,8 km/h (1 Bft) W-NW 292 0 min 0,000 mm 0,0 UV-I 0 W/m -3,2 C -2,4 C 6,4 km/h (2 Bft) 100,00 %
20.02.2020 05:58 15,9 C -2,4 C 34 % 94 % 1025,8 hPa 0,0 l/m 3,2 km/h (1 Bft) W 270 0 min 0,000 mm 0,0 UV-I 0 W/m -3,2 C -2,4 C 3,2 km/h (1 Bft) 91,30 %
20.02.2020 05:57 15,9 C -2,4 C 34 % 94 % 1025,8 hPa 0,0 l/m 3,2 km/h (1 Bft) W 270 0 min 0,000 mm 0,0 UV-I 0 W/m -3,2 C -2,4 C 4,8 km/h (1 Bft) 100,00 %
20.02.2020 05:56 15,9 C -2,4 C 34 % 94 % 1025,8 hPa 0,0 l/m 3,2 km/h (1 Bft) W 270 0 min 0,000 mm 0,0 UV-I 0 W/m -3,2 C -2,4 C 6,4 km/h (2 Bft) 100,00 %
20.02.2020 05:55 15,9 C -2,4 C 34 % 94 % 1025,8 hPa 0,0 l/m 3,2 km/h (1 Bft) W-NW 292 0 min 0,000 mm 0,0 UV-I 0 W/m -3,2 C -2,4 C 4,8 km/h (1 Bft) 100,00 %
20.02.2020 05:54 15,9 C -2,4 C 34 % 94 % 1025,8 hPa 0,0 l/m 3,2 km/h (1 Bft) W-NW 292 0 min 0,000 mm 0,0 UV-I 0 W/m -3,2 C -2,4 C 6,4 km/h (2 Bft) 100,00 %
20.02.2020 05:53 15,9 C -2,4 C 34 % 94 % 1025,8 hPa 0,0 l/m 3,2 km/h (1 Bft) W-NW 292 0 min 0,000 mm 0,0 UV-I 0 W/m -3,2 C -2,4 C 4,8 km/h (1 Bft) 100,00 %
20.02.2020 05:52 15,9 C -2,4 C 34 % 94 % 1025,8 hPa 0,0 l/m 4,8 km/h (1 Bft) W-NW 292 0 min 0,000 mm 0,0 UV-I 0 W/m -3,2 C -2,4 C 6,4 km/h (2 Bft) 100,00 %
20.02.2020 05:51 15,9 C -2,4 C 34 % 94 % 1025,8 hPa 0,0 l/m 4,8 km/h (1 Bft) W-NW 292 0 min 0,000 mm 0,0 UV-I 0 W/m -3,2 C -2,4 C 6,4 km/h (2 Bft) 100,00 %
20.02.2020 05:50 15,9 C -2,4 C 34 % 94 % 1025,8 hPa 0,0 l/m 3,2 km/h (1 Bft) W-NW 292 0 min 0,000 mm 0,0 UV-I 0 W/m -3,2 C -2,4 C 8,0 km/h (2 Bft) 100,00 %
20.02.2020 05:49 15,9 C -2,4 C 34 % 94 % 1025,8 hPa 0,0 l/m 4,8 km/h (1 Bft) W 270 0 min 0,000 mm 0,0 UV-I 0 W/m -3,2 C -2,4 C 6,4 km/h (2 Bft) 100,00 %
20.02.2020 05:48 15,9 C -2,4 C 34 % 94 % 1025,8 hPa 0,0 l/m 4,8 km/h (1 Bft) W 270 0 min 0,000 mm 0,0 UV-I 0 W/m -3,2 C -2,4 C 6,4 km/h (2 Bft) 100,00 %
20.02.2020 05:47 15,9 C -2,4 C 34 % 94 % 1025,8 hPa 0,0 l/m 4,8 km/h (1 Bft) W-NW 292 0 min 0,000 mm 0,0 UV-I 0 W/m -3,2 C -2,4 C 8,0 km/h (2 Bft) 91,30 %
20.02.2020 05:46 15,9 C -2,4 C 34 % 94 % 1025,8 hPa 0,0 l/m 4,8 km/h (1 Bft) W 270 0 min 0,000 mm 0,0 UV-I 0 W/m -3,2 C -2,4 C 6,4 km/h (2 Bft) 100,00 %
20.02.2020 05:45 15,9 C -2,4 C 34 % 94 % 1025,9 hPa 0,0 l/m 6,4 km/h (2 Bft) W-NW 292 0 min 0,000 mm 0,0 UV-I 0 W/m -3,2 C -2,4 C 8,0 km/h (2 Bft) 100,00 %
20.02.2020 05:44 15,9 C -2,4 C 34 % 94 % 1025,9 hPa 0,0 l/m 4,8 km/h (1 Bft) W-NW 292 0 min 0,000 mm 0,0 UV-I 0 W/m -3,2 C -2,4 C 6,4 km/h (2 Bft) 100,00 %
20.02.2020 05:43 15,9 C -2,4 C 34 % 94 % 1025,9 hPa 0,0 l/m 6,4 km/h (2 Bft) W-NW 292 0 min 0,000 mm 0,0 UV-I 0 W/m -3,2 C -2,4 C 8,0 km/h (2 Bft) 100,00 %
20.02.2020 05:42 15,9 C -2,4 C 34 % 94 % 1025,8 hPa 0,0 l/m 6,4 km/h (2 Bft) W-NW 292 0 min 0,000 mm 0,0 UV-I 0 W/m -3,2 C -2,4 C 8,0 km/h (2 Bft) 100,00 %
20.02.2020 05:41 15,9 C -2,4 C 34 % 94 % 1025,8 hPa 0,0 l/m 4,8 km/h (1 Bft) W-NW 292 0 min 0,000 mm 0,0 UV-I 0 W/m -3,2 C -2,4 C 6,4 km/h (2 Bft) 95,65 %
20.02.2020 05:40 15,9 C -2,4 C 34 % 94 % 1025,8 hPa 0,0 l/m 4,8 km/h (1 Bft) W-NW 292 0 min 0,000 mm 0,0 UV-I 0 W/m -3,2 C -2,4 C 6,4 km/h (2 Bft) 100,00 %
20.02.2020 05:39 15,9 C -2,4 C 34 % 94 % 1025,8 hPa 0,0 l/m 6,4 km/h (2 Bft) W 270 0 min 0,000 mm 0,0 UV-I 0 W/m -3,2 C -2,4 C 11,3 km/h (2 Bft) 95,65 %
20.02.2020 05:38 15,9 C -2,4 C 34 % 94 % 1025,8 hPa 0,0 l/m 4,8 km/h (1 Bft) W-NW 292 0 min 0,000 mm 0,0 UV-I 0 W/m -3,2 C -2,4 C 6,4 km/h (2 Bft) 100,00 %
20.02.2020 05:37 15,9 C -2,4 C 34 % 94 % 1025,8 hPa 0,0 l/m 4,8 km/h (1 Bft) W-NW 292 0 min 0,000 mm 0,0 UV-I 0 W/m -3,2 C -2,4 C 6,4 km/h (2 Bft) 100,00 %
20.02.2020 05:36 15,9 C -2,4 C 34 % 94 % 1025,8 hPa 0,0 l/m 6,4 km/h (2 Bft) W-NW 292 0 min 0,000 mm 0,0 UV-I 0 W/m -3,2 C -2,4 C 11,3 km/h (2 Bft) 100,00 %
20.02.2020 05:35 15,9 C -2,4 C 34 % 94 % 1025,8 hPa 0,0 l/m 4,8 km/h (1 Bft) W-NW 292 0 min 0,000 mm 0,0 UV-I 0 W/m -3,2 C -2,4 C 9,7 km/h (2 Bft) 100,00 %
20.02.2020 05:34 15,9 C -2,4 C 34 % 94 % 1025,8 hPa 0,0 l/m 6,4 km/h (2 Bft) W-NW 292 0 min 0,000 mm 0,0 UV-I 0 W/m -3,2 C -2,4 C 9,7 km/h (2 Bft) 100,00 %
20.02.2020 05:33 15,9 C -2,4 C 34 % 94 % 1025,7 hPa 0,0 l/m 4,8 km/h (1 Bft) W 270 0 min 0,000 mm 0,0 UV-I 0 W/m -3,2 C -2,4 C 6,4 km/h (2 Bft) 100,00 %
20.02.2020 05:32 15,9 C -2,4 C 34 % 94 % 1025,8 hPa 0,0 l/m 8,0 km/h (2 Bft) W-NW 292 0 min 0,000 mm 0,0 UV-I 0 W/m -3,2 C -4,2 C 12,9 km/h (3 Bft) 91,30 %
20.02.2020 05:31 15,9 C -2,5 C 34 % 94 % 1025,8 hPa 0,0 l/m 6,4 km/h (2 Bft) W-NW 292 0 min 0,000 mm 0,0 UV-I 0 W/m -3,3 C -2,5 C 12,9 km/h (3 Bft) 100,00 %
20.02.2020 05:30 15,9 C -2,5 C 34 % 94 % 1025,8 hPa 0,0 l/m 4,8 km/h (1 Bft) W-NW 292 0 min 0,000 mm 0,0 UV-I 0 W/m -3,3 C -2,5 C 6,4 km/h (2 Bft) 95,65 %
20.02.2020 05:29 15,9 C -2,5 C 34 % 94 % 1025,8 hPa 0,0 l/m 6,4 km/h (2 Bft) W 270 0 min 0,000 mm 0,0 UV-I 0 W/m -3,3 C -2,5 C 8,0 km/h (2 Bft) 100,00 %
20.02.2020 05:28 15,9 C -2,5 C 34 % 94 % 1025,8 hPa 0,0 l/m 6,4 km/h (2 Bft) W-NW 292 0 min 0,000 mm 0,0 UV-I 0 W/m -3,3 C -2,5 C 9,7 km/h (2 Bft) 100,00 %
20.02.2020 05:27 15,9 C -2,6 C 34 % 94 % 1025,8 hPa 0,0 l/m 8,0 km/h (2 Bft) W-NW 292 0 min 0,000 mm 0,0 UV-I 0 W/m -3,4 C -4,4 C 9,7 km/h (2 Bft) 100,00 %
20.02.2020 05:26 15,9 C -2,5 C 34 % 94 % 1025,7 hPa 0,0 l/m 4,8 km/h (1 Bft) W-NW 292 0 min 0,000 mm 0,0 UV-I 0 W/m -3,3 C -2,5 C 8,0 km/h (2 Bft) 100,00 %
20.02.2020 05:25 15,9 C -2,5 C 34 % 94 % 1025,8 hPa 0,0 l/m 4,8 km/h (1 Bft) W-NW 292 0 min 0,000 mm 0,0 UV-I 0 W/m -3,3 C -2,5 C 8,0 km/h (2 Bft) 95,65 %
20.02.2020 05:24 15,9 C -2,5 C 34 % 94 % 1025,7 hPa 0,0 l/m 4,8 km/h (1 Bft) W 270 0 min 0,000 mm 0,0 UV-I 0 W/m -3,3 C -2,5 C 6,4 km/h (2 Bft) 100,00 %
20.02.2020 05:23 15,9 C -2,5 C 34 % 94 % 1025,7 hPa 0,0 l/m 4,8 km/h (1 Bft) W-NW 292 0 min 0,000 mm 0,0 UV-I 0 W/m -3,3 C -2,5 C 9,7 km/h (2 Bft) 100,00 %
20.02.2020 05:22 15,9 C -2,5 C 34 % 94 % 1025,8 hPa 0,0 l/m 4,8 km/h (1 Bft) W-NW 292 0 min 0,000 mm 0,0 UV-I 0 W/m -3,3 C -2,5 C 6,4 km/h (2 Bft) 100,00 %
20.02.2020 05:21 15,9 C -2,5 C 34 % 94 % 1025,7 hPa 0,0 l/m 3,2 km/h (1 Bft) W 270 0 min 0,000 mm 0,0 UV-I 0 W/m -3,3 C -2,5 C 6,4 km/h (2 Bft) 100,00 %
20.02.2020 05:20 15,9 C -2,4 C 34 % 94 % 1025,7 hPa 0,0 l/m 4,8 km/h (1 Bft) W 270 0 min 0,000 mm 0,0 UV-I 0 W/m -3,2 C -2,4 C 8,0 km/h (2 Bft) 100,00 %
20.02.2020 05:19 15,9 C -2,4 C 34 % 94 % 1025,7 hPa 0,0 l/m 4,8 km/h (1 Bft) W-NW 292 0 min 0,000 mm 0,0 UV-I 0 W/m -3,2 C -2,4 C 8,0 km/h (2 Bft) 100,00 %
20.02.2020 05:18 15,9 C -2,4 C 34 % 94 % 1025,8 hPa 0,0 l/m 6,4 km/h (2 Bft) W 270 0 min 0,000 mm 0,0 UV-I 0 W/m -3,2 C -2,4 C 8,0 km/h (2 Bft) 95,65 %
20.02.2020 05:17 15,9 C -2,4 C 34 % 94 % 1025,7 hPa 0,0 l/m 6,4 km/h (2 Bft) W 270 0 min 0,000 mm 0,0 UV-I 0 W/m -3,2 C -2,4 C 11,3 km/h (2 Bft) 100,00 %
20.02.2020 05:16 16,0 C -2,4 C 34 % 94 % 1025,6 hPa 0,0 l/m 6,4 km/h (2 Bft) W-NW 292 0 min 0,000 mm 0,0 UV-I 0 W/m -3,2 C -2,4 C 9,7 km/h (2 Bft) 95,65 %
20.02.2020 05:15 15,9 C -2,4 C 34 % 94 % 1025,7 hPa 0,0 l/m 6,4 km/h (2 Bft) W 270 0 min 0,000 mm 0,0 UV-I 0 W/m -3,2 C -2,4 C 9,7 km/h (2 Bft) 100,00 %
20.02.2020 05:14 15,9 C -2,4 C 34 % 94 % 1025,7 hPa 0,0 l/m 4,8 km/h (1 Bft) W 270 0 min 0,000 mm 0,0 UV-I 0 W/m -3,2 C -2,4 C 6,4 km/h (2 Bft) 100,00 %
20.02.2020 05:13 15,9 C -2,4 C 34 % 94 % 1025,7 hPa 0,0 l/m 4,8 km/h (1 Bft) W 270 0 min 0,000 mm 0,0 UV-I 0 W/m -3,2 C -2,4 C 8,0 km/h (2 Bft) 100,00 %
20.02.2020 05:12 15,9 C -2,4 C 34 % 94 % 1025,7 hPa 0,0 l/m 6,4 km/h (2 Bft) W-NW 292 0 min 0,000 mm 0,0 UV-I 0 W/m -3,2 C -2,4 C 8,0 km/h (2 Bft) 100,00 %
20.02.2020 05:11 15,9 C -2,4 C 34 % 94 % 1025,7 hPa 0,0 l/m 6,4 km/h (2 Bft) W 270 0 min 0,000 mm 0,0 UV-I 0 W/m -3,2 C -2,4 C 9,7 km/h (2 Bft) 100,00 %
20.02.2020 05:10 15,9 C -2,4 C 34 % 94 % 1025,7 hPa 0,0 l/m 6,4 km/h (2 Bft) W-NW 292 0 min 0,000 mm 0,0 UV-I 0 W/m -3,2 C -2,4 C 9,7 km/h (2 Bft) 100,00 %
20.02.2020 05:09 15,9 C -2,4 C 34 % 94 % 1025,7 hPa 0,0 l/m 6,4 km/h (2 Bft) W-NW 292 0 min 0,000 mm 0,0 UV-I 0 W/m -3,2 C -2,4 C 8,0 km/h (2 Bft) 100,00 %
20.02.2020 05:08 15,9 C -2,4 C 34 % 94 % 1025,8 hPa 0,0 l/m 6,4 km/h (2 Bft) W 270 0 min 0,000 mm 0,0 UV-I 0 W/m -3,2 C -2,4 C 9,7 km/h (2 Bft) 95,65 %
20.02.2020 05:07 15,9 C -2,4 C 34 % 94 % 1025,7 hPa 0,0 l/m 4,8 km/h (1 Bft) W 270 0 min 0,000 mm 0,0 UV-I 0 W/m -3,2 C -2,4 C 6,4 km/h (2 Bft) 100,00 %
20.02.2020 05:06 15,9 C -2,4 C 34 % 94 % 1025,7 hPa 0,0 l/m 6,4 km/h (2 Bft) W 270 0 min 0,000 mm 0,0 UV-I 0 W/m -3,2 C -2,4 C 9,7 km/h (2 Bft) 100,00 %
20.02.2020 05:05 15,9 C -2,4 C 34 % 94 % 1025,7 hPa 0,0 l/m 4,8 km/h (1 Bft) W-NW 292 0 min 0,000 mm 0,0 UV-I 0 W/m -3,2 C -2,4 C 6,4 km/h (2 Bft) 100,00 %
20.02.2020 05:04 15,9 C -2,4 C 34 % 94 % 1025,7 hPa 0,0 l/m 4,8 km/h (1 Bft) W-NW 292 0 min 0,000 mm 0,0 UV-I 0 W/m -3,2 C -2,4 C 9,7 km/h (2 Bft) 100,00 %
20.02.2020 05:03 15,9 C -2,4 C 34 % 94 % 1025,7 hPa 0,0 l/m 4,8 km/h (1 Bft) W-NW 292 0 min 0,000 mm 0,0 UV-I 0 W/m -3,2 C -2,4 C 6,4 km/h (2 Bft) 95,65 %
20.02.2020 05:02 15,9 C -2,4 C 34 % 94 % 1025,7 hPa 0,0 l/m 6,4 km/h (2 Bft) W-NW 292 0 min 0,000 mm 0,0 UV-I 0 W/m -3,2 C -2,4 C 8,0 km/h (2 Bft) 100,00 %
20.02.2020 05:01 15,9 C -2,4 C 34 % 94 % 1025,7 hPa 0,0 l/m 4,8 km/h (1 Bft) W-NW 292 0 min 0,000 mm 0,0 UV-I 0 W/m -3,2 C -2,4 C 4,8 km/h (1 Bft) 100,00 %
20.02.2020 05:00 15,9 C -2,3 C 34 % 94 % 1025,7 hPa 0,0 l/m 4,8 km/h (1 Bft) W 270 0 min 0,000 mm 0,0 UV-I 0 W/m -3,1 C -2,3 C 8,0 km/h (2 Bft) 100,00 %
20.02.2020 04:59 15,9 C -2,3 C 34 % 94 % 1025,9 hPa 0,0 l/m 6,4 km/h (2 Bft) W-NW 292 0 min 0,000 mm 0,0 UV-I 0 W/m -3,1 C -2,3 C 8,0 km/h (2 Bft) 95,65 %
20.02.2020 04:58 15,9 C -2,4 C 34 % 94 % 1025,9 hPa 0,0 l/m 6,4 km/h (2 Bft) W 270 0 min 0,000 mm 0,0 UV-I 0 W/m -3,2 C -2,4 C 11,3 km/h (2 Bft) 100,00 %
20.02.2020 04:57 15,9 C -2,4 C 34 % 94 % 1025,8 hPa 0,0 l/m 4,8 km/h (1 Bft) W-NW 292 0 min 0,000 mm 0,0 UV-I 0 W/m -3,2 C -2,4 C 8,0 km/h (2 Bft) 100,00 %
20.02.2020 04:56 15,9 C -2,4 C 34 % 94 % 1025,8 hPa 0,0 l/m 4,8 km/h (1 Bft) W-NW 292 0 min 0,000 mm 0,0 UV-I 0 W/m -3,2 C -2,4 C 6,4 km/h (2 Bft) 95,65 %
20.02.2020 04:55 15,9 C -2,4 C 34 % 94 % 1025,8 hPa 0,0 l/m 4,8 km/h (1 Bft) W 270 0 min 0,000 mm 0,0 UV-I 0 W/m -3,2 C -2,4 C 6,4 km/h (2 Bft) 100,00 %
20.02.2020 04:54 15,9 C -2,4 C 34 % 94 % 1025,9 hPa 0,0 l/m 4,8 km/h (1 Bft) W 270 0 min 0,000 mm 0,0 UV-I 0 W/m -3,2 C -2,4 C 6,4 km/h (2 Bft) 95,65 %
20.02.2020 04:53 15,9 C -2,4 C 34 % 94 % 1025,8 hPa 0,0 l/m 4,8 km/h (1 Bft) W-NW 292 0 min 0,000 mm 0,0 UV-I 0 W/m -3,2 C -2,4 C 6,4 km/h (2 Bft) 100,00 %
20.02.2020 04:52 15,9 C -2,4 C 34 % 94 % 1025,8 hPa 0,0 l/m 6,4 km/h (2 Bft) W-NW 292 0 min 0,000 mm 0,0 UV-I 0 W/m -3,2 C -2,4 C 8,0 km/h (2 Bft) 100,00 %
20.02.2020 04:51 16,0 C -2,4 C 34 % 94 % 1025,9 hPa 0,0 l/m 6,4 km/h (2 Bft) W-NW 292 0 min 0,000 mm 0,0 UV-I 0 W/m -3,2 C -2,4 C 8,0 km/h (2 Bft) 100,00 %
20.02.2020 04:50 15,9 C -2,4 C 34 % 94 % 1025,8 hPa 0,0 l/m 4,8 km/h (1 Bft) W-NW 292 0 min 0,000 mm 0,0 UV-I 0 W/m -3,2 C -2,4 C 6,4 km/h (2 Bft) 100,00 %
20.02.2020 04:49 15,9 C -2,4 C 34 % 94 % 1026,0 hPa 0,0 l/m 3,2 km/h (1 Bft) W 270 0 min 0,000 mm 0,0 UV-I 0 W/m -3,2 C -2,4 C 4,8 km/h (1 Bft) 100,00 %
20.02.2020 04:48 15,9 C -2,4 C 34 % 94 % 1026,0 hPa 0,0 l/m 4,8 km/h (1 Bft) W-NW 292 0 min 0,000 mm 0,0 UV-I 0 W/m -3,2 C -2,4 C 6,4 km/h (2 Bft) 100,00 %
20.02.2020 04:47 16,0 C -2,4 C 34 % 94 % 1026,0 hPa 0,0 l/m 3,2 km/h (1 Bft) W 270 0 min 0,000 mm 0,0 UV-I 0 W/m -3,2 C -2,4 C 4,8 km/h (1 Bft) 100,00 %
20.02.2020 04:46 15,9 C -2,4 C 34 % 94 % 1025,9 hPa 0,0 l/m 3,2 km/h (1 Bft) W-NW 292 0 min 0,000 mm 0,0 UV-I 0 W/m -3,2 C -2,4 C 4,8 km/h (1 Bft) 95,65 %
20.02.2020 04:45 15,9 C -2,4 C 34 % 94 % 1025,9 hPa 0,0 l/m 4,8 km/h (1 Bft) W-NW 292 0 min 0,000 mm 0,0 UV-I 0 W/m -3,2 C -2,4 C 6,4 km/h (2 Bft) 100,00 %
20.02.2020 04:44 15,9 C -2,4 C 34 % 94 % 1025,9 hPa 0,0 l/m 4,8 km/h (1 Bft) W-NW 292 0 min 0,000 mm 0,0 UV-I 0 W/m -3,2 C -2,4 C 8,0 km/h (2 Bft) 91,30 %
20.02.2020 04:43 15,9 C -2,4 C 34 % 94 % 1025,9 hPa 0,0 l/m 6,4 km/h (2 Bft) W-NW 292 0 min 0,000 mm 0,0 UV-I 0 W/m -3,2 C -2,4 C 9,7 km/h (2 Bft) 100,00 %
20.02.2020 04:42 15,9 C -2,5 C 34 % 94 % 1025,9 hPa 0,0 l/m 6,4 km/h (2 Bft) W-NW 292 0 min 0,000 mm 0,0 UV-I 0 W/m -3,3 C -2,5 C 9,7 km/h (2 Bft) 100,00 %
20.02.2020 04:41 15,9 C -2,6 C 34 % 94 % 1025,9 hPa 0,0 l/m 6,4 km/h (2 Bft) W 270 0 min 0,000 mm 0,0 UV-I 0 W/m -3,4 C -2,6 C 9,7 km/h (2 Bft) 100,00 %
20.02.2020 04:40 15,9 C -2,6 C 34 % 94 % 1025,9 hPa 0,0 l/m 6,4 km/h (2 Bft) W-NW 292 0 min 0,000 mm 0,0 UV-I 0 W/m -3,4 C -2,6 C 11,3 km/h (2 Bft) 100,00 %
20.02.2020 04:39 15,9 C -2,6 C 34 % 94 % 1025,8 hPa 0,0 l/m 4,8 km/h (1 Bft) W-SW 247 0 min 0,000 mm 0,0 UV-I 0 W/m -3,4 C -2,6 C 6,4 km/h (2 Bft) 95,65 %
20.02.2020 04:38 15,9 C -2,7 C 34 % 94 % 1025,9 hPa 0,0 l/m 6,4 km/h (2 Bft) W 270 0 min 0,000 mm 0,0 UV-I 0 W/m -3,5 C -2,7 C 9,7 km/h (2 Bft) 100,00 %
20.02.2020 04:37 15,9 C -2,7 C 34 % 93 % 1025,9 hPa 0,0 l/m 6,4 km/h (2 Bft) W-NW 292 0 min 0,000 mm 0,0 UV-I 0 W/m -3,7 C -2,7 C 8,0 km/h (2 Bft) 95,65 %
20.02.2020 04:36 15,9 C -2,8 C 34 % 94 % 1025,9 hPa 0,0 l/m 6,4 km/h (2 Bft) W 270 0 min 0,000 mm 0,0 UV-I 0 W/m -3,6 C -2,8 C 9,7 km/h (2 Bft) 100,00 %
20.02.2020 04:35 15,9 C -2,9 C 34 % 93 % 1025,8 hPa 0,0 l/m 6,4 km/h (2 Bft) W 270 0 min 0,000 mm 0,0 UV-I 0 W/m -3,9 C -2,9 C 9,7 km/h (2 Bft) 100,00 %
20.02.2020 04:34 15,9 C -2,9 C 34 % 94 % 1025,7 hPa 0,0 l/m 3,2 km/h (1 Bft) W 270 0 min 0,000 mm 0,0 UV-I 0 W/m -3,7 C -2,9 C 4,8 km/h (1 Bft) 100,00 %
20.02.2020 04:33 15,9 C -2,8 C 34 % 94 % 1025,7 hPa 0,0 l/m 0,0 km/h (0 Bft) W 270 0 min 0,000 mm 0,0 UV-I 0 W/m -3,6 C -2,8 C 1,6 km/h (1 Bft) 100,00 %
20.02.2020 04:32 15,9 C -2,8 C 34 % 94 % 1025,7 hPa 0,0 l/m 0,0 km/h (0 Bft) W 270 0 min 0,000 mm 0,0 UV-I 0 W/m -3,6 C -2,8 C 1,6 km/h (1 Bft) 100,00 %
20.02.2020 04:31 15,9 C -2,8 C 34 % 93 % 1025,6 hPa 0,0 l/m 0,0 km/h (0 Bft) W 270 0 min 0,000 mm 0,0 UV-I 0 W/m -3,8 C -2,8 C 1,6 km/h (1 Bft) 100,00 %
20.02.2020 04:30 15,9 C -2,8 C 34 % 93 % 1025,6 hPa 0,0 l/m 0,0 km/h (0 Bft) N 0 0 min 0,000 mm 0,0 UV-I 0 W/m -3,8 C -2,8 C 0,0 km/h (0 Bft) 100,00 %
20.02.2020 04:29 15,9 C -2,8 C 34 % 94 % 1025,6 hPa 0,0 l/m 0,0 km/h (0 Bft) W 270 0 min 0,000 mm 0,0 UV-I 0 W/m -3,6 C -2,8 C 1,6 km/h (1 Bft) 100,00 %
20.02.2020 04:28 15,9 C -2,8 C 34 % 93 % 1025,6 hPa 0,0 l/m 0,0 km/h (0 Bft) W 270 0 min 0,000 mm 0,0 UV-I 0 W/m -3,8 C -2,8 C 1,6 km/h (1 Bft) 100,00 %
20.02.2020 04:27 15,9 C -2,8 C 34 % 93 % 1025,6 hPa 0,0 l/m 0,0 km/h (0 Bft) W 270 0 min 0,000 mm 0,0 UV-I 0 W/m -3,8 C -2,8 C 1,6 km/h (1 Bft) 95,65 %
20.02.2020 04:26 15,9 C -2,8 C 34 % 93 % 1025,6 hPa 0,0 l/m 1,6 km/h (1 Bft) W 270 0 min 0,000 mm 0,0 UV-I 0 W/m -3,8 C -2,8 C 3,2 km/h (1 Bft) 100,00 %
20.02.2020 04:25 15,9 C -2,8 C 34 % 93 % 1025,6 hPa 0,0 l/m 0,0 km/h (0 Bft) W 270 0 min 0,000 mm 0,0 UV-I 0 W/m -3,8 C -2,8 C 1,6 km/h (1 Bft) 100,00 %
20.02.2020 04:24 15,9 C -2,8 C 34 % 93 % 1025,6 hPa 0,0 l/m 0,0 km/h (0 Bft) W 270 0 min 0,000 mm 0,0 UV-I 0 W/m -3,8 C -2,8 C 1,6 km/h (1 Bft) 91,30 %
20.02.2020 04:23 15,9 C -2,7 C 34 % 93 % 1025,6 hPa 0,0 l/m 0,0 km/h (0 Bft) W 270 0 min 0,000 mm 0,0 UV-I 0 W/m -3,7 C -2,7 C 1,6 km/h (1 Bft) 100,00 %
20.02.2020 04:22 15,9 C -2,7 C 34 % 93 % 1025,7 hPa 0,0 l/m 1,6 km/h (1 Bft) W 270 0 min 0,000 mm 0,0 UV-I 0 W/m -3,7 C -2,7 C 3,2 km/h (1 Bft) 100,00 %
20.02.2020 04:21 15,9 C -2,7 C 34 % 93 % 1025,7 hPa 0,0 l/m 1,6 km/h (1 Bft) W 270 0 min 0,000 mm 0,0 UV-I 0 W/m -3,7 C -2,7 C 3,2 km/h (1 Bft) 100,00 %
20.02.2020 04:20 15,9 C -2,6 C 34 % 94 % 1025,7 hPa 0,0 l/m 1,6 km/h (1 Bft) W 270 0 min 0,000 mm 0,0 UV-I 0 W/m -3,4 C -2,6 C 3,2 km/h (1 Bft) 100,00 %
20.02.2020 04:19 15,9 C -2,6 C 34 % 94 % 1025,7 hPa 0,0 l/m 1,6 km/h (1 Bft) W-NW 292 0 min 0,000 mm 0,0 UV-I 0 W/m -3,4 C -2,6 C 3,2 km/h (1 Bft) 100,00 %
20.02.2020 04:18 15,9 C -2,5 C 34 % 94 % 1025,6 hPa 0,0 l/m 1,6 km/h (1 Bft) W-NW 292 0 min 0,000 mm 0,0 UV-I 0 W/m -3,3 C -2,5 C 3,2 km/h (1 Bft) 100,00 %
20.02.2020 04:17 15,9 C -2,5 C 34 % 94 % 1025,7 hPa 0,0 l/m 3,2 km/h (1 Bft) W-NW 292 0 min 0,000 mm 0,0 UV-I 0 W/m -3,3 C -2,5 C 4,8 km/h (1 Bft) 95,65 %
20.02.2020 04:16 15,9 C -2,4 C 34 % 94 % 1025,7 hPa 0,0 l/m 3,2 km/h (1 Bft) W-NW 292 0 min 0,000 mm 0,0 UV-I 0 W/m -3,2 C -2,4 C 4,8 km/h (1 Bft) 95,65 %
20.02.2020 04:15 15,9 C -2,4 C 34 % 94 % 1025,9 hPa 0,0 l/m 4,8 km/h (1 Bft) W 270 0 min 0,000 mm 0,0 UV-I 0 W/m -3,2 C -2,4 C 6,4 km/h (2 Bft) 100,00 %
20.02.2020 04:14 15,9 C -2,4 C 34 % 94 % 1025,8 hPa 0,0 l/m 4,8 km/h (1 Bft) W-NW 292 0 min 0,000 mm 0,0 UV-I 0 W/m -3,2 C -2,4 C 6,4 km/h (2 Bft) 100,00 %
20.02.2020 04:13 15,9 C -2,4 C 34 % 94 % 1025,8 hPa 0,0 l/m 4,8 km/h (1 Bft) W-NW 292 0 min 0,000 mm 0,0 UV-I 0 W/m -3,2 C -2,4 C 6,4 km/h (2 Bft) 100,00 %
20.02.2020 04:12 15,9 C -2,4 C 34 % 94 % 1025,7 hPa 0,0 l/m 4,8 km/h (1 Bft) W-NW 292 0 min 0,000 mm 0,0 UV-I 0 W/m -3,2 C -2,4 C 6,4 km/h (2 Bft) 100,00 %
20.02.2020 04:11 15,9 C -2,4 C 34 % 94 % 1025,7 hPa 0,0 l/m 6,4 km/h (2 Bft) W 270 0 min 0,000 mm 0,0 UV-I 0 W/m -3,2 C -2,4 C 8,0 km/h (2 Bft) 95,65 %
20.02.2020 04:10 15,9 C -2,4 C 34 % 94 % 1025,7 hPa 0,0 l/m 3,2 km/h (1 Bft) W-NW 292 0 min 0,000 mm 0,0 UV-I 0 W/m -3,2 C -2,4 C 6,4 km/h (2 Bft) 100,00 %
20.02.2020 04:09 15,9 C -2,4 C 34 % 94 % 1025,6 hPa 0,0 l/m 4,8 km/h (1 Bft) W 270 0 min 0,000 mm 0,0 UV-I 0 W/m -3,2 C -2,4 C 6,4 km/h (2 Bft) 100,00 %
20.02.2020 04:08 15,9 C -2,4 C 34 % 94 % 1025,6 hPa 0,0 l/m 3,2 km/h (1 Bft) W 270 0 min 0,000 mm 0,0 UV-I 0 W/m -3,2 C -2,4 C 6,4 km/h (2 Bft) 100,00 %
20.02.2020 04:07 15,9 C -2,4 C 34 % 94 % 1025,7 hPa 0,0 l/m 3,2 km/h (1 Bft) W 270 0 min 0,000 mm 0,0 UV-I 0 W/m -3,2 C -2,4 C 6,4 km/h (2 Bft) 100,00 %
20.02.2020 04:06 15,9 C -2,4 C 34 % 94 % 1025,7 hPa 0,0 l/m 3,2 km/h (1 Bft) W 270 0 min 0,000 mm 0,0 UV-I 0 W/m -3,2 C -2,4 C 6,4 km/h (2 Bft) 95,65 %
20.02.2020 04:05 15,9 C -2,4 C 34 % 94 % 1025,8 hPa 0,0 l/m 4,8 km/h (1 Bft) W-NW 292 0 min 0,000 mm 0,0 UV-I 0 W/m -3,2 C -2,4 C 4,8 km/h (1 Bft) 95,65 %
20.02.2020 04:04 15,9 C -2,4 C 34 % 94 % 1025,8 hPa 0,0 l/m 4,8 km/h (1 Bft) W 270 0 min 0,000 mm 0,0 UV-I 0 W/m -3,2 C -2,4 C 4,8 km/h (1 Bft) 100,00 %
20.02.2020 04:03 15,9 C -2,4 C 34 % 94 % 1025,8 hPa 0,0 l/m 4,8 km/h (1 Bft) W 270 0 min 0,000 mm 0,0 UV-I 0 W/m -3,2 C -2,4 C 4,8 km/h (1 Bft) 95,65 %
20.02.2020 04:02 15,9 C -2,4 C 34 % 94 % 1025,8 hPa 0,0 l/m 4,8 km/h (1 Bft) NW 315 0 min 0,000 mm 0,0 UV-I 0 W/m -3,2 C -2,4 C 6,4 km/h (2 Bft) 100,00 %
20.02.2020 04:01 15,9 C -2,5 C 34 % 94 % 1025,9 hPa 0,0 l/m 6,4 km/h (2 Bft) W-NW 292 0 min 0,000 mm 0,0 UV-I 0 W/m -3,3 C -2,5 C 8,0 km/h (2 Bft) 95,65 %
20.02.2020 04:00 15,9 C -2,5 C 34 % 94 % 1025,8 hPa 0,0 l/m 3,2 km/h (1 Bft) W-NW 292 0 min 0,000 mm 0,0 UV-I 0 W/m -3,3 C -2,5 C 6,4 km/h (2 Bft) 100,00 %
20.02.2020 03:59 15,9 C -2,6 C 34 % 94 % 1025,9 hPa 0,0 l/m 4,8 km/h (1 Bft) W-NW 292 0 min 0,000 mm 0,0 UV-I 0 W/m -3,4 C -2,6 C 8,0 km/h (2 Bft) 100,00 %
20.02.2020 03:58 15,9 C -2,6 C 34 % 94 % 1025,8 hPa 0,0 l/m 3,2 km/h (1 Bft) W 270 0 min 0,000 mm 0,0 UV-I 0 W/m -3,4 C -2,6 C 4,8 km/h (1 Bft) 100,00 %
20.02.2020 03:57 15,9 C -2,6 C 34 % 94 % 1025,9 hPa 0,0 l/m 4,8 km/h (1 Bft) W-NW 292 0 min 0,000 mm 0,0 UV-I 0 W/m -3,4 C -2,6 C 6,4 km/h (2 Bft) 100,00 %
20.02.2020 03:56 15,9 C -2,5 C 34 % 94 % 1025,9 hPa 0,0 l/m 3,2 km/h (1 Bft) W-NW 292 0 min 0,000 mm 0,0 UV-I 0 W/m -3,3 C -2,5 C 6,4 km/h (2 Bft) 100,00 %
20.02.2020 03:55 15,9 C -2,5 C 34 % 94 % 1025,9 hPa 0,0 l/m 3,2 km/h (1 Bft) W-NW 292 0 min 0,000 mm 0,0 UV-I 0 W/m -3,3 C -2,5 C 4,8 km/h (1 Bft) 100,00 %
20.02.2020 03:54 15,9 C -2,4 C 34 % 94 % 1025,8 hPa 0,0 l/m 3,2 km/h (1 Bft) W-NW 292 0 min 0,000 mm 0,0 UV-I 0 W/m -3,2 C -2,4 C 6,4 km/h (2 Bft) 100,00 %
20.02.2020 03:53 15,9 C -2,4 C 34 % 94 % 1025,8 hPa 0,0 l/m 4,8 km/h (1 Bft) W 270 0 min 0,000 mm 0,0 UV-I 0 W/m -3,2 C -2,4 C 8,0 km/h (2 Bft) 95,65 %
20.02.2020 03:52 15,9 C -2,4 C 34 % 94 % 1025,8 hPa 0,0 l/m 4,8 km/h (1 Bft) W 270 0 min 0,000 mm 0,0 UV-I 0 W/m -3,2 C -2,4 C 8,0 km/h (2 Bft) 100,00 %
20.02.2020 03:51 15,9 C -2,4 C 34 % 94 % 1025,7 hPa 0,0 l/m 4,8 km/h (1 Bft) W-NW 292 0 min 0,000 mm 0,0 UV-I 0 W/m -3,2 C -2,4 C 6,4 km/h (2 Bft) 95,65 %
20.02.2020 03:50 15,9 C -2,5 C 34 % 94 % 1025,7 hPa 0,0 l/m 4,8 km/h (1 Bft) W 270 0 min 0,000 mm 0,0 UV-I 0 W/m -3,3 C -2,5 C 6,4 km/h (2 Bft) 100,00 %
20.02.2020 03:49 15,9 C -2,5 C 34 % 94 % 1025,9 hPa 0,0 l/m 3,2 km/h (1 Bft) W-NW 292 0 min 0,000 mm 0,0 UV-I 0 W/m -3,3 C -2,5 C 6,4 km/h (2 Bft) 95,65 %
20.02.2020 03:48 15,9 C -2,5 C 34 % 94 % 1025,7 hPa 0,0 l/m 4,8 km/h (1 Bft) W-NW 292 0 min 0,000 mm 0,0 UV-I 0 W/m -3,3 C -2,5 C 6,4 km/h (2 Bft) 95,65 %
20.02.2020 03:47 15,9 C -2,5 C 34 % 94 % 1025,8 hPa 0,0 l/m 4,8 km/h (1 Bft) W-NW 292 0 min 0,000 mm 0,0 UV-I 0 W/m -3,3 C -2,5 C 6,4 km/h (2 Bft) 100,00 %
20.02.2020 03:46 15,9 C -2,5 C 34 % 94 % 1025,7 hPa 0,0 l/m 6,4 km/h (2 Bft) W-NW 292 0 min 0,000 mm 0,0 UV-I 0 W/m -3,3 C -2,5 C 9,7 km/h (2 Bft) 100,00 %
20.02.2020 03:45 15,9 C -2,4 C 34 % 94 % 1025,7 hPa 0,0 l/m 3,2 km/h (1 Bft) W-NW 292 0 min 0,000 mm 0,0 UV-I 0 W/m -3,2 C -2,4 C 4,8 km/h (1 Bft) 100,00 %
20.02.2020 03:44 15,9 C -2,4 C 34 % 94 % 1025,7 hPa 0,0 l/m 3,2 km/h (1 Bft) W-NW 292 0 min 0,000 mm 0,0 UV-I 0 W/m -3,2 C -2,4 C 4,8 km/h (1 Bft) 100,00 %
20.02.2020 03:43 15,9 C -2,4 C 34 % 94 % 1025,6 hPa 0,0 l/m 4,8 km/h (1 Bft) W-NW 292 0 min 0,000 mm 0,0 UV-I 0 W/m -3,2 C -2,4 C 8,0 km/h (2 Bft) 95,65 %
20.02.2020 03:42 15,9 C -2,5 C 34 % 94 % 1025,7 hPa 0,0 l/m 8,0 km/h (2 Bft) W-NW 292 0 min 0,000 mm 0,0 UV-I 0 W/m -3,3 C -4,3 C 11,3 km/h (2 Bft) 100,00 %
20.02.2020 03:41 15,9 C -2,5 C 34 % 94 % 1025,7 hPa 0,0 l/m 6,4 km/h (2 Bft) W-NW 292 0 min 0,000 mm 0,0 UV-I 0 W/m -3,3 C -2,5 C 9,7 km/h (2 Bft) 95,65 %
20.02.2020 03:40 15,9 C -2,5 C 34 % 94 % 1025,7 hPa 0,0 l/m 4,8 km/h (1 Bft) W 270 0 min 0,000 mm 0,0 UV-I 0 W/m -3,3 C -2,5 C 6,4 km/h (2 Bft) 100,00 %
20.02.2020 03:39 15,9 C -2,5 C 34 % 94 % 1025,6 hPa 0,0 l/m 4,8 km/h (1 Bft) W 270 0 min 0,000 mm 0,0 UV-I 0 W/m -3,3 C -2,5 C 6,4 km/h (2 Bft) 95,65 %
20.02.2020 03:38 15,9 C -2,6 C 34 % 94 % 1025,7 hPa 0,0 l/m 4,8 km/h (1 Bft) W 270 0 min 0,000 mm 0,0 UV-I 0 W/m -3,4 C -2,6 C 6,4 km/h (2 Bft) 100,00 %
20.02.2020 03:37 15,9 C -2,6 C 34 % 94 % 1025,6 hPa 0,0 l/m 3,2 km/h (1 Bft) W-NW 292 0 min 0,000 mm 0,0 UV-I 0 W/m -3,4 C -2,6 C 6,4 km/h (2 Bft) 100,00 %
20.02.2020 03:36 15,9 C -2,6 C 34 % 94 % 1025,6 hPa 0,0 l/m 1,6 km/h (1 Bft) W-NW 292 0 min 0,000 mm 0,0 UV-I 0 W/m -3,4 C -2,6 C 3,2 km/h (1 Bft) 95,65 %
20.02.2020 03:35 15,9 C -2,5 C 34 % 94 % 1025,7 hPa 0,0 l/m 3,2 km/h (1 Bft) W-NW 292 0 min 0,000 mm 0,0 UV-I 0 W/m -3,3 C -2,5 C 4,8 km/h (1 Bft) 100,00 %
20.02.2020 03:34 15,9 C -2,5 C 34 % 94 % 1025,6 hPa 0,0 l/m 4,8 km/h (1 Bft) W-NW 292 0 min 0,000 mm 0,0 UV-I 0 W/m -3,3 C -2,5 C 6,4 km/h (2 Bft) 95,65 %
20.02.2020 03:33 15,9 C -2,5 C 34 % 94 % 1025,6 hPa 0,0 l/m 4,8 km/h (1 Bft) W-NW 292 0 min 0,000 mm 0,0 UV-I 0 W/m -3,3 C -2,5 C 6,4 km/h (2 Bft) 100,00 %
20.02.2020 03:32 15,9 C -2,4 C 34 % 94 % 1025,6 hPa 0,0 l/m 6,4 km/h (2 Bft) W-NW 292 0 min 0,000 mm 0,0 UV-I 0 W/m -3,2 C -2,4 C 9,7 km/h (2 Bft) 100,00 %
20.02.2020 03:31 15,9 C -2,4 C 34 % 94 % 1025,6 hPa 0,0 l/m 1,6 km/h (1 Bft) N 360 0 min 0,000 mm 0,0 UV-I 0 W/m -3,2 C -2,4 C 3,2 km/h (1 Bft) 100,00 %
20.02.2020 03:30 15,9 C -2,4 C 34 % 94 % 1025,6 hPa 0,0 l/m 3,2 km/h (1 Bft) W-NW 292 0 min 0,000 mm 0,0 UV-I 0 W/m -3,2 C -2,4 C 6,4 km/h (2 Bft) 100,00 %
20.02.2020 03:29 15,9 C -2,4 C 34 % 94 % 1025,6 hPa 0,0 l/m 6,4 km/h (2 Bft) W 270 0 min 0,000 mm 0,0 UV-I 0 W/m -3,2 C -2,4 C 11,3 km/h (2 Bft) 100,00 %
20.02.2020 03:28 15,9 C -2,4 C 34 % 94 % 1025,7 hPa 0,0 l/m 3,2 km/h (1 Bft) W-NW 292 0 min 0,000 mm 0,0 UV-I 0 W/m -3,2 C -2,4 C 4,8 km/h (1 Bft) 100,00 %
20.02.2020 03:27 15,9 C -2,4 C 34 % 94 % 1025,7 hPa 0,0 l/m 3,2 km/h (1 Bft) W 270 0 min 0,000 mm 0,0 UV-I 0 W/m -3,2 C -2,4 C 6,4 km/h (2 Bft) 100,00 %
20.02.2020 03:26 15,9 C -2,4 C 34 % 94 % 1025,7 hPa 0,0 l/m 6,4 km/h (2 Bft) W-NW 292 0 min 0,000 mm 0,0 UV-I 0 W/m -3,2 C -2,4 C 9,7 km/h (2 Bft) 100,00 %
20.02.2020 03:25 15,9 C -2,4 C 34 % 94 % 1025,7 hPa 0,0 l/m 4,8 km/h (1 Bft) W-NW 292 0 min 0,000 mm 0,0 UV-I 0 W/m -3,2 C -2,4 C 6,4 km/h (2 Bft) 100,00 %
20.02.2020 03:24 15,9 C -2,3 C 34 % 94 % 1025,7 hPa 0,0 l/m 4,8 km/h (1 Bft) W-NW 292 0 min 0,000 mm 0,0 UV-I 0 W/m -3,1 C -2,3 C 6,4 km/h (2 Bft) 95,65 %
20.02.2020 03:23 15,9 C -2,3 C 34 % 94 % 1025,7 hPa 0,0 l/m 3,2 km/h (1 Bft) W-NW 292 0 min 0,000 mm 0,0 UV-I 0 W/m -3,1 C -2,3 C 6,4 km/h (2 Bft) 100,00 %
20.02.2020 03:22 15,9 C -2,3 C 34 % 94 % 1025,6 hPa 0,0 l/m 3,2 km/h (1 Bft) W-NW 292 0 min 0,000 mm 0,0 UV-I 0 W/m -3,1 C -2,3 C 9,7 km/h (2 Bft) 100,00 %
20.02.2020 03:21 15,9 C -2,2 C 34 % 94 % 1025,7 hPa 0,0 l/m 3,2 km/h (1 Bft) N-NW 337 0 min 0,000 mm 0,0 UV-I 0 W/m -3,0 C -2,2 C 4,8 km/h (1 Bft) 100,00 %
20.02.2020 03:20 15,9 C -2,3 C 34 % 94 % 1025,7 hPa 0,0 l/m 6,4 km/h (2 Bft) NW 315 0 min 0,000 mm 0,0 UV-I 0 W/m -3,1 C -2,3 C 8,0 km/h (2 Bft) 100,00 %
20.02.2020 03:19 15,9 C -2,3 C 34 % 94 % 1025,7 hPa 0,0 l/m 4,8 km/h (1 Bft) W-NW 292 0 min 0,000 mm 0,0 UV-I 0 W/m -3,1 C -2,3 C 8,0 km/h (2 Bft) 100,00 %
20.02.2020 03:18 15,9 C -2,3 C 34 % 94 % 1025,6 hPa 0,0 l/m 8,0 km/h (2 Bft) W-NW 292 0 min 0,000 mm 0,0 UV-I 0 W/m -3,1 C -4,1 C 9,7 km/h (2 Bft) 100,00 %
20.02.2020 03:17 15,9 C -2,3 C 34 % 94 % 1025,7 hPa 0,0 l/m 8,0 km/h (2 Bft) W 270 0 min 0,000 mm 0,0 UV-I 0 W/m -3,1 C -4,1 C 9,7 km/h (2 Bft) 100,00 %
20.02.2020 03:16 15,9 C -2,3 C 34 % 94 % 1025,6 hPa 0,0 l/m 4,8 km/h (1 Bft) W-NW 292 0 min 0,000 mm 0,0 UV-I 0 W/m -3,1 C -2,3 C 4,8 km/h (1 Bft) 100,00 %
20.02.2020 03:15 15,9 C -2,2 C 34 % 94 % 1025,7 hPa 0,0 l/m 4,8 km/h (1 Bft) W-NW 292 0 min 0,000 mm 0,0 UV-I 0 W/m -3,0 C -2,2 C 6,4 km/h (2 Bft) 95,65 %
20.02.2020 03:14 15,9 C -2,2 C 34 % 94 % 1025,7 hPa 0,0 l/m 4,8 km/h (1 Bft) W-NW 292 0 min 0,000 mm 0,0 UV-I 0 W/m -3,0 C -2,2 C 9,7 km/h (2 Bft) 100,00 %
20.02.2020 03:13 15,9 C -2,2 C 34 % 94 % 1025,7 hPa 0,0 l/m 6,4 km/h (2 Bft) W-NW 292 0 min 0,000 mm 0,0 UV-I 0 W/m -3,0 C -2,2 C 8,0 km/h (2 Bft) 100,00 %
20.02.2020 03:12 15,9 C -2,2 C 34 % 94 % 1025,6 hPa 0,0 l/m 4,8 km/h (1 Bft) W-NW 292 0 min 0,000 mm 0,0 UV-I 0 W/m -3,0 C -2,2 C 6,4 km/h (2 Bft) 100,00 %
20.02.2020 03:11 15,9 C -2,2 C 34 % 94 % 1025,6 hPa 0,0 l/m 3,2 km/h (1 Bft) NW 315 0 min 0,000 mm 0,0 UV-I 0 W/m -3,0 C -2,2 C 8,0 km/h (2 Bft) 100,00 %
20.02.2020 03:10 15,9 C -2,2 C 34 % 94 % 1025,7 hPa 0,0 l/m 3,2 km/h (1 Bft) W-NW 292 0 min 0,000 mm 0,0 UV-I 0 W/m -3,0 C -2,2 C 6,4 km/h (2 Bft) 95,65 %
20.02.2020 03:09 15,9 C -2,2 C 34 % 94 % 1025,7 hPa 0,0 l/m 4,8 km/h (1 Bft) W-NW 292 0 min 0,000 mm 0,0 UV-I 0 W/m -3,0 C -2,2 C 6,4 km/h (2 Bft) 100,00 %
20.02.2020 03:08 15,9 C -2,2 C 34 % 94 % 1025,7 hPa 0,0 l/m 4,8 km/h (1 Bft) W 270 0 min 0,000 mm 0,0 UV-I 0 W/m -3,0 C -2,2 C 6,4 km/h (2 Bft) 100,00 %
20.02.2020 03:07 15,9 C -2,2 C 34 % 94 % 1025,6 hPa 0,0 l/m 4,8 km/h (1 Bft) N 360 0 min 0,000 mm 0,0 UV-I 0 W/m -3,0 C -2,2 C 12,9 km/h (3 Bft) 100,00 %
20.02.2020 03:06 15,9 C -2,2 C 34 % 94 % 1025,6 hPa 0,0 l/m 6,4 km/h (2 Bft) W-NW 292 0 min 0,000 mm 0,0 UV-I 0 W/m -3,0 C -2,2 C 9,7 km/h (2 Bft) 100,00 %
20.02.2020 03:05 15,9 C -2,2 C 34 % 94 % 1025,6 hPa 0,0 l/m 6,4 km/h (2 Bft) NW 315 0 min 0,000 mm 0,0 UV-I 0 W/m -3,0 C -2,2 C 8,0 km/h (2 Bft) 95,65 %
20.02.2020 03:04 15,9 C -2,2 C 34 % 94 % 1025,5 hPa 0,0 l/m 6,4 km/h (2 Bft) W 270 0 min 0,000 mm 0,0 UV-I 0 W/m -3,0 C -2,2 C 11,3 km/h (2 Bft) 100,00 %
20.02.2020 03:03 15,9 C -2,1 C 34 % 94 % 1025,5 hPa 0,0 l/m 6,4 km/h (2 Bft) W-NW 292 0 min 0,000 mm 0,0 UV-I 0 W/m -2,9 C -2,1 C 8,0 km/h (2 Bft) 100,00 %
20.02.2020 03:02 15,9 C -2,2 C 34 % 94 % 1025,5 hPa 0,0 l/m 6,4 km/h (2 Bft) W-NW 292 0 min 0,000 mm 0,0 UV-I 0 W/m -3,0 C -2,2 C 11,3 km/h (2 Bft) 100,00 %
20.02.2020 03:01 15,9 C -2,2 C 34 % 94 % 1025,6 hPa 0,0 l/m 6,4 km/h (2 Bft) W-NW 292 0 min 0,000 mm 0,0 UV-I 0 W/m -3,0 C -2,2 C 11,3 km/h (2 Bft) 100,00 %
20.02.2020 03:00 15,9 C -2,1 C 34 % 94 % 1025,6 hPa 0,0 l/m 4,8 km/h (1 Bft) W-NW 292 0 min 0,000 mm 0,0 UV-I 0 W/m -2,9 C -2,1 C 8,0 km/h (2 Bft) 100,00 %
20.02.2020 02:59 15,9 C -2,2 C 34 % 94 % 1025,6 hPa 0,0 l/m 6,4 km/h (2 Bft) W-NW 292 0 min 0,000 mm 0,0 UV-I 0 W/m -3,0 C -2,2 C 8,0 km/h (2 Bft) 100,00 %
20.02.2020 02:58 15,9 C -2,1 C 34 % 94 % 1025,6 hPa 0,0 l/m 6,4 km/h (2 Bft) W-NW 292 0 min 0,000 mm 0,0 UV-I 0 W/m -2,9 C -2,1 C 8,0 km/h (2 Bft) 95,65 %
20.02.2020 02:57 15,9 C -2,1 C 34 % 94 % 1025,6 hPa 0,0 l/m 4,8 km/h (1 Bft) W-NW 292 0 min 0,000 mm 0,0 UV-I 0 W/m -2,9 C -2,1 C 6,4 km/h (2 Bft) 100,00 %
20.02.2020 02:56 15,9 C -2,1 C 34 % 94 % 1025,6 hPa 0,0 l/m 4,8 km/h (1 Bft) NW 315 0 min 0,000 mm 0,0 UV-I 0 W/m -2,9 C -2,1 C 8,0 km/h (2 Bft) 95,65 %
20.02.2020 02:55 15,9 C -2,0 C 34 % 94 % 1025,6 hPa 0,0 l/m 6,4 km/h (2 Bft) W-NW 292 0 min 0,000 mm 0,0 UV-I 0 W/m -2,8 C -2,0 C 11,3 km/h (2 Bft) 95,65 %
20.02.2020 02:54 15,9 C -2,1 C 34 % 94 % 1025,6 hPa 0,0 l/m 4,8 km/h (1 Bft) W-NW 292 0 min 0,000 mm 0,0 UV-I 0 W/m -2,9 C -2,1 C 8,0 km/h (2 Bft) 100,00 %
20.02.2020 02:53 15,9 C -1,9 C 34 % 94 % 1025,6 hPa 0,0 l/m 6,4 km/h (2 Bft) NW 315 0 min 0,000 mm 0,0 UV-I 0 W/m -2,7 C -1,9 C 12,9 km/h (3 Bft) 100,00 %
20.02.2020 02:52 15,9 C -1,9 C 34 % 94 % 1025,6 hPa 0,0 l/m 6,4 km/h (2 Bft) W 270 0 min 0,000 mm 0,0 UV-I 0 W/m -2,7 C -1,9 C 8,0 km/h (2 Bft) 100,00 %
20.02.2020 02:51 15,9 C -1,9 C 34 % 94 % 1025,6 hPa 0,0 l/m 4,8 km/h (1 Bft) W-NW 292 0 min 0,000 mm 0,0 UV-I 0 W/m -2,7 C -1,9 C 9,7 km/h (2 Bft) 100,00 %
20.02.2020 02:50 15,9 C -1,9 C 34 % 94 % 1025,7 hPa 0,0 l/m 3,2 km/h (1 Bft) W-NW 292 0 min 0,000 mm 0,0 UV-I 0 W/m -2,7 C -1,9 C 6,4 km/h (2 Bft) 100,00 %
20.02.2020 02:49 15,9 C -1,9 C 34 % 94 % 1025,7 hPa 0,0 l/m 6,4 km/h (2 Bft) W-NW 292 0 min 0,000 mm 0,0 UV-I 0 W/m -2,7 C -1,9 C 8,0 km/h (2 Bft) 100,00 %
20.02.2020 02:48 15,9 C -1,9 C 34 % 94 % 1025,7 hPa 0,0 l/m 8,0 km/h (2 Bft) W-NW 292 0 min 0,000 mm 0,0 UV-I 0 W/m -2,7 C -3,6 C 14,5 km/h (3 Bft) 100,00 %
20.02.2020 02:47 15,9 C -1,8 C 34 % 94 % 1025,5 hPa 0,0 l/m 6,4 km/h (2 Bft) NW 315 0 min 0,000 mm 0,0 UV-I 0 W/m -2,6 C -1,8 C 11,3 km/h (2 Bft) 100,00 %
20.02.2020 02:46 15,9 C -1,8 C 34 % 94 % 1025,6 hPa 0,0 l/m 6,4 km/h (2 Bft) W-NW 292 0 min 0,000 mm 0,0 UV-I 0 W/m -2,6 C -1,8 C 9,7 km/h (2 Bft) 95,65 %
20.02.2020 02:45 15,9 C -1,8 C 34 % 94 % 1025,6 hPa 0,0 l/m 8,0 km/h (2 Bft) W 270 0 min 0,000 mm 0,0 UV-I 0 W/m -2,6 C -3,5 C 16,1 km/h (3 Bft) 100,00 %
20.02.2020 02:44 15,9 C -1,8 C 34 % 94 % 1025,6 hPa 0,0 l/m 4,8 km/h (1 Bft) W-NW 292 0 min 0,000 mm 0,0 UV-I 0 W/m -2,6 C -1,8 C 8,0 km/h (2 Bft) 100,00 %
20.02.2020 02:43 15,9 C -1,8 C 34 % 94 % 1025,6 hPa 0,0 l/m 8,0 km/h (2 Bft) W 270 0 min 0,000 mm 0,0 UV-I 0 W/m -2,6 C -3,5 C 11,3 km/h (2 Bft) 95,65 %
20.02.2020 02:42 16,0 C -1,8 C 34 % 94 % 1025,6 hPa 0,0 l/m 8,0 km/h (2 Bft) W-NW 292 0 min 0,000 mm 0,0 UV-I 0 W/m -2,6 C -3,5 C 11,3 km/h (2 Bft) 100,00 %
20.02.2020 02:41 15,9 C -1,8 C 34 % 94 % 1025,6 hPa 0,0 l/m 8,0 km/h (2 Bft) W 270 0 min 0,000 mm 0,0 UV-I 0 W/m -2,6 C -3,5 C 11,3 km/h (2 Bft) 100,00 %
20.02.2020 02:40 15,9 C -1,8 C 34 % 94 % 1025,6 hPa 0,0 l/m 8,0 km/h (2 Bft) W-NW 292 0 min 0,000 mm 0,0 UV-I 0 W/m -2,6 C -3,5 C 9,7 km/h (2 Bft) 100,00 %
20.02.2020 02:39 16,0 C -1,8 C 34 % 94 % 1025,5 hPa 0,0 l/m 4,8 km/h (1 Bft) W-NW 292 0 min 0,000 mm 0,0 UV-I 0 W/m -2,6 C -1,8 C 9,7 km/h (2 Bft) 95,65 %
20.02.2020 02:38 15,9 C -1,8 C 34 % 94 % 1025,6 hPa 0,0 l/m 4,8 km/h (1 Bft) W 270 0 min 0,000 mm 0,0 UV-I 0 W/m -2,6 C -1,8 C 6,4 km/h (2 Bft) 100,00 %
20.02.2020 02:37 15,9 C -1,9 C 34 % 94 % 1025,6 hPa 0,0 l/m 6,4 km/h (2 Bft) NW 315 0 min 0,000 mm 0,0 UV-I 0 W/m -2,7 C -1,9 C 9,7 km/h (2 Bft) 100,00 %
20.02.2020 02:36 16,0 C -1,8 C 34 % 94 % 1025,6 hPa 0,0 l/m 6,4 km/h (2 Bft) W-NW 292 0 min 0,000 mm 0,0 UV-I 0 W/m -2,6 C -1,8 C 9,7 km/h (2 Bft) 100,00 %
20.02.2020 02:35 15,9 C -1,8 C 34 % 94 % 1025,5 hPa 0,0 l/m 4,8 km/h (1 Bft) W 270 0 min 0,000 mm 0,0 UV-I 0 W/m -2,6 C -1,8 C 8,0 km/h (2 Bft) 100,00 %
20.02.2020 02:34 15,9 C -1,8 C 34 % 94 % 1025,5 hPa 0,0 l/m 3,2 km/h (1 Bft) W 270 0 min 0,000 mm 0,0 UV-I 0 W/m -2,6 C -1,8 C 6,4 km/h (2 Bft) 95,65 %
20.02.2020 02:33 15,9 C -1,8 C 34 % 94 % 1025,6 hPa 0,0 l/m 8,0 km/h (2 Bft) W-NW 292 0 min 0,000 mm 0,0 UV-I 0 W/m -2,6 C -3,5 C 11,3 km/h (2 Bft) 100,00 %
20.02.2020 02:32 16,0 C -1,8 C 34 % 94 % 1025,6 hPa 0,0 l/m 4,8 km/h (1 Bft) W-NW 292 0 min 0,000 mm 0,0 UV-I 0 W/m -2,6 C -1,8 C 9,7 km/h (2 Bft) 100,00 %
20.02.2020 02:31 15,9 C -1,8 C 34 % 94 % 1025,7 hPa 0,0 l/m 6,4 km/h (2 Bft) W-NW 292 0 min 0,000 mm 0,0 UV-I 0 W/m -2,6 C -1,8 C 12,9 km/h (3 Bft) 100,00 %
20.02.2020 02:30 15,9 C -1,8 C 34 % 94 % 1025,6 hPa 0,0 l/m 6,4 km/h (2 Bft) NW 315 0 min 0,000 mm 0,0 UV-I 0 W/m -2,6 C -1,8 C 8,0 km/h (2 Bft) 100,00 %
20.02.2020 02:29 15,9 C -1,8 C 34 % 94 % 1025,6 hPa 0,0 l/m 8,0 km/h (2 Bft) W 270 0 min 0,000 mm 0,0 UV-I 0 W/m -2,6 C -3,5 C 22,5 km/h (4 Bft) 91,30 %
20.02.2020 02:28 16,0 C -1,8 C 34 % 94 % 1025,6 hPa 0,0 l/m 6,4 km/h (2 Bft) W-NW 292 0 min 0,000 mm 0,0 UV-I 0 W/m -2,6 C -1,8 C 12,9 km/h (3 Bft) 100,00 %
20.02.2020 02:27 16,0 C -1,8 C 34 % 94 % 1025,6 hPa 0,0 l/m 9,7 km/h (2 Bft) W-NW 292 0 min 0,000 mm 0,0 UV-I 0 W/m -2,6 C -5,2 C 22,5 km/h (4 Bft) 100,00 %
20.02.2020 02:26 16,0 C -1,8 C 34 % 94 % 1025,6 hPa 0,0 l/m 8,0 km/h (2 Bft) W-NW 292 0 min 0,000 mm 0,0 UV-I 0 W/m -2,6 C -3,5 C 11,3 km/h (2 Bft) 100,00 %
20.02.2020 02:25 16,0 C -1,8 C 34 % 94 % 1025,6 hPa 0,0 l/m 8,0 km/h (2 Bft) W-NW 292 0 min 0,000 mm 0,0 UV-I 0 W/m -2,6 C -3,5 C 9,7 km/h (2 Bft) 100,00 %
20.02.2020 02:24 15,9 C -1,8 C 34 % 94 % 1025,6 hPa 0,0 l/m 6,4 km/h (2 Bft) W-NW 292 0 min 0,000 mm 0,0 UV-I 0 W/m -2,6 C -1,8 C 11,3 km/h (2 Bft) 100,00 %
20.02.2020 02:23 16,0 C -1,8 C 34 % 94 % 1025,7 hPa 0,0 l/m 8,0 km/h (2 Bft) W-NW 292 0 min 0,000 mm 0,0 UV-I 0 W/m -2,6 C -3,5 C 14,5 km/h (3 Bft) 100,00 %
20.02.2020 02:22 16,0 C -1,8 C 34 % 94 % 1025,7 hPa 0,0 l/m 8,0 km/h (2 Bft) W 270 0 min 0,000 mm 0,0 UV-I 0 W/m -2,6 C -3,5 C 11,3 km/h (2 Bft) 95,65 %
20.02.2020 02:21 16,0 C -1,8 C 34 % 94 % 1025,7 hPa 0,0 l/m 6,4 km/h (2 Bft) W-NW 292 0 min 0,000 mm 0,0 UV-I 0 W/m -2,6 C -1,8 C 9,7 km/h (2 Bft) 100,00 %
20.02.2020 02:20 16,0 C -1,8 C 34 % 94 % 1025,7 hPa 0,0 l/m 8,0 km/h (2 Bft) W-NW 292 0 min 0,000 mm 0,0 UV-I 0 W/m -2,6 C -3,5 C 9,7 km/h (2 Bft) 95,65 %
20.02.2020 02:19 15,9 C -1,8 C 34 % 94 % 1025,7 hPa 0,0 l/m 8,0 km/h (2 Bft) NW 315 0 min 0,000 mm 0,0 UV-I 0 W/m -2,6 C -3,5 C 14,5 km/h (3 Bft) 100,00 %
20.02.2020 02:18 16,0 C -1,7 C 34 % 94 % 1025,7 hPa 0,0 l/m 6,4 km/h (2 Bft) W 270 0 min 0,000 mm 0,0 UV-I 0 W/m -2,5 C -1,7 C 9,7 km/h (2 Bft) 100,00 %
20.02.2020 02:17 15,9 C -1,8 C 34 % 94 % 1025,7 hPa 0,0 l/m 6,4 km/h (2 Bft) W-NW 292 0 min 0,000 mm 0,0 UV-I 0 W/m -2,6 C -1,8 C 9,7 km/h (2 Bft) 100,00 %
20.02.2020 02:16 16,0 C -1,8 C 34 % 94 % 1025,6 hPa 0,0 l/m 4,8 km/h (1 Bft) W-NW 292 0 min 0,000 mm 0,0 UV-I 0 W/m -2,6 C -1,8 C 8,0 km/h (2 Bft) 100,00 %
20.02.2020 02:15 15,9 C -1,7 C 34 % 94 % 1025,7 hPa 0,0 l/m 8,0 km/h (2 Bft) W-NW 292 0 min 0,000 mm 0,0 UV-I 0 W/m -2,5 C -3,4 C 9,7 km/h (2 Bft) 100,00 %
20.02.2020 02:14 16,0 C -1,7 C 34 % 94 % 1025,7 hPa 0,0 l/m 6,4 km/h (2 Bft) W-NW 292 0 min 0,000 mm 0,0 UV-I 0 W/m -2,5 C -1,7 C 8,0 km/h (2 Bft) 100,00 %
20.02.2020 02:13 16,0 C -1,7 C 34 % 94 % 1025,7 hPa 0,0 l/m 6,4 km/h (2 Bft) W-NW 292 0 min 0,000 mm 0,0 UV-I 0 W/m -2,5 C -1,7 C 11,3 km/h (2 Bft) 100,00 %
20.02.2020 02:12 15,9 C -1,7 C 34 % 94 % 1025,8 hPa 0,0 l/m 8,0 km/h (2 Bft) W-NW 292 0 min 0,000 mm 0,0 UV-I 0 W/m -2,5 C -3,4 C 11,3 km/h (2 Bft) 95,65 %
20.02.2020 02:11 15,9 C -1,7 C 34 % 94 % 1025,8 hPa 0,0 l/m 9,7 km/h (2 Bft) W-NW 292 0 min 0,000 mm 0,0 UV-I 0 W/m -2,5 C -5,1 C 11,3 km/h (2 Bft) 100,00 %
20.02.2020 02:10 16,0 C -1,7 C 34 % 94 % 1025,8 hPa 0,0 l/m 9,7 km/h (2 Bft) W 270 0 min 0,000 mm 0,0 UV-I 0 W/m -2,5 C -5,1 C 12,9 km/h (3 Bft) 100,00 %
20.02.2020 02:09 16,0 C -1,7 C 34 % 94 % 1025,9 hPa 0,0 l/m 9,7 km/h (2 Bft) W-NW 292 0 min 0,000 mm 0,0 UV-I 0 W/m -2,5 C -5,1 C 14,5 km/h (3 Bft) 100,00 %
20.02.2020 02:08 16,0 C -1,7 C 34 % 94 % 1025,9 hPa 0,0 l/m 6,4 km/h (2 Bft) W-NW 292 0 min 0,000 mm 0,0 UV-I 0 W/m -2,5 C -1,7 C 9,7 km/h (2 Bft) 100,00 %
20.02.2020 02:07 16,0 C -1,7 C 34 % 94 % 1025,9 hPa 0,0 l/m 8,0 km/h (2 Bft) NW 315 0 min 0,000 mm 0,0 UV-I 0 W/m -2,5 C -3,4 C 14,5 km/h (3 Bft) 100,00 %
20.02.2020 02:06 16,0 C -1,7 C 34 % 94 % 1025,9 hPa 0,0 l/m 8,0 km/h (2 Bft) W-NW 292 0 min 0,000 mm 0,0 UV-I 0 W/m -2,5 C -3,4 C 14,5 km/h (3 Bft) 100,00 %
20.02.2020 02:05 16,0 C -1,7 C 34 % 94 % 1026,0 hPa 0,0 l/m 8,0 km/h (2 Bft) W-NW 292 0 min 0,000 mm 0,0 UV-I 0 W/m -2,5 C -3,4 C 12,9 km/h (3 Bft) 95,65 %
20.02.2020 02:04 16,0 C -1,7 C 34 % 94 % 1025,9 hPa 0,0 l/m 9,7 km/h (2 Bft) W-NW 292 0 min 0,000 mm 0,0 UV-I 0 W/m -2,5 C -5,1 C 14,5 km/h (3 Bft) 100,00 %
20.02.2020 02:03 16,0 C -1,7 C 34 % 94 % 1025,9 hPa 0,0 l/m 9,7 km/h (2 Bft) W-NW 292 0 min 0,000 mm 0,0 UV-I 0 W/m -2,5 C -5,1 C 12,9 km/h (3 Bft) 100,00 %
20.02.2020 02:02 16,0 C -1,7 C 34 % 94 % 1025,9 hPa 0,0 l/m 8,0 km/h (2 Bft) W 270 0 min 0,000 mm 0,0 UV-I 0 W/m -2,5 C -3,4 C 9,7 km/h (2 Bft) 100,00 %
20.02.2020 02:01 16,0 C -1,7 C 34 % 94 % 1025,8 hPa 0,0 l/m 6,4 km/h (2 Bft) W-NW 292 0 min 0,000 mm 0,0 UV-I 0 W/m -2,5 C -1,7 C 8,0 km/h (2 Bft) 100,00 %
20.02.2020 02:00 16,0 C -1,7 C 34 % 94 % 1025,9 hPa 0,0 l/m 8,0 km/h (2 Bft) W-NW 292 0 min 0,000 mm 0,0 UV-I 0 W/m -2,5 C -3,4 C 17,7 km/h (3 Bft) 100,00 %
20.02.2020 01:59 16,0 C -1,6 C 34 % 94 % 1025,9 hPa 0,0 l/m 9,7 km/h (2 Bft) W-NW 292 0 min 0,000 mm 0,0 UV-I 0 W/m -2,4 C -5,0 C 17,7 km/h (3 Bft) 100,00 %
20.02.2020 01:58 16,0 C -1,6 C 34 % 94 % 1025,9 hPa 0,0 l/m 9,7 km/h (2 Bft) W-NW 292 0 min 0,000 mm 0,0 UV-I 0 W/m -2,4 C -5,0 C 14,5 km/h (3 Bft) 95,65 %
20.02.2020 01:57 15,9 C -1,7 C 34 % 94 % 1025,9 hPa 0,0 l/m 8,0 km/h (2 Bft) NW 315 0 min 0,000 mm 0,0 UV-I 0 W/m -2,5 C -3,4 C 12,9 km/h (3 Bft) 95,65 %
20.02.2020 01:56 15,9 C -1,7 C 34 % 94 % 1025,9 hPa 0,0 l/m 6,4 km/h (2 Bft) W-NW 292 0 min 0,000 mm 0,0 UV-I 0 W/m -2,5 C -1,7 C 9,7 km/h (2 Bft) 100,00 %
20.02.2020 01:55 16,0 C -1,6 C 34 % 94 % 1025,9 hPa 0,0 l/m 9,7 km/h (2 Bft) W-NW 292 0 min 0,000 mm 0,0 UV-I 0 W/m -2,4 C -5,0 C 12,9 km/h (3 Bft) 100,00 %
20.02.2020 01:54 16,0 C -1,6 C 34 % 94 % 1025,9 hPa 0,0 l/m 8,0 km/h (2 Bft) W 270 0 min 0,000 mm 0,0 UV-I 0 W/m -2,4 C -3,3 C 12,9 km/h (3 Bft) 100,00 %
20.02.2020 01:53 16,0 C -1,6 C 34 % 94 % 1025,9 hPa 0,0 l/m 6,4 km/h (2 Bft) W-NW 292 0 min 0,000 mm 0,0 UV-I 0 W/m -2,4 C -1,6 C 9,7 km/h (2 Bft) 91,30 %
20.02.2020 01:52 16,0 C -1,6 C 34 % 94 % 1025,9 hPa 0,0 l/m 6,4 km/h (2 Bft) W-NW 292 0 min 0,000 mm 0,0 UV-I 0 W/m -2,4 C -1,6 C 8,0 km/h (2 Bft) 100,00 %
20.02.2020 01:51 16,0 C -1,6 C 34 % 94 % 1025,9 hPa 0,0 l/m 6,4 km/h (2 Bft) W-NW 292 0 min 0,000 mm 0,0 UV-I 0 W/m -2,4 C -1,6 C 9,7 km/h (2 Bft) 95,65 %
20.02.2020 01:50 15,9 C -1,6 C 34 % 94 % 1025,9 hPa 0,0 l/m 8,0 km/h (2 Bft) W-NW 292 0 min 0,000 mm 0,0 UV-I 0 W/m -2,4 C -3,3 C 9,7 km/h (2 Bft) 91,30 %
20.02.2020 01:49 16,0 C -1,6 C 34 % 94 % 1025,9 hPa 0,0 l/m 6,4 km/h (2 Bft) W 270 0 min 0,000 mm 0,0 UV-I 0 W/m -2,4 C -1,6 C 8,0 km/h (2 Bft) 100,00 %
20.02.2020 01:48 16,0 C -1,7 C 34 % 94 % 1025,9 hPa 0,0 l/m 8,0 km/h (2 Bft) W 270 0 min 0,000 mm 0,0 UV-I 0 W/m -2,5 C -3,4 C 12,9 km/h (3 Bft) 95,65 %
20.02.2020 01:47 16,0 C -1,6 C 34 % 94 % 1026,0 hPa 0,0 l/m 6,4 km/h (2 Bft) W 270 0 min 0,000 mm 0,0 UV-I 0 W/m -2,4 C -1,6 C 11,3 km/h (2 Bft) 100,00 %
20.02.2020 01:46 16,0 C -1,6 C 34 % 94 % 1025,9 hPa 0,0 l/m 6,4 km/h (2 Bft) W-NW 292 0 min 0,000 mm 0,0 UV-I 0 W/m -2,4 C -1,6 C 8,0 km/h (2 Bft) 100,00 %
20.02.2020 01:45 16,0 C -1,6 C 34 % 94 % 1026,0 hPa 0,0 l/m 9,7 km/h (2 Bft) W-NW 292 0 min 0,000 mm 0,0 UV-I 0 W/m -2,4 C -5,0 C 12,9 km/h (3 Bft) 100,00 %
20.02.2020 01:44 15,9 C -1,6 C 34 % 94 % 1025,9 hPa 0,0 l/m 9,7 km/h (2 Bft) W-NW 292 0 min 0,000 mm 0,0 UV-I 0 W/m -2,4 C -5,0 C 17,7 km/h (3 Bft) 100,00 %
20.02.2020 01:43 16,0 C -1,6 C 34 % 94 % 1025,8 hPa 0,0 l/m 8,0 km/h (2 Bft) W-NW 292 0 min 0,000 mm 0,0 UV-I 0 W/m -2,4 C -3,3 C 9,7 km/h (2 Bft) 100,00 %
20.02.2020 01:42 16,0 C -1,7 C 34 % 94 % 1025,9 hPa 0,0 l/m 6,4 km/h (2 Bft) W-NW 292 0 min 0,000 mm 0,0 UV-I 0 W/m -2,5 C -1,7 C 9,7 km/h (2 Bft) 100,00 %
20.02.2020 01:41 16,0 C -1,6 C 34 % 94 % 1026,0 hPa 0,0 l/m 8,0 km/h (2 Bft) W-NW 292 0 min 0,000 mm 0,0 UV-I 0 W/m -2,4 C -3,3 C 11,3 km/h (2 Bft) 100,00 %
20.02.2020 01:40 15,9 C -1,6 C 34 % 94 % 1025,8 hPa 0,0 l/m 8,0 km/h (2 Bft) W-NW 292 0 min 0,000 mm 0,0 UV-I 0 W/m -2,4 C -3,3 C 11,3 km/h (2 Bft) 100,00 %
20.02.2020 01:39 16,0 C -1,6 C 34 % 94 % 1025,9 hPa 0,0 l/m 8,0 km/h (2 Bft) W-NW 292 0 min 0,000 mm 0,0 UV-I 0 W/m -2,4 C -3,3 C 11,3 km/h (2 Bft) 100,00 %
20.02.2020 01:38 16,0 C -1,7 C 34 % 94 % 1025,9 hPa 0,0 l/m 6,4 km/h (2 Bft) W 270 0 min 0,000 mm 0,0 UV-I 0 W/m -2,5 C -1,7 C 9,7 km/h (2 Bft) 100,00 %
20.02.2020 01:37 16,0 C -1,7 C 34 % 94 % 1025,8 hPa 0,0 l/m 3,2 km/h (1 Bft) W-NW 292 0 min 0,000 mm 0,0 UV-I 0 W/m -2,5 C -1,7 C 4,8 km/h (1 Bft) 100,00 %
20.02.2020 01:36 16,0 C -1,7 C 34 % 94 % 1025,9 hPa 0,0 l/m 8,0 km/h (2 Bft) W-NW 292 0 min 0,000 mm 0,0 UV-I 0 W/m -2,5 C -3,4 C 9,7 km/h (2 Bft) 100,00 %
20.02.2020 01:35 16,0 C -1,6 C 34 % 94 % 1025,9 hPa 0,0 l/m 8,0 km/h (2 Bft) W 270 0 min 0,000 mm 0,0 UV-I 0 W/m -2,4 C -3,3 C 12,9 km/h (3 Bft) 95,65 %
20.02.2020 01:34 16,0 C -1,6 C 34 % 94 % 1025,9 hPa 0,0 l/m 8,0 km/h (2 Bft) W-NW 292 0 min 0,000 mm 0,0 UV-I 0 W/m -2,4 C -3,3 C 12,9 km/h (3 Bft) 100,00 %
20.02.2020 01:33 16,0 C -1,7 C 34 % 94 % 1025,9 hPa 0,0 l/m 6,4 km/h (2 Bft) W-NW 292 0 min 0,000 mm 0,0 UV-I 0 W/m -2,5 C -1,7 C 9,7 km/h (2 Bft) 100,00 %
20.02.2020 01:32 16,0 C -1,6 C 34 % 94 % 1025,8 hPa 0,0 l/m 6,4 km/h (2 Bft) W 270 0 min 0,000 mm 0,0 UV-I 0 W/m -2,4 C -1,6 C 9,7 km/h (2 Bft) 100,00 %
20.02.2020 01:31 16,0 C -1,7 C 34 % 94 % 1025,9 hPa 0,0 l/m 8,0 km/h (2 Bft) W-NW 292 0 min 0,000 mm 0,0 UV-I 0 W/m -2,5 C -3,4 C 11,3 km/h (2 Bft) 100,00 %
20.02.2020 01:30 16,0 C -1,7 C 34 % 94 % 1025,9 hPa 0,0 l/m 6,4 km/h (2 Bft) W 270 0 min 0,000 mm 0,0 UV-I 0 W/m -2,5 C -1,7 C 11,3 km/h (2 Bft) 100,00 %
20.02.2020 01:29 16,0 C -1,6 C 34 % 94 % 1025,8 hPa 0,0 l/m 6,4 km/h (2 Bft) NW 315 0 min 0,000 mm 0,0 UV-I 0 W/m -2,4 C -1,6 C 8,0 km/h (2 Bft) 95,65 %
20.02.2020 01:28 16,0 C -1,7 C 34 % 94 % 1025,8 hPa 0,0 l/m 6,4 km/h (2 Bft) W 270 0 min 0,000 mm 0,0 UV-I 0 W/m -2,5 C -1,7 C 8,0 km/h (2 Bft) 100,00 %
20.02.2020 01:27 16,0 C -1,7 C 34 % 94 % 1025,9 hPa 0,0 l/m 8,0 km/h (2 Bft) W-NW 292 0 min 0,000 mm 0,0 UV-I 0 W/m -2,5 C -3,4 C 11,3 km/h (2 Bft) 95,65 %
20.02.2020 01:26 16,0 C -1,7 C 34 % 94 % 1025,9 hPa 0,0 l/m 6,4 km/h (2 Bft) W 270 0 min 0,000 mm 0,0 UV-I 0 W/m -2,5 C -1,7 C 9,7 km/h (2 Bft) 95,65 %
20.02.2020 01:25 16,0 C -1,7 C 34 % 94 % 1025,9 hPa 0,0 l/m 8,0 km/h (2 Bft) W-NW 292 0 min 0,000 mm 0,0 UV-I 0 W/m -2,5 C -3,4 C 11,3 km/h (2 Bft) 100,00 %
20.02.2020 01:24 16,0 C -1,7 C 34 % 94 % 1025,9 hPa 0,0 l/m 8,0 km/h (2 Bft) W-NW 292 0 min 0,000 mm 0,0 UV-I 0 W/m -2,5 C -3,4 C 11,3 km/h (2 Bft) 95,65 %
20.02.2020 01:23 16,0 C -1,7 C 34 % 94 % 1025,7 hPa 0,0 l/m 4,8 km/h (1 Bft) NW 315 0 min 0,000 mm 0,0 UV-I 0 W/m -2,5 C -1,7 C 9,7 km/h (2 Bft) 100,00 %
20.02.2020 01:22 16,0 C -1,7 C 34 % 94 % 1025,8 hPa 0,0 l/m 6,4 km/h (2 Bft) W 270 0 min 0,000 mm 0,0 UV-I 0 W/m -2,5 C -1,7 C 11,3 km/h (2 Bft) 95,65 %
20.02.2020 01:21 16,0 C -1,7 C 34 % 94 % 1025,8 hPa 0,0 l/m 6,4 km/h (2 Bft) W-NW 292 0 min 0,000 mm 0,0 UV-I 0 W/m -2,5 C -1,7 C 8,0 km/h (2 Bft) 95,65 %
20.02.2020 01:20 16,0 C -1,7 C 34 % 94 % 1025,7 hPa 0,0 l/m 4,8 km/h (1 Bft) W-NW 292 0 min 0,000 mm 0,0 UV-I 0 W/m -2,5 C -1,7 C 8,0 km/h (2 Bft) 100,00 %
20.02.2020 01:19 16,0 C -1,7 C 34 % 94 % 1025,6 hPa 0,0 l/m 6,4 km/h (2 Bft) NW 315 0 min 0,000 mm 0,0 UV-I 0 W/m -2,5 C -1,7 C 9,7 km/h (2 Bft) 100,00 %
20.02.2020 01:18 16,0 C -1,7 C 34 % 94 % 1025,7 hPa 0,0 l/m 8,0 km/h (2 Bft) W-NW 292 0 min 0,000 mm 0,0 UV-I 0 W/m -2,5 C -3,4 C 11,3 km/h (2 Bft) 100,00 %
20.02.2020 01:17 16,0 C -1,7 C 34 % 94 % 1025,7 hPa 0,0 l/m 8,0 km/h (2 Bft) W 270 0 min 0,000 mm 0,0 UV-I 0 W/m -2,5 C -3,4 C 11,3 km/h (2 Bft) 100,00 %
20.02.2020 01:16 16,0 C -1,7 C 34 % 94 % 1025,7 hPa 0,0 l/m 8,0 km/h (2 Bft) W-NW 292 0 min 0,000 mm 0,0 UV-I 0 W/m -2,5 C -3,4 C 12,9 km/h (3 Bft) 95,65 %
20.02.2020 01:15 16,0 C -1,7 C 34 % 94 % 1025,7 hPa 0,0 l/m 6,4 km/h (2 Bft) W-NW 292 0 min 0,000 mm 0,0 UV-I 0 W/m -2,5 C -1,7 C 9,7 km/h (2 Bft) 100,00 %
20.02.2020 01:14 16,0 C -1,7 C 34 % 94 % 1025,8 hPa 0,0 l/m 6,4 km/h (2 Bft) W-NW 292 0 min 0,000 mm 0,0 UV-I 0 W/m -2,5 C -1,7 C 9,7 km/h (2 Bft) 100,00 %
20.02.2020 01:13 16,0 C -1,7 C 34 % 94 % 1025,8 hPa 0,0 l/m 8,0 km/h (2 Bft) W-NW 292 0 min 0,000 mm 0,0 UV-I 0 W/m -2,5 C -3,4 C 12,9 km/h (3 Bft) 100,00 %
20.02.2020 01:12 16,0 C -1,7 C 34 % 94 % 1025,8 hPa 0,0 l/m 8,0 km/h (2 Bft) W-NW 292 0 min 0,000 mm 0,0 UV-I 0 W/m -2,5 C -3,4 C 9,7 km/h (2 Bft) 95,65 %
20.02.2020 01:11 16,0 C -1,7 C 34 % 94 % 1025,7 hPa 0,0 l/m 6,4 km/h (2 Bft) W-NW 292 0 min 0,000 mm 0,0 UV-I 0 W/m -2,5 C -1,7 C 9,7 km/h (2 Bft) 100,00 %
20.02.2020 01:10 16,0 C -1,6 C 34 % 94 % 1025,7 hPa 0,0 l/m 8,0 km/h (2 Bft) W 270 0 min 0,000 mm 0,0 UV-I 0 W/m -2,4 C -3,3 C 11,3 km/h (2 Bft) 100,00 %
20.02.2020 01:09 16,0 C -1,7 C 34 % 94 % 1025,7 hPa 0,0 l/m 6,4 km/h (2 Bft) W 270 0 min 0,000 mm 0,0 UV-I 0 W/m -2,5 C -1,7 C 9,7 km/h (2 Bft) 100,00 %
20.02.2020 01:08 16,0 C -1,6 C 34 % 94 % 1025,7 hPa 0,0 l/m 8,0 km/h (2 Bft) W-NW 292 0 min 0,000 mm 0,0 UV-I 0 W/m -2,4 C -3,3 C 9,7 km/h (2 Bft) 100,00 %
20.02.2020 01:07 16,0 C -1,7 C 34 % 94 % 1025,7 hPa 0,0 l/m 6,4 km/h (2 Bft) W-NW 292 0 min 0,000 mm 0,0 UV-I 0 W/m -2,5 C -1,7 C 8,0 km/h (2 Bft) 100,00 %
20.02.2020 01:06 16,0 C -1,7 C 34 % 94 % 1025,7 hPa 0,0 l/m 8,0 km/h (2 Bft) W-NW 292 0 min 0,000 mm 0,0 UV-I 0 W/m -2,5 C -3,4 C 12,9 km/h (3 Bft) 100,00 %
20.02.2020 01:05 16,0 C -1,7 C 34 % 94 % 1025,8 hPa 0,0 l/m 4,8 km/h (1 Bft) W-NW 292 0 min 0,000 mm 0,0 UV-I 0 W/m -2,5 C -1,7 C 8,0 km/h (2 Bft) 95,65 %
20.02.2020 01:04 16,0 C -1,7 C 34 % 94 % 1025,7 hPa 0,0 l/m 4,8 km/h (1 Bft) W 270 0 min 0,000 mm 0,0 UV-I 0 W/m -2,5 C -1,7 C 9,7 km/h (2 Bft) 100,00 %
20.02.2020 01:03 16,0 C -1,6 C 34 % 94 % 1025,7 hPa 0,0 l/m 8,0 km/h (2 Bft) W-NW 292 0 min 0,000 mm 0,0 UV-I 0 W/m -2,4 C -3,3 C 11,3 km/h (2 Bft) 100,00 %
20.02.2020 01:02 16,0 C -1,7 C 34 % 94 % 1025,6 hPa 0,0 l/m 4,8 km/h (1 Bft) W-NW 292 0 min 0,000 mm 0,0 UV-I 0 W/m -2,5 C -1,7 C 8,0 km/h (2 Bft) 100,00 %
20.02.2020 01:01 16,0 C -1,7 C 34 % 94 % 1025,6 hPa 0,0 l/m 8,0 km/h (2 Bft) W-NW 292 0 min 0,000 mm 0,0 UV-I 0 W/m -2,5 C -3,4 C 11,3 km/h (2 Bft) 100,00 %
20.02.2020 01:00 16,0 C -1,7 C 34 % 94 % 1025,7 hPa 0,0 l/m 4,8 km/h (1 Bft) W-NW 292 0 min 0,000 mm 0,0 UV-I 0 W/m -2,5 C -1,7 C 8,0 km/h (2 Bft) 95,65 %
20.02.2020 00:59 16,0 C -1,7 C 34 % 94 % 1025,9 hPa 0,0 l/m 8,0 km/h (2 Bft) NW 315 0 min 0,000 mm 0,0 UV-I 0 W/m -2,5 C -3,4 C 9,7 km/h (2 Bft) 100,00 %
20.02.2020 00:58 16,0 C -1,7 C 34 % 94 % 1025,8 hPa 0,0 l/m 6,4 km/h (2 Bft) W-NW 292 0 min 0,000 mm 0,0 UV-I 0 W/m -2,5 C -1,7 C 9,7 km/h (2 Bft) 95,65 %
20.02.2020 00:57 16,0 C -1,6 C 34 % 94 % 1025,8 hPa 0,0 l/m 8,0 km/h (2 Bft) W 270 0 min 0,000 mm 0,0 UV-I 0 W/m -2,4 C -3,3 C 11,3 km/h (2 Bft) 100,00 %
20.02.2020 00:56 16,0 C -1,6 C 34 % 94 % 1025,7 hPa 0,0 l/m 8,0 km/h (2 Bft) W-NW 292 0 min 0,000 mm 0,0 UV-I 0 W/m -2,4 C -3,3 C 11,3 km/h (2 Bft) 100,00 %
20.02.2020 00:55 16,0 C -1,6 C 34 % 94 % 1025,8 hPa 0,0 l/m 8,0 km/h (2 Bft) NW 315 0 min 0,000 mm 0,0 UV-I 0 W/m -2,4 C -3,3 C 12,9 km/h (3 Bft) 100,00 %
20.02.2020 00:54 16,0 C -1,7 C 34 % 94 % 1025,8 hPa 0,0 l/m 8,0 km/h (2 Bft) W-NW 292 0 min 0,000 mm 0,0 UV-I 0 W/m -2,5 C -3,4 C 16,1 km/h (3 Bft) 95,65 %
20.02.2020 00:53 16,0 C -1,6 C 34 % 94 % 1025,7 hPa 0,0 l/m 8,0 km/h (2 Bft) W-NW 292 0 min 0,000 mm 0,0 UV-I 0 W/m -2,4 C -3,3 C 11,3 km/h (2 Bft) 100,00 %
20.02.2020 00:52 16,0 C -1,7 C 34 % 94 % 1025,7 hPa 0,0 l/m 6,4 km/h (2 Bft) W-NW 292 0 min 0,000 mm 0,0 UV-I 0 W/m -2,5 C -1,7 C 8,0 km/h (2 Bft) 100,00 %
20.02.2020 00:51 16,0 C -1,7 C 34 % 94 % 1025,8 hPa 0,0 l/m 8,0 km/h (2 Bft) W-NW 292 0 min 0,000 mm 0,0 UV-I 0 W/m -2,5 C -3,4 C 9,7 km/h (2 Bft) 100,00 %
20.02.2020 00:50 16,0 C -1,7 C 34 % 94 % 1025,7 hPa 0,0 l/m 6,4 km/h (2 Bft) W-NW 292 0 min 0,000 mm 0,0 UV-I 0 W/m -2,5 C -1,7 C 9,7 km/h (2 Bft) 100,00 %
20.02.2020 00:49 16,1 C -1,7 C 34 % 94 % 1025,7 hPa 0,0 l/m 6,4 km/h (2 Bft) W-NW 292 0 min 0,000 mm 0,0 UV-I 0 W/m -2,5 C -1,7 C 8,0 km/h (2 Bft) 100,00 %
20.02.2020 00:48 16,0 C -1,7 C 34 % 94 % 1025,8 hPa 0,0 l/m 6,4 km/h (2 Bft) W-NW 292 0 min 0,000 mm 0,0 UV-I 0 W/m -2,5 C -1,7 C 8,0 km/h (2 Bft) 95,65 %
20.02.2020 00:47 16,0 C -1,6 C 34 % 94 % 1025,8 hPa 0,0 l/m 6,4 km/h (2 Bft) W-NW 292 0 min 0,000 mm 0,0 UV-I 0 W/m -2,4 C -1,6 C 11,3 km/h (2 Bft) 100,00 %
20.02.2020 00:46 16,0 C -1,6 C 34 % 94 % 1025,7 hPa 0,0 l/m 6,4 km/h (2 Bft) W-NW 292 0 min 0,000 mm 0,0 UV-I 0 W/m -2,4 C -1,6 C 11,3 km/h (2 Bft) 100,00 %
20.02.2020 00:45 16,0 C -1,7 C 34 % 94 % 1025,7 hPa 0,0 l/m 6,4 km/h (2 Bft) W 270 0 min 0,000 mm 0,0 UV-I 0 W/m -2,5 C -1,7 C 9,7 km/h (2 Bft) 100,00 %
20.02.2020 00:44 16,0 C -1,6 C 34 % 94 % 1025,7 hPa 0,0 l/m 4,8 km/h (1 Bft) W-NW 292 0 min 0,000 mm 0,0 UV-I 0 W/m -2,4 C -1,6 C 8,0 km/h (2 Bft) 100,00 %
20.02.2020 00:43 16,0 C -1,6 C 34 % 94 % 1025,8 hPa 0,0 l/m 6,4 km/h (2 Bft) W 270 0 min 0,000 mm 0,0 UV-I 0 W/m -2,4 C -1,6 C 9,7 km/h (2 Bft) 95,65 %
20.02.2020 00:42 16,0 C -1,6 C 34 % 94 % 1025,8 hPa 0,0 l/m 4,8 km/h (1 Bft) W-NW 292 0 min 0,000 mm 0,0 UV-I 0 W/m -2,4 C -1,6 C 6,4 km/h (2 Bft) 100,00 %
20.02.2020 00:41 16,0 C -1,6 C 34 % 94 % 1025,7 hPa 0,0 l/m 4,8 km/h (1 Bft) W-NW 292 0 min 0,000 mm 0,0 UV-I 0 W/m -2,4 C -1,6 C 8,0 km/h (2 Bft) 100,00 %
20.02.2020 00:40 16,0 C -1,6 C 34 % 94 % 1025,7 hPa 0,0 l/m 4,8 km/h (1 Bft) W-NW 292 0 min 0,000 mm 0,0 UV-I 0 W/m -2,4 C -1,6 C 8,0 km/h (2 Bft) 100,00 %
20.02.2020 00:39 16,0 C -1,6 C 34 % 94 % 1025,9 hPa 0,0 l/m 4,8 km/h (1 Bft) NW 315 0 min 0,000 mm 0,0 UV-I 0 W/m -2,4 C -1,6 C 9,7 km/h (2 Bft) 100,00 %
20.02.2020 00:38 16,0 C -1,6 C 34 % 94 % 1025,8 hPa 0,0 l/m 6,4 km/h (2 Bft) NW 315 0 min 0,000 mm 0,0 UV-I 0 W/m -2,4 C -1,6 C 9,7 km/h (2 Bft) 95,65 %
20.02.2020 00:37 16,0 C -1,6 C 34 % 94 % 1025,7 hPa 0,0 l/m 4,8 km/h (1 Bft) NW 315 0 min 0,000 mm 0,0 UV-I 0 W/m -2,4 C -1,6 C 8,0 km/h (2 Bft) 100,00 %
20.02.2020 00:36 16,0 C -1,6 C 34 % 94 % 1025,7 hPa 0,0 l/m 3,2 km/h (1 Bft) N-NW 337 0 min 0,000 mm 0,0 UV-I 0 W/m -2,4 C -1,6 C 4,8 km/h (1 Bft) 100,00 %
20.02.2020 00:35 16,0 C -1,6 C 34 % 94 % 1025,8 hPa 0,0 l/m 4,8 km/h (1 Bft) W 270 0 min 0,000 mm 0,0 UV-I 0 W/m -2,4 C -1,6 C 4,8 km/h (1 Bft) 100,00 %
20.02.2020 00:34 16,0 C -1,6 C 34 % 94 % 1025,7 hPa 0,0 l/m 3,2 km/h (1 Bft) NW 315 0 min 0,000 mm 0,0 UV-I 0 W/m -2,4 C -1,6 C 4,8 km/h (1 Bft) 95,65 %
20.02.2020 00:33 16,0 C -1,6 C 34 % 94 % 1025,8 hPa 0,0 l/m 3,2 km/h (1 Bft) N-NW 337 0 min 0,000 mm 0,0 UV-I 0 W/m -2,4 C -1,6 C 4,8 km/h (1 Bft) 100,00 %
20.02.2020 00:32 16,0 C -1,6 C 34 % 94 % 1025,7 hPa 0,0 l/m 1,6 km/h (1 Bft) NW 315 0 min 0,000 mm 0,0 UV-I 0 W/m -2,4 C -1,6 C 3,2 km/h (1 Bft) 100,00 %
20.02.2020 00:31 16,0 C -1,6 C 34 % 94 % 1025,7 hPa 0,0 l/m 1,6 km/h (1 Bft) W-NW 292 0 min 0,000 mm 0,0 UV-I 0 W/m -2,4 C -1,6 C 3,2 km/h (1 Bft) 100,00 %
20.02.2020 00:30 16,0 C -1,6 C 34 % 94 % 1025,7 hPa 0,0 l/m 3,2 km/h (1 Bft) W-NW 292 0 min 0,000 mm 0,0 UV-I 0 W/m -2,4 C -1,6 C 4,8 km/h (1 Bft) 100,00 %
20.02.2020 00:29 16,0 C -1,6 C 34 % 94 % 1025,7 hPa 0,0 l/m 4,8 km/h (1 Bft) W-NW 292 0 min 0,000 mm 0,0 UV-I 0 W/m -2,4 C -1,6 C 8,0 km/h (2 Bft) 95,65 %
20.02.2020 00:28 16,0 C -1,6 C 34 % 94 % 1025,7 hPa 0,0 l/m 1,6 km/h (1 Bft) W-NW 292 0 min 0,000 mm 0,0 UV-I 0 W/m -2,4 C -1,6 C 3,2 km/h (1 Bft) 100,00 %
20.02.2020 00:27 16,0 C -1,6 C 34 % 94 % 1025,7 hPa 0,0 l/m 3,2 km/h (1 Bft) W-NW 292 0 min 0,000 mm 0,0 UV-I 0 W/m -2,4 C -1,6 C 8,0 km/h (2 Bft) 100,00 %
20.02.2020 00:26 16,0 C -1,7 C 34 % 94 % 1025,6 hPa 0,0 l/m 4,8 km/h (1 Bft) W-NW 292 0 min 0,000 mm 0,0 UV-I 0 W/m -2,5 C -1,7 C 6,4 km/h (2 Bft) 100,00 %
20.02.2020 00:25 16,0 C -1,6 C 34 % 94 % 1025,6 hPa 0,0 l/m 3,2 km/h (1 Bft) W-NW 292 0 min 0,000 mm 0,0 UV-I 0 W/m -2,4 C -1,6 C 4,8 km/h (1 Bft) 100,00 %
20.02.2020 00:24 16,0 C -1,6 C 34 % 94 % 1025,6 hPa 0,0 l/m 4,8 km/h (1 Bft) N-NW 337 0 min 0,000 mm 0,0 UV-I 0 W/m -2,4 C -1,6 C 6,4 km/h (2 Bft) 100,00 %
20.02.2020 00:23 16,0 C -1,6 C 34 % 94 % 1025,6 hPa 0,0 l/m 6,4 km/h (2 Bft) W 270 0 min 0,000 mm 0,0 UV-I 0 W/m -2,4 C -1,6 C 8,0 km/h (2 Bft) 100,00 %
20.02.2020 00:22 16,1 C -1,6 C 34 % 94 % 1025,6 hPa 0,0 l/m 6,4 km/h (2 Bft) W-NW 292 0 min 0,000 mm 0,0 UV-I 0 W/m -2,4 C -1,6 C 9,7 km/h (2 Bft) 100,00 %
20.02.2020 00:21 16,0 C -1,6 C 34 % 94 % 1025,7 hPa 0,0 l/m 4,8 km/h (1 Bft) W-NW 292 0 min 0,000 mm 0,0 UV-I 0 W/m -2,4 C -1,6 C 9,7 km/h (2 Bft) 100,00 %
20.02.2020 00:20 16,0 C -1,6 C 34 % 94 % 1025,6 hPa 0,0 l/m 6,4 km/h (2 Bft) W-NW 292 0 min 0,000 mm 0,0 UV-I 0 W/m -2,4 C -1,6 C 11,3 km/h (2 Bft) 100,00 %
20.02.2020 00:19 16,0 C -1,6 C 34 % 94 % 1025,6 hPa 0,0 l/m 6,4 km/h (2 Bft) W-NW 292 0 min 0,000 mm 0,0 UV-I 0 W/m -2,4 C -1,6 C 9,7 km/h (2 Bft) 95,65 %
20.02.2020 00:18 16,0 C -1,6 C 34 % 94 % 1025,6 hPa 0,0 l/m 8,0 km/h (2 Bft) NW 315 0 min 0,000 mm 0,0 UV-I 0 W/m -2,4 C -3,3 C 12,9 km/h (3 Bft) 95,65 %
20.02.2020 00:17 16,0 C -1,6 C 34 % 94 % 1025,6 hPa 0,0 l/m 6,4 km/h (2 Bft) W-NW 292 0 min 0,000 mm 0,0 UV-I 0 W/m -2,4 C -1,6 C 11,3 km/h (2 Bft) 100,00 %
20.02.2020 00:16 16,1 C -1,6 C 34 % 94 % 1025,6 hPa 0,0 l/m 6,4 km/h (2 Bft) W 270 0 min 0,000 mm 0,0 UV-I 0 W/m -2,4 C -1,6 C 9,7 km/h (2 Bft) 95,65 %
20.02.2020 00:15 16,0 C -1,6 C 34 % 94 % 1025,6 hPa 0,0 l/m 8,0 km/h (2 Bft) W-NW 292 0 min 0,000 mm 0,0 UV-I 0 W/m -2,4 C -3,3 C 12,9 km/h (3 Bft) 100,00 %
20.02.2020 00:14 16,0 C -1,6 C 34 % 94 % 1025,5 hPa 0,0 l/m 6,4 km/h (2 Bft) NW 315 0 min 0,000 mm 0,0 UV-I 0 W/m -2,4 C -1,6 C 9,7 km/h (2 Bft) 100,00 %
20.02.2020 00:13 16,0 C -1,6 C 34 % 94 % 1025,5 hPa 0,0 l/m 4,8 km/h (1 Bft) W-NW 292 0 min 0,000 mm 0,0 UV-I 0 W/m -2,4 C -1,6 C 8,0 km/h (2 Bft) 100,00 %
20.02.2020 00:12 16,1 C -1,6 C 34 % 94 % 1025,6 hPa 0,0 l/m 6,4 km/h (2 Bft) W 270 0 min 0,000 mm 0,0 UV-I 0 W/m -2,4 C -1,6 C 11,3 km/h (2 Bft) 100,00 %
20.02.2020 00:11 16,0 C -1,6 C 34 % 94 % 1025,5 hPa 0,0 l/m 6,4 km/h (2 Bft) NW 315 0 min 0,000 mm 0,0 UV-I 0 W/m -2,4 C -1,6 C 11,3 km/h (2 Bft) 100,00 %
20.02.2020 00:10 16,1 C -1,6 C 34 % 94 % 1025,5 hPa 0,0 l/m 6,4 km/h (2 Bft) NW 315 0 min 0,000 mm 0,0 UV-I 0 W/m -2,4 C -1,6 C 12,9 km/h (3 Bft) 95,65 %
20.02.2020 00:09 16,0 C -1,6 C 34 % 94 % 1025,5 hPa 0,0 l/m 4,8 km/h (1 Bft) NW 315 0 min 0,000 mm 0,0 UV-I 0 W/m -2,4 C -1,6 C 6,4 km/h (2 Bft) 100,00 %
20.02.2020 00:08 16,1 C -1,6 C 34 % 94 % 1025,4 hPa 0,0 l/m 6,4 km/h (2 Bft) W-NW 292 0 min 0,000 mm 0,0 UV-I 0 W/m -2,4 C -1,6 C 11,3 km/h (2 Bft) 100,00 %
20.02.2020 00:07 16,1 C -1,6 C 34 % 94 % 1025,4 hPa 0,0 l/m 4,8 km/h (1 Bft) W-NW 292 0 min 0,000 mm 0,0 UV-I 0 W/m -2,4 C -1,6 C 6,4 km/h (2 Bft) 100,00 %
20.02.2020 00:06 16,0 C -1,6 C 34 % 94 % 1025,5 hPa 0,0 l/m 4,8 km/h (1 Bft) NW 315 0 min 0,000 mm 0,0 UV-I 0 W/m -2,4 C -1,6 C 8,0 km/h (2 Bft) 100,00 %
20.02.2020 00:05 16,0 C -1,6 C 34 % 94 % 1025,5 hPa 0,0 l/m 8,0 km/h (2 Bft) W-NW 292 0 min 0,000 mm 0,0 UV-I 0 W/m -2,4 C -3,3 C 12,9 km/h (3 Bft) 100,00 %
20.02.2020 00:04 16,1 C -1,6 C 34 % 94 % 1025,4 hPa 0,0 l/m 6,4 km/h (2 Bft) W-NW 292 0 min 0,000 mm 0,0 UV-I 0 W/m -2,4 C -1,6 C 9,7 km/h (2 Bft) 95,65 %
20.02.2020 00:03 16,1 C -1,6 C 34 % 94 % 1025,4 hPa 0,0 l/m 6,4 km/h (2 Bft) W-NW 292 0 min 0,000 mm 0,0 UV-I 0 W/m -2,4 C -1,6 C 9,7 km/h (2 Bft) 100,00 %
20.02.2020 00:02 16,0 C -1,6 C 34 % 94 % 1025,4 hPa 0,0 l/m 6,4 km/h (2 Bft) W-NW 292 0 min 0,000 mm 0,0 UV-I 0 W/m -2,4 C -1,6 C 8,0 km/h (2 Bft) 95,65 %
20.02.2020 00:01 16,1 C -1,6 C 34 % 94 % 1025,4 hPa 0,0 l/m 8,0 km/h (2 Bft) NW 315 0 min 0,000 mm 0,0 UV-I 0 W/m -2,4 C -3,3 C 14,5 km/h (3 Bft) 95,65 %
20.02.2020 00:00 16,1 C -1,6 C 34 % 94 % 1025,4 hPa 0,0 l/m 9,7 km/h (2 Bft) W 270 0 min 0,000 mm 0,0 UV-I 0 W/m -2,4 C -5,0 C 14,5 km/h (3 Bft) 100,00 %
_ Min-Zeit 01:40 06:45 00:00 22:10 21:50 - 04:23 - - - - - - 06:45 02:27 04:30 16:08
Minimum _ 15,9 C -3,2 C 34 % 78 % 1020,5 hPa - 0,0 km/h (0 Bft) - - - - - - -4,2 C -5,2 C 0,0 km/h (0 Bft) 60,87 %
_ Max-Zeit 15:11 15:00 16:53 00:00 08:40 13:21 13:53 - - 08:41 15:00 12:47 14:53 15:01 15:00 02:27 00:00
Maximum _ 17,6 C 2,3 C 35 % 94 % 1026,8 hPa 0,2 l/m 12,9 km/h
W-NW (3 Bft)
- - 1 min 0,127 mm 1,5 UV-I 520 W/m -0,1 C 2,3 C 22,5 km/h
W-NW (4 Bft)
100,00 %
Durchschnitt _ 16,4 C -0,4 C 34 % 90 % 1024,7 hPa #2,8 l/m 4,9 km/h (1 Bft) W-NW - #3:21 h #0,507 mm 0,9 UV-I 125 W/m -1,9 C -0,8 C 7,5 km/h (2 Bft) 96,66 %